<?xml version='1.0' encoding='UTF-8'?><gpx version="1.1" creator="JPX - https://github.com/jenetics/jpx" xmlns="http://www.topografix.com/GPX/1/1"><trk><trkseg><trkpt lat="43.353964163525646" lon="11.910847630255494"><ele>318.5</ele><time>2026-03-29T08:24:48.001Z</time></trkpt><trkpt lat="43.353989139098374" lon="11.910932101524265"><ele>318.0</ele><time>2026-03-29T08:24:50.001Z</time></trkpt><trkpt lat="43.35402882027358" lon="11.911029383855592"><ele>317.5</ele><time>2026-03-29T08:24:52.001Z</time></trkpt><trkpt lat="43.35405389383776" lon="11.911148293029525"><ele>317.0</ele><time>2026-03-29T08:24:54.001Z</time></trkpt><trkpt lat="43.35407242164698" lon="11.91126222376293"><ele>316.5</ele><time>2026-03-29T08:24:56.001Z</time></trkpt><trkpt lat="43.35410217867269" lon="11.911371109987213"><ele>316.0</ele><time>2026-03-29T08:24:58.001Z</time></trkpt><trkpt lat="43.35413555294766" lon="11.911484252750041"><ele>316.0</ele><time>2026-03-29T08:25:00.001Z</time></trkpt><trkpt lat="43.35416462927598" lon="11.911609837456643"><ele>316.0</ele><time>2026-03-29T08:25:02.001Z</time></trkpt><trkpt lat="43.354173463178654" lon="11.911742898561343"><ele>316.0</ele><time>2026-03-29T08:25:04.001Z</time></trkpt><trkpt lat="43.35415284955973" lon="11.911860256822045"><ele>316.0</ele><time>2026-03-29T08:25:06.001Z</time></trkpt><trkpt lat="43.35414704029824" lon="11.911950994334607"><ele>316.0</ele><time>2026-03-29T08:25:08.001Z</time></trkpt><trkpt lat="43.35414870090005" lon="11.912041636083105"><ele>316.0</ele><time>2026-03-29T08:25:11.001Z</time></trkpt><trkpt lat="43.35411655315085" lon="11.91195806990121"><ele>316.0</ele><time>2026-03-29T08:25:13.001Z</time></trkpt><trkpt lat="43.35409924685669" lon="11.911856663369734"><ele>316.0</ele><time>2026-03-29T08:25:15.001Z</time></trkpt><trkpt lat="43.35407273608868" lon="11.91174854507029"><ele>316.0</ele><time>2026-03-29T08:25:17.001Z</time></trkpt><trkpt lat="43.35402879194616" lon="11.911625126007722"><ele>316.0</ele><time>2026-03-29T08:25:19.001Z</time></trkpt><trkpt lat="43.35400914024987" lon="11.911525698162214"><ele>316.0</ele><time>2026-03-29T08:25:21.001Z</time></trkpt><trkpt lat="43.35398784197122" lon="11.911435228041594"><ele>316.0</ele><time>2026-03-29T08:25:23.001Z</time></trkpt><trkpt lat="43.35396485994224" lon="11.911339547160843"><ele>316.0</ele><time>2026-03-29T08:25:25.001Z</time></trkpt><trkpt lat="43.35393004065435" lon="11.91122795271713"><ele>316.0</ele><time>2026-03-29T08:25:27.001Z</time></trkpt><trkpt lat="43.35387795380173" lon="11.911096047666476"><ele>316.0</ele><time>2026-03-29T08:25:29.001Z</time></trkpt><trkpt lat="43.35384001423208" lon="11.911020116502462"><ele>316.0</ele><time>2026-03-29T08:25:30.001Z</time></trkpt><trkpt lat="43.353807705975996" lon="11.910943207680756"><ele>316.0</ele><time>2026-03-29T08:25:31.001Z</time></trkpt><trkpt lat="43.35377332015338" lon="11.910866315052518"><ele>316.0</ele><time>2026-03-29T08:25:32.001Z</time></trkpt><trkpt lat="43.35374201794448" lon="11.910790397785984"><ele>313.7142857142857</ele><time>2026-03-29T08:25:33.001Z</time></trkpt><trkpt lat="43.353711513546024" lon="11.910709245798298"><ele>311.42857142857144</ele><time>2026-03-29T08:25:34.001Z</time></trkpt><trkpt lat="43.35368506665147" lon="11.91062794305561"><ele>309.1428571428571</ele><time>2026-03-29T08:25:35.002Z</time></trkpt><trkpt lat="43.35365849048245" lon="11.910545436134171"><ele>306.8571428571429</ele><time>2026-03-29T08:25:36.002Z</time></trkpt><trkpt lat="43.353632156710816" lon="11.910461270825435"><ele>304.57142857142856</ele><time>2026-03-29T08:25:37.002Z</time></trkpt><trkpt lat="43.35360503056887" lon="11.9103759423146"><ele>302.2857142857143</ele><time>2026-03-29T08:25:38.003Z</time></trkpt><trkpt lat="43.35357526399326" lon="11.910294712920026"><ele>300.0</ele><time>2026-03-29T08:25:39.003Z</time></trkpt><trkpt lat="43.35354360811217" lon="11.910209608643397"><ele>300.0</ele><time>2026-03-29T08:25:40.003Z</time></trkpt><trkpt lat="43.35350702192107" lon="11.910129101202676"><ele>300.0</ele><time>2026-03-29T08:25:41.002Z</time></trkpt><trkpt lat="43.3534753092506" lon="11.910040238923134"><ele>300.0</ele><time>2026-03-29T08:25:42.002Z</time></trkpt><trkpt lat="43.35342944890283" lon="11.909876770523681"><ele>300.0</ele><time>2026-03-29T08:25:44.002Z</time></trkpt><trkpt lat="43.35340606599235" lon="11.909790740273772"><ele>300.0</ele><time>2026-03-29T08:25:45.002Z</time></trkpt><trkpt lat="43.353380165727174" lon="11.90970296529921"><ele>300.0</ele><time>2026-03-29T08:25:46.002Z</time></trkpt><trkpt lat="43.35335627846082" lon="11.909619903548009"><ele>300.4285714285714</ele><time>2026-03-29T08:25:47.002Z</time></trkpt><trkpt lat="43.353330064572916" lon="11.909540104996797"><ele>300.85714285714283</ele><time>2026-03-29T08:25:48.002Z</time></trkpt><trkpt lat="43.35330949026952" lon="11.909455898626938"><ele>301.2857142857143</ele><time>2026-03-29T08:25:49.002Z</time></trkpt><trkpt lat="43.35328977824536" lon="11.909370611692381"><ele>301.71428571428567</ele><time>2026-03-29T08:25:50.002Z</time></trkpt><trkpt lat="43.35326908438414" lon="11.909285483369434"><ele>302.1428571428571</ele><time>2026-03-29T08:25:51.002Z</time></trkpt><trkpt lat="43.35323731005862" lon="11.909197610974314"><ele>302.57142857142856</ele><time>2026-03-29T08:25:52.002Z</time></trkpt><trkpt lat="43.35320469890294" lon="11.909115909984667"><ele>303.0</ele><time>2026-03-29T08:25:53.002Z</time></trkpt><trkpt lat="43.353157143812545" lon="11.908970084000556"><ele>303.2</ele><time>2026-03-29T08:25:55.002Z</time></trkpt><trkpt lat="43.35311312412985" lon="11.90885063358034"><ele>303.4</ele><time>2026-03-29T08:25:57.002Z</time></trkpt><trkpt lat="43.35305259344796" lon="11.90876607025799"><ele>303.59999999999997</ele><time>2026-03-29T08:25:59.002Z</time></trkpt><trkpt lat="43.35299004610104" lon="11.908667038920788"><ele>303.8</ele><time>2026-03-29T08:26:01.001Z</time></trkpt><trkpt lat="43.35294099870161" lon="11.9085676548901"><ele>304.0</ele><time>2026-03-29T08:26:03.001Z</time></trkpt><trkpt lat="43.352879559391475" lon="11.908464298439911"><ele>301.4</ele><time>2026-03-29T08:26:06.001Z</time></trkpt><trkpt lat="43.35285338343217" lon="11.90835913550764"><ele>298.79999999999995</ele><time>2026-03-29T08:26:08.001Z</time></trkpt><trkpt lat="43.35282303183252" lon="11.908208803121065"><ele>296.20000000000005</ele><time>2026-03-29T08:26:10.001Z</time></trkpt><trkpt lat="43.352793062443666" lon="11.908029170056814"><ele>293.6</ele><time>2026-03-29T08:26:12.001Z</time></trkpt><trkpt lat="43.35276557539387" lon="11.907935566676446"><ele>291.0</ele><time>2026-03-29T08:26:13.001Z</time></trkpt><trkpt lat="43.35274154101673" lon="11.907845335125858"><ele>291.0</ele><time>2026-03-29T08:26:14.001Z</time></trkpt><trkpt lat="43.3527188411297" lon="11.907757872302405"><ele>291.0</ele><time>2026-03-29T08:26:15.001Z</time></trkpt><trkpt lat="43.352684624145084" lon="11.907606681126078"><ele>291.0</ele><time>2026-03-29T08:26:17.001Z</time></trkpt><trkpt lat="43.352666368894795" lon="11.90746947943123"><ele>291.0</ele><time>2026-03-29T08:26:19.001Z</time></trkpt><trkpt lat="43.35266385095014" lon="11.907313432018176"><ele>291.0</ele><time>2026-03-29T08:26:21.001Z</time></trkpt><trkpt lat="43.35267645318357" lon="11.907167713471324"><ele>291.2</ele><time>2026-03-29T08:26:23.001Z</time></trkpt><trkpt lat="43.35271596542959" lon="11.907008415578055"><ele>291.40000000000003</ele><time>2026-03-29T08:26:25.001Z</time></trkpt><trkpt lat="43.35272195265523" lon="11.906835202147361"><ele>291.6</ele><time>2026-03-29T08:26:27.001Z</time></trkpt><trkpt lat="43.35271144241421" lon="11.906738430569058"><ele>291.8</ele><time>2026-03-29T08:26:28.001Z</time></trkpt><trkpt lat="43.35267465860461" lon="11.906644510719035"><ele>292.0</ele><time>2026-03-29T08:26:29.001Z</time></trkpt><trkpt lat="43.35262671873618" lon="11.90654966869909"><ele>290.8</ele><time>2026-03-29T08:26:30.001Z</time></trkpt><trkpt lat="43.35257820248135" lon="11.906444578537213"><ele>289.6</ele><time>2026-03-29T08:26:31.001Z</time></trkpt><trkpt lat="43.35252563550862" lon="11.90633390898879"><ele>288.40000000000003</ele><time>2026-03-29T08:26:32.001Z</time></trkpt><trkpt lat="43.35246771766705" lon="11.906228511279224"><ele>287.2</ele><time>2026-03-29T08:26:33.001Z</time></trkpt><trkpt lat="43.35240422289582" lon="11.90612473748022"><ele>286.0</ele><time>2026-03-29T08:26:34.001Z</time></trkpt><trkpt lat="43.35233995884553" lon="11.906026737522968"><ele>286.0</ele><time>2026-03-29T08:26:35.001Z</time></trkpt><trkpt lat="43.35227686064357" lon="11.905930701256887"><ele>286.0</ele><time>2026-03-29T08:26:36.001Z</time></trkpt><trkpt lat="43.35221403828116" lon="11.905844882183267"><ele>286.0</ele><time>2026-03-29T08:26:37.001Z</time></trkpt><trkpt lat="43.35217055388415" lon="11.905754270945192"><ele>286.0</ele><time>2026-03-29T08:26:38.001Z</time></trkpt><trkpt lat="43.35212126064514" lon="11.905679497470462"><ele>286.0</ele><time>2026-03-29T08:26:39.001Z</time></trkpt><trkpt lat="43.352042700694625" lon="11.90559623282347"><ele>286.0</ele><time>2026-03-29T08:26:41.001Z</time></trkpt><trkpt lat="43.35200899469715" lon="11.905516314441467"><ele>285.2</ele><time>2026-03-29T08:26:45.001Z</time></trkpt><trkpt lat="43.35186118658352" lon="11.905609782303413"><ele>284.40000000000003</ele><time>2026-03-29T08:26:51.001Z</time></trkpt><trkpt lat="43.35181333460151" lon="11.905689592573774"><ele>283.6</ele><time>2026-03-29T08:26:52.001Z</time></trkpt><trkpt lat="43.35176235540324" lon="11.905774018625396"><ele>282.8</ele><time>2026-03-29T08:26:53.001Z</time></trkpt><trkpt lat="43.351716972092554" lon="11.905847689123036"><ele>282.0</ele><time>2026-03-29T08:26:54.001Z</time></trkpt><trkpt lat="43.351655194275956" lon="11.90594193823933"><ele>282.0</ele><time>2026-03-29T08:26:55.001Z</time></trkpt><trkpt lat="43.3516007121509" lon="11.906042489081315"><ele>282.0</ele><time>2026-03-29T08:26:56.001Z</time></trkpt><trkpt lat="43.351548561862614" lon="11.906127509536933"><ele>282.0</ele><time>2026-03-29T08:26:57.001Z</time></trkpt><trkpt lat="43.351500758132715" lon="11.90619465738189"><ele>282.0</ele><time>2026-03-29T08:26:58.001Z</time></trkpt><trkpt lat="43.35140657831476" lon="11.906270393749345"><ele>282.0</ele><time>2026-03-29T08:27:00.001Z</time></trkpt><trkpt lat="43.35129047456932" lon="11.906226788230715"><ele>281.3333333333333</ele><time>2026-03-29T08:27:02.001Z</time></trkpt><trkpt lat="43.35125610556198" lon="11.90613878082193"><ele>280.6666666666667</ele><time>2026-03-29T08:27:03.001Z</time></trkpt><trkpt lat="43.35120202420461" lon="11.906061214590201"><ele>280.0</ele><time>2026-03-29T08:27:04.001Z</time></trkpt><trkpt lat="43.351135376019656" lon="11.905977917900248"><ele>279.33333333333337</ele><time>2026-03-29T08:27:05.001Z</time></trkpt><trkpt lat="43.35106669414439" lon="11.905887331854554"><ele>278.6666666666667</ele><time>2026-03-29T08:27:06.001Z</time></trkpt><trkpt lat="43.35099107914575" lon="11.905800536035276"><ele>278.0</ele><time>2026-03-29T08:27:07.001Z</time></trkpt><trkpt lat="43.35091584509596" lon="11.90569613058717"><ele>278.0</ele><time>2026-03-29T08:27:08.001Z</time></trkpt><trkpt lat="43.35082579652026" lon="11.905600643668215"><ele>278.0</ele><time>2026-03-29T08:27:09.001Z</time></trkpt><trkpt lat="43.350749311488904" lon="11.90550349832969"><ele>278.0</ele><time>2026-03-29T08:27:10.001Z</time></trkpt><trkpt lat="43.35067033907354" lon="11.905404633882947"><ele>278.0</ele><time>2026-03-29T08:27:11.001Z</time></trkpt><trkpt lat="43.350585103328065" lon="11.905303470251733"><ele>278.0</ele><time>2026-03-29T08:27:12.001Z</time></trkpt><trkpt lat="43.35049815336072" lon="11.905205708464765"><ele>277.4</ele><time>2026-03-29T08:27:13.001Z</time></trkpt><trkpt lat="43.35040966378688" lon="11.905111701667796"><ele>276.8</ele><time>2026-03-29T08:27:14.001Z</time></trkpt><trkpt lat="43.3503207138194" lon="11.9050238251975"><ele>276.2</ele><time>2026-03-29T08:27:15.001Z</time></trkpt><trkpt lat="43.350223246169776" lon="11.904948735691248"><ele>275.6</ele><time>2026-03-29T08:27:16.001Z</time></trkpt><trkpt lat="43.350122303678816" lon="11.904883451121504"><ele>275.0</ele><time>2026-03-29T08:27:17.001Z</time></trkpt><trkpt lat="43.35001987595266" lon="11.904821850305591"><ele>274.6</ele><time>2026-03-29T08:27:18.001Z</time></trkpt><trkpt lat="43.349919923018795" lon="11.904769197056028"><ele>274.2</ele><time>2026-03-29T08:27:19.001Z</time></trkpt><trkpt lat="43.349817575391945" lon="11.904723005475198"><ele>273.8</ele><time>2026-03-29T08:27:20.001Z</time></trkpt><trkpt lat="43.34971676417915" lon="11.904667240994065"><ele>273.4</ele><time>2026-03-29T08:27:21.001Z</time></trkpt><trkpt lat="43.34961989355933" lon="11.904600852369253"><ele>273.0</ele><time>2026-03-29T08:27:22.001Z</time></trkpt><trkpt lat="43.349526836782466" lon="11.904526404957348"><ele>272.4</ele><time>2026-03-29T08:27:23.001Z</time></trkpt><trkpt lat="43.34943698478553" lon="11.904441282224692"><ele>271.8</ele><time>2026-03-29T08:27:24.001Z</time></trkpt><trkpt lat="43.34934698041484" lon="11.904353479616827"><ele>271.2</ele><time>2026-03-29T08:27:25.001Z</time></trkpt><trkpt lat="43.34925464789562" lon="11.904268060843807"><ele>270.6</ele><time>2026-03-29T08:27:26.001Z</time></trkpt><trkpt lat="43.34916260380739" lon="11.904184655345075"><ele>270.0</ele><time>2026-03-29T08:27:27.001Z</time></trkpt><trkpt lat="43.349071578705534" lon="11.904103411837312"><ele>270.0</ele><time>2026-03-29T08:27:28.001Z</time></trkpt><trkpt lat="43.348979031269295" lon="11.904022056726612"><ele>270.0</ele><time>2026-03-29T08:27:29.001Z</time></trkpt><trkpt lat="43.34888838927945" lon="11.903940997683158"><ele>270.0</ele><time>2026-03-29T08:27:30.001Z</time></trkpt><trkpt lat="43.34879699608812" lon="11.903860707604297"><ele>270.0</ele><time>2026-03-29T08:27:31.001Z</time></trkpt><trkpt lat="43.34870673778442" lon="11.903782400958992"><ele>270.0</ele><time>2026-03-29T08:27:32.001Z</time></trkpt><trkpt lat="43.348623524916114" lon="11.903709347518157"><ele>270.0</ele><time>2026-03-29T08:27:33.001Z</time></trkpt><trkpt lat="43.34856451179713" lon="11.903646277276543"><ele>270.0</ele><time>2026-03-29T08:27:34.001Z</time></trkpt><trkpt lat="43.34851948863102" lon="11.903582238930392"><ele>270.0</ele><time>2026-03-29T08:27:35.001Z</time></trkpt><trkpt lat="43.34848265482048" lon="11.903511067611825"><ele>270.0</ele><time>2026-03-29T08:27:36.001Z</time></trkpt><trkpt lat="43.34843090855778" lon="11.903389642996022"><ele>270.0</ele><time>2026-03-29T08:27:38.001Z</time></trkpt><trkpt lat="43.348473941680425" lon="11.903234244248887"><ele>270.0</ele><time>2026-03-29T08:27:40.001Z</time></trkpt><trkpt lat="43.34850508715484" lon="11.903139894702143"><ele>270.0</ele><time>2026-03-29T08:27:41.001Z</time></trkpt><trkpt lat="43.348535732902135" lon="11.903034711930246"><ele>270.0</ele><time>2026-03-29T08:27:42.001Z</time></trkpt><trkpt lat="43.34857596761667" lon="11.90292617553335"><ele>270.0</ele><time>2026-03-29T08:27:43.001Z</time></trkpt><trkpt lat="43.348615125313465" lon="11.902813539022402"><ele>270.0</ele><time>2026-03-29T08:27:44.002Z</time></trkpt><trkpt lat="43.3486569409281" lon="11.902704992088687"><ele>270.0</ele><time>2026-03-29T08:27:45.002Z</time></trkpt><trkpt lat="43.348706405226245" lon="11.902601009165314"><ele>270.0</ele><time>2026-03-29T08:27:46.002Z</time></trkpt><trkpt lat="43.34875481678517" lon="11.90249739958712"><ele>269.8</ele><time>2026-03-29T08:27:47.002Z</time></trkpt><trkpt lat="43.34880504889605" lon="11.902393936222104"><ele>269.6</ele><time>2026-03-29T08:27:48.002Z</time></trkpt><trkpt lat="43.34885424913172" lon="11.902288325123102"><ele>269.4</ele><time>2026-03-29T08:27:49.002Z</time></trkpt><trkpt lat="43.348903113031575" lon="11.902184543893839"><ele>269.2</ele><time>2026-03-29T08:27:50.002Z</time></trkpt><trkpt lat="43.34895142441753" lon="11.90207805916323"><ele>269.0</ele><time>2026-03-29T08:27:51.002Z</time></trkpt><trkpt lat="43.34899971100206" lon="11.901968202535304"><ele>269.2</ele><time>2026-03-29T08:27:52.002Z</time></trkpt><trkpt lat="43.34904400200414" lon="11.901856604661408"><ele>269.4</ele><time>2026-03-29T08:27:53.002Z</time></trkpt><trkpt lat="43.34907691063792" lon="11.901741853999887"><ele>269.6</ele><time>2026-03-29T08:27:54.002Z</time></trkpt><trkpt lat="43.34910731283183" lon="11.901618267792628"><ele>269.8</ele><time>2026-03-29T08:27:55.002Z</time></trkpt><trkpt lat="43.349142992387584" lon="11.901493146211383"><ele>270.0</ele><time>2026-03-29T08:27:56.002Z</time></trkpt><trkpt lat="43.34918117576325" lon="11.90137309699856"><ele>270.0</ele><time>2026-03-29T08:27:57.002Z</time></trkpt><trkpt lat="43.349219098862775" lon="11.901256450152369"><ele>270.0</ele><time>2026-03-29T08:27:58.002Z</time></trkpt><trkpt lat="43.34925751551213" lon="11.901144666326982"><ele>270.0</ele><time>2026-03-29T08:27:59.002Z</time></trkpt><trkpt lat="43.34929069219667" lon="11.901033558517224"><ele>270.0</ele><time>2026-03-29T08:28:00.002Z</time></trkpt><trkpt lat="43.3493340704475" lon="11.900930526020435"><ele>270.0</ele><time>2026-03-29T08:28:01.001Z</time></trkpt><trkpt lat="43.34938974394353" lon="11.900837924347137"><ele>270.0</ele><time>2026-03-29T08:28:02.001Z</time></trkpt><trkpt lat="43.34946051464469" lon="11.900763043741815"><ele>270.1666666666667</ele><time>2026-03-29T08:28:03.001Z</time></trkpt><trkpt lat="43.34953781398554" lon="11.900701367013056"><ele>270.3333333333333</ele><time>2026-03-29T08:28:04.001Z</time></trkpt><trkpt lat="43.349616491235906" lon="11.90066066818443"><ele>270.5</ele><time>2026-03-29T08:28:05.001Z</time></trkpt><trkpt lat="43.349677754113614" lon="11.900636891992637"><ele>270.66666666666663</ele><time>2026-03-29T08:28:06.001Z</time></trkpt><trkpt lat="43.34958531679381" lon="11.900608546111119"><ele>270.8333333333333</ele><time>2026-03-29T08:28:11.001Z</time></trkpt><trkpt lat="43.34952526466345" lon="11.90065937017004"><ele>271.0</ele><time>2026-03-29T08:28:12.001Z</time></trkpt><trkpt lat="43.349465172640286" lon="11.900708474667793"><ele>271.0</ele><time>2026-03-29T08:28:13.001Z</time></trkpt><trkpt lat="43.34940327942498" lon="11.900757813196888"><ele>271.0</ele><time>2026-03-29T08:28:14.001Z</time></trkpt><trkpt lat="43.349328374001935" lon="11.900733651374054"><ele>271.0</ele><time>2026-03-29T08:28:16.001Z</time></trkpt><trkpt lat="43.349326570865934" lon="11.900630275363907"><ele>271.0</ele><time>2026-03-29T08:28:18.001Z</time></trkpt><trkpt lat="43.349351861527715" lon="11.900480648755122"><ele>271.0</ele><time>2026-03-29T08:28:20.001Z</time></trkpt><trkpt lat="43.349379208712" lon="11.900310476644"><ele>271.0</ele><time>2026-03-29T08:28:22.001Z</time></trkpt><trkpt lat="43.349384322601246" lon="11.900208913247065"><ele>271.0</ele><time>2026-03-29T08:28:23.001Z</time></trkpt><trkpt lat="43.349390765251236" lon="11.900112779842726"><ele>271.0</ele><time>2026-03-29T08:28:24.001Z</time></trkpt><trkpt lat="43.34940057830896" lon="11.900014359054179"><ele>271.0</ele><time>2026-03-29T08:28:25.001Z</time></trkpt><trkpt lat="43.349410919428756" lon="11.899915341444753"><ele>271.0</ele><time>2026-03-29T08:28:26.001Z</time></trkpt><trkpt lat="43.34943659921855" lon="11.899802910681176"><ele>271.0</ele><time>2026-03-29T08:28:27.001Z</time></trkpt><trkpt lat="43.34944762497096" lon="11.89969396367782"><ele>270.8333333333333</ele><time>2026-03-29T08:28:28.001Z</time></trkpt><trkpt lat="43.34945548951777" lon="11.899587171280654"><ele>270.66666666666663</ele><time>2026-03-29T08:28:29.001Z</time></trkpt><trkpt lat="43.34945420231496" lon="11.899485134677924"><ele>270.5</ele><time>2026-03-29T08:28:30.001Z</time></trkpt><trkpt lat="43.349465044054874" lon="11.899368504123247"><ele>270.3333333333333</ele><time>2026-03-29T08:28:31.001Z</time></trkpt><trkpt lat="43.349470969353796" lon="11.89925876341817"><ele>270.1666666666667</ele><time>2026-03-29T08:28:32.001Z</time></trkpt><trkpt lat="43.3494752291054" lon="11.899150180128157"><ele>270.0</ele><time>2026-03-29T08:28:33.001Z</time></trkpt><trkpt lat="43.34948514094777" lon="11.899040872342534"><ele>269.6666666666667</ele><time>2026-03-29T08:28:34.001Z</time></trkpt><trkpt lat="43.34949247041221" lon="11.898926359937239"><ele>269.3333333333333</ele><time>2026-03-29T08:28:35.001Z</time></trkpt><trkpt lat="43.34949639106668" lon="11.89880601005475"><ele>269.0</ele><time>2026-03-29T08:28:36.001Z</time></trkpt><trkpt lat="43.34951039739834" lon="11.898687416519634"><ele>268.66666666666663</ele><time>2026-03-29T08:28:37.001Z</time></trkpt><trkpt lat="43.34951764290287" lon="11.898577285929028"><ele>268.3333333333333</ele><time>2026-03-29T08:28:38.001Z</time></trkpt><trkpt lat="43.34952035566242" lon="11.89848161525098"><ele>268.0</ele><time>2026-03-29T08:28:39.001Z</time></trkpt><trkpt lat="43.3495321029435" lon="11.89832594507555"><ele>267.6</ele><time>2026-03-29T08:28:41.001Z</time></trkpt><trkpt lat="43.34953419106851" lon="11.898211473203698"><ele>267.20000000000005</ele><time>2026-03-29T08:28:44.001Z</time></trkpt><trkpt lat="43.34954116359521" lon="11.89811539248535"><ele>266.8</ele><time>2026-03-29T08:28:46.001Z</time></trkpt><trkpt lat="43.34955247393729" lon="11.897994476648313"><ele>266.40000000000003</ele><time>2026-03-29T08:28:48.001Z</time></trkpt><trkpt lat="43.349568415387935" lon="11.897842173641338"><ele>266.0</ele><time>2026-03-29T08:28:50.001Z</time></trkpt><trkpt lat="43.34957981219045" lon="11.897687180981102"><ele>266.0</ele><time>2026-03-29T08:28:52.001Z</time></trkpt><trkpt lat="43.34961262589037" lon="11.897534868720227"><ele>266.0</ele><time>2026-03-29T08:28:54.001Z</time></trkpt><trkpt lat="43.34965686746667" lon="11.897391967899702"><ele>266.0</ele><time>2026-03-29T08:28:56.001Z</time></trkpt><trkpt lat="43.34971870705552" lon="11.89728018467236"><ele>266.0</ele><time>2026-03-29T08:28:58.001Z</time></trkpt><trkpt lat="43.34978008037656" lon="11.897172739611749"><ele>266.0</ele><time>2026-03-29T08:29:00.001Z</time></trkpt><trkpt lat="43.34982050691762" lon="11.89709766638442"><ele>266.0</ele><time>2026-03-29T08:29:02.001Z</time></trkpt><trkpt lat="43.34981887690527" lon="11.896968251460326"><ele>266.0</ele><time>2026-03-29T08:29:05.001Z</time></trkpt><trkpt lat="43.349723237457184" lon="11.896842459373145"><ele>266.0</ele><time>2026-03-29T08:29:07.001Z</time></trkpt><trkpt lat="43.34966872246763" lon="11.896779246981774"><ele>266.0</ele><time>2026-03-29T08:29:08.001Z</time></trkpt><trkpt lat="43.34961273828461" lon="11.896708771196261"><ele>266.0</ele><time>2026-03-29T08:29:09.001Z</time></trkpt><trkpt lat="43.34955741555634" lon="11.89663130941965"><ele>266.0</ele><time>2026-03-29T08:29:10.001Z</time></trkpt><trkpt lat="43.349501983849514" lon="11.896547535054614"><ele>266.0</ele><time>2026-03-29T08:29:11.001Z</time></trkpt><trkpt lat="43.34944603567622" lon="11.89647103911849"><ele>266.0</ele><time>2026-03-29T08:29:12.001Z</time></trkpt><trkpt lat="43.34939471621426" lon="11.89639412700721"><ele>266.0</ele><time>2026-03-29T08:29:13.001Z</time></trkpt><trkpt lat="43.349343030861" lon="11.896320152081383"><ele>266.0</ele><time>2026-03-29T08:29:14.001Z</time></trkpt><trkpt lat="43.34929387701916" lon="11.89625162750488"><ele>266.0</ele><time>2026-03-29T08:29:15.001Z</time></trkpt><trkpt lat="43.34924643252752" lon="11.896180011670596"><ele>266.0</ele><time>2026-03-29T08:29:16.001Z</time></trkpt><trkpt lat="43.34919987506017" lon="11.896104151416742"><ele>266.0</ele><time>2026-03-29T08:29:17.001Z</time></trkpt><trkpt lat="43.34915378709296" lon="11.89603269026868"><ele>266.0</ele><time>2026-03-29T08:29:18.001Z</time></trkpt><trkpt lat="43.34910497102538" lon="11.895960304832373"><ele>266.0</ele><time>2026-03-29T08:29:19.001Z</time></trkpt><trkpt lat="43.34905871941976" lon="11.895887960136015"><ele>266.0</ele><time>2026-03-29T08:29:20Z</time></trkpt><trkpt lat="43.349016590830935" lon="11.89581629074105"><ele>266.0</ele><time>2026-03-29T08:29:21Z</time></trkpt><trkpt lat="43.34897208164925" lon="11.895747365050656"><ele>266.0</ele><time>2026-03-29T08:29:22Z</time></trkpt><trkpt lat="43.348917254549974" lon="11.895688068452037"><ele>266.0</ele><time>2026-03-29T08:29:23Z</time></trkpt><trkpt lat="43.34887789167589" lon="11.895600652857771"><ele>266.0</ele><time>2026-03-29T08:29:24Z</time></trkpt><trkpt lat="43.348819247077444" lon="11.895540537557476"><ele>266.0</ele><time>2026-03-29T08:29:25Z</time></trkpt><trkpt lat="43.34877722665245" lon="11.895461061611297"><ele>266.0</ele><time>2026-03-29T08:29:26Z</time></trkpt><trkpt lat="43.34873711071737" lon="11.895379199971886"><ele>266.0</ele><time>2026-03-29T08:29:27Z</time></trkpt><trkpt lat="43.348702842377264" lon="11.895279120678508"><ele>266.0</ele><time>2026-03-29T08:29:29Z</time></trkpt><trkpt lat="43.34865655700256" lon="11.895180188592592"><ele>265.6</ele><time>2026-03-29T08:29:43Z</time></trkpt><trkpt lat="43.34859491910068" lon="11.895029778612413"><ele>265.20000000000005</ele><time>2026-03-29T08:29:45Z</time></trkpt><trkpt lat="43.34856911634169" lon="11.894941094891813"><ele>264.79999999999995</ele><time>2026-03-29T08:29:46Z</time></trkpt><trkpt lat="43.3485403032469" lon="11.894827956788982"><ele>264.4</ele><time>2026-03-29T08:29:47Z</time></trkpt><trkpt lat="43.348508584438214" lon="11.894719877349285"><ele>264.0</ele><time>2026-03-29T08:29:48Z</time></trkpt><trkpt lat="43.3484807939508" lon="11.894605968006303"><ele>264.0</ele><time>2026-03-29T08:29:49Z</time></trkpt><trkpt lat="43.3484519810163" lon="11.894491006040997"><ele>264.0</ele><time>2026-03-29T08:29:50.001Z</time></trkpt><trkpt lat="43.34842006246743" lon="11.894378976677052"><ele>264.0</ele><time>2026-03-29T08:29:51.001Z</time></trkpt><trkpt lat="43.34838952219654" lon="11.894267029936964"><ele>264.0</ele><time>2026-03-29T08:29:52.001Z</time></trkpt><trkpt lat="43.34836097393265" lon="11.894156748065912"><ele>264.0</ele><time>2026-03-29T08:29:53.001Z</time></trkpt><trkpt lat="43.34832800599861" lon="11.894048136204093"><ele>264.0</ele><time>2026-03-29T08:29:54.001Z</time></trkpt><trkpt lat="43.34829989230766" lon="11.893937696503917"><ele>263.8333333333333</ele><time>2026-03-29T08:29:55.001Z</time></trkpt><trkpt lat="43.34827179785975" lon="11.893822699439108"><ele>263.6666666666667</ele><time>2026-03-29T08:29:56.001Z</time></trkpt><trkpt lat="43.34823560538513" lon="11.89370818288159"><ele>263.5</ele><time>2026-03-29T08:29:57.001Z</time></trkpt><trkpt lat="43.348206071353815" lon="11.893589253359742"><ele>263.33333333333337</ele><time>2026-03-29T08:29:58.001Z</time></trkpt><trkpt lat="43.34817507554247" lon="11.893473488735602"><ele>263.1666666666667</ele><time>2026-03-29T08:29:59.001Z</time></trkpt><trkpt lat="43.348143171445585" lon="11.893359060238913"><ele>263.0</ele><time>2026-03-29T08:30:00.001Z</time></trkpt><trkpt lat="43.34811152283472" lon="11.893239023081629"><ele>263.0</ele><time>2026-03-29T08:30:01.001Z</time></trkpt><trkpt lat="43.348078853275254" lon="11.893115101439205"><ele>263.0</ele><time>2026-03-29T08:30:02.001Z</time></trkpt><trkpt lat="43.34804449554048" lon="11.892987916002724"><ele>263.0</ele><time>2026-03-29T08:30:03.001Z</time></trkpt><trkpt lat="43.34801099538717" lon="11.892858736353038"><ele>263.0</ele><time>2026-03-29T08:30:04.001Z</time></trkpt><trkpt lat="43.347975695814355" lon="11.892724606222366"><ele>263.0</ele><time>2026-03-29T08:30:05.001Z</time></trkpt><trkpt lat="43.347939038150194" lon="11.892590534969193"><ele>262.8</ele><time>2026-03-29T08:30:06.001Z</time></trkpt><trkpt lat="43.34790209908842" lon="11.892453887808566"><ele>262.6</ele><time>2026-03-29T08:30:07.001Z</time></trkpt><trkpt lat="43.34786452084438" lon="11.89231685730326"><ele>262.4</ele><time>2026-03-29T08:30:08.001Z</time></trkpt><trkpt lat="43.34782461291306" lon="11.892186776632867"><ele>262.2</ele><time>2026-03-29T08:30:09.001Z</time></trkpt><trkpt lat="43.347789126169076" lon="11.892047810484648"><ele>262.0</ele><time>2026-03-29T08:30:10.001Z</time></trkpt><trkpt lat="43.34775599114758" lon="11.891910297031453"><ele>262.0</ele><time>2026-03-29T08:30:11.001Z</time></trkpt><trkpt lat="43.347716796792525" lon="11.891775365304687"><ele>262.0</ele><time>2026-03-29T08:30:12.001Z</time></trkpt><trkpt lat="43.347679356780226" lon="11.891636222009966"><ele>262.0</ele><time>2026-03-29T08:30:13.001Z</time></trkpt><trkpt lat="43.34763543427488" lon="11.89150048464402"><ele>262.0</ele><time>2026-03-29T08:30:14.001Z</time></trkpt><trkpt lat="43.347598348670076" lon="11.891360713238726"><ele>262.0</ele><time>2026-03-29T08:30:15.001Z</time></trkpt><trkpt lat="43.34756168376143" lon="11.891237670528206"><ele>261.8</ele><time>2026-03-29T08:30:16.001Z</time></trkpt><trkpt lat="43.3475279750183" lon="11.891105617180278"><ele>261.6</ele><time>2026-03-29T08:30:17.001Z</time></trkpt><trkpt lat="43.347493583323036" lon="11.890966686160116"><ele>261.40000000000003</ele><time>2026-03-29T08:30:18.001Z</time></trkpt><trkpt lat="43.347455927526205" lon="11.890830817566803"><ele>261.2</ele><time>2026-03-29T08:30:19.001Z</time></trkpt><trkpt lat="43.34741792628521" lon="11.890694627435405"><ele>261.0</ele><time>2026-03-29T08:30:20.001Z</time></trkpt><trkpt lat="43.34738304747207" lon="11.890563243032721"><ele>261.0</ele><time>2026-03-29T08:30:21.001Z</time></trkpt><trkpt lat="43.347358338995434" lon="11.890429988110494"><ele>261.0</ele><time>2026-03-29T08:30:22.001Z</time></trkpt><trkpt lat="43.34733263087296" lon="11.890297941644748"><ele>261.0</ele><time>2026-03-29T08:30:23.001Z</time></trkpt><trkpt lat="43.347321277441615" lon="11.890166346567234"><ele>261.0</ele><time>2026-03-29T08:30:24.001Z</time></trkpt><trkpt lat="43.34733662000926" lon="11.890035311910239"><ele>261.0</ele><time>2026-03-29T08:30:25.001Z</time></trkpt><trkpt lat="43.34734371459501" lon="11.889910531083558"><ele>261.0</ele><time>2026-03-29T08:30:26.001Z</time></trkpt><trkpt lat="43.34733734726549" lon="11.889788396205104"><ele>261.0</ele><time>2026-03-29T08:30:27.001Z</time></trkpt><trkpt lat="43.34734641455588" lon="11.88964765213788"><ele>261.0</ele><time>2026-03-29T08:30:28.001Z</time></trkpt><trkpt lat="43.3473356104285" lon="11.889520356962565"><ele>261.0</ele><time>2026-03-29T08:30:29.001Z</time></trkpt><trkpt lat="43.347297885633154" lon="11.889396508536993"><ele>261.0</ele><time>2026-03-29T08:30:30.001Z</time></trkpt><trkpt lat="43.34724640309759" lon="11.889286853926874"><ele>261.0</ele><time>2026-03-29T08:30:31.001Z</time></trkpt><trkpt lat="43.34718083062558" lon="11.889193359307967"><ele>261.0</ele><time>2026-03-29T08:30:32.001Z</time></trkpt><trkpt lat="43.34710877647332" lon="11.889124170535231"><ele>261.0</ele><time>2026-03-29T08:30:33.001Z</time></trkpt><trkpt lat="43.34701795262482" lon="11.889072879535311"><ele>261.0</ele><time>2026-03-29T08:30:34.001Z</time></trkpt><trkpt lat="43.34694956950286" lon="11.889011756755906"><ele>261.0</ele><time>2026-03-29T08:30:35.001Z</time></trkpt><trkpt lat="43.34689006112271" lon="11.888943203714033"><ele>261.0</ele><time>2026-03-29T08:30:36.001Z</time></trkpt><trkpt lat="43.34684824248671" lon="11.888874603096388"><ele>261.0</ele><time>2026-03-29T08:30:37.001Z</time></trkpt><trkpt lat="43.346812083411145" lon="11.888765220111427"><ele>261.0</ele><time>2026-03-29T08:30:38.001Z</time></trkpt><trkpt lat="43.346793294467076" lon="11.88865269063692"><ele>261.0</ele><time>2026-03-29T08:30:39.001Z</time></trkpt><trkpt lat="43.34679494084378" lon="11.888535517842682"><ele>261.0</ele><time>2026-03-29T08:30:40.001Z</time></trkpt><trkpt lat="43.346825662608445" lon="11.88841118468583"><ele>261.0</ele><time>2026-03-29T08:30:41.001Z</time></trkpt><trkpt lat="43.34682723299334" lon="11.88827880164486"><ele>261.0</ele><time>2026-03-29T08:30:42.001Z</time></trkpt><trkpt lat="43.34683750333096" lon="11.888151029842346"><ele>260.8</ele><time>2026-03-29T08:30:43.001Z</time></trkpt><trkpt lat="43.34683135835897" lon="11.88802015651596"><ele>260.6</ele><time>2026-03-29T08:30:44.001Z</time></trkpt><trkpt lat="43.34681531922924" lon="11.887889460682668"><ele>260.4</ele><time>2026-03-29T08:30:45Z</time></trkpt><trkpt lat="43.346797174447985" lon="11.887759707822863"><ele>260.2</ele><time>2026-03-29T08:30:46Z</time></trkpt><trkpt lat="43.34676784466512" lon="11.887629131442491"><ele>260.0</ele><time>2026-03-29T08:30:47Z</time></trkpt><trkpt lat="43.346730433098315" lon="11.887504681584522"><ele>259.8</ele><time>2026-03-29T08:30:48Z</time></trkpt><trkpt lat="43.34669830644286" lon="11.887368766876326"><ele>259.6</ele><time>2026-03-29T08:30:49Z</time></trkpt><trkpt lat="43.346668506865306" lon="11.887246692977264"><ele>259.4</ele><time>2026-03-29T08:30:50Z</time></trkpt><trkpt lat="43.34664403717861" lon="11.88711779979762"><ele>259.2</ele><time>2026-03-29T08:30:51Z</time></trkpt><trkpt lat="43.346611027365256" lon="11.886988102957973"><ele>259.0</ele><time>2026-03-29T08:30:52Z</time></trkpt><trkpt lat="43.34658419431894" lon="11.886858061997794"><ele>259.0</ele><time>2026-03-29T08:30:53Z</time></trkpt><trkpt lat="43.34655088219674" lon="11.886734340025939"><ele>259.0</ele><time>2026-03-29T08:30:54Z</time></trkpt><trkpt lat="43.346522623223365" lon="11.886604862060624"><ele>259.0</ele><time>2026-03-29T08:30:55Z</time></trkpt><trkpt lat="43.34649117561467" lon="11.886479108749276"><ele>259.0</ele><time>2026-03-29T08:30:56Z</time></trkpt><trkpt lat="43.34646223344346" lon="11.886349637464246"><ele>259.0</ele><time>2026-03-29T08:30:57Z</time></trkpt><trkpt lat="43.346433805373515" lon="11.886220279131436"><ele>259.0</ele><time>2026-03-29T08:30:58Z</time></trkpt><trkpt lat="43.34641358375436" lon="11.886088618034801"><ele>259.0</ele><time>2026-03-29T08:30:59Z</time></trkpt><trkpt lat="43.34636642938107" lon="11.885964418820105"><ele>259.0</ele><time>2026-03-29T08:31:00Z</time></trkpt><trkpt lat="43.34633682996342" lon="11.885830023538736"><ele>259.0</ele><time>2026-03-29T08:31:01Z</time></trkpt><trkpt lat="43.346303060477105" lon="11.8856987397435"><ele>259.0</ele><time>2026-03-29T08:31:02Z</time></trkpt><trkpt lat="43.3462675562231" lon="11.885568299667742"><ele>259.0</ele><time>2026-03-29T08:31:03Z</time></trkpt><trkpt lat="43.346231136454996" lon="11.885440348312303"><ele>259.0</ele><time>2026-03-29T08:31:04Z</time></trkpt><trkpt lat="43.34618764989979" lon="11.88531853571172"><ele>259.0</ele><time>2026-03-29T08:31:05Z</time></trkpt><trkpt lat="43.34614016077953" lon="11.885196306169876"><ele>259.0</ele><time>2026-03-29T08:31:06Z</time></trkpt><trkpt lat="43.34609023013056" lon="11.885073028369076"><ele>259.0</ele><time>2026-03-29T08:31:07Z</time></trkpt><trkpt lat="43.346039702762866" lon="11.884949397456124"><ele>259.0</ele><time>2026-03-29T08:31:08Z</time></trkpt><trkpt lat="43.34599011823006" lon="11.884825099772737"><ele>259.0</ele><time>2026-03-29T08:31:09Z</time></trkpt><trkpt lat="43.34594053007828" lon="11.88470314876127"><ele>259.0</ele><time>2026-03-29T08:31:10Z</time></trkpt><trkpt lat="43.345890176948906" lon="11.884582780220684"><ele>259.0</ele><time>2026-03-29T08:31:11Z</time></trkpt><trkpt lat="43.34584074831842" lon="11.884465133636493"><ele>259.0</ele><time>2026-03-29T08:31:12Z</time></trkpt><trkpt lat="43.34579458223538" lon="11.884347055438433"><ele>258.8</ele><time>2026-03-29T08:31:13Z</time></trkpt><trkpt lat="43.345747084742754" lon="11.884230653433992"><ele>258.59999999999997</ele><time>2026-03-29T08:31:14Z</time></trkpt><trkpt lat="43.345699380704545" lon="11.88411154657364"><ele>258.4</ele><time>2026-03-29T08:31:15Z</time></trkpt><trkpt lat="43.345652852266895" lon="11.883993328739463"><ele>258.2</ele><time>2026-03-29T08:31:16Z</time></trkpt><trkpt lat="43.34559932620046" lon="11.883881558599699"><ele>258.0</ele><time>2026-03-29T08:31:17Z</time></trkpt><trkpt lat="43.34555219390675" lon="11.883764521481195"><ele>257.8</ele><time>2026-03-29T08:31:18Z</time></trkpt><trkpt lat="43.3455003849521" lon="11.883653223081152"><ele>257.6</ele><time>2026-03-29T08:31:19Z</time></trkpt><trkpt lat="43.3454425556673" lon="11.883545136214725"><ele>257.4</ele><time>2026-03-29T08:31:20Z</time></trkpt><trkpt lat="43.345385228691825" lon="11.88343464180223"><ele>257.2</ele><time>2026-03-29T08:31:21Z</time></trkpt><trkpt lat="43.34532120556701" lon="11.883330326249665"><ele>257.0</ele><time>2026-03-29T08:31:22Z</time></trkpt><trkpt lat="43.34525676955278" lon="11.883223699914856"><ele>257.0</ele><time>2026-03-29T08:31:23Z</time></trkpt><trkpt lat="43.345192734032565" lon="11.883117697933551"><ele>257.0</ele><time>2026-03-29T08:31:24Z</time></trkpt><trkpt lat="43.34512785194769" lon="11.883010047644742"><ele>257.0</ele><time>2026-03-29T08:31:25Z</time></trkpt><trkpt lat="43.345063649359744" lon="11.882901985514536"><ele>257.0</ele><time>2026-03-29T08:31:26Z</time></trkpt><trkpt lat="43.34499826131854" lon="11.882796367439727"><ele>257.0</ele><time>2026-03-29T08:31:26.999Z</time></trkpt><trkpt lat="43.34493290595349" lon="11.882690866631426"><ele>257.0</ele><time>2026-03-29T08:31:27.999Z</time></trkpt><trkpt lat="43.34486894647224" lon="11.882584881803394"><ele>257.0</ele><time>2026-03-29T08:31:28.999Z</time></trkpt><trkpt lat="43.344806421602776" lon="11.882479590233217"><ele>257.0</ele><time>2026-03-29T08:31:29.999Z</time></trkpt><trkpt lat="43.34474398629071" lon="11.88237781185021"><ele>257.0</ele><time>2026-03-29T08:31:30.999Z</time></trkpt><trkpt lat="43.34468013627454" lon="11.882276110778731"><ele>257.0</ele><time>2026-03-29T08:31:31.999Z</time></trkpt><trkpt lat="43.34461532771183" lon="11.882173464648389"><ele>257.0</ele><time>2026-03-29T08:31:32.999Z</time></trkpt><trkpt lat="43.34455347426236" lon="11.882070650530263"><ele>257.0</ele><time>2026-03-29T08:31:33.999Z</time></trkpt><trkpt lat="43.344490908147556" lon="11.881967002659792"><ele>257.0</ele><time>2026-03-29T08:31:34.999Z</time></trkpt><trkpt lat="43.344428325446884" lon="11.881869908089817"><ele>257.0</ele><time>2026-03-29T08:31:35.999Z</time></trkpt><trkpt lat="43.34436528398614" lon="11.881770553269305"><ele>257.0</ele><time>2026-03-29T08:31:36.999Z</time></trkpt><trkpt lat="43.34431198386801" lon="11.881667880077455"><ele>257.1666666666667</ele><time>2026-03-29T08:31:37.999Z</time></trkpt><trkpt lat="43.34426923687773" lon="11.881599587597572"><ele>257.33333333333337</ele><time>2026-03-29T08:31:38.999Z</time></trkpt><trkpt lat="43.34422715717054" lon="11.881518341812363"><ele>257.5</ele><time>2026-03-29T08:31:40.999Z</time></trkpt><trkpt lat="43.34418130550113" lon="11.88140823102418"><ele>257.6666666666667</ele><time>2026-03-29T08:31:43.999Z</time></trkpt><trkpt lat="43.344112345471316" lon="11.881274686726476"><ele>257.8333333333333</ele><time>2026-03-29T08:31:45.999Z</time></trkpt><trkpt lat="43.34407266762629" lon="11.88120387719695"><ele>258.0</ele><time>2026-03-29T08:31:46.999Z</time></trkpt><trkpt lat="43.34402444424729" lon="11.88112665968124"><ele>258.0</ele><time>2026-03-29T08:31:47.999Z</time></trkpt><trkpt lat="43.343974155815275" lon="11.881048795324087"><ele>258.0</ele><time>2026-03-29T08:31:48.999Z</time></trkpt><trkpt lat="43.34392002830947" lon="11.880968183651376"><ele>258.0</ele><time>2026-03-29T08:31:49.999Z</time></trkpt><trkpt lat="43.343865343597756" lon="11.880886346308095"><ele>258.0</ele><time>2026-03-29T08:31:50.999Z</time></trkpt><trkpt lat="43.34380685170308" lon="11.880805750594282"><ele>258.0</ele><time>2026-03-29T08:31:51.999Z</time></trkpt><trkpt lat="43.34374780039875" lon="11.880723624872585"><ele>258.0</ele><time>2026-03-29T08:31:52.999Z</time></trkpt><trkpt lat="43.34370711914648" lon="11.880626516111585"><ele>258.0</ele><time>2026-03-29T08:31:53.999Z</time></trkpt><trkpt lat="43.34365276786611" lon="11.880548285145629"><ele>258.0</ele><time>2026-03-29T08:31:54.999Z</time></trkpt><trkpt lat="43.34366106318949" lon="11.880435623522299"><ele>258.0</ele><time>2026-03-29T08:31:56Z</time></trkpt><trkpt lat="43.34368085767352" lon="11.88033427943984"><ele>258.0</ele><time>2026-03-29T08:31:57Z</time></trkpt><trkpt lat="43.34370831980094" lon="11.880228677788581"><ele>258.0</ele><time>2026-03-29T08:31:58Z</time></trkpt><trkpt lat="43.34373977601417" lon="11.88011893522046"><ele>258.0</ele><time>2026-03-29T08:31:59Z</time></trkpt><trkpt lat="43.34376961575672" lon="11.880004884627256"><ele>257.6666666666667</ele><time>2026-03-29T08:32:00Z</time></trkpt><trkpt lat="43.343795411200226" lon="11.87990138789317"><ele>257.3333333333333</ele><time>2026-03-29T08:32:01Z</time></trkpt><trkpt lat="43.3438228770714" lon="11.87979118905782"><ele>257.0</ele><time>2026-03-29T08:32:02Z</time></trkpt><trkpt lat="43.34385192746292" lon="11.879681693507976"><ele>256.66666666666663</ele><time>2026-03-29T08:32:03Z</time></trkpt><trkpt lat="43.34388576630962" lon="11.879563898240242"><ele>256.3333333333333</ele><time>2026-03-29T08:32:04Z</time></trkpt><trkpt lat="43.34391621827783" lon="11.87945535354044"><ele>256.0</ele><time>2026-03-29T08:32:05Z</time></trkpt><trkpt lat="43.3439435614106" lon="11.879343406087743"><ele>256.16666666666663</ele><time>2026-03-29T08:32:06Z</time></trkpt><trkpt lat="43.34396646682635" lon="11.879227370364037"><ele>256.3333333333333</ele><time>2026-03-29T08:32:07Z</time></trkpt><trkpt lat="43.3439859107873" lon="11.879111687652019"><ele>256.5</ele><time>2026-03-29T08:32:08Z</time></trkpt><trkpt lat="43.34400480684714" lon="11.878995913010899"><ele>256.6666666666667</ele><time>2026-03-29T08:32:09Z</time></trkpt><trkpt lat="43.34402197025463" lon="11.878875632286716"><ele>256.83333333333337</ele><time>2026-03-29T08:32:10Z</time></trkpt><trkpt lat="43.34403462432919" lon="11.878756224245569"><ele>257.0</ele><time>2026-03-29T08:32:11Z</time></trkpt><trkpt lat="43.344044111014846" lon="11.878640299428245"><ele>257.0</ele><time>2026-03-29T08:32:12Z</time></trkpt><trkpt lat="43.34403796476713" lon="11.878525162889575"><ele>257.0</ele><time>2026-03-29T08:32:13Z</time></trkpt><trkpt lat="43.34404583349686" lon="11.87839882701026"><ele>257.0</ele><time>2026-03-29T08:32:14Z</time></trkpt><trkpt lat="43.34404600350363" lon="11.87827385780232"><ele>257.0</ele><time>2026-03-29T08:32:15Z</time></trkpt><trkpt lat="43.344043110950466" lon="11.87815493429295"><ele>257.0</ele><time>2026-03-29T08:32:16Z</time></trkpt><trkpt lat="43.34406941954574" lon="11.878041184714684"><ele>257.0</ele><time>2026-03-29T08:32:17Z</time></trkpt><trkpt lat="43.34408098178591" lon="11.877923059202198"><ele>257.2</ele><time>2026-03-29T08:32:18Z</time></trkpt><trkpt lat="43.34408044881445" lon="11.877811135905839"><ele>257.4</ele><time>2026-03-29T08:32:19Z</time></trkpt><trkpt lat="43.344106287050856" lon="11.877713046064764"><ele>257.6</ele><time>2026-03-29T08:32:20Z</time></trkpt><trkpt lat="43.34412580833883" lon="11.877551034696628"><ele>257.8</ele><time>2026-03-29T08:32:22Z</time></trkpt><trkpt lat="43.344147490110686" lon="11.877371092990337"><ele>258.0</ele><time>2026-03-29T08:32:24Z</time></trkpt><trkpt lat="43.343978198141585" lon="11.87722033205795"><ele>258.2857142857143</ele><time>2026-03-29T08:32:25Z</time></trkpt><trkpt lat="43.343977747165425" lon="11.877115662448663"><ele>258.57142857142856</ele><time>2026-03-29T08:32:26Z</time></trkpt><trkpt lat="43.34398324175137" lon="11.877012592601629"><ele>258.8571428571429</ele><time>2026-03-29T08:32:27Z</time></trkpt><trkpt lat="43.343986381059025" lon="11.876912512933156"><ele>259.1428571428571</ele><time>2026-03-29T08:32:28Z</time></trkpt><trkpt lat="43.343975079748716" lon="11.876814177850653"><ele>259.42857142857144</ele><time>2026-03-29T08:32:29Z</time></trkpt><trkpt lat="43.343930783168034" lon="11.876732919260569"><ele>259.7142857142857</ele><time>2026-03-29T08:32:30Z</time></trkpt><trkpt lat="43.343880326996796" lon="11.87666318208161"><ele>260.0</ele><time>2026-03-29T08:32:31Z</time></trkpt><trkpt lat="43.34382479187114" lon="11.876594746692623"><ele>260.00000000000006</ele><time>2026-03-29T08:32:32Z</time></trkpt><trkpt lat="43.34377003310111" lon="11.876524199500226"><ele>260.0</ele><time>2026-03-29T08:32:33Z</time></trkpt><trkpt lat="43.343716458331016" lon="11.876453582124487"><ele>260.0</ele><time>2026-03-29T08:32:34Z</time></trkpt><trkpt lat="43.343661688111716" lon="11.87638679059393"><ele>260.0</ele><time>2026-03-29T08:32:35Z</time></trkpt><trkpt lat="43.343606046614624" lon="11.876314906281468"><ele>260.0</ele><time>2026-03-29T08:32:36Z</time></trkpt><trkpt lat="43.34355798694436" lon="11.876240783852095"><ele>260.00000000000006</ele><time>2026-03-29T08:32:37Z</time></trkpt><trkpt lat="43.34350638858417" lon="11.876167045274045"><ele>260.0</ele><time>2026-03-29T08:32:38Z</time></trkpt><trkpt lat="43.34344826772769" lon="11.87610294339475"><ele>260.00000000000006</ele><time>2026-03-29T08:32:39Z</time></trkpt><trkpt lat="43.34338230459924" lon="11.876040901769295"><ele>260.0</ele><time>2026-03-29T08:32:40Z</time></trkpt><trkpt lat="43.343323869777066" lon="11.875979026367384"><ele>260.0</ele><time>2026-03-29T08:32:41Z</time></trkpt><trkpt lat="43.34326380584104" lon="11.87591886578273"><ele>260.0</ele><time>2026-03-29T08:32:42Z</time></trkpt><trkpt lat="43.34320287460975" lon="11.875863352229205"><ele>260.0</ele><time>2026-03-29T08:32:43Z</time></trkpt><trkpt lat="43.34314835316761" lon="11.875815101546776"><ele>260.00000000000006</ele><time>2026-03-29T08:32:44Z</time></trkpt><trkpt lat="43.34309790170789" lon="11.875755378233034"><ele>260.0</ele><time>2026-03-29T08:32:45Z</time></trkpt><trkpt lat="43.34305015088444" lon="11.875694129324847"><ele>259.6</ele><time>2026-03-29T08:32:46Z</time></trkpt><trkpt lat="43.34299304927522" lon="11.87563222975303"><ele>259.2</ele><time>2026-03-29T08:32:47Z</time></trkpt><trkpt lat="43.342909792655284" lon="11.87550939863237"><ele>258.8</ele><time>2026-03-29T08:32:48.999Z</time></trkpt><trkpt lat="43.34283113098038" lon="11.875404042847732"><ele>258.4</ele><time>2026-03-29T08:32:50.999Z</time></trkpt><trkpt lat="43.34276538248296" lon="11.875310580431913"><ele>258.0</ele><time>2026-03-29T08:32:52.999Z</time></trkpt><trkpt lat="43.34270130861423" lon="11.87522410163288"><ele>258.0</ele><time>2026-03-29T08:32:54.999Z</time></trkpt><trkpt lat="43.342641666963075" lon="11.875137023716137"><ele>258.0</ele><time>2026-03-29T08:32:56.999Z</time></trkpt><trkpt lat="43.342586682958654" lon="11.875052957286877"><ele>258.0</ele><time>2026-03-29T08:32:59.999Z</time></trkpt><trkpt lat="43.342498289250905" lon="11.874863433021856"><ele>258.0</ele><time>2026-03-29T08:33:02.999Z</time></trkpt><trkpt lat="43.34243828649989" lon="11.87478597192888"><ele>258.0</ele><time>2026-03-29T08:33:04.999Z</time></trkpt><trkpt lat="43.342371133479524" lon="11.874706087593944"><ele>258.0</ele><time>2026-03-29T08:33:06.999Z</time></trkpt><trkpt lat="43.34230174618814" lon="11.87461527461666"><ele>258.0</ele><time>2026-03-29T08:33:08.999Z</time></trkpt><trkpt lat="43.342219513118735" lon="11.874498541180104"><ele>258.0</ele><time>2026-03-29T08:33:10.999Z</time></trkpt><trkpt lat="43.342140430313684" lon="11.874381220412586"><ele>258.0</ele><time>2026-03-29T08:33:12.999Z</time></trkpt><trkpt lat="43.342053209308276" lon="11.874263215718129"><ele>257.8333333333333</ele><time>2026-03-29T08:33:14.999Z</time></trkpt><trkpt lat="43.34196951773141" lon="11.874145316983123"><ele>257.6666666666667</ele><time>2026-03-29T08:33:16.999Z</time></trkpt><trkpt lat="43.341935195355695" lon="11.874072712556732"><ele>257.5</ele><time>2026-03-29T08:33:17.999Z</time></trkpt><trkpt lat="43.341897915941296" lon="11.873997952059975"><ele>257.33333333333337</ele><time>2026-03-29T08:33:18.999Z</time></trkpt><trkpt lat="43.341805525795806" lon="11.873879041487024"><ele>257.1666666666667</ele><time>2026-03-29T08:33:20.999Z</time></trkpt><trkpt lat="43.34176790956754" lon="11.873796624446527"><ele>257.0</ele><time>2026-03-29T08:33:21.999Z</time></trkpt><trkpt lat="43.34172479171203" lon="11.873726797274369"><ele>257.0</ele><time>2026-03-29T08:33:22.999Z</time></trkpt><trkpt lat="43.341689412696674" lon="11.873647048246184"><ele>257.0</ele><time>2026-03-29T08:33:23.999Z</time></trkpt><trkpt lat="43.341647826623095" lon="11.87356998621565"><ele>257.0</ele><time>2026-03-29T08:33:24.999Z</time></trkpt><trkpt lat="43.341610377370316" lon="11.873495133376307"><ele>257.0</ele><time>2026-03-29T08:33:25.999Z</time></trkpt><trkpt lat="43.341536552416656" lon="11.873346774136621"><ele>257.0</ele><time>2026-03-29T08:33:27.999Z</time></trkpt><trkpt lat="43.34149664611592" lon="11.87326638082175"><ele>257.0</ele><time>2026-03-29T08:33:28.999Z</time></trkpt><trkpt lat="43.341456000956555" lon="11.87318528022765"><ele>257.0</ele><time>2026-03-29T08:33:29.999Z</time></trkpt><trkpt lat="43.34141457885368" lon="11.873102642898102"><ele>257.0</ele><time>2026-03-29T08:33:30.999Z</time></trkpt><trkpt lat="43.34137459867499" lon="11.873019301615141"><ele>257.0</ele><time>2026-03-29T08:33:31.999Z</time></trkpt><trkpt lat="43.34133772889331" lon="11.872934912374195"><ele>257.0</ele><time>2026-03-29T08:33:32.999Z</time></trkpt><trkpt lat="43.34130016199247" lon="11.872851016083459"><ele>257.0</ele><time>2026-03-29T08:33:33.999Z</time></trkpt><trkpt lat="43.34126184147655" lon="11.87276881480772"><ele>257.0</ele><time>2026-03-29T08:33:34.999Z</time></trkpt><trkpt lat="43.34122695751331" lon="11.872678289813695"><ele>257.0</ele><time>2026-03-29T08:33:35.999Z</time></trkpt><trkpt lat="43.341195390088075" lon="11.87258568033173"><ele>257.0</ele><time>2026-03-29T08:33:36.999Z</time></trkpt><trkpt lat="43.34117748111292" lon="11.872495057255458"><ele>257.0</ele><time>2026-03-29T08:33:37.999Z</time></trkpt><trkpt lat="43.341156031203475" lon="11.872395721166319"><ele>257.0</ele><time>2026-03-29T08:33:38.999Z</time></trkpt><trkpt lat="43.341134904758995" lon="11.872300772682097"><ele>257.0</ele><time>2026-03-29T08:33:39.999Z</time></trkpt><trkpt lat="43.34111856529002" lon="11.872205882711635"><ele>257.0</ele><time>2026-03-29T08:33:40.999Z</time></trkpt><trkpt lat="43.3410999455012" lon="11.87210822857199"><ele>257.0</ele><time>2026-03-29T08:33:41.999Z</time></trkpt><trkpt lat="43.34108204723226" lon="11.872009322370195"><ele>257.0</ele><time>2026-03-29T08:33:42.999Z</time></trkpt><trkpt lat="43.34106241540924" lon="11.871913227110126"><ele>257.0</ele><time>2026-03-29T08:33:43.999Z</time></trkpt><trkpt lat="43.34104498148318" lon="11.871814808302474"><ele>257.0</ele><time>2026-03-29T08:33:44.999Z</time></trkpt><trkpt lat="43.34102869778955" lon="11.871708316356612"><ele>257.0</ele><time>2026-03-29T08:33:45.999Z</time></trkpt><trkpt lat="43.34100844432429" lon="11.87161184904039"><ele>257.0</ele><time>2026-03-29T08:33:46.999Z</time></trkpt><trkpt lat="43.34098413235679" lon="11.87151758208267"><ele>257.0</ele><time>2026-03-29T08:33:47.999Z</time></trkpt><trkpt lat="43.340962508899786" lon="11.871419411526091"><ele>257.0</ele><time>2026-03-29T08:33:48.999Z</time></trkpt><trkpt lat="43.3409400514565" lon="11.871326752332253"><ele>257.0</ele><time>2026-03-29T08:33:49.999Z</time></trkpt><trkpt lat="43.34092125718654" lon="11.871233914758694"><ele>257.0</ele><time>2026-03-29T08:33:50.999Z</time></trkpt><trkpt lat="43.34089980050655" lon="11.871138672645905"><ele>257.0</ele><time>2026-03-29T08:33:51.999Z</time></trkpt><trkpt lat="43.34088452966179" lon="11.871052479647737"><ele>257.0</ele><time>2026-03-29T08:33:52.999Z</time></trkpt><trkpt lat="43.34086785449595" lon="11.870965292908323"><ele>257.0</ele><time>2026-03-29T08:33:53.999Z</time></trkpt><trkpt lat="43.34084811759962" lon="11.870875381458033"><ele>257.0</ele><time>2026-03-29T08:33:54.999Z</time></trkpt><trkpt lat="43.34083513490197" lon="11.870789880512737"><ele>257.0</ele><time>2026-03-29T08:33:55.999Z</time></trkpt><trkpt lat="43.340817423572304" lon="11.870698051333985"><ele>257.0</ele><time>2026-03-29T08:33:56.999Z</time></trkpt><trkpt lat="43.34078247864571" lon="11.870533935647758"><ele>257.0</ele><time>2026-03-29T08:33:58.999Z</time></trkpt><trkpt lat="43.34075269331201" lon="11.870364349658242"><ele>257.0</ele><time>2026-03-29T08:34:01Z</time></trkpt><trkpt lat="43.34073120452117" lon="11.87028114778358"><ele>257.0</ele><time>2026-03-29T08:34:02Z</time></trkpt><trkpt lat="43.34071686916712" lon="11.870195449007548"><ele>257.0</ele><time>2026-03-29T08:34:03Z</time></trkpt><trkpt lat="43.34068103011705" lon="11.870035162915164"><ele>257.0</ele><time>2026-03-29T08:34:05Z</time></trkpt><trkpt lat="43.340658604851676" lon="11.86995220778556"><ele>257.0</ele><time>2026-03-29T08:34:06Z</time></trkpt><trkpt lat="43.34062421850656" lon="11.869791837213734"><ele>257.0</ele><time>2026-03-29T08:34:08Z</time></trkpt><trkpt lat="43.34059257278123" lon="11.86962052174413"><ele>257.0</ele><time>2026-03-29T08:34:10Z</time></trkpt><trkpt lat="43.340551817423446" lon="11.869460170270761"><ele>257.0</ele><time>2026-03-29T08:34:12Z</time></trkpt><trkpt lat="43.34051295940784" lon="11.869310922104233"><ele>257.0</ele><time>2026-03-29T08:34:14Z</time></trkpt><trkpt lat="43.340482965307714" lon="11.869171205976706"><ele>257.25</ele><time>2026-03-29T08:34:16Z</time></trkpt><trkpt lat="43.34044277959201" lon="11.869030707007585"><ele>257.5</ele><time>2026-03-29T08:34:18Z</time></trkpt><trkpt lat="43.34039449499886" lon="11.868880719615346"><ele>257.75</ele><time>2026-03-29T08:34:20Z</time></trkpt><trkpt lat="43.34034183221433" lon="11.868747088265028"><ele>258.0</ele><time>2026-03-29T08:34:22Z</time></trkpt><trkpt lat="43.340279899557714" lon="11.868611583654642"><ele>258.0</ele><time>2026-03-29T08:34:24Z</time></trkpt><trkpt lat="43.34020817494934" lon="11.868490573280974"><ele>258.0</ele><time>2026-03-29T08:34:26Z</time></trkpt><trkpt lat="43.34012464775221" lon="11.868398998572623"><ele>258.0</ele><time>2026-03-29T08:34:28Z</time></trkpt><trkpt lat="43.340076173555566" lon="11.86834342756877"><ele>258.0</ele><time>2026-03-29T08:34:29Z</time></trkpt><trkpt lat="43.33997229022208" lon="11.868258032305935"><ele>258.0</ele><time>2026-03-29T08:34:31Z</time></trkpt><trkpt lat="43.339868504804265" lon="11.868171123434486"><ele>257.6666666666667</ele><time>2026-03-29T08:34:33Z</time></trkpt><trkpt lat="43.33980993558461" lon="11.868123249669118"><ele>257.3333333333333</ele><time>2026-03-29T08:34:34Z</time></trkpt><trkpt lat="43.33975342362415" lon="11.868083700641476"><ele>257.0</ele><time>2026-03-29T08:34:35Z</time></trkpt><trkpt lat="43.339642602442645" lon="11.867999045677907"><ele>256.66666666666663</ele><time>2026-03-29T08:34:37Z</time></trkpt><trkpt lat="43.339587655857386" lon="11.86795640429301"><ele>256.3333333333333</ele><time>2026-03-29T08:34:38Z</time></trkpt><trkpt lat="43.33953219383693" lon="11.867909473682364"><ele>256.0</ele><time>2026-03-29T08:34:39Z</time></trkpt><trkpt lat="43.339476517269034" lon="11.867861564480963"><ele>255.83333333333331</ele><time>2026-03-29T08:34:40Z</time></trkpt><trkpt lat="43.33938561291174" lon="11.86775085071941"><ele>255.66666666666666</ele><time>2026-03-29T08:34:42Z</time></trkpt><trkpt lat="43.339320234719665" lon="11.867615914239607"><ele>255.5</ele><time>2026-03-29T08:34:43.999Z</time></trkpt><trkpt lat="43.33929153858564" lon="11.867534797279363"><ele>255.33333333333331</ele><time>2026-03-29T08:34:44.999Z</time></trkpt><trkpt lat="43.33926988191864" lon="11.867451520890148"><ele>255.16666666666666</ele><time>2026-03-29T08:34:45.999Z</time></trkpt><trkpt lat="43.33924480595243" lon="11.867364967852012"><ele>255.0</ele><time>2026-03-29T08:34:46.999Z</time></trkpt><trkpt lat="43.33918738145803" lon="11.86721026271744"><ele>255.2857142857143</ele><time>2026-03-29T08:34:48.999Z</time></trkpt><trkpt lat="43.33915888335775" lon="11.867126506409285"><ele>255.5714285714286</ele><time>2026-03-29T08:34:49.999Z</time></trkpt><trkpt lat="43.339128693983035" lon="11.867038504772957"><ele>255.85714285714286</ele><time>2026-03-29T08:34:50.999Z</time></trkpt><trkpt lat="43.339102367214856" lon="11.866948648658584"><ele>256.14285714285717</ele><time>2026-03-29T08:34:51.999Z</time></trkpt><trkpt lat="43.33907127444771" lon="11.866856376166599"><ele>256.42857142857144</ele><time>2026-03-29T08:34:52.999Z</time></trkpt><trkpt lat="43.339037925016235" lon="11.866761299281274"><ele>256.7142857142857</ele><time>2026-03-29T08:34:53.999Z</time></trkpt><trkpt lat="43.33902031492124" lon="11.866670382455998"><ele>257.0</ele><time>2026-03-29T08:34:54.999Z</time></trkpt><trkpt lat="43.33897572506797" lon="11.866580710694326"><ele>256.83333333333337</ele><time>2026-03-29T08:34:55.999Z</time></trkpt><trkpt lat="43.33894615879396" lon="11.866486530252471"><ele>256.6666666666667</ele><time>2026-03-29T08:34:56.999Z</time></trkpt><trkpt lat="43.33891378189022" lon="11.86638491085757"><ele>256.5</ele><time>2026-03-29T08:34:57.999Z</time></trkpt><trkpt lat="43.33888266459824" lon="11.866289840555922"><ele>256.3333333333333</ele><time>2026-03-29T08:34:58.999Z</time></trkpt><trkpt lat="43.33885420524357" lon="11.866199005022196"><ele>256.16666666666663</ele><time>2026-03-29T08:34:59.999Z</time></trkpt><trkpt lat="43.33882208231581" lon="11.866105328847798"><ele>256.0</ele><time>2026-03-29T08:35:00.999Z</time></trkpt><trkpt lat="43.33879441546019" lon="11.866010304815626"><ele>256.2857142857143</ele><time>2026-03-29T08:35:01.999Z</time></trkpt><trkpt lat="43.338768511674225" lon="11.865916540471863"><ele>256.57142857142856</ele><time>2026-03-29T08:35:02.999Z</time></trkpt><trkpt lat="43.338742020895154" lon="11.865824960392974"><ele>256.85714285714283</ele><time>2026-03-29T08:35:03.999Z</time></trkpt><trkpt lat="43.3387205851586" lon="11.865737286368116"><ele>257.1428571428571</ele><time>2026-03-29T08:35:04.999Z</time></trkpt><trkpt lat="43.33870141268405" lon="11.86564465803961"><ele>257.42857142857144</ele><time>2026-03-29T08:35:05.999Z</time></trkpt><trkpt lat="43.33867769997521" lon="11.865559319002763"><ele>257.71428571428567</ele><time>2026-03-29T08:35:06.999Z</time></trkpt><trkpt lat="43.338658162963846" lon="11.865471283854228"><ele>258.0</ele><time>2026-03-29T08:35:07.999Z</time></trkpt><trkpt lat="43.33861383433691" lon="11.865314803889278"><ele>257.99999999999994</ele><time>2026-03-29T08:35:09.999Z</time></trkpt><trkpt lat="43.338585034096745" lon="11.865226621289981"><ele>258.0</ele><time>2026-03-29T08:35:10.999Z</time></trkpt><trkpt lat="43.33854429491865" lon="11.865145905668287"><ele>258.0</ele><time>2026-03-29T08:35:11.999Z</time></trkpt><trkpt lat="43.338497534302164" lon="11.86506780392822"><ele>258.0</ele><time>2026-03-29T08:35:12.999Z</time></trkpt><trkpt lat="43.3384519545304" lon="11.86499299590424"><ele>258.0</ele><time>2026-03-29T08:35:13.999Z</time></trkpt><trkpt lat="43.338419751440284" lon="11.86489989451085"><ele>257.99999999999994</ele><time>2026-03-29T08:35:14.999Z</time></trkpt><trkpt lat="43.33837435482335" lon="11.864820070053845"><ele>258.0</ele><time>2026-03-29T08:35:15.999Z</time></trkpt><trkpt lat="43.33832752246959" lon="11.864738727608858"><ele>258.0</ele><time>2026-03-29T08:35:16.999Z</time></trkpt><trkpt lat="43.33827936532718" lon="11.864655084203383"><ele>258.0</ele><time>2026-03-29T08:35:17.999Z</time></trkpt><trkpt lat="43.33823005630287" lon="11.864572381480777"><ele>258.0</ele><time>2026-03-29T08:35:18.999Z</time></trkpt><trkpt lat="43.33818171996342" lon="11.86449217798272"><ele>258.0</ele><time>2026-03-29T08:35:19.999Z</time></trkpt><trkpt lat="43.33813332252748" lon="11.864413231151183"><ele>258.0</ele><time>2026-03-29T08:35:20.999Z</time></trkpt><trkpt lat="43.3380848858686" lon="11.864335378166178"><ele>258.0</ele><time>2026-03-29T08:35:21.999Z</time></trkpt><trkpt lat="43.33802427103536" lon="11.86426643851015"><ele>258.0</ele><time>2026-03-29T08:35:22.999Z</time></trkpt><trkpt lat="43.33797427790455" lon="11.864185352583222"><ele>258.0</ele><time>2026-03-29T08:35:23.999Z</time></trkpt><trkpt lat="43.33792418516121" lon="11.864101435770323"><ele>258.0</ele><time>2026-03-29T08:35:24.999Z</time></trkpt><trkpt lat="43.33787615941823" lon="11.86401553125349"><ele>258.0</ele><time>2026-03-29T08:35:25.999Z</time></trkpt><trkpt lat="43.33782946120375" lon="11.863932988784093"><ele>258.0</ele><time>2026-03-29T08:35:26.999Z</time></trkpt><trkpt lat="43.33777812470998" lon="11.863854913825222"><ele>258.0</ele><time>2026-03-29T08:35:27.999Z</time></trkpt><trkpt lat="43.33772578451688" lon="11.863775385519402"><ele>258.0</ele><time>2026-03-29T08:35:28.999Z</time></trkpt><trkpt lat="43.33765719159508" lon="11.86373803562179"><ele>258.0</ele><time>2026-03-29T08:35:29.999Z</time></trkpt><trkpt lat="43.33759164612085" lon="11.863684684177189"><ele>258.0</ele><time>2026-03-29T08:35:30.999Z</time></trkpt><trkpt lat="43.33756361490458" lon="11.863551020591448"><ele>258.0</ele><time>2026-03-29T08:35:31.999Z</time></trkpt><trkpt lat="43.33751701019671" lon="11.863464247367606"><ele>258.0</ele><time>2026-03-29T08:35:32.999Z</time></trkpt><trkpt lat="43.33746772141256" lon="11.863388365918382"><ele>258.0</ele><time>2026-03-29T08:35:33.999Z</time></trkpt><trkpt lat="43.33742090714621" lon="11.863315433194964"><ele>258.0</ele><time>2026-03-29T08:35:34.999Z</time></trkpt><trkpt lat="43.337342809864126" lon="11.863175627283821"><ele>258.0</ele><time>2026-03-29T08:35:36.999Z</time></trkpt><trkpt lat="43.3372768251753" lon="11.863054552069443"><ele>258.0</ele><time>2026-03-29T08:35:38.999Z</time></trkpt><trkpt lat="43.33721759693465" lon="11.862935982264537"><ele>258.0</ele><time>2026-03-29T08:35:40.999Z</time></trkpt><trkpt lat="43.33714767588818" lon="11.862823359891841"><ele>258.2</ele><time>2026-03-29T08:35:42.999Z</time></trkpt><trkpt lat="43.33708271515042" lon="11.862696826838649"><ele>258.4</ele><time>2026-03-29T08:35:44.999Z</time></trkpt><trkpt lat="43.337021594918504" lon="11.86258009296604"><ele>258.59999999999997</ele><time>2026-03-29T08:35:46.999Z</time></trkpt><trkpt lat="43.33695068419042" lon="11.862475969535943"><ele>258.8</ele><time>2026-03-29T08:35:48.999Z</time></trkpt><trkpt lat="43.336882684526515" lon="11.862357895489108"><ele>259.0</ele><time>2026-03-29T08:35:50.999Z</time></trkpt><trkpt lat="43.33680482536399" lon="11.862239483887903"><ele>259.0</ele><time>2026-03-29T08:35:52.999Z</time></trkpt><trkpt lat="43.336726441763425" lon="11.862128383438147"><ele>259.0</ele><time>2026-03-29T08:35:54.999Z</time></trkpt><trkpt lat="43.33664955939621" lon="11.862028399578206"><ele>259.0</ele><time>2026-03-29T08:35:56.999Z</time></trkpt><trkpt lat="43.33660763367969" lon="11.861962908099116"><ele>259.0</ele><time>2026-03-29T08:35:57.999Z</time></trkpt><trkpt lat="43.33653831298521" lon="11.861844652454778"><ele>259.0</ele><time>2026-03-29T08:35:59.999Z</time></trkpt><trkpt lat="43.33646749367922" lon="11.86172858687173"><ele>259.0</ele><time>2026-03-29T08:36:01.999Z</time></trkpt><trkpt lat="43.336407229750705" lon="11.86162769665996"><ele>259.0</ele><time>2026-03-29T08:36:03.999Z</time></trkpt><trkpt lat="43.33632394326782" lon="11.861523437937567"><ele>259.0</ele><time>2026-03-29T08:36:05.999Z</time></trkpt><trkpt lat="43.336240910966204" lon="11.861426017206075"><ele>259.0</ele><time>2026-03-29T08:36:08Z</time></trkpt><trkpt lat="43.336179644600506" lon="11.861351098941691"><ele>259.0</ele><time>2026-03-29T08:36:10Z</time></trkpt><trkpt lat="43.3361226055883" lon="11.86127118047597"><ele>259.0</ele><time>2026-03-29T08:36:12Z</time></trkpt><trkpt lat="43.336063134039264" lon="11.861203888389161"><ele>259.0</ele><time>2026-03-29T08:36:14Z</time></trkpt><trkpt lat="43.33600090616394" lon="11.861120741454688"><ele>259.0</ele><time>2026-03-29T08:36:16Z</time></trkpt><trkpt lat="43.33594762882707" lon="11.861049609368312"><ele>259.0</ele><time>2026-03-29T08:36:18Z</time></trkpt><trkpt lat="43.335885798822176" lon="11.860967917479478"><ele>259.0</ele><time>2026-03-29T08:36:21Z</time></trkpt><trkpt lat="43.33584076530983" lon="11.860850928722584"><ele>259.0</ele><time>2026-03-29T08:36:22Z</time></trkpt><trkpt lat="43.335789575373234" lon="11.860750126372828"><ele>259.0</ele><time>2026-03-29T08:36:24Z</time></trkpt><trkpt lat="43.33577803037588" lon="11.860642637258733"><ele>259.0</ele><time>2026-03-29T08:36:28Z</time></trkpt><trkpt lat="43.335727904799334" lon="11.86054336502782"><ele>259.0</ele><time>2026-03-29T08:36:31Z</time></trkpt><trkpt lat="43.3356967150529" lon="11.860465503469907"><ele>259.0</ele><time>2026-03-29T08:36:33Z</time></trkpt><trkpt lat="43.335664369813706" lon="11.860378563117033"><ele>259.0</ele><time>2026-03-29T08:36:35Z</time></trkpt><trkpt lat="43.33562834545797" lon="11.860281343978002"><ele>259.0</ele><time>2026-03-29T08:36:37Z</time></trkpt><trkpt lat="43.3355966501786" lon="11.860205299454508"><ele>259.0</ele><time>2026-03-29T08:36:39Z</time></trkpt><trkpt lat="43.33556416012965" lon="11.8601087838884"><ele>259.16666666666663</ele><time>2026-03-29T08:36:42Z</time></trkpt><trkpt lat="43.33550702129122" lon="11.860033500798538"><ele>259.3333333333333</ele><time>2026-03-29T08:36:46Z</time></trkpt><trkpt lat="43.3354851082505" lon="11.859924053661294"><ele>259.5</ele><time>2026-03-29T08:36:49Z</time></trkpt><trkpt lat="43.335460731528386" lon="11.859831370494852"><ele>259.6666666666667</ele><time>2026-03-29T08:36:51.999Z</time></trkpt><trkpt lat="43.335425470431815" lon="11.859736608849488"><ele>259.83333333333337</ele><time>2026-03-29T08:36:53.999Z</time></trkpt><trkpt lat="43.335384178604315" lon="11.859635933200865"><ele>260.0</ele><time>2026-03-29T08:36:55.999Z</time></trkpt><trkpt lat="43.335351865259796" lon="11.85951838836265"><ele>260.0</ele><time>2026-03-29T08:36:57.999Z</time></trkpt><trkpt lat="43.33532730091014" lon="11.859428689570292"><ele>260.0</ele><time>2026-03-29T08:36:59.999Z</time></trkpt><trkpt lat="43.33531469763158" lon="11.859308848143671"><ele>260.0</ele><time>2026-03-29T08:37:01.999Z</time></trkpt><trkpt lat="43.33531941232364" lon="11.85917233254854"><ele>260.0</ele><time>2026-03-29T08:37:03.999Z</time></trkpt><trkpt lat="43.33535501981361" lon="11.859038826545346"><ele>260.0</ele><time>2026-03-29T08:37:05.999Z</time></trkpt><trkpt lat="43.33540793756831" lon="11.858913150067838"><ele>260.0</ele><time>2026-03-29T08:37:07.999Z</time></trkpt><trkpt lat="43.3354583707024" lon="11.858782645185208"><ele>260.0</ele><time>2026-03-29T08:37:09.999Z</time></trkpt><trkpt lat="43.33550563097934" lon="11.858648734706405"><ele>260.0</ele><time>2026-03-29T08:37:11.999Z</time></trkpt><trkpt lat="43.335570750016636" lon="11.858497689478945"><ele>260.0</ele><time>2026-03-29T08:37:13.999Z</time></trkpt><trkpt lat="43.33562247282499" lon="11.858354917231333"><ele>260.0</ele><time>2026-03-29T08:37:15.999Z</time></trkpt><trkpt lat="43.33567234013887" lon="11.858219485080005"><ele>260.0</ele><time>2026-03-29T08:37:17.999Z</time></trkpt><trkpt lat="43.33570538763959" lon="11.858118789123477"><ele>260.0</ele><time>2026-03-29T08:37:19.999Z</time></trkpt><trkpt lat="43.335773117680894" lon="11.857990163718577"><ele>260.0</ele><time>2026-03-29T08:37:21.999Z</time></trkpt><trkpt lat="43.33579723549431" lon="11.85791002290932"><ele>260.0</ele><time>2026-03-29T08:37:22.999Z</time></trkpt><trkpt lat="43.335848253915124" lon="11.857764610980334"><ele>260.0</ele><time>2026-03-29T08:37:24.999Z</time></trkpt><trkpt lat="43.33589488458525" lon="11.857611706405336"><ele>260.0</ele><time>2026-03-29T08:37:26.999Z</time></trkpt><trkpt lat="43.33595453777969" lon="11.85746027151339"><ele>260.0</ele><time>2026-03-29T08:37:28.999Z</time></trkpt><trkpt lat="43.33600462361304" lon="11.857393529024227"><ele>260.0</ele><time>2026-03-29T08:37:29.999Z</time></trkpt><trkpt lat="43.336036717838276" lon="11.857311246206082"><ele>260.0</ele><time>2026-03-29T08:37:30.999Z</time></trkpt><trkpt lat="43.336071548088505" lon="11.857221951523385"><ele>260.00000000000006</ele><time>2026-03-29T08:37:31.999Z</time></trkpt><trkpt lat="43.336104078190694" lon="11.85713855367216"><ele>260.0</ele><time>2026-03-29T08:37:32.999Z</time></trkpt><trkpt lat="43.336134983888286" lon="11.857059320356015"><ele>260.0</ele><time>2026-03-29T08:37:33.999Z</time></trkpt><trkpt lat="43.33616623470204" lon="11.856979202205089"><ele>260.0</ele><time>2026-03-29T08:37:34.999Z</time></trkpt><trkpt lat="43.33619744121007" lon="11.85689919783617"><ele>260.0</ele><time>2026-03-29T08:37:35.999Z</time></trkpt><trkpt lat="43.336228944402" lon="11.856818432605538"><ele>260.00000000000006</ele><time>2026-03-29T08:37:36.999Z</time></trkpt><trkpt lat="43.336261494788715" lon="11.85673498282599"><ele>260.0</ele><time>2026-03-29T08:37:37.999Z</time></trkpt><trkpt lat="43.33629174652856" lon="11.856657426001298"><ele>260.14285714285717</ele><time>2026-03-29T08:37:38.999Z</time></trkpt><trkpt lat="43.33632266397347" lon="11.856578162586457"><ele>260.2857142857143</ele><time>2026-03-29T08:37:39.999Z</time></trkpt><trkpt lat="43.33635368370192" lon="11.85649863691402"><ele>260.42857142857144</ele><time>2026-03-29T08:37:40.999Z</time></trkpt><trkpt lat="43.33638493094993" lon="11.856418527810302"><ele>260.57142857142856</ele><time>2026-03-29T08:37:41.999Z</time></trkpt><trkpt lat="43.336416776835314" lon="11.85633688424015"><ele>260.7142857142857</ele><time>2026-03-29T08:37:42.999Z</time></trkpt><trkpt lat="43.33644705109832" lon="11.856259269755313"><ele>260.8571428571429</ele><time>2026-03-29T08:37:43.999Z</time></trkpt><trkpt lat="43.33647639996421" lon="11.856182296739519"><ele>261.0</ele><time>2026-03-29T08:37:44.999Z</time></trkpt><trkpt lat="43.33650960003248" lon="11.856094330700516"><ele>260.5</ele><time>2026-03-29T08:37:45.999Z</time></trkpt><trkpt lat="43.33654297732908" lon="11.85600589515735"><ele>260.0</ele><time>2026-03-29T08:37:46.999Z</time></trkpt><trkpt lat="43.336576079721794" lon="11.855920623773745"><ele>259.5</ele><time>2026-03-29T08:37:47.999Z</time></trkpt><trkpt lat="43.33661146590961" lon="11.855832772529778"><ele>259.0</ele><time>2026-03-29T08:37:48.999Z</time></trkpt><trkpt lat="43.33664515706834" lon="11.855740381605893"><ele>258.5</ele><time>2026-03-29T08:37:49.999Z</time></trkpt><trkpt lat="43.336667019570584" lon="11.855635459038895"><ele>258.0</ele><time>2026-03-29T08:37:50.999Z</time></trkpt><trkpt lat="43.336672862967845" lon="11.855523432691832"><ele>257.8333333333333</ele><time>2026-03-29T08:37:51.999Z</time></trkpt><trkpt lat="43.33664465914701" lon="11.855413172333234"><ele>257.6666666666667</ele><time>2026-03-29T08:37:52.999Z</time></trkpt><trkpt lat="43.336620954761294" lon="11.85531396167312"><ele>257.5</ele><time>2026-03-29T08:37:53.999Z</time></trkpt><trkpt lat="43.33659789329918" lon="11.85520956042033"><ele>257.33333333333337</ele><time>2026-03-29T08:37:54.999Z</time></trkpt><trkpt lat="43.336596116074716" lon="11.85509808531033"><ele>257.1666666666667</ele><time>2026-03-29T08:37:55.999Z</time></trkpt><trkpt lat="43.33657996254547" lon="11.854995384296462"><ele>257.0</ele><time>2026-03-29T08:37:56.999Z</time></trkpt><trkpt lat="43.33656358076641" lon="11.85489123232721"><ele>257.33333333333337</ele><time>2026-03-29T08:37:57.999Z</time></trkpt><trkpt lat="43.3365470598274" lon="11.854789348285426"><ele>257.6666666666667</ele><time>2026-03-29T08:37:58.999Z</time></trkpt><trkpt lat="43.33653023602131" lon="11.854686434037239"><ele>258.0</ele><time>2026-03-29T08:37:59.999Z</time></trkpt><trkpt lat="43.336513280805995" lon="11.854582715700843"><ele>258.3333333333333</ele><time>2026-03-29T08:38:00.999Z</time></trkpt><trkpt lat="43.33649697658338" lon="11.854482979691587"><ele>258.66666666666663</ele><time>2026-03-29T08:38:01.999Z</time></trkpt><trkpt lat="43.33646736080935" lon="11.854384716512367"><ele>259.0</ele><time>2026-03-29T08:38:02.999Z</time></trkpt><trkpt lat="43.33644927233074" lon="11.854284925967754"><ele>259.2857142857143</ele><time>2026-03-29T08:38:03.999Z</time></trkpt><trkpt lat="43.3364341517273" lon="11.854193812630054"><ele>259.57142857142856</ele><time>2026-03-29T08:38:04.999Z</time></trkpt><trkpt lat="43.336433653671584" lon="11.854097970281071"><ele>259.8571428571429</ele><time>2026-03-29T08:38:05.999Z</time></trkpt><trkpt lat="43.33641821177189" lon="11.854001667833213"><ele>260.1428571428571</ele><time>2026-03-29T08:38:06.999Z</time></trkpt><trkpt lat="43.336402098467396" lon="11.853904692327895"><ele>260.42857142857144</ele><time>2026-03-29T08:38:07.999Z</time></trkpt><trkpt lat="43.33636953058245" lon="11.8538086973376"><ele>260.7142857142857</ele><time>2026-03-29T08:38:08.999Z</time></trkpt><trkpt lat="43.336368204643136" lon="11.853704738811006"><ele>261.0</ele><time>2026-03-29T08:38:09.999Z</time></trkpt><trkpt lat="43.33635117694189" lon="11.853605822234389"><ele>261.0</ele><time>2026-03-29T08:38:10.999Z</time></trkpt><trkpt lat="43.33633383273007" lon="11.853505939800579"><ele>261.0</ele><time>2026-03-29T08:38:11.999Z</time></trkpt><trkpt lat="43.33631702418041" lon="11.853409142087393"><ele>261.0</ele><time>2026-03-29T08:38:13Z</time></trkpt><trkpt lat="43.33630027293067" lon="11.853312674468285"><ele>261.0</ele><time>2026-03-29T08:38:14Z</time></trkpt><trkpt lat="43.33628277189501" lon="11.853211888935277"><ele>261.0</ele><time>2026-03-29T08:38:15Z</time></trkpt><trkpt lat="43.33625064029364" lon="11.8531158389561"><ele>261.0</ele><time>2026-03-29T08:38:16Z</time></trkpt><trkpt lat="43.33623699592984" lon="11.85301570779129"><ele>261.0</ele><time>2026-03-29T08:38:17Z</time></trkpt><trkpt lat="43.336219360806425" lon="11.852919742430402"><ele>261.2857142857143</ele><time>2026-03-29T08:38:18Z</time></trkpt><trkpt lat="43.33620094354973" lon="11.852826020256037"><ele>261.57142857142856</ele><time>2026-03-29T08:38:19Z</time></trkpt><trkpt lat="43.33620076735631" lon="11.852722017249457"><ele>261.85714285714283</ele><time>2026-03-29T08:38:20Z</time></trkpt><trkpt lat="43.33618499050818" lon="11.852625388379062"><ele>262.1428571428571</ele><time>2026-03-29T08:38:21Z</time></trkpt><trkpt lat="43.33615410314989" lon="11.852534141471972"><ele>262.4285714285714</ele><time>2026-03-29T08:38:22Z</time></trkpt><trkpt lat="43.33614240474373" lon="11.852441318865665"><ele>262.7142857142857</ele><time>2026-03-29T08:38:23Z</time></trkpt><trkpt lat="43.33613160101429" lon="11.852352558331273"><ele>263.0</ele><time>2026-03-29T08:38:24Z</time></trkpt><trkpt lat="43.33612248038669" lon="11.85222934452719"><ele>263.2</ele><time>2026-03-29T08:38:26Z</time></trkpt><trkpt lat="43.336093592391116" lon="11.852134615006001"><ele>263.4</ele><time>2026-03-29T08:38:29Z</time></trkpt><trkpt lat="43.3359307090562" lon="11.852180501924096"><ele>263.59999999999997</ele><time>2026-03-29T08:38:30Z</time></trkpt><trkpt lat="43.335863013139196" lon="11.852195077047192"><ele>263.8</ele><time>2026-03-29T08:38:31Z</time></trkpt><trkpt lat="43.33578808007819" lon="11.852202353721783"><ele>264.0</ele><time>2026-03-29T08:38:32Z</time></trkpt><trkpt lat="43.335707249453925" lon="11.852208380498652"><ele>264.0</ele><time>2026-03-29T08:38:33Z</time></trkpt><trkpt lat="43.3356240238765" lon="11.85221335843661"><ele>264.0</ele><time>2026-03-29T08:38:34Z</time></trkpt><trkpt lat="43.33553872933756" lon="11.852221821304045"><ele>264.0</ele><time>2026-03-29T08:38:35Z</time></trkpt><trkpt lat="43.33545251049744" lon="11.852227145251165"><ele>264.0</ele><time>2026-03-29T08:38:36Z</time></trkpt><trkpt lat="43.335366751305955" lon="11.85223144452518"><ele>264.0</ele><time>2026-03-29T08:38:37Z</time></trkpt><trkpt lat="43.3352790193487" lon="11.852235866199727"><ele>264.0</ele><time>2026-03-29T08:38:38Z</time></trkpt><trkpt lat="43.33519365932219" lon="11.85224602334181"><ele>263.6666666666667</ele><time>2026-03-29T08:38:39Z</time></trkpt><trkpt lat="43.335105394375866" lon="11.852251530047402"><ele>263.3333333333333</ele><time>2026-03-29T08:38:40Z</time></trkpt><trkpt lat="43.33501665343376" lon="11.852254021290797"><ele>263.0</ele><time>2026-03-29T08:38:41Z</time></trkpt><trkpt lat="43.33493066713494" lon="11.85226835640488"><ele>262.66666666666663</ele><time>2026-03-29T08:38:42Z</time></trkpt><trkpt lat="43.3348439426146" lon="11.852279812164802"><ele>262.3333333333333</ele><time>2026-03-29T08:38:43Z</time></trkpt><trkpt lat="43.334756918877" lon="11.852288140013508"><ele>262.0</ele><time>2026-03-29T08:38:44Z</time></trkpt><trkpt lat="43.33467023895704" lon="11.852299423332202"><ele>262.0</ele><time>2026-03-29T08:38:45Z</time></trkpt><trkpt lat="43.334582643080445" lon="11.852311065787216"><ele>262.0</ele><time>2026-03-29T08:38:46Z</time></trkpt><trkpt lat="43.334495180295676" lon="11.852315918970383"><ele>262.0</ele><time>2026-03-29T08:38:47Z</time></trkpt><trkpt lat="43.3344079972294" lon="11.852333601049809"><ele>262.0</ele><time>2026-03-29T08:38:48Z</time></trkpt><trkpt lat="43.334321582221875" lon="11.85234939013565"><ele>262.0</ele><time>2026-03-29T08:38:49Z</time></trkpt><trkpt lat="43.33423382553307" lon="11.852364012920585"><ele>262.0</ele><time>2026-03-29T08:38:50Z</time></trkpt><trkpt lat="43.334148364924474" lon="11.852381174742233"><ele>262.0</ele><time>2026-03-29T08:38:51Z</time></trkpt><trkpt lat="43.33406133774845" lon="11.852399657609894"><ele>262.0</ele><time>2026-03-29T08:38:52Z</time></trkpt><trkpt lat="43.333973928122745" lon="11.852419196492455"><ele>262.0</ele><time>2026-03-29T08:38:53Z</time></trkpt><trkpt lat="43.33388576871378" lon="11.852435339023128"><ele>262.0</ele><time>2026-03-29T08:38:54Z</time></trkpt><trkpt lat="43.33379844948259" lon="11.852453446346928"><ele>262.0</ele><time>2026-03-29T08:38:55Z</time></trkpt><trkpt lat="43.33371075462491" lon="11.8524714559595"><ele>262.0</ele><time>2026-03-29T08:38:56Z</time></trkpt><trkpt lat="43.333626246409935" lon="11.852498647134082"><ele>262.0</ele><time>2026-03-29T08:38:57Z</time></trkpt><trkpt lat="43.333541692190686" lon="11.852537378092816"><ele>262.0</ele><time>2026-03-29T08:38:58Z</time></trkpt><trkpt lat="43.33345879719384" lon="11.852578761798965"><ele>262.0</ele><time>2026-03-29T08:38:59Z</time></trkpt><trkpt lat="43.33337534410039" lon="11.852619716626437"><ele>262.0</ele><time>2026-03-29T08:39:00Z</time></trkpt><trkpt lat="43.333293942081724" lon="11.852661530445477"><ele>262.0</ele><time>2026-03-29T08:39:01Z</time></trkpt><trkpt lat="43.3332091748697" lon="11.852705473843997"><ele>262.0</ele><time>2026-03-29T08:39:02Z</time></trkpt><trkpt lat="43.333124620938186" lon="11.852750126021894"><ele>262.3333333333333</ele><time>2026-03-29T08:39:03Z</time></trkpt><trkpt lat="43.3330394808716" lon="11.852790621796208"><ele>262.66666666666663</ele><time>2026-03-29T08:39:04Z</time></trkpt><trkpt lat="43.33295334087136" lon="11.852832109125808"><ele>263.0</ele><time>2026-03-29T08:39:05Z</time></trkpt><trkpt lat="43.33287154006018" lon="11.852871178742756"><ele>263.3333333333333</ele><time>2026-03-29T08:39:06Z</time></trkpt><trkpt lat="43.33279054655123" lon="11.852903623376552"><ele>263.6666666666667</ele><time>2026-03-29T08:39:07Z</time></trkpt><trkpt lat="43.33270884108675" lon="11.852934532162209"><ele>264.0</ele><time>2026-03-29T08:39:08Z</time></trkpt><trkpt lat="43.33262720711957" lon="11.8529705302622"><ele>264.0</ele><time>2026-03-29T08:39:08.999Z</time></trkpt><trkpt lat="43.33254611586569" lon="11.853008821693818"><ele>264.0</ele><time>2026-03-29T08:39:09.999Z</time></trkpt><trkpt lat="43.332464126331004" lon="11.85304229014291"><ele>264.0</ele><time>2026-03-29T08:39:10.999Z</time></trkpt><trkpt lat="43.33237991336319" lon="11.853083450533122"><ele>264.0</ele><time>2026-03-29T08:39:11.999Z</time></trkpt><trkpt lat="43.3322974872842" lon="11.853123531029032"><ele>264.0</ele><time>2026-03-29T08:39:12.999Z</time></trkpt><trkpt lat="43.33221428558117" lon="11.853163590919145"><ele>264.0</ele><time>2026-03-29T08:39:13.999Z</time></trkpt><trkpt lat="43.33212909069762" lon="11.853201279230479"><ele>264.0</ele><time>2026-03-29T08:39:14.999Z</time></trkpt><trkpt lat="43.33204692502704" lon="11.853244949481633"><ele>264.0</ele><time>2026-03-29T08:39:15.999Z</time></trkpt><trkpt lat="43.33196020370772" lon="11.853283453359293"><ele>264.0</ele><time>2026-03-29T08:39:16.999Z</time></trkpt><trkpt lat="43.33187763716921" lon="11.853319251585159"><ele>264.0</ele><time>2026-03-29T08:39:17.999Z</time></trkpt><trkpt lat="43.331796322858565" lon="11.853361582552534"><ele>264.0</ele><time>2026-03-29T08:39:18.999Z</time></trkpt><trkpt lat="43.33171489933147" lon="11.853405450928202"><ele>264.0</ele><time>2026-03-29T08:39:19.999Z</time></trkpt><trkpt lat="43.33163417937099" lon="11.853442281075143"><ele>264.0</ele><time>2026-03-29T08:39:20.999Z</time></trkpt><trkpt lat="43.33154852868233" lon="11.85347161607477"><ele>264.0</ele><time>2026-03-29T08:39:21.999Z</time></trkpt><trkpt lat="43.33146202402333" lon="11.853506612157503"><ele>264.0</ele><time>2026-03-29T08:39:22.999Z</time></trkpt><trkpt lat="43.33137617895097" lon="11.853545708207339"><ele>264.0</ele><time>2026-03-29T08:39:23.999Z</time></trkpt><trkpt lat="43.33129205931595" lon="11.853584511861984"><ele>264.0</ele><time>2026-03-29T08:39:24.999Z</time></trkpt><trkpt lat="43.33120554407438" lon="11.853622027135165"><ele>264.0</ele><time>2026-03-29T08:39:25.999Z</time></trkpt><trkpt lat="43.33112351619299" lon="11.853658209931867"><ele>264.0</ele><time>2026-03-29T08:39:26.999Z</time></trkpt><trkpt lat="43.33104083605215" lon="11.853695166480934"><ele>264.0</ele><time>2026-03-29T08:39:27.999Z</time></trkpt><trkpt lat="43.330956622706395" lon="11.85373337993615"><ele>264.0</ele><time>2026-03-29T08:39:28.999Z</time></trkpt><trkpt lat="43.33087407180669" lon="11.853777954001323"><ele>264.0</ele><time>2026-03-29T08:39:29.999Z</time></trkpt><trkpt lat="43.33078808098875" lon="11.853822749150748"><ele>264.0</ele><time>2026-03-29T08:39:30.999Z</time></trkpt><trkpt lat="43.33070264463861" lon="11.853868329836823"><ele>264.0</ele><time>2026-03-29T08:39:31.999Z</time></trkpt><trkpt lat="43.330621948337765" lon="11.853916503004434"><ele>264.3333333333333</ele><time>2026-03-29T08:39:32.999Z</time></trkpt><trkpt lat="43.33053513427608" lon="11.853950739347347"><ele>264.6666666666667</ele><time>2026-03-29T08:39:33.999Z</time></trkpt><trkpt lat="43.33045095787375" lon="11.853990918449982"><ele>265.0</ele><time>2026-03-29T08:39:34.999Z</time></trkpt><trkpt lat="43.330365140178095" lon="11.85402159173427"><ele>265.33333333333337</ele><time>2026-03-29T08:39:35.999Z</time></trkpt><trkpt lat="43.3302789536333" lon="11.85404503724018"><ele>265.6666666666667</ele><time>2026-03-29T08:39:36.999Z</time></trkpt><trkpt lat="43.33019416848399" lon="11.8540934414213"><ele>266.0</ele><time>2026-03-29T08:39:37.999Z</time></trkpt><trkpt lat="43.330109114299084" lon="11.85413316321089"><ele>266.0</ele><time>2026-03-29T08:39:38.999Z</time></trkpt><trkpt lat="43.33002389648842" lon="11.854166684937876"><ele>266.0</ele><time>2026-03-29T08:39:39.999Z</time></trkpt><trkpt lat="43.329938434677416" lon="11.854206149157818"><ele>266.0</ele><time>2026-03-29T08:39:40.999Z</time></trkpt><trkpt lat="43.32985365041086" lon="11.854246099026287"><ele>266.0</ele><time>2026-03-29T08:39:41.999Z</time></trkpt><trkpt lat="43.329767859042896" lon="11.854287464068562"><ele>266.0</ele><time>2026-03-29T08:39:42.999Z</time></trkpt><trkpt lat="43.32968113097796" lon="11.85433052673341"><ele>266.2</ele><time>2026-03-29T08:39:43.999Z</time></trkpt><trkpt lat="43.329592003741325" lon="11.854373949966268"><ele>266.40000000000003</ele><time>2026-03-29T08:39:44.999Z</time></trkpt><trkpt lat="43.329503438750756" lon="11.854413188609508"><ele>266.6</ele><time>2026-03-29T08:39:45.999Z</time></trkpt><trkpt lat="43.32941563026055" lon="11.854449936582261"><ele>266.8</ele><time>2026-03-29T08:39:46.999Z</time></trkpt><trkpt lat="43.329330881038366" lon="11.854488940219534"><ele>267.0</ele><time>2026-03-29T08:39:47.999Z</time></trkpt><trkpt lat="43.32924774937461" lon="11.854529264176593"><ele>267.0</ele><time>2026-03-29T08:39:48.999Z</time></trkpt><trkpt lat="43.32916769578295" lon="11.85456746217479"><ele>267.0</ele><time>2026-03-29T08:39:49.999Z</time></trkpt><trkpt lat="43.32908861158367" lon="11.854610213918102"><ele>267.0</ele><time>2026-03-29T08:39:50.999Z</time></trkpt><trkpt lat="43.32901436582019" lon="11.854643538718344"><ele>267.0</ele><time>2026-03-29T08:39:51.999Z</time></trkpt><trkpt lat="43.32891664536493" lon="11.854702036109854"><ele>267.0</ele><time>2026-03-29T08:39:53.999Z</time></trkpt><trkpt lat="43.32881631434787" lon="11.854581749478974"><ele>266.6666666666667</ele><time>2026-03-29T08:39:56.999Z</time></trkpt><trkpt lat="43.32879158513116" lon="11.854498547797949"><ele>266.3333333333333</ele><time>2026-03-29T08:39:57.999Z</time></trkpt><trkpt lat="43.328756513446464" lon="11.854411013959952"><ele>266.0</ele><time>2026-03-29T08:39:58.999Z</time></trkpt><trkpt lat="43.328720075030645" lon="11.854320915168381"><ele>265.66666666666663</ele><time>2026-03-29T08:39:59.999Z</time></trkpt><trkpt lat="43.32867909367031" lon="11.854227899813312"><ele>265.3333333333333</ele><time>2026-03-29T08:40:00.999Z</time></trkpt><trkpt lat="43.32864316943493" lon="11.854127354282358"><ele>265.0</ele><time>2026-03-29T08:40:01.999Z</time></trkpt><trkpt lat="43.32860500829905" lon="11.854024364429124"><ele>265.0</ele><time>2026-03-29T08:40:02.999Z</time></trkpt><trkpt lat="43.328564525620585" lon="11.853913587801548"><ele>265.0</ele><time>2026-03-29T08:40:03.999Z</time></trkpt><trkpt lat="43.32852420709981" lon="11.85380299060958"><ele>265.0</ele><time>2026-03-29T08:40:04.999Z</time></trkpt><trkpt lat="43.3284825206368" lon="11.853691923636477"><ele>265.0</ele><time>2026-03-29T08:40:05.999Z</time></trkpt><trkpt lat="43.328441586407486" lon="11.85358058366203"><ele>265.0</ele><time>2026-03-29T08:40:06.999Z</time></trkpt><trkpt lat="43.32840032221208" lon="11.85346627199595"><ele>265.0</ele><time>2026-03-29T08:40:07.999Z</time></trkpt><trkpt lat="43.328359189502606" lon="11.85335140013053"><ele>265.0</ele><time>2026-03-29T08:40:08.999Z</time></trkpt><trkpt lat="43.32831705366203" lon="11.853234933773406"><ele>265.0</ele><time>2026-03-29T08:40:09.999Z</time></trkpt><trkpt lat="43.32827371848327" lon="11.853116683442671"><ele>265.0</ele><time>2026-03-29T08:40:10.999Z</time></trkpt><trkpt lat="43.328228703957066" lon="11.852997737483829"><ele>265.0</ele><time>2026-03-29T08:40:11.999Z</time></trkpt><trkpt lat="43.32818546894948" lon="11.852877405202433"><ele>265.0</ele><time>2026-03-29T08:40:12.999Z</time></trkpt><trkpt lat="43.328143006671475" lon="11.852757635303655"><ele>265.0</ele><time>2026-03-29T08:40:13.999Z</time></trkpt><trkpt lat="43.3280987669586" lon="11.852637615886067"><ele>265.0</ele><time>2026-03-29T08:40:14.999Z</time></trkpt><trkpt lat="43.328054321259586" lon="11.85251645893562"><ele>265.0</ele><time>2026-03-29T08:40:15.999Z</time></trkpt><trkpt lat="43.32800944190033" lon="11.852394897800751"><ele>265.0</ele><time>2026-03-29T08:40:16.999Z</time></trkpt><trkpt lat="43.32796482347323" lon="11.85227272010692"><ele>265.2</ele><time>2026-03-29T08:40:17.999Z</time></trkpt><trkpt lat="43.32792182031505" lon="11.852151010036012"><ele>265.4</ele><time>2026-03-29T08:40:19Z</time></trkpt><trkpt lat="43.32787847111177" lon="11.85202821256892"><ele>265.6</ele><time>2026-03-29T08:40:20Z</time></trkpt><trkpt lat="43.32783523983002" lon="11.851904925621822"><ele>265.8</ele><time>2026-03-29T08:40:21Z</time></trkpt><trkpt lat="43.32779356020006" lon="11.851781157209379"><ele>266.0</ele><time>2026-03-29T08:40:22Z</time></trkpt><trkpt lat="43.327752158968636" lon="11.851658488793985"><ele>266.0</ele><time>2026-03-29T08:40:23Z</time></trkpt><trkpt lat="43.32771058764372" lon="11.851535484731277"><ele>266.0</ele><time>2026-03-29T08:40:24Z</time></trkpt><trkpt lat="43.32766953462436" lon="11.851412971006695"><ele>266.0</ele><time>2026-03-29T08:40:25Z</time></trkpt><trkpt lat="43.32762954447828" lon="11.851291549583033"><ele>266.0</ele><time>2026-03-29T08:40:26Z</time></trkpt><trkpt lat="43.32758896548844" lon="11.851170491853027"><ele>266.0</ele><time>2026-03-29T08:40:27Z</time></trkpt><trkpt lat="43.32754866796027" lon="11.851049694034096"><ele>266.2</ele><time>2026-03-29T08:40:28Z</time></trkpt><trkpt lat="43.32750816372072" lon="11.850930970672625"><ele>266.40000000000003</ele><time>2026-03-29T08:40:29Z</time></trkpt><trkpt lat="43.327468256031636" lon="11.850814363785886"><ele>266.6</ele><time>2026-03-29T08:40:30Z</time></trkpt><trkpt lat="43.327427608525184" lon="11.850695523121358"><ele>266.8</ele><time>2026-03-29T08:40:31Z</time></trkpt><trkpt lat="43.32738793500262" lon="11.850579556492033"><ele>267.0</ele><time>2026-03-29T08:40:32Z</time></trkpt><trkpt lat="43.327348279183795" lon="11.850462160355132"><ele>267.0</ele><time>2026-03-29T08:40:33Z</time></trkpt><trkpt lat="43.32730887656484" lon="11.850344664857655"><ele>267.0</ele><time>2026-03-29T08:40:34Z</time></trkpt><trkpt lat="43.32727076684443" lon="11.850226880803632"><ele>267.0</ele><time>2026-03-29T08:40:35Z</time></trkpt><trkpt lat="43.32723343563851" lon="11.850109852700246"><ele>267.0</ele><time>2026-03-29T08:40:36Z</time></trkpt><trkpt lat="43.32719597939276" lon="11.84999541249403"><ele>267.0</ele><time>2026-03-29T08:40:37Z</time></trkpt><trkpt lat="43.32715697804357" lon="11.84988215131042"><ele>267.0</ele><time>2026-03-29T08:40:38Z</time></trkpt><trkpt lat="43.327114803067325" lon="11.849769851477783"><ele>267.0</ele><time>2026-03-29T08:40:39Z</time></trkpt><trkpt lat="43.32706605043018" lon="11.849663525682839"><ele>267.0</ele><time>2026-03-29T08:40:40Z</time></trkpt><trkpt lat="43.32701291661991" lon="11.84955819850865"><ele>267.0</ele><time>2026-03-29T08:40:41Z</time></trkpt><trkpt lat="43.3269523101736" lon="11.849458407991191"><ele>267.0</ele><time>2026-03-29T08:40:42Z</time></trkpt><trkpt lat="43.32689009405365" lon="11.849366286034348"><ele>266.8</ele><time>2026-03-29T08:40:43Z</time></trkpt><trkpt lat="43.326821703741764" lon="11.849281997296805"><ele>266.6</ele><time>2026-03-29T08:40:44Z</time></trkpt><trkpt lat="43.32674881035116" lon="11.849204183894928"><ele>266.40000000000003</ele><time>2026-03-29T08:40:45Z</time></trkpt><trkpt lat="43.32667451787693" lon="11.84913194127525"><ele>266.2</ele><time>2026-03-29T08:40:46Z</time></trkpt><trkpt lat="43.32659634269522" lon="11.849062206256912"><ele>266.0</ele><time>2026-03-29T08:40:47Z</time></trkpt><trkpt lat="43.326516349778416" lon="11.848988195145408"><ele>266.0</ele><time>2026-03-29T08:40:48Z</time></trkpt><trkpt lat="43.326432445339925" lon="11.848918145345959"><ele>266.0</ele><time>2026-03-29T08:40:49Z</time></trkpt><trkpt lat="43.32634676752625" lon="11.848849191097516"><ele>266.0</ele><time>2026-03-29T08:40:50Z</time></trkpt><trkpt lat="43.32626175765639" lon="11.848780016544639"><ele>266.0</ele><time>2026-03-29T08:40:51Z</time></trkpt><trkpt lat="43.32617516135078" lon="11.848709042943021"><ele>266.0</ele><time>2026-03-29T08:40:52Z</time></trkpt><trkpt lat="43.32609098292306" lon="11.848638153505402"><ele>266.0</ele><time>2026-03-29T08:40:53Z</time></trkpt><trkpt lat="43.326005351161385" lon="11.848568223306366"><ele>266.0</ele><time>2026-03-29T08:40:54Z</time></trkpt><trkpt lat="43.325919173781536" lon="11.848494974852517"><ele>266.0</ele><time>2026-03-29T08:40:55Z</time></trkpt><trkpt lat="43.325832380482204" lon="11.84842194794274"><ele>266.0</ele><time>2026-03-29T08:40:56Z</time></trkpt><trkpt lat="43.32574520891236" lon="11.848349284610464"><ele>266.0</ele><time>2026-03-29T08:40:57Z</time></trkpt><trkpt lat="43.32565868278808" lon="11.848279810710878"><ele>264.6</ele><time>2026-03-29T08:40:58Z</time></trkpt><trkpt lat="43.32557390165217" lon="11.848210747648782"><ele>263.20000000000005</ele><time>2026-03-29T08:40:59Z</time></trkpt><trkpt lat="43.32549339583454" lon="11.848144010712977"><ele>261.79999999999995</ele><time>2026-03-29T08:41:00Z</time></trkpt><trkpt lat="43.325410792311054" lon="11.848075826898326"><ele>260.4</ele><time>2026-03-29T08:41:01Z</time></trkpt><trkpt lat="43.32532701515889" lon="11.848005552481737"><ele>259.0</ele><time>2026-03-29T08:41:02Z</time></trkpt><trkpt lat="43.32524355733619" lon="11.847935343639428"><ele>259.0</ele><time>2026-03-29T08:41:03Z</time></trkpt><trkpt lat="43.32515781613328" lon="11.84786247811377"><ele>259.0</ele><time>2026-03-29T08:41:04Z</time></trkpt><trkpt lat="43.325071364517555" lon="11.847791918773705"><ele>259.0</ele><time>2026-03-29T08:41:05Z</time></trkpt><trkpt lat="43.32498450905351" lon="11.847718133491723"><ele>259.0</ele><time>2026-03-29T08:41:06Z</time></trkpt><trkpt lat="43.32489621029586" lon="11.847645917811146"><ele>259.0</ele><time>2026-03-29T08:41:07Z</time></trkpt><trkpt lat="43.32480806356049" lon="11.847573856561208"><ele>256.8</ele><time>2026-03-29T08:41:08Z</time></trkpt><trkpt lat="43.324720737075154" lon="11.847499956175978"><ele>254.59999999999997</ele><time>2026-03-29T08:41:09Z</time></trkpt><trkpt lat="43.32463345435542" lon="11.847427078635775"><ele>252.4</ele><time>2026-03-29T08:41:10Z</time></trkpt><trkpt lat="43.324546151101096" lon="11.847358059029695"><ele>250.2</ele><time>2026-03-29T08:41:11Z</time></trkpt><trkpt lat="43.324459733934816" lon="11.847287412286567"><ele>248.0</ele><time>2026-03-29T08:41:12Z</time></trkpt><trkpt lat="43.32437488073333" lon="11.847214300415061"><ele>248.0</ele><time>2026-03-29T08:41:13Z</time></trkpt><trkpt lat="43.32428874160383" lon="11.84714170843935"><ele>248.0</ele><time>2026-03-29T08:41:14Z</time></trkpt><trkpt lat="43.32420490014458" lon="11.847067781687265"><ele>248.0</ele><time>2026-03-29T08:41:15Z</time></trkpt><trkpt lat="43.32412567094763" lon="11.846987216818697"><ele>248.0</ele><time>2026-03-29T08:41:16Z</time></trkpt><trkpt lat="43.324051351334155" lon="11.846893649204878"><ele>248.0</ele><time>2026-03-29T08:41:17Z</time></trkpt><trkpt lat="43.32398376891934" lon="11.846789403560196"><ele>247.60000000000002</ele><time>2026-03-29T08:41:18Z</time></trkpt><trkpt lat="43.32392300034329" lon="11.846678860877013"><ele>247.20000000000002</ele><time>2026-03-29T08:41:18.999Z</time></trkpt><trkpt lat="43.32386325137662" lon="11.846568283038925"><ele>246.8</ele><time>2026-03-29T08:41:19.999Z</time></trkpt><trkpt lat="43.32380525611164" lon="11.846450285136301"><ele>246.4</ele><time>2026-03-29T08:41:20.999Z</time></trkpt><trkpt lat="43.323760833944576" lon="11.846327729669868"><ele>246.0</ele><time>2026-03-29T08:41:21.999Z</time></trkpt><trkpt lat="43.32372168585265" lon="11.846199578402635"><ele>245.8</ele><time>2026-03-29T08:41:22.999Z</time></trkpt><trkpt lat="43.323680597358454" lon="11.846074065840556"><ele>245.60000000000002</ele><time>2026-03-29T08:41:23.999Z</time></trkpt><trkpt lat="43.32364364142708" lon="11.845946869220139"><ele>245.4</ele><time>2026-03-29T08:41:24.999Z</time></trkpt><trkpt lat="43.323609652900025" lon="11.845820051129987"><ele>245.2</ele><time>2026-03-29T08:41:25.999Z</time></trkpt><trkpt lat="43.32357498229591" lon="11.84569518256105"><ele>245.0</ele><time>2026-03-29T08:41:26.999Z</time></trkpt><trkpt lat="43.323541338313326" lon="11.84557055107987"><ele>244.4</ele><time>2026-03-29T08:41:27.999Z</time></trkpt><trkpt lat="43.323506734294384" lon="11.845447542163075"><ele>243.8</ele><time>2026-03-29T08:41:28.999Z</time></trkpt><trkpt lat="43.32347356131137" lon="11.8453231991234"><ele>243.2</ele><time>2026-03-29T08:41:29.999Z</time></trkpt><trkpt lat="43.323439992186" lon="11.845199025426021"><ele>242.6</ele><time>2026-03-29T08:41:30.999Z</time></trkpt><trkpt lat="43.32340641265439" lon="11.845075069270148"><ele>242.0</ele><time>2026-03-29T08:41:31.999Z</time></trkpt><trkpt lat="43.3233734140561" lon="11.844950585412859"><ele>241.8</ele><time>2026-03-29T08:41:32.999Z</time></trkpt><trkpt lat="43.32333866631284" lon="11.844825019350314"><ele>241.6</ele><time>2026-03-29T08:41:33.999Z</time></trkpt><trkpt lat="43.323303778867455" lon="11.844699467227"><ele>241.40000000000003</ele><time>2026-03-29T08:41:34.999Z</time></trkpt><trkpt lat="43.32326853085741" lon="11.844574335043317"><ele>241.20000000000002</ele><time>2026-03-29T08:41:35.999Z</time></trkpt><trkpt lat="43.32323392774116" lon="11.844448942947256"><ele>241.0</ele><time>2026-03-29T08:41:36.999Z</time></trkpt><trkpt lat="43.32319967900732" lon="11.844322054621282"><ele>241.20000000000002</ele><time>2026-03-29T08:41:37.999Z</time></trkpt><trkpt lat="43.32316400187733" lon="11.84419629987499"><ele>241.40000000000003</ele><time>2026-03-29T08:41:38.999Z</time></trkpt><trkpt lat="43.323128996551674" lon="11.844068853595338"><ele>241.6</ele><time>2026-03-29T08:41:39.999Z</time></trkpt><trkpt lat="43.32309473525337" lon="11.84394361353962"><ele>241.8</ele><time>2026-03-29T08:41:40.999Z</time></trkpt><trkpt lat="43.3230583962571" lon="11.84381785770942"><ele>242.0</ele><time>2026-03-29T08:41:41.999Z</time></trkpt><trkpt lat="43.32302376824499" lon="11.843691744393148"><ele>241.6</ele><time>2026-03-29T08:41:42.999Z</time></trkpt><trkpt lat="43.322989001412076" lon="11.843565933535764"><ele>241.2</ele><time>2026-03-29T08:41:43.999Z</time></trkpt><trkpt lat="43.3229550007088" lon="11.843440472399669"><ele>240.8</ele><time>2026-03-29T08:41:44.999Z</time></trkpt><trkpt lat="43.32292068684777" lon="11.843314309828719"><ele>240.4</ele><time>2026-03-29T08:41:45.999Z</time></trkpt><trkpt lat="43.3228869832523" lon="11.84318892881626"><ele>240.0</ele><time>2026-03-29T08:41:46.999Z</time></trkpt><trkpt lat="43.32285186360388" lon="11.843064047215664"><ele>240.0</ele><time>2026-03-29T08:41:47.999Z</time></trkpt><trkpt lat="43.32281738129384" lon="11.842940316600247"><ele>240.0</ele><time>2026-03-29T08:41:48.999Z</time></trkpt><trkpt lat="43.32278414095382" lon="11.842816279500397"><ele>240.0</ele><time>2026-03-29T08:41:49.999Z</time></trkpt><trkpt lat="43.3227502872379" lon="11.842693262647547"><ele>240.0</ele><time>2026-03-29T08:41:50.999Z</time></trkpt><trkpt lat="43.32271589173721" lon="11.842569999762796"><ele>240.0</ele><time>2026-03-29T08:41:51.999Z</time></trkpt><trkpt lat="43.32268185509967" lon="11.842445610818027"><ele>240.2</ele><time>2026-03-29T08:41:52.999Z</time></trkpt><trkpt lat="43.322647981200134" lon="11.842321445965986"><ele>240.4</ele><time>2026-03-29T08:41:53.999Z</time></trkpt><trkpt lat="43.322613394301065" lon="11.842197682648706"><ele>240.60000000000002</ele><time>2026-03-29T08:41:54.999Z</time></trkpt><trkpt lat="43.32258026736638" lon="11.842074416235294"><ele>240.8</ele><time>2026-03-29T08:41:55.999Z</time></trkpt><trkpt lat="43.32254618498564" lon="11.841950954799682"><ele>241.0</ele><time>2026-03-29T08:41:56.999Z</time></trkpt><trkpt lat="43.322512415146704" lon="11.841828757274298"><ele>241.20000000000002</ele><time>2026-03-29T08:41:57.999Z</time></trkpt><trkpt lat="43.32247822813198" lon="11.84170649989918"><ele>241.40000000000003</ele><time>2026-03-29T08:41:58.999Z</time></trkpt><trkpt lat="43.322445537153435" lon="11.841582256008797"><ele>241.6</ele><time>2026-03-29T08:41:59.999Z</time></trkpt><trkpt lat="43.32241122908968" lon="11.841458145217041"><ele>241.8</ele><time>2026-03-29T08:42:00.999Z</time></trkpt><trkpt lat="43.322376925752884" lon="11.84133400248138"><ele>242.0</ele><time>2026-03-29T08:42:01.999Z</time></trkpt><trkpt lat="43.322342161664125" lon="11.84121208642341"><ele>242.0</ele><time>2026-03-29T08:42:02.999Z</time></trkpt><trkpt lat="43.322306146056206" lon="11.841089293741092"><ele>242.0</ele><time>2026-03-29T08:42:03.999Z</time></trkpt><trkpt lat="43.32226803330841" lon="11.840968325709575"><ele>242.0</ele><time>2026-03-29T08:42:04.999Z</time></trkpt><trkpt lat="43.32222739788304" lon="11.840849347403111"><ele>242.0</ele><time>2026-03-29T08:42:05.999Z</time></trkpt><trkpt lat="43.32218625031327" lon="11.840734313623729"><ele>242.0</ele><time>2026-03-29T08:42:06.999Z</time></trkpt><trkpt lat="43.32214425693597" lon="11.840622065303055"><ele>241.8</ele><time>2026-03-29T08:42:07.999Z</time></trkpt><trkpt lat="43.32210130227431" lon="11.840510880534536"><ele>241.6</ele><time>2026-03-29T08:42:08.999Z</time></trkpt><trkpt lat="43.32205662671102" lon="11.840401247942395"><ele>241.40000000000003</ele><time>2026-03-29T08:42:09.999Z</time></trkpt><trkpt lat="43.32201442398214" lon="11.840292828151727"><ele>241.20000000000002</ele><time>2026-03-29T08:42:10.999Z</time></trkpt><trkpt lat="43.32197158218357" lon="11.840186915902851"><ele>241.0</ele><time>2026-03-29T08:42:11.999Z</time></trkpt><trkpt lat="43.32192916894975" lon="11.840078468526636"><ele>240.83333333333331</ele><time>2026-03-29T08:42:12.999Z</time></trkpt><trkpt lat="43.3218871092617" lon="11.839972571185983"><ele>240.66666666666666</ele><time>2026-03-29T08:42:13.999Z</time></trkpt><trkpt lat="43.321845360303804" lon="11.839867022315403"><ele>240.5</ele><time>2026-03-29T08:42:14.999Z</time></trkpt><trkpt lat="43.32180413271614" lon="11.839762116821262"><ele>240.33333333333331</ele><time>2026-03-29T08:42:15.999Z</time></trkpt><trkpt lat="43.32176416334892" lon="11.839662681403349"><ele>240.16666666666666</ele><time>2026-03-29T08:42:16.999Z</time></trkpt><trkpt lat="43.321725665495045" lon="11.839566383016798"><ele>240.0</ele><time>2026-03-29T08:42:17.999Z</time></trkpt><trkpt lat="43.32168994438792" lon="11.839476367679064"><ele>240.0</ele><time>2026-03-29T08:42:18.999Z</time></trkpt><trkpt lat="43.32165408044934" lon="11.839389741653491"><ele>240.0</ele><time>2026-03-29T08:42:19.999Z</time></trkpt><trkpt lat="43.3216219646824" lon="11.839304812152994"><ele>240.0</ele><time>2026-03-29T08:42:20.999Z</time></trkpt><trkpt lat="43.32156008993702" lon="11.839146524283757"><ele>240.0</ele><time>2026-03-29T08:42:22.999Z</time></trkpt><trkpt lat="43.32152903239206" lon="11.839069180847458"><ele>240.0</ele><time>2026-03-29T08:42:24Z</time></trkpt><trkpt lat="43.32149891800388" lon="11.838992492130133"><ele>240.0</ele><time>2026-03-29T08:42:25Z</time></trkpt><trkpt lat="43.321469427713666" lon="11.83891568895321"><ele>240.0</ele><time>2026-03-29T08:42:26Z</time></trkpt><trkpt lat="43.32140991517021" lon="11.838764614600175"><ele>240.0</ele><time>2026-03-29T08:42:28Z</time></trkpt><trkpt lat="43.321353837356654" lon="11.838623258444457"><ele>240.0</ele><time>2026-03-29T08:42:30Z</time></trkpt><trkpt lat="43.32130213661243" lon="11.83849344845815"><ele>240.0</ele><time>2026-03-29T08:42:32Z</time></trkpt><trkpt lat="43.32125688153884" lon="11.838376214131308"><ele>240.0</ele><time>2026-03-29T08:42:34Z</time></trkpt><trkpt lat="43.32121312553774" lon="11.838268806406012"><ele>240.2</ele><time>2026-03-29T08:42:36Z</time></trkpt><trkpt lat="43.3211716739173" lon="11.83816300071318"><ele>240.4</ele><time>2026-03-29T08:42:38Z</time></trkpt><trkpt lat="43.321127289897646" lon="11.838053080602293"><ele>240.60000000000002</ele><time>2026-03-29T08:42:40Z</time></trkpt><trkpt lat="43.32107733655811" lon="11.837924408907151"><ele>240.8</ele><time>2026-03-29T08:42:42Z</time></trkpt><trkpt lat="43.321014159575306" lon="11.837774356908302"><ele>241.0</ele><time>2026-03-29T08:42:44Z</time></trkpt><trkpt lat="43.32098056286524" lon="11.837693131328791"><ele>241.16666666666666</ele><time>2026-03-29T08:42:45Z</time></trkpt><trkpt lat="43.320935071672565" lon="11.83761012284082"><ele>241.33333333333331</ele><time>2026-03-29T08:42:46Z</time></trkpt><trkpt lat="43.320910985246265" lon="11.837518864242021"><ele>241.5</ele><time>2026-03-29T08:42:47Z</time></trkpt><trkpt lat="43.320879167812436" lon="11.837420313443632"><ele>241.66666666666669</ele><time>2026-03-29T08:42:48Z</time></trkpt><trkpt lat="43.32083765474037" lon="11.837330301608393"><ele>241.83333333333334</ele><time>2026-03-29T08:42:49Z</time></trkpt><trkpt lat="43.32079686583295" lon="11.837238518981872"><ele>242.0</ele><time>2026-03-29T08:42:50Z</time></trkpt><trkpt lat="43.32075750832715" lon="11.837139658837888"><ele>242.00000000000003</ele><time>2026-03-29T08:42:51Z</time></trkpt><trkpt lat="43.320719345381775" lon="11.837043385235189"><ele>242.0</ele><time>2026-03-29T08:42:52Z</time></trkpt><trkpt lat="43.32067873530413" lon="11.836946976734435"><ele>242.0</ele><time>2026-03-29T08:42:53Z</time></trkpt><trkpt lat="43.320639514473996" lon="11.836856882576281"><ele>242.0</ele><time>2026-03-29T08:42:54Z</time></trkpt><trkpt lat="43.32060152462652" lon="11.836772360580719"><ele>242.00000000000003</ele><time>2026-03-29T08:42:55Z</time></trkpt><trkpt lat="43.320562478249315" lon="11.83668449462364"><ele>242.0</ele><time>2026-03-29T08:42:56Z</time></trkpt><trkpt lat="43.32052808743366" lon="11.836595987665413"><ele>241.85714285714283</ele><time>2026-03-29T08:42:57Z</time></trkpt><trkpt lat="43.32049434411393" lon="11.836503945585783"><ele>241.7142857142857</ele><time>2026-03-29T08:42:58Z</time></trkpt><trkpt lat="43.32046240680296" lon="11.83641451248218"><ele>241.57142857142856</ele><time>2026-03-29T08:42:59Z</time></trkpt><trkpt lat="43.320450617751426" lon="11.83631499673248"><ele>241.42857142857144</ele><time>2026-03-29T08:43:00Z</time></trkpt><trkpt lat="43.32042458030966" lon="11.836217637567804"><ele>241.2857142857143</ele><time>2026-03-29T08:43:01Z</time></trkpt><trkpt lat="43.32040046753493" lon="11.836124439579587"><ele>241.14285714285717</ele><time>2026-03-29T08:43:02Z</time></trkpt><trkpt lat="43.32037542209631" lon="11.836026152008307"><ele>241.0</ele><time>2026-03-29T08:43:03Z</time></trkpt><trkpt lat="43.32035123350853" lon="11.835930858730155"><ele>241.0</ele><time>2026-03-29T08:43:04Z</time></trkpt><trkpt lat="43.32032574897072" lon="11.83583266931289"><ele>241.00000000000003</ele><time>2026-03-29T08:43:05Z</time></trkpt><trkpt lat="43.320287640677265" lon="11.835744598703352"><ele>241.00000000000003</ele><time>2026-03-29T08:43:06Z</time></trkpt><trkpt lat="43.32025336043355" lon="11.835592559613536"><ele>241.0</ele><time>2026-03-29T08:43:08Z</time></trkpt><trkpt lat="43.320201184120165" lon="11.835502503463875"><ele>241.0</ele><time>2026-03-29T08:43:10Z</time></trkpt><trkpt lat="43.320033656564846" lon="11.835581052690461"><ele>241.0</ele><time>2026-03-29T08:43:11Z</time></trkpt><trkpt lat="43.31996341503367" lon="11.835582983936975"><ele>241.00000000000003</ele><time>2026-03-29T08:43:12Z</time></trkpt><trkpt lat="43.31989385283879" lon="11.835584738156331"><ele>241.0</ele><time>2026-03-29T08:43:13Z</time></trkpt><trkpt lat="43.31982139940182" lon="11.835582759238093"><ele>241.0</ele><time>2026-03-29T08:43:14Z</time></trkpt><trkpt lat="43.31975114469791" lon="11.835587398239527"><ele>241.00000000000003</ele><time>2026-03-29T08:43:15Z</time></trkpt><trkpt lat="43.319679379034085" lon="11.83559567164983"><ele>241.0</ele><time>2026-03-29T08:43:16Z</time></trkpt><trkpt lat="43.3196078954664" lon="11.835604593252887"><ele>241.0</ele><time>2026-03-29T08:43:17Z</time></trkpt><trkpt lat="43.319536413555156" lon="11.835608107578969"><ele>241.2857142857143</ele><time>2026-03-29T08:43:18Z</time></trkpt><trkpt lat="43.319466001301734" lon="11.835611144642067"><ele>241.5714285714286</ele><time>2026-03-29T08:43:19Z</time></trkpt><trkpt lat="43.31939704135842" lon="11.835616348128262"><ele>241.85714285714286</ele><time>2026-03-29T08:43:20Z</time></trkpt><trkpt lat="43.31933015922817" lon="11.835618131108278"><ele>242.14285714285717</ele><time>2026-03-29T08:43:21Z</time></trkpt><trkpt lat="43.31926445753219" lon="11.83561876442318"><ele>242.42857142857144</ele><time>2026-03-29T08:43:22Z</time></trkpt><trkpt lat="43.31919546870166" lon="11.835596700333415"><ele>242.71428571428572</ele><time>2026-03-29T08:43:23Z</time></trkpt><trkpt lat="43.31912753591534" lon="11.835597347613387"><ele>243.0</ele><time>2026-03-29T08:43:24Z</time></trkpt><trkpt lat="43.3190613970556" lon="11.835597977801084"><ele>243.0</ele><time>2026-03-29T08:43:25Z</time></trkpt><trkpt lat="43.31899123266095" lon="11.835598646343358"><ele>243.0</ele><time>2026-03-29T08:43:26Z</time></trkpt><trkpt lat="43.318920492551605" lon="11.83562157614349"><ele>243.0</ele><time>2026-03-29T08:43:27Z</time></trkpt><trkpt lat="43.31884889428192" lon="11.835600002583556"><ele>243.0</ele><time>2026-03-29T08:43:28Z</time></trkpt><trkpt lat="43.31877660926001" lon="11.83560069133738"><ele>243.0</ele><time>2026-03-29T08:43:29Z</time></trkpt><trkpt lat="43.318705687570315" lon="11.835623775059565"><ele>243.0</ele><time>2026-03-29T08:43:30Z</time></trkpt><trkpt lat="43.31863425240228" lon="11.835612462147045"><ele>243.0</ele><time>2026-03-29T08:43:31Z</time></trkpt><trkpt lat="43.31856562849221" lon="11.835612930595753"><ele>243.0</ele><time>2026-03-29T08:43:32Z</time></trkpt><trkpt lat="43.31845627679045" lon="11.835617731392626"><ele>243.0</ele><time>2026-03-29T08:43:34Z</time></trkpt><trkpt lat="43.31836640941576" lon="11.835622034323444"><ele>243.0</ele><time>2026-03-29T08:43:35.999Z</time></trkpt><trkpt lat="43.31827604739275" lon="11.835622030688093"><ele>243.0</ele><time>2026-03-29T08:43:37.999Z</time></trkpt><trkpt lat="43.318196263845984" lon="11.83563160876464"><ele>243.0</ele><time>2026-03-29T08:43:39.999Z</time></trkpt><trkpt lat="43.31812166314891" lon="11.835653208406828"><ele>243.0</ele><time>2026-03-29T08:43:41.999Z</time></trkpt><trkpt lat="43.31801978321459" lon="11.835655695257714"><ele>243.25</ele><time>2026-03-29T08:43:43.999Z</time></trkpt><trkpt lat="43.317906213603095" lon="11.835663242787813"><ele>243.5</ele><time>2026-03-29T08:43:45.999Z</time></trkpt><trkpt lat="43.31778729652553" lon="11.835663719371324"><ele>243.75</ele><time>2026-03-29T08:43:47.999Z</time></trkpt><trkpt lat="43.31767803924404" lon="11.835659086054887"><ele>244.0</ele><time>2026-03-29T08:43:49.999Z</time></trkpt><trkpt lat="43.31756935737891" lon="11.835657116364866"><ele>244.0</ele><time>2026-03-29T08:43:51.999Z</time></trkpt><trkpt lat="43.31745094030607" lon="11.835661591664715"><ele>244.0</ele><time>2026-03-29T08:43:53.999Z</time></trkpt><trkpt lat="43.31733361813678" lon="11.835665339994783"><ele>244.0</ele><time>2026-03-29T08:43:55.999Z</time></trkpt><trkpt lat="43.317228101610965" lon="11.835661629245568"><ele>244.0</ele><time>2026-03-29T08:43:57.999Z</time></trkpt><trkpt lat="43.31711699229267" lon="11.835664213335578"><ele>244.0</ele><time>2026-03-29T08:43:59.999Z</time></trkpt><trkpt lat="43.317000077191715" lon="11.835675280710129"><ele>243.99999999999997</ele><time>2026-03-29T08:44:01.999Z</time></trkpt><trkpt lat="43.3168971536177" lon="11.835684418912555"><ele>243.99999999999997</ele><time>2026-03-29T08:44:03.999Z</time></trkpt><trkpt lat="43.31679106681898" lon="11.835679128245985"><ele>244.0</ele><time>2026-03-29T08:44:05.999Z</time></trkpt><trkpt lat="43.31671752541561" lon="11.835694141886849"><ele>244.0</ele><time>2026-03-29T08:44:08.999Z</time></trkpt><trkpt lat="43.31661583051756" lon="11.835675561161107"><ele>243.99999999999997</ele><time>2026-03-29T08:44:10.999Z</time></trkpt><trkpt lat="43.3165240181207" lon="11.835684124749152"><ele>244.0</ele><time>2026-03-29T08:44:12.999Z</time></trkpt><trkpt lat="43.31644672527343" lon="11.835686585413336"><ele>244.0</ele><time>2026-03-29T08:44:14.999Z</time></trkpt><trkpt lat="43.31635740645258" lon="11.835685410214358"><ele>244.0</ele><time>2026-03-29T08:44:16.999Z</time></trkpt><trkpt lat="43.31625765222352" lon="11.835699271179392"><ele>243.99999999999997</ele><time>2026-03-29T08:44:18.999Z</time></trkpt><trkpt lat="43.3161706895468" lon="11.835701078135246"><ele>244.0</ele><time>2026-03-29T08:44:20.999Z</time></trkpt><trkpt lat="43.316080739833765" lon="11.835708526566798"><ele>243.49999999999997</ele><time>2026-03-29T08:44:22.999Z</time></trkpt><trkpt lat="43.31598919178211" lon="11.835712642348067"><ele>243.0</ele><time>2026-03-29T08:44:24.999Z</time></trkpt><trkpt lat="43.31589717206444" lon="11.835718268214594"><ele>242.5</ele><time>2026-03-29T08:44:26.999Z</time></trkpt><trkpt lat="43.31581263734368" lon="11.835747336346554"><ele>242.0</ele><time>2026-03-29T08:44:28.999Z</time></trkpt><trkpt lat="43.31573740591482" lon="11.835728348419215"><ele>241.49999999999997</ele><time>2026-03-29T08:44:31Z</time></trkpt><trkpt lat="43.31566231874336" lon="11.83574317304938"><ele>241.0</ele><time>2026-03-29T08:44:33Z</time></trkpt><trkpt lat="43.31559764684431" lon="11.835666854288991"><ele>241.0</ele><time>2026-03-29T08:44:37Z</time></trkpt><trkpt lat="43.31552764287877" lon="11.835550706365487"><ele>241.00000000000003</ele><time>2026-03-29T08:44:39Z</time></trkpt><trkpt lat="43.31546093834062" lon="11.835442340701164"><ele>241.00000000000003</ele><time>2026-03-29T08:44:41Z</time></trkpt><trkpt lat="43.31539365827228" lon="11.835336475851518"><ele>241.0</ele><time>2026-03-29T08:44:43Z</time></trkpt><trkpt lat="43.31532824423977" lon="11.835234432370154"><ele>241.0</ele><time>2026-03-29T08:44:45Z</time></trkpt><trkpt lat="43.315259647902906" lon="11.835125217677867"><ele>241.20000000000002</ele><time>2026-03-29T08:44:47Z</time></trkpt><trkpt lat="43.315179545502346" lon="11.835037561543716"><ele>241.40000000000003</ele><time>2026-03-29T08:44:49Z</time></trkpt><trkpt lat="43.31510570243604" lon="11.834932610166646"><ele>241.6</ele><time>2026-03-29T08:44:51Z</time></trkpt><trkpt lat="43.31504224346205" lon="11.834836519902353"><ele>241.8</ele><time>2026-03-29T08:44:53Z</time></trkpt><trkpt lat="43.314977474015336" lon="11.834740569530611"><ele>242.0</ele><time>2026-03-29T08:44:55Z</time></trkpt><trkpt lat="43.31491085960791" lon="11.83464014254182"><ele>242.0</ele><time>2026-03-29T08:44:57Z</time></trkpt><trkpt lat="43.31484876981536" lon="11.834542293387194"><ele>242.0</ele><time>2026-03-29T08:44:59Z</time></trkpt><trkpt lat="43.31478798322095" lon="11.834450987927339"><ele>242.0</ele><time>2026-03-29T08:45:01Z</time></trkpt><trkpt lat="43.31472775633766" lon="11.83436031621891"><ele>242.0</ele><time>2026-03-29T08:45:03Z</time></trkpt><trkpt lat="43.31465790221041" lon="11.834266585721123"><ele>242.0</ele><time>2026-03-29T08:45:05Z</time></trkpt><trkpt lat="43.31458952310074" lon="11.834163095224413"><ele>242.0</ele><time>2026-03-29T08:45:07Z</time></trkpt><trkpt lat="43.314520577686274" lon="11.834063373599317"><ele>242.0</ele><time>2026-03-29T08:45:09Z</time></trkpt><trkpt lat="43.31444953381766" lon="11.833966348795686"><ele>242.0</ele><time>2026-03-29T08:45:11Z</time></trkpt><trkpt lat="43.31438158822392" lon="11.833862637234976"><ele>242.0</ele><time>2026-03-29T08:45:13Z</time></trkpt><trkpt lat="43.31431094450547" lon="11.833755960143872"><ele>242.0</ele><time>2026-03-29T08:45:15Z</time></trkpt><trkpt lat="43.31423832689781" lon="11.833659659194234"><ele>242.00000000000003</ele><time>2026-03-29T08:45:17Z</time></trkpt><trkpt lat="43.31418736921057" lon="11.83356201846766"><ele>242.0</ele><time>2026-03-29T08:45:19Z</time></trkpt><trkpt lat="43.31412420175232" lon="11.833470158801683"><ele>242.0</ele><time>2026-03-29T08:45:21Z</time></trkpt><trkpt lat="43.314074397112805" lon="11.833394907354277"><ele>242.0</ele><time>2026-03-29T08:45:23Z</time></trkpt><trkpt lat="43.31401904679151" lon="11.833298714068148"><ele>242.00000000000003</ele><time>2026-03-29T08:45:25Z</time></trkpt><trkpt lat="43.313954115755294" lon="11.833188007816714"><ele>242.0</ele><time>2026-03-29T08:45:27Z</time></trkpt><trkpt lat="43.313886475054254" lon="11.833091500107775"><ele>242.39999999999998</ele><time>2026-03-29T08:45:29Z</time></trkpt><trkpt lat="43.313803632121164" lon="11.8329833503374"><ele>242.79999999999998</ele><time>2026-03-29T08:45:31Z</time></trkpt><trkpt lat="43.313728802790514" lon="11.832867446559453"><ele>243.2</ele><time>2026-03-29T08:45:33Z</time></trkpt><trkpt lat="43.31365807316822" lon="11.832758966168361"><ele>243.6</ele><time>2026-03-29T08:45:35Z</time></trkpt><trkpt lat="43.31358113163485" lon="11.832644850348759"><ele>244.0</ele><time>2026-03-29T08:45:37Z</time></trkpt><trkpt lat="43.31350472516925" lon="11.832530757303667"><ele>244.0</ele><time>2026-03-29T08:45:39Z</time></trkpt><trkpt lat="43.31342516982836" lon="11.832408015176462"><ele>244.0</ele><time>2026-03-29T08:45:41Z</time></trkpt><trkpt lat="43.31334406090435" lon="11.83228248243898"><ele>244.0</ele><time>2026-03-29T08:45:43Z</time></trkpt><trkpt lat="43.31326418621481" lon="11.83216201921858"><ele>244.0</ele><time>2026-03-29T08:45:44.999Z</time></trkpt><trkpt lat="43.31319038019258" lon="11.83205788879766"><ele>244.0</ele><time>2026-03-29T08:45:46.999Z</time></trkpt><trkpt lat="43.31311306815469" lon="11.83194371835907"><ele>243.99999999999997</ele><time>2026-03-29T08:45:48.999Z</time></trkpt><trkpt lat="43.31304787176075" lon="11.831839709548097"><ele>243.99999999999997</ele><time>2026-03-29T08:45:50.999Z</time></trkpt><trkpt lat="43.31298552737597" lon="11.831747650937452"><ele>244.0</ele><time>2026-03-29T08:45:52.999Z</time></trkpt><trkpt lat="43.31293183005381" lon="11.83166230270558"><ele>244.0</ele><time>2026-03-29T08:45:54.999Z</time></trkpt><trkpt lat="43.31288356975966" lon="11.831595288713386"><ele>243.66666666666666</ele><time>2026-03-29T08:45:56.999Z</time></trkpt><trkpt lat="43.31282707751757" lon="11.83152937277902"><ele>243.33333333333331</ele><time>2026-03-29T08:45:58.999Z</time></trkpt><trkpt lat="43.31276896627725" lon="11.83148295408984"><ele>243.0</ele><time>2026-03-29T08:46:00.999Z</time></trkpt><trkpt lat="43.312706630779616" lon="11.831391991241292"><ele>242.66666666666669</ele><time>2026-03-29T08:46:02.999Z</time></trkpt><trkpt lat="43.312641111078875" lon="11.831294923619796"><ele>242.33333333333334</ele><time>2026-03-29T08:46:04.999Z</time></trkpt><trkpt lat="43.312573100603466" lon="11.83119302512459"><ele>242.0</ele><time>2026-03-29T08:46:06.999Z</time></trkpt><trkpt lat="43.31250687291117" lon="11.831099044565654"><ele>242.00000000000003</ele><time>2026-03-29T08:46:08.999Z</time></trkpt><trkpt lat="43.31245058646747" lon="11.831010825696765"><ele>242.0</ele><time>2026-03-29T08:46:10.999Z</time></trkpt><trkpt lat="43.312400112322265" lon="11.830937478556974"><ele>242.0</ele><time>2026-03-29T08:46:13.999Z</time></trkpt><trkpt lat="43.31234801379112" lon="11.830838994028076"><ele>242.0</ele><time>2026-03-29T08:46:17.999Z</time></trkpt><trkpt lat="43.31227356846147" lon="11.830758280530858"><ele>242.00000000000003</ele><time>2026-03-29T08:46:20.999Z</time></trkpt><trkpt lat="43.31221885469167" lon="11.830670093115831"><ele>242.0</ele><time>2026-03-29T08:46:22.999Z</time></trkpt><trkpt lat="43.31216264666464" lon="11.830583867339662"><ele>242.0</ele><time>2026-03-29T08:46:24.999Z</time></trkpt><trkpt lat="43.312105120948594" lon="11.830490932420837"><ele>242.0</ele><time>2026-03-29T08:46:26.999Z</time></trkpt><trkpt lat="43.312046466532834" lon="11.830399779775451"><ele>242.0</ele><time>2026-03-29T08:46:28.999Z</time></trkpt><trkpt lat="43.31198152084282" lon="11.830307541552969"><ele>242.0</ele><time>2026-03-29T08:46:30.999Z</time></trkpt><trkpt lat="43.31191957634283" lon="11.830207393651037"><ele>242.0</ele><time>2026-03-29T08:46:32.999Z</time></trkpt><trkpt lat="43.31184730471656" lon="11.830103166749998"><ele>242.0</ele><time>2026-03-29T08:46:34.999Z</time></trkpt><trkpt lat="43.31177586598394" lon="11.829995674158669"><ele>242.0</ele><time>2026-03-29T08:46:37Z</time></trkpt><trkpt lat="43.31170226852023" lon="11.829883231403768"><ele>242.0</ele><time>2026-03-29T08:46:39Z</time></trkpt><trkpt lat="43.31163166939168" lon="11.829775846192819"><ele>242.0</ele><time>2026-03-29T08:46:41Z</time></trkpt><trkpt lat="43.31156642753105" lon="11.82967773991264"><ele>242.0</ele><time>2026-03-29T08:46:43Z</time></trkpt><trkpt lat="43.31150181964394" lon="11.829584948717923"><ele>242.0</ele><time>2026-03-29T08:46:45Z</time></trkpt><trkpt lat="43.311429948786234" lon="11.829482096659918"><ele>242.0</ele><time>2026-03-29T08:46:47Z</time></trkpt><trkpt lat="43.3113570031172" lon="11.829372428950286"><ele>242.0</ele><time>2026-03-29T08:46:49Z</time></trkpt><trkpt lat="43.311283577817356" lon="11.829262433770143"><ele>242.0</ele><time>2026-03-29T08:46:51Z</time></trkpt><trkpt lat="43.3112146468143" lon="11.829158947716515"><ele>242.0</ele><time>2026-03-29T08:46:53Z</time></trkpt><trkpt lat="43.31113809769861" lon="11.82905396522784"><ele>242.0</ele><time>2026-03-29T08:46:55Z</time></trkpt><trkpt lat="43.31106230181027" lon="11.828933440853987"><ele>242.0</ele><time>2026-03-29T08:46:57Z</time></trkpt><trkpt lat="43.31098633554062" lon="11.82881727072888"><ele>242.0</ele><time>2026-03-29T08:46:59Z</time></trkpt><trkpt lat="43.310904884896075" lon="11.828697608386507"><ele>242.0</ele><time>2026-03-29T08:47:01Z</time></trkpt><trkpt lat="43.31082290841051" lon="11.828578604741772"><ele>242.2</ele><time>2026-03-29T08:47:03Z</time></trkpt><trkpt lat="43.31075049703034" lon="11.82847247616602"><ele>242.39999999999998</ele><time>2026-03-29T08:47:05Z</time></trkpt><trkpt lat="43.31067880558371" lon="11.828362460369274"><ele>242.60000000000002</ele><time>2026-03-29T08:47:07Z</time></trkpt><trkpt lat="43.310605177075246" lon="11.828254470195631"><ele>242.8</ele><time>2026-03-29T08:47:09Z</time></trkpt><trkpt lat="43.31054106048063" lon="11.828161250518558"><ele>243.0</ele><time>2026-03-29T08:47:11Z</time></trkpt><trkpt lat="43.31047503701312" lon="11.8280606337869"><ele>243.0</ele><time>2026-03-29T08:47:13Z</time></trkpt><trkpt lat="43.31041886328577" lon="11.827984454764882"><ele>243.0</ele><time>2026-03-29T08:47:15Z</time></trkpt><trkpt lat="43.31036650796263" lon="11.827898927159936"><ele>243.0</ele><time>2026-03-29T08:47:17Z</time></trkpt><trkpt lat="43.31031545139289" lon="11.827829573991876"><ele>243.0</ele><time>2026-03-29T08:47:19Z</time></trkpt><trkpt lat="43.31025495836265" lon="11.827753068862624"><ele>243.0</ele><time>2026-03-29T08:47:22Z</time></trkpt><trkpt lat="43.31018800181162" lon="11.827618077226909"><ele>243.0</ele><time>2026-03-29T08:47:24Z</time></trkpt><trkpt lat="43.310122211970096" lon="11.827538757400447"><ele>243.0</ele><time>2026-03-29T08:47:26Z</time></trkpt><trkpt lat="43.31004536112847" lon="11.827453128972866"><ele>243.0</ele><time>2026-03-29T08:47:28Z</time></trkpt><trkpt lat="43.30996338444002" lon="11.827363413123114"><ele>243.0</ele><time>2026-03-29T08:47:30Z</time></trkpt><trkpt lat="43.30988620799114" lon="11.827285077858592"><ele>243.0</ele><time>2026-03-29T08:47:32Z</time></trkpt><trkpt lat="43.30979654169482" lon="11.827190031894302"><ele>243.0</ele><time>2026-03-29T08:47:34Z</time></trkpt><trkpt lat="43.309711388649454" lon="11.827101160454303"><ele>243.0</ele><time>2026-03-29T08:47:36Z</time></trkpt><trkpt lat="43.309624657173885" lon="11.827000828620816"><ele>243.0</ele><time>2026-03-29T08:47:38Z</time></trkpt><trkpt lat="43.30954458255329" lon="11.826912346217924"><ele>243.0</ele><time>2026-03-29T08:47:40Z</time></trkpt><trkpt lat="43.30946750898433" lon="11.826822685694358"><ele>243.0</ele><time>2026-03-29T08:47:42Z</time></trkpt><trkpt lat="43.309376095989286" lon="11.826748495437473"><ele>243.0</ele><time>2026-03-29T08:47:44Z</time></trkpt><trkpt lat="43.309299485695675" lon="11.826659336958615"><ele>243.75</ele><time>2026-03-29T08:47:46Z</time></trkpt><trkpt lat="43.30922102266975" lon="11.82654623177569"><ele>244.5</ele><time>2026-03-29T08:47:48Z</time></trkpt><trkpt lat="43.309126769808806" lon="11.826440049158338"><ele>245.25</ele><time>2026-03-29T08:47:50Z</time></trkpt><trkpt lat="43.30907860125438" lon="11.826287360277385"><ele>246.0</ele><time>2026-03-29T08:47:52Z</time></trkpt><trkpt lat="43.30898936157631" lon="11.826193200765939"><ele>246.0</ele><time>2026-03-29T08:47:54Z</time></trkpt><trkpt lat="43.30891290519154" lon="11.826085176013933"><ele>246.00000000000003</ele><time>2026-03-29T08:47:56Z</time></trkpt><trkpt lat="43.308900010670584" lon="11.825968506009154"><ele>246.00000000000003</ele><time>2026-03-29T08:47:58Z</time></trkpt><trkpt lat="43.30887745739491" lon="11.825867289846228"><ele>246.0</ele><time>2026-03-29T08:48:00Z</time></trkpt><trkpt lat="43.30885347599666" lon="11.825742624980597"><ele>246.0</ele><time>2026-03-29T08:48:02Z</time></trkpt><trkpt lat="43.30879798605734" lon="11.825610245081604"><ele>247.0</ele><time>2026-03-29T08:48:04Z</time></trkpt><trkpt lat="43.308366342864815" lon="11.825655196111756"><ele>248.0</ele><time>2026-03-29T08:48:05.999Z</time></trkpt><trkpt lat="43.308310930881895" lon="11.825599059841558"><ele>248.0</ele><time>2026-03-29T08:48:06.999Z</time></trkpt><trkpt lat="43.30825612543032" lon="11.825541817086068"><ele>248.00000000000003</ele><time>2026-03-29T08:48:07.999Z</time></trkpt><trkpt lat="43.30818747143588" lon="11.82551311420744"><ele>248.0</ele><time>2026-03-29T08:48:08.999Z</time></trkpt><trkpt lat="43.30813019581686" lon="11.825453789415644"><ele>248.0</ele><time>2026-03-29T08:48:09.999Z</time></trkpt><trkpt lat="43.30808207362629" lon="11.82538527345377"><ele>248.00000000000003</ele><time>2026-03-29T08:48:10.999Z</time></trkpt><trkpt lat="43.30802610267066" lon="11.82531852354121"><ele>248.0</ele><time>2026-03-29T08:48:11.999Z</time></trkpt><trkpt lat="43.30796295563099" lon="11.825254735863943"><ele>248.0</ele><time>2026-03-29T08:48:12.999Z</time></trkpt><trkpt lat="43.30789612778243" lon="11.825188065732048"><ele>248.00000000000003</ele><time>2026-03-29T08:48:13.999Z</time></trkpt><trkpt lat="43.307829167842755" lon="11.825118189943431"><ele>248.0</ele><time>2026-03-29T08:48:14.999Z</time></trkpt><trkpt lat="43.30776077890509" lon="11.825046311228965"><ele>248.0</ele><time>2026-03-29T08:48:15.999Z</time></trkpt><trkpt lat="43.307689527893736" lon="11.824973793772907"><ele>248.0</ele><time>2026-03-29T08:48:16.999Z</time></trkpt><trkpt lat="43.30761871688853" lon="11.824904552164643"><ele>248.00000000000003</ele><time>2026-03-29T08:48:17.999Z</time></trkpt><trkpt lat="43.30754624310231" lon="11.824838990898224"><ele>248.0</ele><time>2026-03-29T08:48:18.999Z</time></trkpt><trkpt lat="43.3074721486523" lon="11.824774301517087"><ele>248.00000000000003</ele><time>2026-03-29T08:48:19.999Z</time></trkpt><trkpt lat="43.30739901307079" lon="11.824706602281143"><ele>248.0</ele><time>2026-03-29T08:48:20.999Z</time></trkpt><trkpt lat="43.30732592106259" lon="11.824640425613255"><ele>248.0</ele><time>2026-03-29T08:48:21.999Z</time></trkpt><trkpt lat="43.30725289990564" lon="11.824575083723664"><ele>248.0</ele><time>2026-03-29T08:48:22.999Z</time></trkpt><trkpt lat="43.307176741501166" lon="11.824514495980127"><ele>248.00000000000003</ele><time>2026-03-29T08:48:23.999Z</time></trkpt><trkpt lat="43.30710123297375" lon="11.824455401880849"><ele>248.0</ele><time>2026-03-29T08:48:24.999Z</time></trkpt><trkpt lat="43.30702587257483" lon="11.824396401939305"><ele>247.83333333333334</ele><time>2026-03-29T08:48:25.999Z</time></trkpt><trkpt lat="43.30694694951256" lon="11.824343903327755"><ele>247.66666666666669</ele><time>2026-03-29T08:48:26.999Z</time></trkpt><trkpt lat="43.30686639742309" lon="11.824299034496427"><ele>247.5</ele><time>2026-03-29T08:48:27.999Z</time></trkpt><trkpt lat="43.30677954113736" lon="11.824264461594042"><ele>247.33333333333331</ele><time>2026-03-29T08:48:28.999Z</time></trkpt><trkpt lat="43.30669280766152" lon="11.824229942875236"><ele>247.16666666666666</ele><time>2026-03-29T08:48:29.999Z</time></trkpt><trkpt lat="43.306605601022845" lon="11.824196581921305"><ele>247.0</ele><time>2026-03-29T08:48:30.999Z</time></trkpt><trkpt lat="43.306518492806525" lon="11.824164298455996"><ele>246.99999999999997</ele><time>2026-03-29T08:48:31.999Z</time></trkpt><trkpt lat="43.30643435121421" lon="11.824130556513808"><ele>247.0</ele><time>2026-03-29T08:48:32.999Z</time></trkpt><trkpt lat="43.30635074351424" lon="11.824094103876611"><ele>247.0</ele><time>2026-03-29T08:48:33.999Z</time></trkpt><trkpt lat="43.30627222846058" lon="11.824058369932681"><ele>247.0</ele><time>2026-03-29T08:48:34.999Z</time></trkpt><trkpt lat="43.3061968919394" lon="11.824016703770146"><ele>246.99999999999997</ele><time>2026-03-29T08:48:35.999Z</time></trkpt><trkpt lat="43.30612660239915" lon="11.823958821045789"><ele>247.0</ele><time>2026-03-29T08:48:36.999Z</time></trkpt><trkpt lat="43.30606751505465" lon="11.823891187081117"><ele>246.99999999999997</ele><time>2026-03-29T08:48:37.999Z</time></trkpt><trkpt lat="43.30601851857028" lon="11.823805429372976"><ele>247.0</ele><time>2026-03-29T08:48:38.999Z</time></trkpt><trkpt lat="43.30597805283321" lon="11.823707894280288"><ele>247.0</ele><time>2026-03-29T08:48:39.999Z</time></trkpt><trkpt lat="43.30594422946008" lon="11.823613030378338"><ele>247.0</ele><time>2026-03-29T08:48:40.999Z</time></trkpt><trkpt lat="43.30590690260641" lon="11.823518168188436"><ele>246.99999999999997</ele><time>2026-03-29T08:48:42Z</time></trkpt><trkpt lat="43.305867391765084" lon="11.823420320112161"><ele>247.0</ele><time>2026-03-29T08:48:43Z</time></trkpt><trkpt lat="43.30582647886339" lon="11.823308796897976"><ele>246.83333333333331</ele><time>2026-03-29T08:48:44Z</time></trkpt><trkpt lat="43.305784953860574" lon="11.823200003545223"><ele>246.66666666666666</ele><time>2026-03-29T08:48:45Z</time></trkpt><trkpt lat="43.305743107203966" lon="11.823093411001405"><ele>246.5</ele><time>2026-03-29T08:48:46Z</time></trkpt><trkpt lat="43.30569806953715" lon="11.822986305683994"><ele>246.33333333333331</ele><time>2026-03-29T08:48:47Z</time></trkpt><trkpt lat="43.30565489410948" lon="11.822883243319431"><ele>246.16666666666666</ele><time>2026-03-29T08:48:48Z</time></trkpt><trkpt lat="43.305608722095684" lon="11.822782738117683"><ele>246.0</ele><time>2026-03-29T08:48:49Z</time></trkpt><trkpt lat="43.30556640506043" lon="11.822677074322796"><ele>246.16666666666666</ele><time>2026-03-29T08:48:50Z</time></trkpt><trkpt lat="43.30552214362062" lon="11.822574288019716"><ele>246.33333333333331</ele><time>2026-03-29T08:48:51Z</time></trkpt><trkpt lat="43.30548015448024" lon="11.822471869272736"><ele>246.5</ele><time>2026-03-29T08:48:52Z</time></trkpt><trkpt lat="43.30545199478767" lon="11.822352592920458"><ele>246.66666666666666</ele><time>2026-03-29T08:48:53Z</time></trkpt><trkpt lat="43.3053977601024" lon="11.822259238918512"><ele>246.83333333333331</ele><time>2026-03-29T08:48:54Z</time></trkpt><trkpt lat="43.30535924382688" lon="11.822154427025206"><ele>247.0</ele><time>2026-03-29T08:48:55Z</time></trkpt><trkpt lat="43.30531925234309" lon="11.822048486064782"><ele>246.99999999999997</ele><time>2026-03-29T08:48:56Z</time></trkpt><trkpt lat="43.305280399313375" lon="11.821944653157272"><ele>247.0</ele><time>2026-03-29T08:48:57Z</time></trkpt><trkpt lat="43.305238098065075" lon="11.821841476610803"><ele>247.0</ele><time>2026-03-29T08:48:58Z</time></trkpt><trkpt lat="43.30519478734074" lon="11.821740628549827"><ele>247.0</ele><time>2026-03-29T08:48:59Z</time></trkpt><trkpt lat="43.3051549447105" lon="11.821638411702766"><ele>246.99999999999997</ele><time>2026-03-29T08:49:00Z</time></trkpt><trkpt lat="43.30511273995879" lon="11.821533398230654"><ele>247.0</ele><time>2026-03-29T08:49:01Z</time></trkpt><trkpt lat="43.30507117183158" lon="11.821428278407804"><ele>246.99999999999997</ele><time>2026-03-29T08:49:02Z</time></trkpt><trkpt lat="43.3050307795735" lon="11.821326749811165"><ele>247.0</ele><time>2026-03-29T08:49:03Z</time></trkpt><trkpt lat="43.30498822859926" lon="11.82122814891612"><ele>247.0</ele><time>2026-03-29T08:49:04Z</time></trkpt><trkpt lat="43.304950168314825" lon="11.821138478868047"><ele>247.0</ele><time>2026-03-29T08:49:05Z</time></trkpt><trkpt lat="43.304918860371636" lon="11.821058298557404"><ele>246.99999999999997</ele><time>2026-03-29T08:49:06Z</time></trkpt><trkpt lat="43.30487064501593" lon="11.820955431959238"><ele>247.0</ele><time>2026-03-29T08:49:08Z</time></trkpt><trkpt lat="43.30480178162652" lon="11.820855394958777"><ele>246.8</ele><time>2026-03-29T08:49:18Z</time></trkpt><trkpt lat="43.30475702474024" lon="11.820763063153231"><ele>246.6</ele><time>2026-03-29T08:49:20Z</time></trkpt><trkpt lat="43.30466752472101" lon="11.820699055347017"><ele>246.40000000000003</ele><time>2026-03-29T08:49:22Z</time></trkpt><trkpt lat="43.30457754923447" lon="11.8205786249864"><ele>246.20000000000002</ele><time>2026-03-29T08:49:24Z</time></trkpt><trkpt lat="43.30452740629853" lon="11.82050963451903"><ele>246.0</ele><time>2026-03-29T08:49:25Z</time></trkpt><trkpt lat="43.30447376397977" lon="11.820441150352831"><ele>246.00000000000003</ele><time>2026-03-29T08:49:26Z</time></trkpt><trkpt lat="43.30442250524241" lon="11.820375748965304"><ele>246.0</ele><time>2026-03-29T08:49:27Z</time></trkpt><trkpt lat="43.30437173971322" lon="11.820301869615985"><ele>246.00000000000003</ele><time>2026-03-29T08:49:28Z</time></trkpt><trkpt lat="43.30432371722991" lon="11.820229246007912"><ele>246.00000000000003</ele><time>2026-03-29T08:49:29Z</time></trkpt><trkpt lat="43.30427174454303" lon="11.820151861196006"><ele>246.0</ele><time>2026-03-29T08:49:30Z</time></trkpt><trkpt lat="43.30422358631861" lon="11.820071728644223"><ele>246.00000000000003</ele><time>2026-03-29T08:49:31Z</time></trkpt><trkpt lat="43.304177971182256" lon="11.819982686465046"><ele>246.00000000000003</ele><time>2026-03-29T08:49:32Z</time></trkpt><trkpt lat="43.3041278452024" lon="11.819889944824622"><ele>245.83333333333334</ele><time>2026-03-29T08:49:33Z</time></trkpt><trkpt lat="43.304071066084866" lon="11.819799650000867"><ele>245.66666666666669</ele><time>2026-03-29T08:49:34Z</time></trkpt><trkpt lat="43.30401675142448" lon="11.819706913295704"><ele>245.5</ele><time>2026-03-29T08:49:35Z</time></trkpt><trkpt lat="43.303963826491994" lon="11.819607580914282"><ele>245.33333333333334</ele><time>2026-03-29T08:49:36Z</time></trkpt><trkpt lat="43.30390844049257" lon="11.81950578065947"><ele>245.16666666666669</ele><time>2026-03-29T08:49:37Z</time></trkpt><trkpt lat="43.303847252053885" lon="11.81941056842923"><ele>245.0</ele><time>2026-03-29T08:49:38Z</time></trkpt><trkpt lat="43.30377876397515" lon="11.81931937162275"><ele>245.6</ele><time>2026-03-29T08:49:39Z</time></trkpt><trkpt lat="43.303708481693874" lon="11.819230893018561"><ele>246.2</ele><time>2026-03-29T08:49:40Z</time></trkpt><trkpt lat="43.30363738300324" lon="11.819143416769498"><ele>246.8</ele><time>2026-03-29T08:49:41Z</time></trkpt><trkpt lat="43.30356292619355" lon="11.819059637507626"><ele>247.4</ele><time>2026-03-29T08:49:42Z</time></trkpt><trkpt lat="43.30348662385259" lon="11.818974273053461"><ele>248.0</ele><time>2026-03-29T08:49:43Z</time></trkpt><trkpt lat="43.303413035338096" lon="11.818890092825594"><ele>248.0</ele><time>2026-03-29T08:49:44Z</time></trkpt><trkpt lat="43.30333725302991" lon="11.818812501327383"><ele>248.0</ele><time>2026-03-29T08:49:45Z</time></trkpt><trkpt lat="43.303263752639346" lon="11.818728845565309"><ele>248.0</ele><time>2026-03-29T08:49:46Z</time></trkpt><trkpt lat="43.303187493351274" lon="11.818648258065842"><ele>248.0</ele><time>2026-03-29T08:49:47Z</time></trkpt><trkpt lat="43.303114489855204" lon="11.818566852440055"><ele>248.0</ele><time>2026-03-29T08:49:48Z</time></trkpt><trkpt lat="43.303052972778396" lon="11.8184743926814"><ele>247.8</ele><time>2026-03-29T08:49:49Z</time></trkpt><trkpt lat="43.30299699554421" lon="11.818371548133713"><ele>247.60000000000002</ele><time>2026-03-29T08:49:50Z</time></trkpt><trkpt lat="43.30294834754959" lon="11.818255571875865"><ele>247.39999999999998</ele><time>2026-03-29T08:49:51Z</time></trkpt><trkpt lat="43.30290608687921" lon="11.818140465825582"><ele>247.2</ele><time>2026-03-29T08:49:52Z</time></trkpt><trkpt lat="43.30286667947276" lon="11.818019260599534"><ele>247.0</ele><time>2026-03-29T08:49:53Z</time></trkpt><trkpt lat="43.30281355981988" lon="11.817893976935474"><ele>247.0</ele><time>2026-03-29T08:49:54Z</time></trkpt><trkpt lat="43.30278955105314" lon="11.81777022286995"><ele>247.0</ele><time>2026-03-29T08:49:55Z</time></trkpt><trkpt lat="43.30274196699465" lon="11.817656276317638"><ele>247.0</ele><time>2026-03-29T08:49:56Z</time></trkpt><trkpt lat="43.30272714589187" lon="11.817529028322925"><ele>247.0</ele><time>2026-03-29T08:49:57Z</time></trkpt><trkpt lat="43.302697685544814" lon="11.81740426913382"><ele>247.0</ele><time>2026-03-29T08:49:58Z</time></trkpt><trkpt lat="43.302659962263505" lon="11.817285317962446"><ele>246.99999999999997</ele><time>2026-03-29T08:49:59Z</time></trkpt><trkpt lat="43.30262942003971" lon="11.81716772522359"><ele>247.0</ele><time>2026-03-29T08:50:00Z</time></trkpt><trkpt lat="43.30262214818453" lon="11.817043355949894"><ele>247.0</ele><time>2026-03-29T08:50:01Z</time></trkpt><trkpt lat="43.30260547186513" lon="11.816925405938132"><ele>247.0</ele><time>2026-03-29T08:50:02Z</time></trkpt><trkpt lat="43.30259161376363" lon="11.816808040515753"><ele>246.99999999999997</ele><time>2026-03-29T08:50:03Z</time></trkpt><trkpt lat="43.30258034552376" lon="11.816690674147372"><ele>247.0</ele><time>2026-03-29T08:50:04Z</time></trkpt><trkpt lat="43.30257070901228" lon="11.81656512571974"><ele>247.0</ele><time>2026-03-29T08:50:05Z</time></trkpt><trkpt lat="43.302560583112026" lon="11.816441148509728"><ele>247.0</ele><time>2026-03-29T08:50:06Z</time></trkpt><trkpt lat="43.30254919889744" lon="11.816320012781631"><ele>247.0</ele><time>2026-03-29T08:50:07Z</time></trkpt><trkpt lat="43.30253431038479" lon="11.816192741002773"><ele>247.0</ele><time>2026-03-29T08:50:08Z</time></trkpt><trkpt lat="43.302516947480726" lon="11.816067995733068"><ele>247.0</ele><time>2026-03-29T08:50:09Z</time></trkpt><trkpt lat="43.30249390335572" lon="11.815945575648504"><ele>246.99999999999997</ele><time>2026-03-29T08:50:10Z</time></trkpt><trkpt lat="43.30246737404744" lon="11.815828315775669"><ele>247.0</ele><time>2026-03-29T08:50:11Z</time></trkpt><trkpt lat="43.30243526796271" lon="11.81571970834076"><ele>247.0</ele><time>2026-03-29T08:50:12Z</time></trkpt><trkpt lat="43.30237565548771" lon="11.815621206675887"><ele>247.0</ele><time>2026-03-29T08:50:13Z</time></trkpt><trkpt lat="43.30233188259566" lon="11.81551666088035"><ele>246.99999999999997</ele><time>2026-03-29T08:50:14Z</time></trkpt><trkpt lat="43.30228963332673" lon="11.815409323965461"><ele>247.0</ele><time>2026-03-29T08:50:15Z</time></trkpt><trkpt lat="43.30223768468369" lon="11.815307688878196"><ele>246.99999999999997</ele><time>2026-03-29T08:50:16Z</time></trkpt><trkpt lat="43.30219164466474" lon="11.81520848812401"><ele>247.0</ele><time>2026-03-29T08:50:17Z</time></trkpt><trkpt lat="43.30215302115163" lon="11.815099299944212"><ele>247.0</ele><time>2026-03-29T08:50:18Z</time></trkpt><trkpt lat="43.30213748082194" lon="11.814985442455162"><ele>247.0</ele><time>2026-03-29T08:50:19Z</time></trkpt><trkpt lat="43.302128945159744" lon="11.814877424332499"><ele>246.99999999999997</ele><time>2026-03-29T08:50:20Z</time></trkpt><trkpt lat="43.30212740045306" lon="11.814768763551273"><ele>247.0</ele><time>2026-03-29T08:50:21Z</time></trkpt><trkpt lat="43.302135732311285" lon="11.814659311143632"><ele>246.99999999999997</ele><time>2026-03-29T08:50:22Z</time></trkpt><trkpt lat="43.30214299438818" lon="11.814545090140207"><ele>247.0</ele><time>2026-03-29T08:50:23Z</time></trkpt><trkpt lat="43.30215043926339" lon="11.814427993935551"><ele>247.0</ele><time>2026-03-29T08:50:24Z</time></trkpt><trkpt lat="43.302157377416236" lon="11.814318867766692"><ele>247.0</ele><time>2026-03-29T08:50:25Z</time></trkpt><trkpt lat="43.302165015475055" lon="11.814201651826112"><ele>246.99999999999997</ele><time>2026-03-29T08:50:26Z</time></trkpt><trkpt lat="43.30217337870293" lon="11.814087108115507"><ele>247.0</ele><time>2026-03-29T08:50:27Z</time></trkpt><trkpt lat="43.302181676778396" lon="11.813973456726664"><ele>247.16666666666666</ele><time>2026-03-29T08:50:27.999Z</time></trkpt><trkpt lat="43.30218988277808" lon="11.813861066436443"><ele>247.33333333333331</ele><time>2026-03-29T08:50:28.999Z</time></trkpt><trkpt lat="43.30219825009334" lon="11.813745899189485"><ele>247.5</ele><time>2026-03-29T08:50:29.999Z</time></trkpt><trkpt lat="43.30220859260424" lon="11.813619078232074"><ele>247.66666666666669</ele><time>2026-03-29T08:50:30.999Z</time></trkpt><trkpt lat="43.30221921348184" lon="11.813500357800535"><ele>247.83333333333334</ele><time>2026-03-29T08:50:31.999Z</time></trkpt><trkpt lat="43.30222974301937" lon="11.813382657999812"><ele>248.0</ele><time>2026-03-29T08:50:32.999Z</time></trkpt><trkpt lat="43.30223894501212" lon="11.8132604034516"><ele>248.33333333333334</ele><time>2026-03-29T08:50:33.999Z</time></trkpt><trkpt lat="43.30224714390906" lon="11.813140508056291"><ele>248.66666666666669</ele><time>2026-03-29T08:50:34.999Z</time></trkpt><trkpt lat="43.30225267377013" lon="11.813019665116029"><ele>249.0</ele><time>2026-03-29T08:50:35.999Z</time></trkpt><trkpt lat="43.302242682350695" lon="11.812904169502"><ele>249.33333333333331</ele><time>2026-03-29T08:50:36.999Z</time></trkpt><trkpt lat="43.302257143048664" lon="11.81278757415151"><ele>249.66666666666666</ele><time>2026-03-29T08:50:37.999Z</time></trkpt><trkpt lat="43.30224330500078" lon="11.81266962686035"><ele>250.0</ele><time>2026-03-29T08:50:38.999Z</time></trkpt><trkpt lat="43.30224599640028" lon="11.812551494662145"><ele>250.49999999999997</ele><time>2026-03-29T08:50:39.999Z</time></trkpt><trkpt lat="43.302244003419695" lon="11.812431420729183"><ele>251.0</ele><time>2026-03-29T08:50:40.999Z</time></trkpt><trkpt lat="43.30224055811885" lon="11.812310697593187"><ele>251.5</ele><time>2026-03-29T08:50:41.999Z</time></trkpt><trkpt lat="43.30223322515021" lon="11.812189057582218"><ele>252.0</ele><time>2026-03-29T08:50:42.999Z</time></trkpt><trkpt lat="43.302225938043996" lon="11.81206682317348"><ele>252.49999999999997</ele><time>2026-03-29T08:50:43.999Z</time></trkpt><trkpt lat="43.30224126026117" lon="11.811942790974866"><ele>253.0</ele><time>2026-03-29T08:50:44.999Z</time></trkpt><trkpt lat="43.30223751880522" lon="11.811818786133312"><ele>253.83333333333331</ele><time>2026-03-29T08:50:45.999Z</time></trkpt><trkpt lat="43.30223376242336" lon="11.811694990869805"><ele>254.66666666666666</ele><time>2026-03-29T08:50:46.999Z</time></trkpt><trkpt lat="43.3022131762855" lon="11.811577367031667"><ele>255.5</ele><time>2026-03-29T08:50:48Z</time></trkpt><trkpt lat="43.3022145410277" lon="11.811469217428451"><ele>256.3333333333333</ele><time>2026-03-29T08:50:49Z</time></trkpt><trkpt lat="43.30221298464519" lon="11.81137266233502"><ele>257.1666666666667</ele><time>2026-03-29T08:50:50Z</time></trkpt><trkpt lat="43.30220579143554" lon="11.81127946198364"><ele>258.0</ele><time>2026-03-29T08:50:51Z</time></trkpt><trkpt lat="43.30222125377627" lon="11.811159466668885"><ele>258.0</ele><time>2026-03-29T08:50:53Z</time></trkpt><trkpt lat="43.30208251878651" lon="11.811155028348123"><ele>258.0</ele><time>2026-03-29T08:50:56Z</time></trkpt><trkpt lat="43.302003605122806" lon="11.811193476931697"><ele>258.0</ele><time>2026-03-29T08:50:58Z</time></trkpt><trkpt lat="43.30191423840232" lon="11.811232540201202"><ele>258.0</ele><time>2026-03-29T08:51:00Z</time></trkpt><trkpt lat="43.30180364127846" lon="11.811287403686219"><ele>258.0</ele><time>2026-03-29T08:51:02Z</time></trkpt><trkpt lat="43.30169310862711" lon="11.811348549353754"><ele>258.0</ele><time>2026-03-29T08:51:04Z</time></trkpt><trkpt lat="43.30159671560329" lon="11.811420741491553"><ele>258.0</ele><time>2026-03-29T08:51:06Z</time></trkpt><trkpt lat="43.30150712582933" lon="11.811476605133933"><ele>258.0</ele><time>2026-03-29T08:51:08Z</time></trkpt><trkpt lat="43.301415719087224" lon="11.811514856347669"><ele>258.0</ele><time>2026-03-29T08:51:10Z</time></trkpt><trkpt lat="43.301315151531384" lon="11.811523034587527"><ele>258.0</ele><time>2026-03-29T08:51:12Z</time></trkpt><trkpt lat="43.301207307167815" lon="11.811537148748748"><ele>258.0</ele><time>2026-03-29T08:51:14Z</time></trkpt><trkpt lat="43.301092355046336" lon="11.811559585068437"><ele>258.0</ele><time>2026-03-29T08:51:16Z</time></trkpt><trkpt lat="43.30097551066531" lon="11.811581807463261"><ele>258.0</ele><time>2026-03-29T08:51:18Z</time></trkpt><trkpt lat="43.30085677280475" lon="11.81161271106845"><ele>258.0</ele><time>2026-03-29T08:51:20Z</time></trkpt><trkpt lat="43.30073537153473" lon="11.811635312176833"><ele>258.0</ele><time>2026-03-29T08:51:22Z</time></trkpt><trkpt lat="43.30067279624172" lon="11.811648801842242"><ele>258.0</ele><time>2026-03-29T08:51:23Z</time></trkpt><trkpt lat="43.30055135515451" lon="11.811661202013298"><ele>258.0</ele><time>2026-03-29T08:51:25Z</time></trkpt><trkpt lat="43.30043081955145" lon="11.811623724467676"><ele>258.0</ele><time>2026-03-29T08:51:27Z</time></trkpt><trkpt lat="43.300314825573885" lon="11.8115799032479"><ele>258.0</ele><time>2026-03-29T08:51:29Z</time></trkpt><trkpt lat="43.30024515483496" lon="11.81155509193445"><ele>257.4285714285714</ele><time>2026-03-29T08:51:30Z</time></trkpt><trkpt lat="43.30018067679033" lon="11.811539777701286"><ele>256.85714285714283</ele><time>2026-03-29T08:51:31Z</time></trkpt><trkpt lat="43.30011479076961" lon="11.81152203634903"><ele>256.2857142857143</ele><time>2026-03-29T08:51:32Z</time></trkpt><trkpt lat="43.30005331464242" lon="11.811452405349831"><ele>255.7142857142857</ele><time>2026-03-29T08:51:33Z</time></trkpt><trkpt lat="43.29998711377261" lon="11.811440304042392"><ele>255.1428571428571</ele><time>2026-03-29T08:51:34Z</time></trkpt><trkpt lat="43.29991853012149" lon="11.811448974948735"><ele>254.57142857142858</ele><time>2026-03-29T08:51:35Z</time></trkpt><trkpt lat="43.29985060422526" lon="11.811434269964783"><ele>254.0</ele><time>2026-03-29T08:51:36Z</time></trkpt><trkpt lat="43.299780049250586" lon="11.811409896040347"><ele>253.85714285714286</ele><time>2026-03-29T08:51:37Z</time></trkpt><trkpt lat="43.29970953075765" lon="11.811392221512287"><ele>253.71428571428572</ele><time>2026-03-29T08:51:38Z</time></trkpt><trkpt lat="43.299640957527814" lon="11.81137595166525"><ele>253.57142857142858</ele><time>2026-03-29T08:51:39Z</time></trkpt><trkpt lat="43.29956690265172" lon="11.811359657208707"><ele>253.42857142857144</ele><time>2026-03-29T08:51:40Z</time></trkpt><trkpt lat="43.29949535136472" lon="11.811337733180247"><ele>253.28571428571428</ele><time>2026-03-29T08:51:41Z</time></trkpt><trkpt lat="43.29942707720028" lon="11.811313528241959"><ele>253.14285714285717</ele><time>2026-03-29T08:51:42Z</time></trkpt><trkpt lat="43.29935801309144" lon="11.811294917988226"><ele>253.00000000000003</ele><time>2026-03-29T08:51:43Z</time></trkpt><trkpt lat="43.29923687952532" lon="11.8112532438941"><ele>253.00000000000003</ele><time>2026-03-29T08:51:45Z</time></trkpt><trkpt lat="43.29916794706207" lon="11.811238792431936"><ele>253.0</ele><time>2026-03-29T08:51:46Z</time></trkpt><trkpt lat="43.29909817895114" lon="11.81124299278942"><ele>253.00000000000003</ele><time>2026-03-29T08:51:47Z</time></trkpt><trkpt lat="43.29903031521372" lon="11.811260461906361"><ele>253.00000000000003</ele><time>2026-03-29T08:51:48Z</time></trkpt><trkpt lat="43.29896983667411" lon="11.811304654045442"><ele>253.0</ele><time>2026-03-29T08:51:49Z</time></trkpt><trkpt lat="43.298920161991916" lon="11.81136073734654"><ele>253.00000000000003</ele><time>2026-03-29T08:51:50Z</time></trkpt><trkpt lat="43.29887556417565" lon="11.811428347707375"><ele>253.00000000000003</ele><time>2026-03-29T08:51:51Z</time></trkpt><trkpt lat="43.29877145592586" lon="11.811489536724002"><ele>253.00000000000003</ele><time>2026-03-29T08:51:53Z</time></trkpt><trkpt lat="43.29870883662477" lon="11.811445540761255"><ele>253.0</ele><time>2026-03-29T08:51:54Z</time></trkpt><trkpt lat="43.29863560964401" lon="11.811444580301028"><ele>253.00000000000003</ele><time>2026-03-29T08:51:55Z</time></trkpt><trkpt lat="43.29856496323637" lon="11.811424126525614"><ele>253.00000000000003</ele><time>2026-03-29T08:51:56Z</time></trkpt><trkpt lat="43.29849957536661" lon="11.811407092466949"><ele>253.0</ele><time>2026-03-29T08:51:57Z</time></trkpt><trkpt lat="43.29842950980452" lon="11.811385297448833"><ele>253.00000000000003</ele><time>2026-03-29T08:51:58Z</time></trkpt><trkpt lat="43.29836002673773" lon="11.81137515477323"><ele>253.00000000000003</ele><time>2026-03-29T08:51:59Z</time></trkpt><trkpt lat="43.29829123289202" lon="11.811363212380012"><ele>253.00000000000003</ele><time>2026-03-29T08:52:00Z</time></trkpt><trkpt lat="43.298221129068374" lon="11.811351415280724"><ele>253.0</ele><time>2026-03-29T08:52:01Z</time></trkpt><trkpt lat="43.29815110392716" lon="11.811343656730427"><ele>253.00000000000003</ele><time>2026-03-29T08:52:02Z</time></trkpt><trkpt lat="43.29807727097689" lon="11.811347188523486"><ele>253.00000000000003</ele><time>2026-03-29T08:52:03Z</time></trkpt><trkpt lat="43.298002053610496" lon="11.811350297741397"><ele>253.0</ele><time>2026-03-29T08:52:04Z</time></trkpt><trkpt lat="43.297924974561234" lon="11.811349196876222"><ele>253.00000000000003</ele><time>2026-03-29T08:52:05Z</time></trkpt><trkpt lat="43.29785093359011" lon="11.81135409557539"><ele>253.00000000000003</ele><time>2026-03-29T08:52:06Z</time></trkpt><trkpt lat="43.297777015708704" lon="11.81136547807932"><ele>252.83333333333331</ele><time>2026-03-29T08:52:07Z</time></trkpt><trkpt lat="43.297701835826516" lon="11.811375398242053"><ele>252.66666666666666</ele><time>2026-03-29T08:52:08Z</time></trkpt><trkpt lat="43.29762683933792" lon="11.811388273517176"><ele>252.5</ele><time>2026-03-29T08:52:09Z</time></trkpt><trkpt lat="43.297558583936514" lon="11.811408193132465"><ele>252.33333333333331</ele><time>2026-03-29T08:52:10Z</time></trkpt><trkpt lat="43.297490435440885" lon="11.811423584456133"><ele>252.16666666666666</ele><time>2026-03-29T08:52:11Z</time></trkpt><trkpt lat="43.297424513109746" lon="11.811442013265745"><ele>252.0</ele><time>2026-03-29T08:52:12Z</time></trkpt><trkpt lat="43.2973182687386" lon="11.811468058630505"><ele>252.33333333333334</ele><time>2026-03-29T08:52:14Z</time></trkpt><trkpt lat="43.29724466802104" lon="11.811477349704338"><ele>252.66666666666669</ele><time>2026-03-29T08:52:16Z</time></trkpt><trkpt lat="43.297153429484055" lon="11.81142652352171"><ele>253.0</ele><time>2026-03-29T08:52:18Z</time></trkpt><trkpt lat="43.29707757226568" lon="11.811295931981643"><ele>253.33333333333334</ele><time>2026-03-29T08:52:20Z</time></trkpt><trkpt lat="43.29705302330491" lon="11.811194030398845"><ele>253.66666666666669</ele><time>2026-03-29T08:52:21Z</time></trkpt><trkpt lat="43.297004916367364" lon="11.81111774679933"><ele>254.0</ele><time>2026-03-29T08:52:22Z</time></trkpt><trkpt lat="43.29697163465317" lon="11.811020855321708"><ele>253.83333333333334</ele><time>2026-03-29T08:52:23Z</time></trkpt><trkpt lat="43.29693984876822" lon="11.810920661918365"><ele>253.66666666666669</ele><time>2026-03-29T08:52:24Z</time></trkpt><trkpt lat="43.2969082397183" lon="11.81081992489173"><ele>253.5</ele><time>2026-03-29T08:52:25Z</time></trkpt><trkpt lat="43.296876030220965" lon="11.810720295404659"><ele>253.33333333333331</ele><time>2026-03-29T08:52:26Z</time></trkpt><trkpt lat="43.2968435735128" lon="11.810622499483205"><ele>253.16666666666666</ele><time>2026-03-29T08:52:27Z</time></trkpt><trkpt lat="43.296811688471536" lon="11.810520679194777"><ele>253.0</ele><time>2026-03-29T08:52:28Z</time></trkpt><trkpt lat="43.29679688535303" lon="11.81041120594437"><ele>252.99999999999997</ele><time>2026-03-29T08:52:29Z</time></trkpt><trkpt lat="43.296765719214456" lon="11.81030853141485"><ele>253.0</ele><time>2026-03-29T08:52:30Z</time></trkpt><trkpt lat="43.296722579273066" lon="11.810212291578345"><ele>253.0</ele><time>2026-03-29T08:52:31Z</time></trkpt><trkpt lat="43.29669544914222" lon="11.810110202631972"><ele>253.0</ele><time>2026-03-29T08:52:32Z</time></trkpt><trkpt lat="43.29666349343982" lon="11.810010919296115"><ele>252.99999999999997</ele><time>2026-03-29T08:52:33Z</time></trkpt><trkpt lat="43.29663232114291" lon="11.809913228922696"><ele>253.0</ele><time>2026-03-29T08:52:34Z</time></trkpt><trkpt lat="43.29659751126506" lon="11.809817271132161"><ele>252.99999999999997</ele><time>2026-03-29T08:52:35Z</time></trkpt><trkpt lat="43.29655927734568" lon="11.809726645894473"><ele>253.0</ele><time>2026-03-29T08:52:36Z</time></trkpt><trkpt lat="43.296516699019804" lon="11.809634766797341"><ele>253.0</ele><time>2026-03-29T08:52:37Z</time></trkpt><trkpt lat="43.296475650227876" lon="11.809540721173587"><ele>253.0</ele><time>2026-03-29T08:52:38Z</time></trkpt><trkpt lat="43.296437083873045" lon="11.809445217553824"><ele>252.99999999999997</ele><time>2026-03-29T08:52:39Z</time></trkpt><trkpt lat="43.2963987863224" lon="11.809349603082499"><ele>253.0</ele><time>2026-03-29T08:52:39.999Z</time></trkpt><trkpt lat="43.29635841066883" lon="11.80925651765207"><ele>253.66666666666666</ele><time>2026-03-29T08:52:40.999Z</time></trkpt><trkpt lat="43.29631220731212" lon="11.809167703380888"><ele>254.33333333333331</ele><time>2026-03-29T08:52:41.999Z</time></trkpt><trkpt lat="43.29626194291967" lon="11.809082327394982"><ele>255.0</ele><time>2026-03-29T08:52:42.999Z</time></trkpt><trkpt lat="43.29621412529809" lon="11.808999214218"><ele>255.66666666666669</ele><time>2026-03-29T08:52:43.999Z</time></trkpt><trkpt lat="43.29617640266958" lon="11.808907062242643"><ele>256.33333333333337</ele><time>2026-03-29T08:52:44.999Z</time></trkpt><trkpt lat="43.296171044518836" lon="11.808791139778998"><ele>257.0</ele><time>2026-03-29T08:52:45.999Z</time></trkpt><trkpt lat="43.296157121749175" lon="11.808687539248169"><ele>257.0</ele><time>2026-03-29T08:52:46.999Z</time></trkpt><trkpt lat="43.29614973846957" lon="11.808575358288818"><ele>257.0</ele><time>2026-03-29T08:52:47.999Z</time></trkpt><trkpt lat="43.29612525641858" lon="11.808480522168672"><ele>257.0</ele><time>2026-03-29T08:52:48.999Z</time></trkpt><trkpt lat="43.29610652122742" lon="11.808384583030266"><ele>257.0</ele><time>2026-03-29T08:52:49.999Z</time></trkpt><trkpt lat="43.29607971593762" lon="11.808295932846258"><ele>257.0</ele><time>2026-03-29T08:52:50.999Z</time></trkpt><trkpt lat="43.2960468177134" lon="11.808198180397595"><ele>257.0</ele><time>2026-03-29T08:52:51.999Z</time></trkpt><trkpt lat="43.29601358934728" lon="11.808106787416351"><ele>257.2857142857143</ele><time>2026-03-29T08:52:52.999Z</time></trkpt><trkpt lat="43.295975640435216" lon="11.80802123426637"><ele>257.57142857142856</ele><time>2026-03-29T08:52:54Z</time></trkpt><trkpt lat="43.29593687349044" lon="11.807939584268004"><ele>257.8571428571429</ele><time>2026-03-29T08:52:55Z</time></trkpt><trkpt lat="43.29589896928131" lon="11.80785461495793"><ele>258.1428571428571</ele><time>2026-03-29T08:52:56Z</time></trkpt><trkpt lat="43.295864320041034" lon="11.807767298097348"><ele>258.42857142857144</ele><time>2026-03-29T08:52:57Z</time></trkpt><trkpt lat="43.29582891187416" lon="11.80767486878131"><ele>258.7142857142857</ele><time>2026-03-29T08:52:58Z</time></trkpt><trkpt lat="43.29579412004492" lon="11.807581725012405"><ele>259.0</ele><time>2026-03-29T08:52:59Z</time></trkpt><trkpt lat="43.29576072545313" lon="11.807487398438438"><ele>259.2857142857143</ele><time>2026-03-29T08:53:00Z</time></trkpt><trkpt lat="43.295729233853706" lon="11.807395365920133"><ele>259.57142857142856</ele><time>2026-03-29T08:53:01Z</time></trkpt><trkpt lat="43.29569371242561" lon="11.807307451694331"><ele>259.8571428571429</ele><time>2026-03-29T08:53:02Z</time></trkpt><trkpt lat="43.29565498580021" lon="11.807219312277905"><ele>260.1428571428571</ele><time>2026-03-29T08:53:03Z</time></trkpt><trkpt lat="43.295617724385835" lon="11.807130272733396"><ele>260.42857142857144</ele><time>2026-03-29T08:53:04Z</time></trkpt><trkpt lat="43.29558225677759" lon="11.807040958239241"><ele>260.7142857142857</ele><time>2026-03-29T08:53:05Z</time></trkpt><trkpt lat="43.29554926073656" lon="11.80694837594595"><ele>261.0</ele><time>2026-03-29T08:53:06Z</time></trkpt><trkpt lat="43.29551721290495" lon="11.806858139161642"><ele>262.5</ele><time>2026-03-29T08:53:07Z</time></trkpt><trkpt lat="43.29548120216613" lon="11.806765234882397"><ele>264.0</ele><time>2026-03-29T08:53:08Z</time></trkpt><trkpt lat="43.295446480992716" lon="11.80667655558157"><ele>265.5</ele><time>2026-03-29T08:53:09Z</time></trkpt><trkpt lat="43.2954106661465" lon="11.806587662081926"><ele>267.0</ele><time>2026-03-29T08:53:10Z</time></trkpt><trkpt lat="43.295373655997835" lon="11.806498362018615"><ele>268.5</ele><time>2026-03-29T08:53:11Z</time></trkpt><trkpt lat="43.29533353491829" lon="11.806410565989783"><ele>270.0</ele><time>2026-03-29T08:53:12Z</time></trkpt><trkpt lat="43.29528741613996" lon="11.806327832276436"><ele>270.0</ele><time>2026-03-29T08:53:13Z</time></trkpt><trkpt lat="43.295239303299105" lon="11.806248519005564"><ele>270.0</ele><time>2026-03-29T08:53:14Z</time></trkpt><trkpt lat="43.29520849843751" lon="11.806155528825126"><ele>270.0</ele><time>2026-03-29T08:53:15Z</time></trkpt><trkpt lat="43.29516934548308" lon="11.80606867775656"><ele>270.0</ele><time>2026-03-29T08:53:16Z</time></trkpt><trkpt lat="43.29513572808473" lon="11.805983060399642"><ele>270.0</ele><time>2026-03-29T08:53:17Z</time></trkpt><trkpt lat="43.29510326552381" lon="11.805894987101395"><ele>270.0</ele><time>2026-03-29T08:53:18Z</time></trkpt><trkpt lat="43.29506815788745" lon="11.805809524170785"><ele>270.0</ele><time>2026-03-29T08:53:19Z</time></trkpt><trkpt lat="43.29505266259197" lon="11.805713476428457"><ele>271.8333333333333</ele><time>2026-03-29T08:53:20Z</time></trkpt><trkpt lat="43.29504200400964" lon="11.805616793022756"><ele>273.6666666666667</ele><time>2026-03-29T08:53:21Z</time></trkpt><trkpt lat="43.295039214704275" lon="11.805517402401906"><ele>275.5</ele><time>2026-03-29T08:53:22Z</time></trkpt><trkpt lat="43.29504401362775" lon="11.805421155728789"><ele>277.33333333333337</ele><time>2026-03-29T08:53:23Z</time></trkpt><trkpt lat="43.29505360428081" lon="11.805315310064534"><ele>279.1666666666667</ele><time>2026-03-29T08:53:24Z</time></trkpt><trkpt lat="43.29509191564513" lon="11.805239454869174"><ele>281.0</ele><time>2026-03-29T08:53:25Z</time></trkpt><trkpt lat="43.29513646374907" lon="11.805088733918383"><ele>282.33333333333337</ele><time>2026-03-29T08:53:27Z</time></trkpt><trkpt lat="43.29518466143522" lon="11.804933169450821"><ele>283.6666666666667</ele><time>2026-03-29T08:53:29Z</time></trkpt><trkpt lat="43.29520964872772" lon="11.804852736908884"><ele>285.0</ele><time>2026-03-29T08:53:30Z</time></trkpt><trkpt lat="43.29523333844377" lon="11.804769665896734"><ele>286.3333333333333</ele><time>2026-03-29T08:53:31Z</time></trkpt><trkpt lat="43.295255764360135" lon="11.804676468948376"><ele>287.66666666666663</ele><time>2026-03-29T08:53:32Z</time></trkpt><trkpt lat="43.29527516215356" lon="11.804593558874545"><ele>289.0</ele><time>2026-03-29T08:53:33Z</time></trkpt><trkpt lat="43.29529156736625" lon="11.804508041135984"><ele>289.0</ele><time>2026-03-29T08:53:34Z</time></trkpt><trkpt lat="43.29530521178201" lon="11.804421167103259"><ele>289.0</ele><time>2026-03-29T08:53:35Z</time></trkpt><trkpt lat="43.29531207667159" lon="11.804329960036885"><ele>289.0</ele><time>2026-03-29T08:53:36Z</time></trkpt><trkpt lat="43.295311750099366" lon="11.804241234907781"><ele>289.0</ele><time>2026-03-29T08:53:37Z</time></trkpt><trkpt lat="43.295290591656304" lon="11.804080687716525"><ele>289.0</ele><time>2026-03-29T08:53:39Z</time></trkpt><trkpt lat="43.2952529790246" lon="11.803926014243435"><ele>289.0</ele><time>2026-03-29T08:53:41Z</time></trkpt><trkpt lat="43.29520203928708" lon="11.803776508962773"><ele>289.57142857142856</ele><time>2026-03-29T08:53:43Z</time></trkpt><trkpt lat="43.295168686233055" lon="11.803702832003657"><ele>290.1428571428571</ele><time>2026-03-29T08:53:44Z</time></trkpt><trkpt lat="43.29512444588442" lon="11.80362802931873"><ele>290.71428571428567</ele><time>2026-03-29T08:53:45Z</time></trkpt><trkpt lat="43.295081107602606" lon="11.803554070258603"><ele>291.2857142857143</ele><time>2026-03-29T08:53:46Z</time></trkpt><trkpt lat="43.29502952522968" lon="11.803486051320675"><ele>291.85714285714283</ele><time>2026-03-29T08:53:47Z</time></trkpt><trkpt lat="43.294974850618495" lon="11.803419573231647"><ele>292.4285714285714</ele><time>2026-03-29T08:53:48Z</time></trkpt><trkpt lat="43.29491910722707" lon="11.803355040608878"><ele>293.0</ele><time>2026-03-29T08:53:49Z</time></trkpt><trkpt lat="43.29485871198756" lon="11.803294296971346"><ele>293.1428571428571</ele><time>2026-03-29T08:53:50Z</time></trkpt><trkpt lat="43.29479980251836" lon="11.803229718275517"><ele>293.2857142857143</ele><time>2026-03-29T08:53:51Z</time></trkpt><trkpt lat="43.294741419431475" lon="11.803164158972464"><ele>293.42857142857144</ele><time>2026-03-29T08:53:52Z</time></trkpt><trkpt lat="43.29468248824108" lon="11.80309961356876"><ele>293.57142857142856</ele><time>2026-03-29T08:53:53Z</time></trkpt><trkpt lat="43.294624973847405" lon="11.803038959579942"><ele>293.7142857142857</ele><time>2026-03-29T08:53:54Z</time></trkpt><trkpt lat="43.294569132205474" lon="11.802980404776712"><ele>293.85714285714283</ele><time>2026-03-29T08:53:55Z</time></trkpt><trkpt lat="43.29451382900817" lon="11.802915853319941"><ele>294.0</ele><time>2026-03-29T08:53:56Z</time></trkpt><trkpt lat="43.29445234854204" lon="11.80285702048301"><ele>294.0</ele><time>2026-03-29T08:53:57Z</time></trkpt><trkpt lat="43.29438968450061" lon="11.802802432493559"><ele>294.0</ele><time>2026-03-29T08:53:58Z</time></trkpt><trkpt lat="43.294326304116375" lon="11.802747419560601"><ele>294.0</ele><time>2026-03-29T08:53:59Z</time></trkpt><trkpt lat="43.294258431397054" lon="11.802695506325213"><ele>294.0</ele><time>2026-03-29T08:54:00Z</time></trkpt><trkpt lat="43.294199041343624" lon="11.802637904426474"><ele>294.0</ele><time>2026-03-29T08:54:01Z</time></trkpt><trkpt lat="43.2941441231008" lon="11.802564427517174"><ele>294.0</ele><time>2026-03-29T08:54:02Z</time></trkpt><trkpt lat="43.29409674456925" lon="11.802486748109361"><ele>293.59999999999997</ele><time>2026-03-29T08:54:03Z</time></trkpt><trkpt lat="43.29404912996222" lon="11.802405190238742"><ele>293.2</ele><time>2026-03-29T08:54:04Z</time></trkpt><trkpt lat="43.29400238059625" lon="11.80232876362621"><ele>292.79999999999995</ele><time>2026-03-29T08:54:05Z</time></trkpt><trkpt lat="43.29390777709356" lon="11.80216102951887"><ele>292.4</ele><time>2026-03-29T08:54:07Z</time></trkpt><trkpt lat="43.29386532733386" lon="11.802072722213804"><ele>292.0</ele><time>2026-03-29T08:54:08Z</time></trkpt><trkpt lat="43.29382267312877" lon="11.801979579050853"><ele>292.0</ele><time>2026-03-29T08:54:09Z</time></trkpt><trkpt lat="43.293780191224954" lon="11.801885479004886"><ele>292.0</ele><time>2026-03-29T08:54:10Z</time></trkpt><trkpt lat="43.29373800880965" lon="11.801792398121641"><ele>292.0</ele><time>2026-03-29T08:54:11Z</time></trkpt><trkpt lat="43.29369805587694" lon="11.801696905570719"><ele>292.0</ele><time>2026-03-29T08:54:12Z</time></trkpt><trkpt lat="43.293656400153765" lon="11.80160074672199"><ele>292.0</ele><time>2026-03-29T08:54:13Z</time></trkpt><trkpt lat="43.29361423772611" lon="11.801506273298346"><ele>292.0</ele><time>2026-03-29T08:54:14Z</time></trkpt><trkpt lat="43.29357040147937" lon="11.801413117659033"><ele>293.3333333333333</ele><time>2026-03-29T08:54:15Z</time></trkpt><trkpt lat="43.29352360039955" lon="11.801321462442802"><ele>294.66666666666663</ele><time>2026-03-29T08:54:16Z</time></trkpt><trkpt lat="43.29347894004654" lon="11.801222867955074"><ele>296.0</ele><time>2026-03-29T08:54:17Z</time></trkpt><trkpt lat="43.293434765711815" lon="11.801139311007864"><ele>297.3333333333333</ele><time>2026-03-29T08:54:18Z</time></trkpt><trkpt lat="43.29338448189714" lon="11.801055916833855"><ele>298.6666666666667</ele><time>2026-03-29T08:54:19Z</time></trkpt><trkpt lat="43.293339763770156" lon="11.80096721233935"><ele>300.0</ele><time>2026-03-29T08:54:20Z</time></trkpt><trkpt lat="43.293296079899484" lon="11.80087681560347"><ele>300.3333333333333</ele><time>2026-03-29T08:54:21Z</time></trkpt><trkpt lat="43.29326200715072" lon="11.800775153575836"><ele>300.6666666666667</ele><time>2026-03-29T08:54:22Z</time></trkpt><trkpt lat="43.293219282850636" lon="11.800687676042172"><ele>301.0</ele><time>2026-03-29T08:54:23Z</time></trkpt><trkpt lat="43.29317635401211" lon="11.800603416836276"><ele>301.33333333333337</ele><time>2026-03-29T08:54:23.999Z</time></trkpt><trkpt lat="43.29313825154602" lon="11.800511211255328"><ele>301.6666666666667</ele><time>2026-03-29T08:54:24.999Z</time></trkpt><trkpt lat="43.29309532018638" lon="11.800428342285588"><ele>302.0</ele><time>2026-03-29T08:54:25.999Z</time></trkpt><trkpt lat="43.29303819915121" lon="11.800356290677199"><ele>302.0</ele><time>2026-03-29T08:54:26.999Z</time></trkpt><trkpt lat="43.29298230909376" lon="11.800292680040828"><ele>302.0</ele><time>2026-03-29T08:54:27.999Z</time></trkpt><trkpt lat="43.29292432136082" lon="11.800222102588478"><ele>302.0</ele><time>2026-03-29T08:54:28.999Z</time></trkpt><trkpt lat="43.29287371120918" lon="11.800146735013795"><ele>302.0</ele><time>2026-03-29T08:54:29.999Z</time></trkpt><trkpt lat="43.29281797692647" lon="11.8000880348588"><ele>302.0</ele><time>2026-03-29T08:54:30.999Z</time></trkpt><trkpt lat="43.292763172041845" lon="11.800033032373696"><ele>302.0</ele><time>2026-03-29T08:54:31.999Z</time></trkpt><trkpt lat="43.29266544998921" lon="11.799922905234911"><ele>303.1666666666667</ele><time>2026-03-29T08:54:33.999Z</time></trkpt><trkpt lat="43.292610613089124" lon="11.799876844550134"><ele>304.33333333333337</ele><time>2026-03-29T08:54:34.999Z</time></trkpt><trkpt lat="43.29255568514743" lon="11.799831213179772"><ele>305.5</ele><time>2026-03-29T08:54:35.999Z</time></trkpt><trkpt lat="43.29250371927088" lon="11.79978180080812"><ele>306.6666666666667</ele><time>2026-03-29T08:54:36.999Z</time></trkpt><trkpt lat="43.29245670365526" lon="11.799723574760195"><ele>307.8333333333333</ele><time>2026-03-29T08:54:37.999Z</time></trkpt><trkpt lat="43.29237417993534" lon="11.799601161595247"><ele>309.0</ele><time>2026-03-29T08:54:39.999Z</time></trkpt><trkpt lat="43.29229879319314" lon="11.79947106269794"><ele>309.59999999999997</ele><time>2026-03-29T08:54:41.999Z</time></trkpt><trkpt lat="43.29224525313368" lon="11.799383144305393"><ele>310.2</ele><time>2026-03-29T08:54:43.999Z</time></trkpt><trkpt lat="43.292274179135624" lon="11.799266634936314"><ele>310.79999999999995</ele><time>2026-03-29T08:54:45.999Z</time></trkpt><trkpt lat="43.292372683533664" lon="11.799245135465112"><ele>311.4</ele><time>2026-03-29T08:54:46.999Z</time></trkpt><trkpt lat="43.292481855934575" lon="11.799223756562482"><ele>312.0</ele><time>2026-03-29T08:54:48.999Z</time></trkpt><trkpt lat="43.29252148571111" lon="11.79900583020281"><ele>312.0</ele><time>2026-03-29T08:54:50.998Z</time></trkpt><trkpt lat="43.29252830193809" lon="11.798917091282316"><ele>312.0</ele><time>2026-03-29T08:54:51.998Z</time></trkpt><trkpt lat="43.2925381232169" lon="11.798811067122987"><ele>312.0</ele><time>2026-03-29T08:54:52.998Z</time></trkpt><trkpt lat="43.292549012769555" lon="11.798697622049607"><ele>312.0</ele><time>2026-03-29T08:54:53.998Z</time></trkpt><trkpt lat="43.292560734251516" lon="11.798583738387538"><ele>312.0</ele><time>2026-03-29T08:54:54.998Z</time></trkpt><trkpt lat="43.29257077313589" lon="11.79845973385477"><ele>312.0</ele><time>2026-03-29T08:54:55.998Z</time></trkpt><trkpt lat="43.292578339368085" lon="11.798343360690547"><ele>311.0</ele><time>2026-03-29T08:54:56.998Z</time></trkpt><trkpt lat="43.29259104172657" lon="11.798226196616813"><ele>310.0</ele><time>2026-03-29T08:54:57.998Z</time></trkpt><trkpt lat="43.29260705135724" lon="11.798116052229"><ele>309.0</ele><time>2026-03-29T08:54:58.998Z</time></trkpt><trkpt lat="43.29261769609104" lon="11.798005785218669"><ele>308.0</ele><time>2026-03-29T08:54:59.999Z</time></trkpt><trkpt lat="43.2926243773275" lon="11.797894858510078"><ele>307.0</ele><time>2026-03-29T08:55:00.999Z</time></trkpt><trkpt lat="43.29263410988851" lon="11.797784141962374"><ele>306.0</ele><time>2026-03-29T08:55:01.999Z</time></trkpt><trkpt lat="43.29265074542003" lon="11.797672568962208"><ele>305.1666666666667</ele><time>2026-03-29T08:55:02.999Z</time></trkpt><trkpt lat="43.29266560953629" lon="11.797567729328913"><ele>304.3333333333333</ele><time>2026-03-29T08:55:04Z</time></trkpt><trkpt lat="43.2926822907615" lon="11.797467286621758"><ele>303.5</ele><time>2026-03-29T08:55:05Z</time></trkpt><trkpt lat="43.29270288333053" lon="11.79737002860992"><ele>302.66666666666663</ele><time>2026-03-29T08:55:06Z</time></trkpt><trkpt lat="43.292723053688945" lon="11.797275819631546"><ele>301.8333333333333</ele><time>2026-03-29T08:55:07Z</time></trkpt><trkpt lat="43.29274066774782" lon="11.797191424234287"><ele>301.0</ele><time>2026-03-29T08:55:08Z</time></trkpt><trkpt lat="43.29277691037179" lon="11.79705107348565"><ele>301.0</ele><time>2026-03-29T08:55:10Z</time></trkpt><trkpt lat="43.29281457742599" lon="11.796899283425129"><ele>301.0</ele><time>2026-03-29T08:55:12Z</time></trkpt><trkpt lat="43.29285501155203" lon="11.796733117724942"><ele>301.0</ele><time>2026-03-29T08:55:14Z</time></trkpt><trkpt lat="43.292880670639256" lon="11.796647539233197"><ele>301.0</ele><time>2026-03-29T08:55:15Z</time></trkpt><trkpt lat="43.29289498171764" lon="11.79655833162136"><ele>301.0</ele><time>2026-03-29T08:55:16Z</time></trkpt><trkpt lat="43.29291682040802" lon="11.796471897622899"><ele>301.0</ele><time>2026-03-29T08:55:16.999Z</time></trkpt><trkpt lat="43.29293842110036" lon="11.796389924809041"><ele>300.66666666666663</ele><time>2026-03-29T08:55:17.999Z</time></trkpt><trkpt lat="43.29297979123302" lon="11.796222558005928"><ele>300.3333333333333</ele><time>2026-03-29T08:55:19.999Z</time></trkpt><trkpt lat="43.29299642935883" lon="11.796129667208934"><ele>300.0</ele><time>2026-03-29T08:55:20.999Z</time></trkpt><trkpt lat="43.293005278514954" lon="11.796032279253973"><ele>299.6666666666667</ele><time>2026-03-29T08:55:21.999Z</time></trkpt><trkpt lat="43.29301015491453" lon="11.795927673912809"><ele>299.33333333333337</ele><time>2026-03-29T08:55:22.999Z</time></trkpt><trkpt lat="43.29301818250505" lon="11.79582091251157"><ele>299.0</ele><time>2026-03-29T08:55:23.999Z</time></trkpt><trkpt lat="43.293026015459176" lon="11.795709582080459"><ele>298.5</ele><time>2026-03-29T08:55:24.999Z</time></trkpt><trkpt lat="43.29303207793962" lon="11.795598222540567"><ele>298.0</ele><time>2026-03-29T08:55:25.999Z</time></trkpt><trkpt lat="43.29303491507455" lon="11.795481028771652"><ele>297.5</ele><time>2026-03-29T08:55:26.999Z</time></trkpt><trkpt lat="43.293055810575844" lon="11.795363246608428"><ele>297.0</ele><time>2026-03-29T08:55:27.999Z</time></trkpt><trkpt lat="43.29305774996014" lon="11.79523906992293"><ele>296.5</ele><time>2026-03-29T08:55:28.999Z</time></trkpt><trkpt lat="43.29305511303724" lon="11.795115087661475"><ele>296.0</ele><time>2026-03-29T08:55:29.999Z</time></trkpt><trkpt lat="43.29303473298816" lon="11.794989792848819"><ele>294.83333333333337</ele><time>2026-03-29T08:55:30.999Z</time></trkpt><trkpt lat="43.293030930370314" lon="11.794863528250076"><ele>293.6666666666667</ele><time>2026-03-29T08:55:31.999Z</time></trkpt><trkpt lat="43.29302496361511" lon="11.79475540629719"><ele>292.5</ele><time>2026-03-29T08:55:32.999Z</time></trkpt><trkpt lat="43.29301528005011" lon="11.794640706138441"><ele>291.3333333333333</ele><time>2026-03-29T08:55:33.999Z</time></trkpt><trkpt lat="43.2930096565924" lon="11.79452234720231"><ele>290.16666666666663</ele><time>2026-03-29T08:55:34.999Z</time></trkpt><trkpt lat="43.29299440861558" lon="11.79440692203747"><ele>289.0</ele><time>2026-03-29T08:55:35.999Z</time></trkpt><trkpt lat="43.292982851264696" lon="11.794290634129476"><ele>288.66666666666663</ele><time>2026-03-29T08:55:36.999Z</time></trkpt><trkpt lat="43.292979582961614" lon="11.794174594012876"><ele>288.3333333333333</ele><time>2026-03-29T08:55:37.999Z</time></trkpt><trkpt lat="43.2929761179548" lon="11.794055016298167"><ele>288.0</ele><time>2026-03-29T08:55:38.999Z</time></trkpt><trkpt lat="43.29296541700513" lon="11.79393064874008"><ele>287.6666666666667</ele><time>2026-03-29T08:55:39.999Z</time></trkpt><trkpt lat="43.29295340368901" lon="11.793804441202727"><ele>287.33333333333337</ele><time>2026-03-29T08:55:40.999Z</time></trkpt><trkpt lat="43.29294723833547" lon="11.793683432510619"><ele>287.0</ele><time>2026-03-29T08:55:41.999Z</time></trkpt><trkpt lat="43.2929376368033" lon="11.793561618863748"><ele>286.8</ele><time>2026-03-29T08:55:42.999Z</time></trkpt><trkpt lat="43.292928429029736" lon="11.793438430082984"><ele>286.6</ele><time>2026-03-29T08:55:43.999Z</time></trkpt><trkpt lat="43.29292016674471" lon="11.793317834099915"><ele>286.40000000000003</ele><time>2026-03-29T08:55:44.999Z</time></trkpt><trkpt lat="43.29290852465665" lon="11.79319398358146"><ele>286.2</ele><time>2026-03-29T08:55:45.999Z</time></trkpt><trkpt lat="43.29290080630646" lon="11.79306727024947"><ele>286.0</ele><time>2026-03-29T08:55:46.999Z</time></trkpt><trkpt lat="43.29289238407022" lon="11.792941420159478"><ele>286.0</ele><time>2026-03-29T08:55:47.999Z</time></trkpt><trkpt lat="43.29288442280178" lon="11.792816378109986"><ele>286.0</ele><time>2026-03-29T08:55:48.999Z</time></trkpt><trkpt lat="43.29287650225363" lon="11.792687308149272"><ele>286.0</ele><time>2026-03-29T08:55:49.999Z</time></trkpt><trkpt lat="43.292869347738275" lon="11.792559151002616"><ele>286.0</ele><time>2026-03-29T08:55:50.999Z</time></trkpt><trkpt lat="43.292855386757424" lon="11.79243163542214"><ele>286.0</ele><time>2026-03-29T08:55:51.999Z</time></trkpt><trkpt lat="43.29283791250724" lon="11.792305875220478"><ele>285.40000000000003</ele><time>2026-03-29T08:55:52.999Z</time></trkpt><trkpt lat="43.292814891455556" lon="11.792179701170612"><ele>284.8</ele><time>2026-03-29T08:55:53.999Z</time></trkpt><trkpt lat="43.29278821565802" lon="11.792055632748738"><ele>284.20000000000005</ele><time>2026-03-29T08:55:54.999Z</time></trkpt><trkpt lat="43.29275527205013" lon="11.791935118255712"><ele>283.6</ele><time>2026-03-29T08:55:55.999Z</time></trkpt><trkpt lat="43.292722307286944" lon="11.791809786836993"><ele>283.0</ele><time>2026-03-29T08:55:56.999Z</time></trkpt><trkpt lat="43.2926884272783" lon="11.791682259379003"><ele>282.2</ele><time>2026-03-29T08:55:57.999Z</time></trkpt><trkpt lat="43.2926538255139" lon="11.791553108584859"><ele>281.4</ele><time>2026-03-29T08:55:58.999Z</time></trkpt><trkpt lat="43.29261444933242" lon="11.791425367861496"><ele>280.59999999999997</ele><time>2026-03-29T08:55:59.999Z</time></trkpt><trkpt lat="43.29258083331497" lon="11.791296473470787"><ele>279.8</ele><time>2026-03-29T08:56:00.999Z</time></trkpt><trkpt lat="43.292546729871475" lon="11.791168939393584"><ele>279.0</ele><time>2026-03-29T08:56:01.999Z</time></trkpt><trkpt lat="43.29251545192593" lon="11.791040201207325"><ele>278.0</ele><time>2026-03-29T08:56:02.999Z</time></trkpt><trkpt lat="43.29248152611594" lon="11.790910756534615"><ele>277.0</ele><time>2026-03-29T08:56:03.999Z</time></trkpt><trkpt lat="43.292448204576736" lon="11.790782387608862"><ele>276.0</ele><time>2026-03-29T08:56:04.999Z</time></trkpt><trkpt lat="43.29241554022447" lon="11.790650134418714"><ele>275.0</ele><time>2026-03-29T08:56:05.999Z</time></trkpt><trkpt lat="43.2923809755014" lon="11.790517108872388"><ele>274.0</ele><time>2026-03-29T08:56:06.999Z</time></trkpt><trkpt lat="43.292346978885526" lon="11.79038392546135"><ele>274.0</ele><time>2026-03-29T08:56:07.999Z</time></trkpt><trkpt lat="43.29231037446276" lon="11.790248573566336"><ele>274.0</ele><time>2026-03-29T08:56:08.999Z</time></trkpt><trkpt lat="43.292274898808685" lon="11.790112890144826"><ele>274.0</ele><time>2026-03-29T08:56:09.999Z</time></trkpt><trkpt lat="43.29224124898082" lon="11.789973654371677"><ele>274.0</ele><time>2026-03-29T08:56:10.999Z</time></trkpt><trkpt lat="43.292211597108675" lon="11.789831979442061"><ele>274.0</ele><time>2026-03-29T08:56:11.999Z</time></trkpt><trkpt lat="43.292186387600836" lon="11.789689337220663"><ele>272.0</ele><time>2026-03-29T08:56:12.999Z</time></trkpt><trkpt lat="43.29216047866916" lon="11.789547141950054"><ele>270.0</ele><time>2026-03-29T08:56:13.999Z</time></trkpt><trkpt lat="43.29213489561891" lon="11.789404670708114"><ele>268.0</ele><time>2026-03-29T08:56:14.999Z</time></trkpt><trkpt lat="43.29210921297256" lon="11.789262628724215"><ele>266.0</ele><time>2026-03-29T08:56:15.999Z</time></trkpt><trkpt lat="43.29208361595946" lon="11.789120719335179"><ele>264.0</ele><time>2026-03-29T08:56:16.999Z</time></trkpt><trkpt lat="43.29205779716805" lon="11.788981292728414"><ele>263.4</ele><time>2026-03-29T08:56:17.999Z</time></trkpt><trkpt lat="43.29203972689825" lon="11.788845669249485"><ele>262.79999999999995</ele><time>2026-03-29T08:56:18.999Z</time></trkpt><trkpt lat="43.29203762058285" lon="11.78871021918257"><ele>262.20000000000005</ele><time>2026-03-29T08:56:19.999Z</time></trkpt><trkpt lat="43.29204914784827" lon="11.788571328967102"><ele>261.6</ele><time>2026-03-29T08:56:20.999Z</time></trkpt><trkpt lat="43.29207067632173" lon="11.788436828833387"><ele>261.0</ele><time>2026-03-29T08:56:21.999Z</time></trkpt><trkpt lat="43.292092488152" lon="11.78830320875018"><ele>261.0</ele><time>2026-03-29T08:56:22.999Z</time></trkpt><trkpt lat="43.29210861499569" lon="11.788167990387107"><ele>261.0</ele><time>2026-03-29T08:56:23.999Z</time></trkpt><trkpt lat="43.292126520564935" lon="11.788033530533454"><ele>261.0</ele><time>2026-03-29T08:56:24.999Z</time></trkpt><trkpt lat="43.292093194739806" lon="11.787905396277742"><ele>261.0</ele><time>2026-03-29T08:56:25.999Z</time></trkpt><trkpt lat="43.29206016472107" lon="11.78778636187204"><ele>261.0</ele><time>2026-03-29T08:56:26.999Z</time></trkpt><trkpt lat="43.29202585678535" lon="11.78766457662968"><ele>261.0</ele><time>2026-03-29T08:56:27.999Z</time></trkpt><trkpt lat="43.29200498211143" lon="11.787542031876923"><ele>261.0</ele><time>2026-03-29T08:56:28.999Z</time></trkpt><trkpt lat="43.29200787931002" lon="11.787416134842516"><ele>261.0</ele><time>2026-03-29T08:56:29.999Z</time></trkpt><trkpt lat="43.292001554658825" lon="11.787294254431162"><ele>261.0</ele><time>2026-03-29T08:56:30.999Z</time></trkpt><trkpt lat="43.29199897749763" lon="11.78716737707115"><ele>261.0</ele><time>2026-03-29T08:56:31.999Z</time></trkpt><trkpt lat="43.29200038154634" lon="11.787040420774769"><ele>261.0</ele><time>2026-03-29T08:56:32.999Z</time></trkpt><trkpt lat="43.29200515151725" lon="11.7869111685659"><ele>261.0</ele><time>2026-03-29T08:56:33.999Z</time></trkpt><trkpt lat="43.29201135831039" lon="11.786780275037163"><ele>261.0</ele><time>2026-03-29T08:56:34.999Z</time></trkpt><trkpt lat="43.292018705521784" lon="11.786647186364744"><ele>261.0</ele><time>2026-03-29T08:56:35.999Z</time></trkpt><trkpt lat="43.29201063592308" lon="11.786512225089194"><ele>261.0</ele><time>2026-03-29T08:56:36.999Z</time></trkpt><trkpt lat="43.29201860773563" lon="11.786381761626645"><ele>261.0</ele><time>2026-03-29T08:56:37.999Z</time></trkpt><trkpt lat="43.29202374763612" lon="11.786252813140807"><ele>261.0</ele><time>2026-03-29T08:56:38.999Z</time></trkpt><trkpt lat="43.29203061147356" lon="11.7861239278518"><ele>261.0</ele><time>2026-03-29T08:56:39.999Z</time></trkpt><trkpt lat="43.29204324133408" lon="11.785996716781764"><ele>261.0</ele><time>2026-03-29T08:56:40.999Z</time></trkpt><trkpt lat="43.29202976432633" lon="11.785867942262191"><ele>261.0</ele><time>2026-03-29T08:56:41.999Z</time></trkpt><trkpt lat="43.29203181201322" lon="11.785740609046128"><ele>261.0</ele><time>2026-03-29T08:56:42.999Z</time></trkpt><trkpt lat="43.2920236230349" lon="11.78561670235543"><ele>261.0</ele><time>2026-03-29T08:56:43.999Z</time></trkpt><trkpt lat="43.29199955406169" lon="11.785496171624235"><ele>261.0</ele><time>2026-03-29T08:56:44.999Z</time></trkpt><trkpt lat="43.29197704663622" lon="11.785376653122917"><ele>261.0</ele><time>2026-03-29T08:56:45.999Z</time></trkpt><trkpt lat="43.29195386884675" lon="11.785256650949412"><ele>261.0</ele><time>2026-03-29T08:56:46.999Z</time></trkpt><trkpt lat="43.29191709597685" lon="11.785143153490939"><ele>261.40000000000003</ele><time>2026-03-29T08:56:47.999Z</time></trkpt><trkpt lat="43.29186396425162" lon="11.785040594338852"><ele>261.8</ele><time>2026-03-29T08:56:48.999Z</time></trkpt><trkpt lat="43.29180760894082" lon="11.784938379171153"><ele>262.20000000000005</ele><time>2026-03-29T08:56:49.999Z</time></trkpt><trkpt lat="43.29174796538872" lon="11.784836077605506"><ele>262.6</ele><time>2026-03-29T08:56:50.999Z</time></trkpt><trkpt lat="43.29168969362211" lon="11.784733744108262"><ele>263.0</ele><time>2026-03-29T08:56:51.999Z</time></trkpt><trkpt lat="43.29163134476998" lon="11.784629656698813"><ele>263.0</ele><time>2026-03-29T08:56:52.999Z</time></trkpt><trkpt lat="43.29157314119246" lon="11.784525619439718"><ele>263.0</ele><time>2026-03-29T08:56:53.999Z</time></trkpt><trkpt lat="43.29151947866412" lon="11.784419939891341"><ele>263.0</ele><time>2026-03-29T08:56:54.999Z</time></trkpt><trkpt lat="43.29146630297574" lon="11.784313409908869"><ele>263.0</ele><time>2026-03-29T08:56:55.999Z</time></trkpt><trkpt lat="43.29141381453572" lon="11.784212352838885"><ele>263.0</ele><time>2026-03-29T08:56:56.999Z</time></trkpt><trkpt lat="43.29136547008274" lon="11.784103395511362"><ele>263.0</ele><time>2026-03-29T08:56:57.999Z</time></trkpt><trkpt lat="43.2913206680429" lon="11.78399646963776"><ele>263.0</ele><time>2026-03-29T08:56:58.999Z</time></trkpt><trkpt lat="43.29126634985498" lon="11.7839013675467"><ele>263.0</ele><time>2026-03-29T08:56:59.999Z</time></trkpt><trkpt lat="43.29120419925159" lon="11.783813763225421"><ele>263.0</ele><time>2026-03-29T08:57:00.999Z</time></trkpt><trkpt lat="43.291146841040714" lon="11.783720616620721"><ele>263.0</ele><time>2026-03-29T08:57:01.999Z</time></trkpt><trkpt lat="43.29108133822691" lon="11.783634429727716"><ele>263.0</ele><time>2026-03-29T08:57:02.999Z</time></trkpt><trkpt lat="43.291020453362435" lon="11.783542877575865"><ele>263.83333333333337</ele><time>2026-03-29T08:57:03.999Z</time></trkpt><trkpt lat="43.290959988391684" lon="11.783449736097605"><ele>264.6666666666667</ele><time>2026-03-29T08:57:05Z</time></trkpt><trkpt lat="43.290901185483456" lon="11.783358821191817"><ele>265.5</ele><time>2026-03-29T08:57:06Z</time></trkpt><trkpt lat="43.29084222878127" lon="11.783264060348106"><ele>266.3333333333333</ele><time>2026-03-29T08:57:07Z</time></trkpt><trkpt lat="43.29078714538348" lon="11.783167757349807"><ele>267.16666666666663</ele><time>2026-03-29T08:57:08Z</time></trkpt><trkpt lat="43.29073949017811" lon="11.78306419187972"><ele>268.0</ele><time>2026-03-29T08:57:09Z</time></trkpt><trkpt lat="43.29069032015974" lon="11.78295383325252"><ele>268.0</ele><time>2026-03-29T08:57:10Z</time></trkpt><trkpt lat="43.290639313452395" lon="11.782856870472873"><ele>268.0</ele><time>2026-03-29T08:57:11Z</time></trkpt><trkpt lat="43.29058995389624" lon="11.782758503674685"><ele>268.0</ele><time>2026-03-29T08:57:12Z</time></trkpt><trkpt lat="43.29053945464611" lon="11.782665739214547"><ele>268.0</ele><time>2026-03-29T08:57:13Z</time></trkpt><trkpt lat="43.290489360330945" lon="11.782571440041519"><ele>268.0</ele><time>2026-03-29T08:57:14Z</time></trkpt><trkpt lat="43.2904372431214" lon="11.782473029603198"><ele>268.0</ele><time>2026-03-29T08:57:15Z</time></trkpt><trkpt lat="43.29039011376866" lon="11.78237660732365"><ele>268.0</ele><time>2026-03-29T08:57:16Z</time></trkpt><trkpt lat="43.29034376450542" lon="11.782281372109441"><ele>268.0</ele><time>2026-03-29T08:57:17Z</time></trkpt><trkpt lat="43.290297051381124" lon="11.782182119401089"><ele>268.0</ele><time>2026-03-29T08:57:18Z</time></trkpt><trkpt lat="43.290247442181595" lon="11.782081462396684"><ele>268.0</ele><time>2026-03-29T08:57:19Z</time></trkpt><trkpt lat="43.29020283893064" lon="11.781975151286952"><ele>268.0</ele><time>2026-03-29T08:57:20Z</time></trkpt><trkpt lat="43.29015735025401" lon="11.78187051693878"><ele>268.0</ele><time>2026-03-29T08:57:21Z</time></trkpt><trkpt lat="43.29010415392162" lon="11.781768479183874"><ele>268.0</ele><time>2026-03-29T08:57:22Z</time></trkpt><trkpt lat="43.290051391853254" lon="11.781668401215024"><ele>268.0</ele><time>2026-03-29T08:57:23Z</time></trkpt><trkpt lat="43.289993439453156" lon="11.781569366452773"><ele>268.0</ele><time>2026-03-29T08:57:24Z</time></trkpt><trkpt lat="43.289933430868125" lon="11.781471166675034"><ele>268.0</ele><time>2026-03-29T08:57:25Z</time></trkpt><trkpt lat="43.28987565401342" lon="11.781371424609748"><ele>268.0</ele><time>2026-03-29T08:57:26Z</time></trkpt><trkpt lat="43.28981686155276" lon="11.781272535769196"><ele>266.4</ele><time>2026-03-29T08:57:27Z</time></trkpt><trkpt lat="43.28975749393461" lon="11.781170874215704"><ele>264.8</ele><time>2026-03-29T08:57:28Z</time></trkpt><trkpt lat="43.28969591686849" lon="11.781074233492356"><ele>263.2</ele><time>2026-03-29T08:57:29Z</time></trkpt><trkpt lat="43.28963198096447" lon="11.780983124606067"><ele>261.6</ele><time>2026-03-29T08:57:30Z</time></trkpt><trkpt lat="43.289569073756816" lon="11.780892417691563"><ele>260.0</ele><time>2026-03-29T08:57:31Z</time></trkpt><trkpt lat="43.289507568182806" lon="11.780802345243947"><ele>260.0</ele><time>2026-03-29T08:57:32Z</time></trkpt><trkpt lat="43.289448289804845" lon="11.78070628321409"><ele>260.0</ele><time>2026-03-29T08:57:33Z</time></trkpt><trkpt lat="43.28939111536677" lon="11.78060724105515"><ele>260.0</ele><time>2026-03-29T08:57:34Z</time></trkpt><trkpt lat="43.28934016577057" lon="11.780501985630778"><ele>260.0</ele><time>2026-03-29T08:57:34.999Z</time></trkpt><trkpt lat="43.28929822821987" lon="11.780388962276207"><ele>260.0</ele><time>2026-03-29T08:57:35.999Z</time></trkpt><trkpt lat="43.2892661508578" lon="11.780270907389"><ele>259.83333333333337</ele><time>2026-03-29T08:57:36.999Z</time></trkpt><trkpt lat="43.28924784207251" lon="11.780148768712118"><ele>259.6666666666667</ele><time>2026-03-29T08:57:37.999Z</time></trkpt><trkpt lat="43.28925267487007" lon="11.780022065460997"><ele>259.5</ele><time>2026-03-29T08:57:38.999Z</time></trkpt><trkpt lat="43.28925470259134" lon="11.779903296415696"><ele>259.3333333333333</ele><time>2026-03-29T08:57:39.999Z</time></trkpt><trkpt lat="43.2892543945888" lon="11.77978165995844"><ele>259.16666666666663</ele><time>2026-03-29T08:57:40.999Z</time></trkpt><trkpt lat="43.2892527483482" lon="11.779662854159701"><ele>259.0</ele><time>2026-03-29T08:57:41.999Z</time></trkpt><trkpt lat="43.28925253776269" lon="11.779540485709855"><ele>259.0</ele><time>2026-03-29T08:57:42.999Z</time></trkpt><trkpt lat="43.28924733932926" lon="11.779424385116782"><ele>259.0</ele><time>2026-03-29T08:57:43.999Z</time></trkpt><trkpt lat="43.28923643617272" lon="11.779316223648623"><ele>259.0</ele><time>2026-03-29T08:57:44.999Z</time></trkpt><trkpt lat="43.28923168825301" lon="11.779217064524207"><ele>259.0</ele><time>2026-03-29T08:57:45.999Z</time></trkpt><trkpt lat="43.28926973997699" lon="11.779135664813161"><ele>259.0</ele><time>2026-03-29T08:57:47.999Z</time></trkpt><trkpt lat="43.28922996209867" lon="11.778975871139814"><ele>259.0</ele><time>2026-03-29T08:57:50.999Z</time></trkpt><trkpt lat="43.28920283636399" lon="11.778896381224943"><ele>258.8333333333333</ele><time>2026-03-29T08:57:51.999Z</time></trkpt><trkpt lat="43.28917715879149" lon="11.778806752079277"><ele>258.66666666666663</ele><time>2026-03-29T08:57:52.999Z</time></trkpt><trkpt lat="43.28914277830239" lon="11.778710191652186"><ele>258.5</ele><time>2026-03-29T08:57:53.999Z</time></trkpt><trkpt lat="43.2891040533879" lon="11.778606347928765"><ele>258.3333333333333</ele><time>2026-03-29T08:57:54.999Z</time></trkpt><trkpt lat="43.28906749981658" lon="11.778496008496148"><ele>258.1666666666667</ele><time>2026-03-29T08:57:55.999Z</time></trkpt><trkpt lat="43.289023333010334" lon="11.778389032684414"><ele>258.0</ele><time>2026-03-29T08:57:56.999Z</time></trkpt><trkpt lat="43.28896948847559" lon="11.778288235419113"><ele>258.0</ele><time>2026-03-29T08:57:57.999Z</time></trkpt><trkpt lat="43.28890659979044" lon="11.778190243642154"><ele>258.0</ele><time>2026-03-29T08:57:58.999Z</time></trkpt><trkpt lat="43.288845904580484" lon="11.778088338352882"><ele>258.0</ele><time>2026-03-29T08:57:59.999Z</time></trkpt><trkpt lat="43.28878334986587" lon="11.777987555305181"><ele>258.0</ele><time>2026-03-29T08:58:00.999Z</time></trkpt><trkpt lat="43.288716987332" lon="11.77789265340067"><ele>258.0</ele><time>2026-03-29T08:58:01.999Z</time></trkpt><trkpt lat="43.288653487679234" lon="11.777795397593753"><ele>258.0</ele><time>2026-03-29T08:58:02.999Z</time></trkpt><trkpt lat="43.28859105440259" lon="11.777697622535717"><ele>258.0</ele><time>2026-03-29T08:58:03.999Z</time></trkpt><trkpt lat="43.288525940638934" lon="11.7775992907362"><ele>258.0</ele><time>2026-03-29T08:58:04.999Z</time></trkpt><trkpt lat="43.28845987323184" lon="11.777504467954573"><ele>258.0</ele><time>2026-03-29T08:58:05.999Z</time></trkpt><trkpt lat="43.28839468915036" lon="11.777410175973571"><ele>258.0</ele><time>2026-03-29T08:58:06.999Z</time></trkpt><trkpt lat="43.28833160157646" lon="11.7773103237677"><ele>257.8</ele><time>2026-03-29T08:58:07.999Z</time></trkpt><trkpt lat="43.28827326609093" lon="11.777210569068563"><ele>257.6</ele><time>2026-03-29T08:58:08.999Z</time></trkpt><trkpt lat="43.28821237473264" lon="11.777113226282172"><ele>257.4</ele><time>2026-03-29T08:58:09.999Z</time></trkpt><trkpt lat="43.28815030309898" lon="11.777024117872367"><ele>257.2</ele><time>2026-03-29T08:58:10.999Z</time></trkpt><trkpt lat="43.288090927894125" lon="11.776934650258314"><ele>257.0</ele><time>2026-03-29T08:58:11.999Z</time></trkpt><trkpt lat="43.28802796630374" lon="11.776841083815574"><ele>256.6</ele><time>2026-03-29T08:58:12.999Z</time></trkpt><trkpt lat="43.28796493973373" lon="11.776746368155319"><ele>256.2</ele><time>2026-03-29T08:58:13.999Z</time></trkpt><trkpt lat="43.28790088403901" lon="11.776647883420578"><ele>255.8</ele><time>2026-03-29T08:58:14.999Z</time></trkpt><trkpt lat="43.28783644408166" lon="11.776548573327718"><ele>255.4</ele><time>2026-03-29T08:58:15.999Z</time></trkpt><trkpt lat="43.28777126228483" lon="11.776448152463177"><ele>255.0</ele><time>2026-03-29T08:58:16.999Z</time></trkpt><trkpt lat="43.28770585460444" lon="11.776350939012355"><ele>255.0</ele><time>2026-03-29T08:58:17.999Z</time></trkpt><trkpt lat="43.28763170631447" lon="11.776258909414876"><ele>255.0</ele><time>2026-03-29T08:58:18.999Z</time></trkpt><trkpt lat="43.28755122661098" lon="11.776175185120128"><ele>255.0</ele><time>2026-03-29T08:58:19.999Z</time></trkpt><trkpt lat="43.28746797424441" lon="11.77610121562695"><ele>255.0</ele><time>2026-03-29T08:58:20.999Z</time></trkpt><trkpt lat="43.28737995999374" lon="11.77603672103484"><ele>255.0</ele><time>2026-03-29T08:58:21.999Z</time></trkpt><trkpt lat="43.28728870626815" lon="11.775990039387386"><ele>254.8</ele><time>2026-03-29T08:58:22.999Z</time></trkpt><trkpt lat="43.28720286057123" lon="11.775939499168954"><ele>254.6</ele><time>2026-03-29T08:58:23.999Z</time></trkpt><trkpt lat="43.287117149549566" lon="11.775884298436313"><ele>254.39999999999998</ele><time>2026-03-29T08:58:24.999Z</time></trkpt><trkpt lat="43.287029678806654" lon="11.775827286714925"><ele>254.2</ele><time>2026-03-29T08:58:25.999Z</time></trkpt><trkpt lat="43.286943538857976" lon="11.775770783525603"><ele>254.0</ele><time>2026-03-29T08:58:26.999Z</time></trkpt><trkpt lat="43.28685929112041" lon="11.775714241617191"><ele>254.0</ele><time>2026-03-29T08:58:27.999Z</time></trkpt><trkpt lat="43.28677477623087" lon="11.775655889804248"><ele>253.99999999999997</ele><time>2026-03-29T08:58:28.999Z</time></trkpt><trkpt lat="43.28668876988334" lon="11.775599503843946"><ele>253.99999999999997</ele><time>2026-03-29T08:58:29.999Z</time></trkpt><trkpt lat="43.28660384544042" lon="11.7755456625594"><ele>254.0</ele><time>2026-03-29T08:58:30.999Z</time></trkpt><trkpt lat="43.28651900801594" lon="11.775489069633629"><ele>254.0</ele><time>2026-03-29T08:58:31.999Z</time></trkpt><trkpt lat="43.286437041065746" lon="11.775432774000508"><ele>254.0</ele><time>2026-03-29T08:58:32.999Z</time></trkpt><trkpt lat="43.28636017140648" lon="11.775378784721738"><ele>253.99999999999997</ele><time>2026-03-29T08:58:33.999Z</time></trkpt><trkpt lat="43.28628646264469" lon="11.775309836426127"><ele>253.99999999999997</ele><time>2026-03-29T08:58:34.999Z</time></trkpt><trkpt lat="43.286217152346445" lon="11.775228776595595"><ele>254.0</ele><time>2026-03-29T08:58:35.999Z</time></trkpt><trkpt lat="43.286155121271726" lon="11.775134136476598"><ele>254.0</ele><time>2026-03-29T08:58:36.999Z</time></trkpt><trkpt lat="43.286100973229935" lon="11.775033542419441"><ele>254.16666666666669</ele><time>2026-03-29T08:58:37.999Z</time></trkpt><trkpt lat="43.28605270617283" lon="11.774933451982722"><ele>254.33333333333334</ele><time>2026-03-29T08:58:38.999Z</time></trkpt><trkpt lat="43.28600865827086" lon="11.774834065036298"><ele>254.5</ele><time>2026-03-29T08:58:39.999Z</time></trkpt><trkpt lat="43.285963698899714" lon="11.774730626940165"><ele>254.66666666666669</ele><time>2026-03-29T08:58:40.999Z</time></trkpt><trkpt lat="43.285920087325344" lon="11.774638859026314"><ele>254.83333333333334</ele><time>2026-03-29T08:58:41.999Z</time></trkpt><trkpt lat="43.28588117553015" lon="11.774542351126104"><ele>255.0</ele><time>2026-03-29T08:58:42.999Z</time></trkpt><trkpt lat="43.28583765398136" lon="11.77445415029526"><ele>255.0</ele><time>2026-03-29T08:58:43.999Z</time></trkpt><trkpt lat="43.285794778888096" lon="11.774357979316214"><ele>255.0</ele><time>2026-03-29T08:58:44.999Z</time></trkpt><trkpt lat="43.28575213369108" lon="11.774259152314134"><ele>255.0</ele><time>2026-03-29T08:58:45.999Z</time></trkpt><trkpt lat="43.28570629587846" lon="11.774160723963496"><ele>255.0</ele><time>2026-03-29T08:58:46.999Z</time></trkpt><trkpt lat="43.28565624707259" lon="11.774062679709976"><ele>255.0</ele><time>2026-03-29T08:58:47.999Z</time></trkpt><trkpt lat="43.28560981849588" lon="11.773959222131502"><ele>255.0</ele><time>2026-03-29T08:58:48.999Z</time></trkpt><trkpt lat="43.28556436813528" lon="11.773863259999876"><ele>255.0</ele><time>2026-03-29T08:58:49.999Z</time></trkpt><trkpt lat="43.28551729059682" lon="11.7737611822667"><ele>255.0</ele><time>2026-03-29T08:58:50.999Z</time></trkpt><trkpt lat="43.28546943183552" lon="11.77365959169677"><ele>255.0</ele><time>2026-03-29T08:58:51.999Z</time></trkpt><trkpt lat="43.285421671787276" lon="11.773558275833814"><ele>255.0</ele><time>2026-03-29T08:58:52.999Z</time></trkpt><trkpt lat="43.28537561602317" lon="11.77345524005391"><ele>255.0</ele><time>2026-03-29T08:58:53.999Z</time></trkpt><trkpt lat="43.28532951411587" lon="11.7733510936448"><ele>255.0</ele><time>2026-03-29T08:58:54.999Z</time></trkpt><trkpt lat="43.28528336300562" lon="11.773247710736726"><ele>255.16666666666666</ele><time>2026-03-29T08:58:55.999Z</time></trkpt><trkpt lat="43.2852381495451" lon="11.7731406432958"><ele>255.33333333333331</ele><time>2026-03-29T08:58:56.999Z</time></trkpt><trkpt lat="43.28520066344345" lon="11.773030838009953"><ele>255.5</ele><time>2026-03-29T08:58:57.999Z</time></trkpt><trkpt lat="43.285178276721055" lon="11.77291290572795"><ele>255.66666666666666</ele><time>2026-03-29T08:58:58.999Z</time></trkpt><trkpt lat="43.2851687460919" lon="11.772794016052625"><ele>255.83333333333331</ele><time>2026-03-29T08:58:59.999Z</time></trkpt><trkpt lat="43.28517897035772" lon="11.772674587957344"><ele>256.0</ele><time>2026-03-29T08:59:00.999Z</time></trkpt><trkpt lat="43.28521242410476" lon="11.772561489035983"><ele>255.99999999999997</ele><time>2026-03-29T08:59:01.999Z</time></trkpt><trkpt lat="43.285256711395725" lon="11.772466274062735"><ele>256.0</ele><time>2026-03-29T08:59:02.999Z</time></trkpt><trkpt lat="43.28531425795998" lon="11.772388251220613"><ele>256.0</ele><time>2026-03-29T08:59:03.999Z</time></trkpt><trkpt lat="43.28537852459933" lon="11.772325920551834"><ele>256.0</ele><time>2026-03-29T08:59:04.999Z</time></trkpt><trkpt lat="43.28545451959789" lon="11.772295108863883"><ele>255.99999999999997</ele><time>2026-03-29T08:59:05.999Z</time></trkpt><trkpt lat="43.28553263161582" lon="11.772295736427369"><ele>256.0</ele><time>2026-03-29T08:59:06.999Z</time></trkpt><trkpt lat="43.28561030232408" lon="11.772318933101946"><ele>255.99999999999997</ele><time>2026-03-29T08:59:07.999Z</time></trkpt><trkpt lat="43.28568648619258" lon="11.772323984951639"><ele>256.0</ele><time>2026-03-29T08:59:08.999Z</time></trkpt><trkpt lat="43.28576099427858" lon="11.772298545240137"><ele>256.0</ele><time>2026-03-29T08:59:09.999Z</time></trkpt><trkpt lat="43.28582491588201" lon="11.772242492432563"><ele>256.0</ele><time>2026-03-29T08:59:11Z</time></trkpt><trkpt lat="43.2858657383013" lon="11.772155706154681"><ele>255.99999999999997</ele><time>2026-03-29T08:59:12Z</time></trkpt><trkpt lat="43.28588208567246" lon="11.77204771799617"><ele>256.0</ele><time>2026-03-29T08:59:13Z</time></trkpt><trkpt lat="43.28587478744722" lon="11.771950229372914"><ele>256.0</ele><time>2026-03-29T08:59:14Z</time></trkpt><trkpt lat="43.285835805751255" lon="11.771863771351132"><ele>255.99999999999997</ele><time>2026-03-29T08:59:15Z</time></trkpt><trkpt lat="43.28577378311107" lon="11.771799161271563"><ele>256.0</ele><time>2026-03-29T08:59:16Z</time></trkpt><trkpt lat="43.285705215066365" lon="11.77175505260635"><ele>256.0</ele><time>2026-03-29T08:59:17Z</time></trkpt><trkpt lat="43.28562421933018" lon="11.771758863930318"><ele>255.99999999999997</ele><time>2026-03-29T08:59:18Z</time></trkpt><trkpt lat="43.285553973810146" lon="11.771790888095584"><ele>256.0</ele><time>2026-03-29T08:59:19Z</time></trkpt><trkpt lat="43.28549103222495" lon="11.771793885222637"><ele>256.0</ele><time>2026-03-29T08:59:20Z</time></trkpt><trkpt lat="43.28538234619076" lon="11.771494598727239"><ele>255.99999999999997</ele><time>2026-03-29T08:59:22Z</time></trkpt><trkpt lat="43.28533353409834" lon="11.771405028817053"><ele>256.0</ele><time>2026-03-29T08:59:23Z</time></trkpt><trkpt lat="43.28529267380294" lon="11.771309189902574"><ele>256.0</ele><time>2026-03-29T08:59:24Z</time></trkpt><trkpt lat="43.2852523608313" lon="11.771210518371642"><ele>256.0</ele><time>2026-03-29T08:59:25Z</time></trkpt><trkpt lat="43.28521070837272" lon="11.771112507349885"><ele>255.99999999999997</ele><time>2026-03-29T08:59:26Z</time></trkpt><trkpt lat="43.28516611659631" lon="11.771015368853046"><ele>256.0</ele><time>2026-03-29T08:59:27Z</time></trkpt><trkpt lat="43.28512367619381" lon="11.770921794754758"><ele>255.99999999999997</ele><time>2026-03-29T08:59:27.999Z</time></trkpt><trkpt lat="43.285080837053094" lon="11.770826511586144"><ele>256.0</ele><time>2026-03-29T08:59:28.999Z</time></trkpt><trkpt lat="43.285037044720674" lon="11.770730684493333"><ele>256.0</ele><time>2026-03-29T08:59:29.999Z</time></trkpt><trkpt lat="43.28499406451696" lon="11.770633535596545"><ele>256.0</ele><time>2026-03-29T08:59:30.999Z</time></trkpt><trkpt lat="43.284949469236274" lon="11.770536300560217"><ele>255.99999999999997</ele><time>2026-03-29T08:59:31.999Z</time></trkpt><trkpt lat="43.28490449135918" lon="11.77043924292998"><ele>256.0</ele><time>2026-03-29T08:59:32.999Z</time></trkpt><trkpt lat="43.28486209812586" lon="11.770339727873692"><ele>255.99999999999997</ele><time>2026-03-29T08:59:33.999Z</time></trkpt><trkpt lat="43.284816058314746" lon="11.77024172161629"><ele>256.0</ele><time>2026-03-29T08:59:34.999Z</time></trkpt><trkpt lat="43.28476720295405" lon="11.770142749480788"><ele>256.0</ele><time>2026-03-29T08:59:35.999Z</time></trkpt><trkpt lat="43.284720209007816" lon="11.77003970477589"><ele>256.0</ele><time>2026-03-29T08:59:36.999Z</time></trkpt><trkpt lat="43.284675721497564" lon="11.769934951574001"><ele>255.99999999999997</ele><time>2026-03-29T08:59:37.999Z</time></trkpt><trkpt lat="43.28462726946905" lon="11.769832614314728"><ele>256.0</ele><time>2026-03-29T08:59:38.999Z</time></trkpt><trkpt lat="43.284574006043925" lon="11.76973463732951"><ele>256.16666666666663</ele><time>2026-03-29T08:59:39.999Z</time></trkpt><trkpt lat="43.28451631055811" lon="11.769641495813882"><ele>256.3333333333333</ele><time>2026-03-29T08:59:40.999Z</time></trkpt><trkpt lat="43.284456809009555" lon="11.769553245034741"><ele>256.5</ele><time>2026-03-29T08:59:41.999Z</time></trkpt><trkpt lat="43.28439193430414" lon="11.769472571439925"><ele>256.6666666666667</ele><time>2026-03-29T08:59:42.999Z</time></trkpt><trkpt lat="43.284327832475434" lon="11.769393900588947"><ele>256.83333333333337</ele><time>2026-03-29T08:59:43.999Z</time></trkpt><trkpt lat="43.28426386328232" lon="11.769315371788998"><ele>257.0</ele><time>2026-03-29T08:59:44.999Z</time></trkpt><trkpt lat="43.28420124032735" lon="11.769236483544484"><ele>257.0</ele><time>2026-03-29T08:59:45.999Z</time></trkpt><trkpt lat="43.284139498340814" lon="11.769155364810329"><ele>257.0</ele><time>2026-03-29T08:59:46.998Z</time></trkpt><trkpt lat="43.28407815497985" lon="11.769073090535223"><ele>257.0</ele><time>2026-03-29T08:59:47.998Z</time></trkpt><trkpt lat="43.28401403676078" lon="11.768983700759303"><ele>257.0</ele><time>2026-03-29T08:59:48.998Z</time></trkpt><trkpt lat="43.28394813611694" lon="11.768898228364119"><ele>257.0</ele><time>2026-03-29T08:59:49.998Z</time></trkpt><trkpt lat="43.28388043127117" lon="11.768811684726582"><ele>257.0</ele><time>2026-03-29T08:59:50.998Z</time></trkpt><trkpt lat="43.28380865001283" lon="11.768726153369883"><ele>257.0</ele><time>2026-03-29T08:59:51.998Z</time></trkpt><trkpt lat="43.28373640011111" lon="11.768641486916346"><ele>257.0</ele><time>2026-03-29T08:59:52.998Z</time></trkpt><trkpt lat="43.28366788284963" lon="11.768556927157665"><ele>257.0</ele><time>2026-03-29T08:59:53.998Z</time></trkpt><trkpt lat="43.28359807510758" lon="11.76847352393339"><ele>257.0</ele><time>2026-03-29T08:59:54.998Z</time></trkpt><trkpt lat="43.28352212297134" lon="11.768388391036314"><ele>257.0</ele><time>2026-03-29T08:59:55.998Z</time></trkpt><trkpt lat="43.283445904915915" lon="11.768306983600844"><ele>256.8</ele><time>2026-03-29T08:59:56.998Z</time></trkpt><trkpt lat="43.2833737400299" lon="11.768224555977548"><ele>256.6</ele><time>2026-03-29T08:59:57.998Z</time></trkpt><trkpt lat="43.28330372768438" lon="11.768138921657437"><ele>256.40000000000003</ele><time>2026-03-29T08:59:58.998Z</time></trkpt><trkpt lat="43.283226665753865" lon="11.768060256155799"><ele>256.2</ele><time>2026-03-29T08:59:59.998Z</time></trkpt><trkpt lat="43.283158320741435" lon="11.767977721231222"><ele>256.0</ele><time>2026-03-29T09:00:00.998Z</time></trkpt><trkpt lat="43.28308780988098" lon="11.767892560502458"><ele>255.8</ele><time>2026-03-29T09:00:01.998Z</time></trkpt><trkpt lat="43.283015025129174" lon="11.767812742949125"><ele>255.60000000000002</ele><time>2026-03-29T09:00:02.998Z</time></trkpt><trkpt lat="43.28294237331034" lon="11.767733549319303"><ele>255.4</ele><time>2026-03-29T09:00:03.998Z</time></trkpt><trkpt lat="43.28286982785674" lon="11.767655761347296"><ele>255.2</ele><time>2026-03-29T09:00:04.998Z</time></trkpt><trkpt lat="43.28279903485572" lon="11.76757463998566"><ele>255.0</ele><time>2026-03-29T09:00:05.998Z</time></trkpt><trkpt lat="43.28272498932393" lon="11.767500604283391"><ele>255.0</ele><time>2026-03-29T09:00:06.998Z</time></trkpt><trkpt lat="43.282641675141825" lon="11.767439346489533"><ele>255.0</ele><time>2026-03-29T09:00:07.998Z</time></trkpt><trkpt lat="43.28255315139894" lon="11.767392464521496"><ele>255.0</ele><time>2026-03-29T09:00:08.998Z</time></trkpt><trkpt lat="43.2824648619782" lon="11.767356911002983"><ele>255.0</ele><time>2026-03-29T09:00:09.998Z</time></trkpt><trkpt lat="43.28237698448631" lon="11.767322383750217"><ele>255.0</ele><time>2026-03-29T09:00:10.998Z</time></trkpt><trkpt lat="43.282287334797104" lon="11.767287634720692"><ele>255.25</ele><time>2026-03-29T09:00:11.998Z</time></trkpt><trkpt lat="43.28210692653382" lon="11.76721734370732"><ele>255.5</ele><time>2026-03-29T09:00:13.998Z</time></trkpt><trkpt lat="43.282018320996436" lon="11.767180923376316"><ele>255.75</ele><time>2026-03-29T09:00:14.998Z</time></trkpt><trkpt lat="43.28193091993291" lon="11.767142988222146"><ele>256.0</ele><time>2026-03-29T09:00:15.998Z</time></trkpt><trkpt lat="43.2818472808501" lon="11.767095198047828"><ele>255.99999999999997</ele><time>2026-03-29T09:00:16.998Z</time></trkpt><trkpt lat="43.28176677440323" lon="11.767038289936057"><ele>256.0</ele><time>2026-03-29T09:00:17.998Z</time></trkpt><trkpt lat="43.28168999186639" lon="11.766969657716595"><ele>256.0</ele><time>2026-03-29T09:00:18.998Z</time></trkpt><trkpt lat="43.28161856874783" lon="11.766894313631182"><ele>256.0</ele><time>2026-03-29T09:00:19.998Z</time></trkpt><trkpt lat="43.28155202346968" lon="11.766815847615332"><ele>255.99999999999997</ele><time>2026-03-29T09:00:20.998Z</time></trkpt><trkpt lat="43.2814888130133" lon="11.766730576115737"><ele>256.0</ele><time>2026-03-29T09:00:21.998Z</time></trkpt><trkpt lat="43.2814323842873" lon="11.76663869724639"><ele>256.2</ele><time>2026-03-29T09:00:22.998Z</time></trkpt><trkpt lat="43.281381036296985" lon="11.766539944323148"><ele>256.40000000000003</ele><time>2026-03-29T09:00:23.998Z</time></trkpt><trkpt lat="43.28133419385156" lon="11.766433948657125"><ele>256.6</ele><time>2026-03-29T09:00:24.998Z</time></trkpt><trkpt lat="43.2812947031369" lon="11.76632131932592"><ele>256.8</ele><time>2026-03-29T09:00:25.998Z</time></trkpt><trkpt lat="43.281257361548676" lon="11.766202930525507"><ele>257.0</ele><time>2026-03-29T09:00:26.998Z</time></trkpt><trkpt lat="43.28121658676146" lon="11.766089515985716"><ele>257.8</ele><time>2026-03-29T09:00:27.998Z</time></trkpt><trkpt lat="43.28117695906684" lon="11.765975569712475"><ele>258.6</ele><time>2026-03-29T09:00:28.998Z</time></trkpt><trkpt lat="43.28113818785737" lon="11.765860551289286"><ele>259.40000000000003</ele><time>2026-03-29T09:00:29.998Z</time></trkpt><trkpt lat="43.28109664811194" lon="11.76574866687959"><ele>260.2</ele><time>2026-03-29T09:00:30.998Z</time></trkpt><trkpt lat="43.28105641878104" lon="11.76563453272297"><ele>261.0</ele><time>2026-03-29T09:00:31.998Z</time></trkpt><trkpt lat="43.281015928933506" lon="11.765518546894484"><ele>261.0</ele><time>2026-03-29T09:00:32.998Z</time></trkpt><trkpt lat="43.28097495458744" lon="11.76540324270049"><ele>261.0</ele><time>2026-03-29T09:00:33.998Z</time></trkpt><trkpt lat="43.2809355128284" lon="11.765286209447055"><ele>261.0</ele><time>2026-03-29T09:00:34.998Z</time></trkpt><trkpt lat="43.280901273137765" lon="11.765167269741578"><ele>261.0</ele><time>2026-03-29T09:00:35.998Z</time></trkpt><trkpt lat="43.2808659544937" lon="11.765045554759913"><ele>261.0</ele><time>2026-03-29T09:00:36.998Z</time></trkpt><trkpt lat="43.28082939111795" lon="11.764928726343502"><ele>261.2</ele><time>2026-03-29T09:00:37.998Z</time></trkpt><trkpt lat="43.280794782276494" lon="11.764809766217866"><ele>261.40000000000003</ele><time>2026-03-29T09:00:38.998Z</time></trkpt><trkpt lat="43.28076277572896" lon="11.764688481793703"><ele>261.6</ele><time>2026-03-29T09:00:39.998Z</time></trkpt><trkpt lat="43.28073297802481" lon="11.764568361288685"><ele>261.8</ele><time>2026-03-29T09:00:40.998Z</time></trkpt><trkpt lat="43.280703064468476" lon="11.76445041492381"><ele>262.0</ele><time>2026-03-29T09:00:41.998Z</time></trkpt><trkpt lat="43.28067111618487" lon="11.764337094440833"><ele>262.0</ele><time>2026-03-29T09:00:42.998Z</time></trkpt><trkpt lat="43.280634279729746" lon="11.764228567474138"><ele>262.0</ele><time>2026-03-29T09:00:43.998Z</time></trkpt><trkpt lat="43.28059476916065" lon="11.764124659393227"><ele>262.0</ele><time>2026-03-29T09:00:44.998Z</time></trkpt><trkpt lat="43.280540868080806" lon="11.76402261561526"><ele>262.0</ele><time>2026-03-29T09:00:45.998Z</time></trkpt><trkpt lat="43.280494176398555" lon="11.763933840245544"><ele>262.0</ele><time>2026-03-29T09:00:46.998Z</time></trkpt><trkpt lat="43.280444916739185" lon="11.763854908609078"><ele>262.0</ele><time>2026-03-29T09:00:47.998Z</time></trkpt><trkpt lat="43.2804117300256" lon="11.763774111287747"><ele>261.8333333333333</ele><time>2026-03-29T09:00:48.998Z</time></trkpt><trkpt lat="43.280394738362475" lon="11.763687827516078"><ele>261.66666666666663</ele><time>2026-03-29T09:00:49.998Z</time></trkpt><trkpt lat="43.28038658665426" lon="11.763595470157162"><ele>261.5</ele><time>2026-03-29T09:00:50.998Z</time></trkpt><trkpt lat="43.28037408344105" lon="11.76350897820632"><ele>261.3333333333333</ele><time>2026-03-29T09:00:51.998Z</time></trkpt><trkpt lat="43.28035499787419" lon="11.763425082794429"><ele>261.1666666666667</ele><time>2026-03-29T09:00:52.998Z</time></trkpt><trkpt lat="43.28032867554269" lon="11.763340417832703"><ele>261.0</ele><time>2026-03-29T09:00:53.998Z</time></trkpt><trkpt lat="43.28028237118269" lon="11.763183434584576"><ele>260.8333333333333</ele><time>2026-03-29T09:00:55.998Z</time></trkpt><trkpt lat="43.28022515947799" lon="11.763132145467495"><ele>260.6666666666667</ele><time>2026-03-29T09:00:56.998Z</time></trkpt><trkpt lat="43.28019433594787" lon="11.763051728612494"><ele>260.5</ele><time>2026-03-29T09:00:57.998Z</time></trkpt><trkpt lat="43.28011402051717" lon="11.762932727075242"><ele>260.33333333333337</ele><time>2026-03-29T09:00:59.998Z</time></trkpt><trkpt lat="43.280054698675286" lon="11.7628780407991"><ele>260.1666666666667</ele><time>2026-03-29T09:01:00.998Z</time></trkpt><trkpt lat="43.28000793767411" lon="11.762816170639702"><ele>260.0</ele><time>2026-03-29T09:01:01.997Z</time></trkpt><trkpt lat="43.279960085659766" lon="11.762752261311663"><ele>261.0</ele><time>2026-03-29T09:01:02.997Z</time></trkpt><trkpt lat="43.279861586101845" lon="11.76266754516486"><ele>262.0</ele><time>2026-03-29T09:01:04.997Z</time></trkpt><trkpt lat="43.27978236457857" lon="11.762633203988072"><ele>263.0</ele><time>2026-03-29T09:01:06.997Z</time></trkpt><trkpt lat="43.279710462928506" lon="11.762615519756654"><ele>264.0</ele><time>2026-03-29T09:01:08.997Z</time></trkpt><trkpt lat="43.279617976910394" lon="11.762579906218306"><ele>265.0</ele><time>2026-03-29T09:01:10.997Z</time></trkpt><trkpt lat="43.27951675993509" lon="11.762553146078039"><ele>266.0</ele><time>2026-03-29T09:01:12.997Z</time></trkpt><trkpt lat="43.27941772036301" lon="11.762573717298729"><ele>267.0</ele><time>2026-03-29T09:01:14.997Z</time></trkpt><trkpt lat="43.279366359107065" lon="11.762468509823405"><ele>268.0</ele><time>2026-03-29T09:01:15.997Z</time></trkpt><trkpt lat="43.27929847969307" lon="11.762437813617717"><ele>269.0</ele><time>2026-03-29T09:01:17.998Z</time></trkpt><trkpt lat="43.27922044754619" lon="11.762385525969217"><ele>270.0</ele><time>2026-03-29T09:01:19.998Z</time></trkpt><trkpt lat="43.279234178095145" lon="11.762235052972454"><ele>270.0</ele><time>2026-03-29T09:01:21.999Z</time></trkpt><trkpt lat="43.27920326885384" lon="11.762134465935173"><ele>270.0</ele><time>2026-03-29T09:01:23.999Z</time></trkpt><trkpt lat="43.27916359619192" lon="11.76201676697118"><ele>270.0</ele><time>2026-03-29T09:01:25.999Z</time></trkpt><trkpt lat="43.27912194627996" lon="11.761888615294362"><ele>270.0</ele><time>2026-03-29T09:01:27.999Z</time></trkpt><trkpt lat="43.27908568282164" lon="11.761761933673156"><ele>270.0</ele><time>2026-03-29T09:01:29.999Z</time></trkpt><trkpt lat="43.27904182173413" lon="11.761640572741404"><ele>271.4</ele><time>2026-03-29T09:01:31.999Z</time></trkpt><trkpt lat="43.278982921053974" lon="11.761525826047267"><ele>272.8</ele><time>2026-03-29T09:01:33.999Z</time></trkpt><trkpt lat="43.2789230389179" lon="11.76140612100552"><ele>274.2</ele><time>2026-03-29T09:01:35.999Z</time></trkpt><trkpt lat="43.27888393791047" lon="11.761294747676338"><ele>275.6</ele><time>2026-03-29T09:01:37.999Z</time></trkpt><trkpt lat="43.27883220051048" lon="11.761161932102107"><ele>277.0</ele><time>2026-03-29T09:01:39.999Z</time></trkpt><trkpt lat="43.27879293416405" lon="11.761027314285078"><ele>280.5</ele><time>2026-03-29T09:01:41.999Z</time></trkpt><trkpt lat="43.27874598960802" lon="11.76088408056964"><ele>284.0</ele><time>2026-03-29T09:01:43.999Z</time></trkpt><trkpt lat="43.27868837510351" lon="11.760760708366321"><ele>287.5</ele><time>2026-03-29T09:01:45.999Z</time></trkpt><trkpt lat="43.27862708340492" lon="11.760629679235173"><ele>291.0</ele><time>2026-03-29T09:01:47.999Z</time></trkpt><trkpt lat="43.2785549616452" lon="11.760493945141516"><ele>291.0</ele><time>2026-03-29T09:01:49.999Z</time></trkpt><trkpt lat="43.278521494026506" lon="11.760419895717286"><ele>291.0</ele><time>2026-03-29T09:01:50.999Z</time></trkpt><trkpt lat="43.27846035047124" lon="11.760271434062068"><ele>291.0</ele><time>2026-03-29T09:01:52.999Z</time></trkpt><trkpt lat="43.278418831270635" lon="11.760113278180384"><ele>291.0</ele><time>2026-03-29T09:01:54.999Z</time></trkpt><trkpt lat="43.27840887256016" lon="11.760027788044562"><ele>291.0</ele><time>2026-03-29T09:01:55.999Z</time></trkpt><trkpt lat="43.27839181531177" lon="11.759866959043878"><ele>293.2</ele><time>2026-03-29T09:01:57.999Z</time></trkpt><trkpt lat="43.278352829941845" lon="11.75970853250641"><ele>295.40000000000003</ele><time>2026-03-29T09:01:59.999Z</time></trkpt><trkpt lat="43.27830080822692" lon="11.759537391225834"><ele>297.6</ele><time>2026-03-29T09:02:01.999Z</time></trkpt><trkpt lat="43.2782763599496" lon="11.759449927728097"><ele>299.8</ele><time>2026-03-29T09:02:02.999Z</time></trkpt><trkpt lat="43.27825034986762" lon="11.759351638911275"><ele>302.0</ele><time>2026-03-29T09:02:03.999Z</time></trkpt><trkpt lat="43.27822772267113" lon="11.759252942275781"><ele>301.28571428571433</ele><time>2026-03-29T09:02:04.999Z</time></trkpt><trkpt lat="43.278212514682004" lon="11.759153140929788"><ele>300.57142857142856</ele><time>2026-03-29T09:02:05.999Z</time></trkpt><trkpt lat="43.27819967373089" lon="11.759051173772667"><ele>299.8571428571429</ele><time>2026-03-29T09:02:06.999Z</time></trkpt><trkpt lat="43.27818595716061" lon="11.758950900645516"><ele>299.14285714285717</ele><time>2026-03-29T09:02:07.999Z</time></trkpt><trkpt lat="43.27816341716596" lon="11.758855135816491"><ele>298.42857142857144</ele><time>2026-03-29T09:02:08.999Z</time></trkpt><trkpt lat="43.2781357056878" lon="11.75876265015067"><ele>297.7142857142857</ele><time>2026-03-29T09:02:09.999Z</time></trkpt><trkpt lat="43.278102356018984" lon="11.75867191318552"><ele>297.0</ele><time>2026-03-29T09:02:10.999Z</time></trkpt><trkpt lat="43.27806372827411" lon="11.758584618481697"><ele>298.8571428571429</ele><time>2026-03-29T09:02:11.999Z</time></trkpt><trkpt lat="43.278026128226735" lon="11.75849835680673"><ele>300.7142857142857</ele><time>2026-03-29T09:02:12.999Z</time></trkpt><trkpt lat="43.277990399592916" lon="11.758405531888924"><ele>302.57142857142856</ele><time>2026-03-29T09:02:13.999Z</time></trkpt><trkpt lat="43.27795819267356" lon="11.75830886142092"><ele>304.42857142857144</ele><time>2026-03-29T09:02:14.999Z</time></trkpt><trkpt lat="43.27793123557209" lon="11.758214839165554"><ele>306.2857142857143</ele><time>2026-03-29T09:02:15.999Z</time></trkpt><trkpt lat="43.277912998775975" lon="11.758115156153387"><ele>308.14285714285717</ele><time>2026-03-29T09:02:16.999Z</time></trkpt><trkpt lat="43.27789666217777" lon="11.758021074493612"><ele>310.0</ele><time>2026-03-29T09:02:17.999Z</time></trkpt><trkpt lat="43.27788363023028" lon="11.757932112708657"><ele>310.0</ele><time>2026-03-29T09:02:18.999Z</time></trkpt><trkpt lat="43.27787368419971" lon="11.757844985219124"><ele>310.0</ele><time>2026-03-29T09:02:19.999Z</time></trkpt><trkpt lat="43.27786258581537" lon="11.75775502964449"><ele>310.0</ele><time>2026-03-29T09:02:20.999Z</time></trkpt><trkpt lat="43.27784107911484" lon="11.757672616747644"><ele>310.0</ele><time>2026-03-29T09:02:21.999Z</time></trkpt><trkpt lat="43.277776001027476" lon="11.757523887225616"><ele>310.0</ele><time>2026-03-29T09:02:23.999Z</time></trkpt><trkpt lat="43.277690114872755" lon="11.757399134681103"><ele>310.0</ele><time>2026-03-29T09:02:25.999Z</time></trkpt><trkpt lat="43.277603951350926" lon="11.75727403090538"><ele>311.14285714285717</ele><time>2026-03-29T09:02:27.999Z</time></trkpt><trkpt lat="43.27755214925226" lon="11.757214297483877"><ele>312.2857142857143</ele><time>2026-03-29T09:02:28.999Z</time></trkpt><trkpt lat="43.27750032226481" lon="11.757160784437641"><ele>313.42857142857144</ele><time>2026-03-29T09:02:29.999Z</time></trkpt><trkpt lat="43.27744934953721" lon="11.757100778399966"><ele>314.57142857142856</ele><time>2026-03-29T09:02:30.999Z</time></trkpt><trkpt lat="43.27739853455881" lon="11.757037012896287"><ele>315.7142857142857</ele><time>2026-03-29T09:02:31.999Z</time></trkpt><trkpt lat="43.27734774605195" lon="11.756976144417354"><ele>316.85714285714283</ele><time>2026-03-29T09:02:32.999Z</time></trkpt><trkpt lat="43.27729452213825" lon="11.756905375910677"><ele>318.0</ele><time>2026-03-29T09:02:33.999Z</time></trkpt><trkpt lat="43.277245057484684" lon="11.75683804947332"><ele>319.57142857142856</ele><time>2026-03-29T09:02:34.999Z</time></trkpt><trkpt lat="43.27719910392332" lon="11.756770318535455"><ele>321.14285714285717</ele><time>2026-03-29T09:02:35.999Z</time></trkpt><trkpt lat="43.27714880476322" lon="11.756706935094435"><ele>322.7142857142857</ele><time>2026-03-29T09:02:36.999Z</time></trkpt><trkpt lat="43.27709665235496" lon="11.756643444764457"><ele>324.2857142857143</ele><time>2026-03-29T09:02:37.999Z</time></trkpt><trkpt lat="43.27704530515941" lon="11.75657604165826"><ele>325.8571428571429</ele><time>2026-03-29T09:02:38.999Z</time></trkpt><trkpt lat="43.27699969599955" lon="11.756501666257785"><ele>327.42857142857144</ele><time>2026-03-29T09:02:39.999Z</time></trkpt><trkpt lat="43.276956671830085" lon="11.756424986550714"><ele>329.0</ele><time>2026-03-29T09:02:40.999Z</time></trkpt><trkpt lat="43.27691255371131" lon="11.756348986169332"><ele>329.0</ele><time>2026-03-29T09:02:41.999Z</time></trkpt><trkpt lat="43.27687045123845" lon="11.75627592241872"><ele>329.0</ele><time>2026-03-29T09:02:42.999Z</time></trkpt><trkpt lat="43.276831837928434" lon="11.756204020491957"><ele>329.0</ele><time>2026-03-29T09:02:43.999Z</time></trkpt><trkpt lat="43.276772467559674" lon="11.756096091325404"><ele>329.0</ele><time>2026-03-29T09:02:45.999Z</time></trkpt><trkpt lat="43.276808019886865" lon="11.755959640650055"><ele>329.0</ele><time>2026-03-29T09:02:48.999Z</time></trkpt><trkpt lat="43.276870061163024" lon="11.755857506421137"><ele>329.0</ele><time>2026-03-29T09:02:50.999Z</time></trkpt><trkpt lat="43.27689976538946" lon="11.755716776242025"><ele>331.0</ele><time>2026-03-29T09:02:52.999Z</time></trkpt><trkpt lat="43.27689060708509" lon="11.755552908144262"><ele>333.0</ele><time>2026-03-29T09:02:54.999Z</time></trkpt><trkpt lat="43.276858583348904" lon="11.755385290324014"><ele>335.0</ele><time>2026-03-29T09:02:56.999Z</time></trkpt><trkpt lat="43.27684166952892" lon="11.755298058600113"><ele>337.0</ele><time>2026-03-29T09:02:57.999Z</time></trkpt><trkpt lat="43.276823662699925" lon="11.75521313560526"><ele>339.0</ele><time>2026-03-29T09:02:58.999Z</time></trkpt><trkpt lat="43.27680630222446" lon="11.755126646387417"><ele>341.0</ele><time>2026-03-29T09:02:59.999Z</time></trkpt><trkpt lat="43.27678779386553" lon="11.755040015562338"><ele>342.0</ele><time>2026-03-29T09:03:00.999Z</time></trkpt><trkpt lat="43.27676955696412" lon="11.75495325520749"><ele>343.0</ele><time>2026-03-29T09:03:01.999Z</time></trkpt><trkpt lat="43.2767522249393" lon="11.754866281191184"><ele>344.0</ele><time>2026-03-29T09:03:02.999Z</time></trkpt><trkpt lat="43.2767344645217" lon="11.754779404062015"><ele>345.0</ele><time>2026-03-29T09:03:03.999Z</time></trkpt><trkpt lat="43.27671538818447" lon="11.754694531509317"><ele>346.0</ele><time>2026-03-29T09:03:04.999Z</time></trkpt><trkpt lat="43.2766974659829" lon="11.754605669571877"><ele>347.0</ele><time>2026-03-29T09:03:05.999Z</time></trkpt><trkpt lat="43.27667966771878" lon="11.754515151667828"><ele>348.0</ele><time>2026-03-29T09:03:06.999Z</time></trkpt><trkpt lat="43.27665865864108" lon="11.75442023306338"><ele>348.5</ele><time>2026-03-29T09:03:07.999Z</time></trkpt><trkpt lat="43.27663828308929" lon="11.754320648214847"><ele>349.0</ele><time>2026-03-29T09:03:08.999Z</time></trkpt><trkpt lat="43.27661469809788" lon="11.754222070854054"><ele>349.5</ele><time>2026-03-29T09:03:09.999Z</time></trkpt><trkpt lat="43.27659166505656" lon="11.75412119575923"><ele>350.0</ele><time>2026-03-29T09:03:10.999Z</time></trkpt><trkpt lat="43.27657342885925" lon="11.754017754199616"><ele>350.5</ele><time>2026-03-29T09:03:11.999Z</time></trkpt><trkpt lat="43.2765526101227" lon="11.753915266276996"><ele>351.0</ele><time>2026-03-29T09:03:12.999Z</time></trkpt><trkpt lat="43.27653240579995" lon="11.753813116140163"><ele>351.0</ele><time>2026-03-29T09:03:13.999Z</time></trkpt><trkpt lat="43.27651090282504" lon="11.753709123383615"><ele>351.0</ele><time>2026-03-29T09:03:14.999Z</time></trkpt><trkpt lat="43.276489394565054" lon="11.753609163619963"><ele>351.0</ele><time>2026-03-29T09:03:15.999Z</time></trkpt><trkpt lat="43.27646231094808" lon="11.753508481973483"><ele>351.0</ele><time>2026-03-29T09:03:16.999Z</time></trkpt><trkpt lat="43.27643378881074" lon="11.753412032896808"><ele>351.0</ele><time>2026-03-29T09:03:17.999Z</time></trkpt><trkpt lat="43.276398933146965" lon="11.753322726934705"><ele>351.0</ele><time>2026-03-29T09:03:18.999Z</time></trkpt><trkpt lat="43.276365061281446" lon="11.753229619750371"><ele>351.42857142857144</ele><time>2026-03-29T09:03:19.999Z</time></trkpt><trkpt lat="43.27633448076489" lon="11.753132442437176"><ele>351.8571428571429</ele><time>2026-03-29T09:03:20.999Z</time></trkpt><trkpt lat="43.27630955601929" lon="11.753036090794069"><ele>352.28571428571433</ele><time>2026-03-29T09:03:21.999Z</time></trkpt><trkpt lat="43.27628284282089" lon="11.752942539752107"><ele>352.7142857142857</ele><time>2026-03-29T09:03:23Z</time></trkpt><trkpt lat="43.27625997807084" lon="11.752848338185544"><ele>353.1428571428571</ele><time>2026-03-29T09:03:24Z</time></trkpt><trkpt lat="43.27624188982663" lon="11.752754155742322"><ele>353.5714285714286</ele><time>2026-03-29T09:03:25Z</time></trkpt><trkpt lat="43.27622670170514" lon="11.752658697598171"><ele>354.0</ele><time>2026-03-29T09:03:26Z</time></trkpt><trkpt lat="43.27621463968382" lon="11.752560529060021"><ele>354.5</ele><time>2026-03-29T09:03:27Z</time></trkpt><trkpt lat="43.27620986026809" lon="11.752458931234717"><ele>355.0</ele><time>2026-03-29T09:03:28Z</time></trkpt><trkpt lat="43.27620879597558" lon="11.75235698028675"><ele>355.5</ele><time>2026-03-29T09:03:29Z</time></trkpt><trkpt lat="43.27620978585107" lon="11.752254983043061"><ele>356.0</ele><time>2026-03-29T09:03:30Z</time></trkpt><trkpt lat="43.276212533107085" lon="11.752149962970124"><ele>356.5</ele><time>2026-03-29T09:03:31Z</time></trkpt><trkpt lat="43.276217175959104" lon="11.752045739871454"><ele>357.0</ele><time>2026-03-29T09:03:32Z</time></trkpt><trkpt lat="43.27622451306447" lon="11.751941192179563"><ele>357.7142857142857</ele><time>2026-03-29T09:03:33Z</time></trkpt><trkpt lat="43.276229520920175" lon="11.751841392342651"><ele>358.42857142857144</ele><time>2026-03-29T09:03:34Z</time></trkpt><trkpt lat="43.27623300391759" lon="11.751738458036275"><ele>359.1428571428571</ele><time>2026-03-29T09:03:35Z</time></trkpt><trkpt lat="43.27623608723671" lon="11.751635330738281"><ele>359.8571428571429</ele><time>2026-03-29T09:03:36Z</time></trkpt><trkpt lat="43.276235872829766" lon="11.751529571637112"><ele>360.57142857142856</ele><time>2026-03-29T09:03:37Z</time></trkpt><trkpt lat="43.27624084838068" lon="11.751428604380559"><ele>361.2857142857143</ele><time>2026-03-29T09:03:38Z</time></trkpt><trkpt lat="43.276235568597805" lon="11.751326278061315"><ele>362.0</ele><time>2026-03-29T09:03:39Z</time></trkpt><trkpt lat="43.276219356581095" lon="11.75121936122137"><ele>362.0</ele><time>2026-03-29T09:03:40Z</time></trkpt><trkpt lat="43.27620367708553" lon="11.751116989382307"><ele>362.0</ele><time>2026-03-29T09:03:41Z</time></trkpt><trkpt lat="43.27617293531452" lon="11.751016465952706"><ele>362.0</ele><time>2026-03-29T09:03:42Z</time></trkpt><trkpt lat="43.27614879065937" lon="11.750913244432997"><ele>362.0</ele><time>2026-03-29T09:03:43Z</time></trkpt><trkpt lat="43.276123495835" lon="11.75081360152732"><ele>362.0</ele><time>2026-03-29T09:03:44Z</time></trkpt><trkpt lat="43.27609578070025" lon="11.750712935188576"><ele>362.0</ele><time>2026-03-29T09:03:45Z</time></trkpt><trkpt lat="43.2760688010557" lon="11.750609343785975"><ele>363.0</ele><time>2026-03-29T09:03:46Z</time></trkpt><trkpt lat="43.276045348663146" lon="11.750511540554582"><ele>364.0</ele><time>2026-03-29T09:03:47Z</time></trkpt><trkpt lat="43.27602048818657" lon="11.750412674251441"><ele>365.0</ele><time>2026-03-29T09:03:48Z</time></trkpt><trkpt lat="43.27599422374876" lon="11.75030889582012"><ele>366.0</ele><time>2026-03-29T09:03:49Z</time></trkpt><trkpt lat="43.27596888518072" lon="11.750202451636964"><ele>367.0</ele><time>2026-03-29T09:03:50Z</time></trkpt><trkpt lat="43.275942095672534" lon="11.750102379904463"><ele>368.0</ele><time>2026-03-29T09:03:51Z</time></trkpt><trkpt lat="43.275915289815174" lon="11.749995729318918"><ele>368.33333333333337</ele><time>2026-03-29T09:03:52Z</time></trkpt><trkpt lat="43.275889148383236" lon="11.749893532074857"><ele>368.6666666666667</ele><time>2026-03-29T09:03:53Z</time></trkpt><trkpt lat="43.27586432675238" lon="11.749796269061886"><ele>369.0</ele><time>2026-03-29T09:03:54Z</time></trkpt><trkpt lat="43.27583937642114" lon="11.749701230312024"><ele>369.3333333333333</ele><time>2026-03-29T09:03:55Z</time></trkpt><trkpt lat="43.27581473456068" lon="11.74960173489061"><ele>369.66666666666663</ele><time>2026-03-29T09:03:56Z</time></trkpt><trkpt lat="43.27579058469865" lon="11.74950484070628"><ele>370.0</ele><time>2026-03-29T09:03:57Z</time></trkpt><trkpt lat="43.27576428585077" lon="11.749399429709147"><ele>370.5</ele><time>2026-03-29T09:03:58Z</time></trkpt><trkpt lat="43.27573723435553" lon="11.74929633715884"><ele>371.0</ele><time>2026-03-29T09:03:59Z</time></trkpt><trkpt lat="43.27571178822991" lon="11.749191237052253"><ele>371.5</ele><time>2026-03-29T09:04:00Z</time></trkpt><trkpt lat="43.27568336975482" lon="11.749088739087112"><ele>372.0</ele><time>2026-03-29T09:04:01Z</time></trkpt><trkpt lat="43.27565094438587" lon="11.748990988943566"><ele>372.5</ele><time>2026-03-29T09:04:02Z</time></trkpt><trkpt lat="43.27561840733253" lon="11.748898335578035"><ele>373.0</ele><time>2026-03-29T09:04:03Z</time></trkpt><trkpt lat="43.27558704432658" lon="11.748808143167649"><ele>373.66666666666663</ele><time>2026-03-29T09:04:04Z</time></trkpt><trkpt lat="43.27552993527563" lon="11.748661891136159"><ele>374.3333333333333</ele><time>2026-03-29T09:04:06Z</time></trkpt><trkpt lat="43.27548875286685" lon="11.748590341246665"><ele>375.0</ele><time>2026-03-29T09:04:07Z</time></trkpt><trkpt lat="43.27545241393484" lon="11.748512839577403"><ele>375.6666666666667</ele><time>2026-03-29T09:04:08Z</time></trkpt><trkpt lat="43.27541523887907" lon="11.748437551267324"><ele>376.33333333333337</ele><time>2026-03-29T09:04:09Z</time></trkpt><trkpt lat="43.2753729548668" lon="11.748360546728524"><ele>377.0</ele><time>2026-03-29T09:04:10Z</time></trkpt><trkpt lat="43.27533327835673" lon="11.748287188048996"><ele>376.99999999999994</ele><time>2026-03-29T09:04:11Z</time></trkpt><trkpt lat="43.27529209388195" lon="11.74821226149"><ele>377.0</ele><time>2026-03-29T09:04:12Z</time></trkpt><trkpt lat="43.27525266797718" lon="11.748137319221533"><ele>377.0</ele><time>2026-03-29T09:04:13Z</time></trkpt><trkpt lat="43.27521008218597" lon="11.748067140508695"><ele>377.0</ele><time>2026-03-29T09:04:14Z</time></trkpt><trkpt lat="43.27516141543237" lon="11.748006220164717"><ele>377.0</ele><time>2026-03-29T09:04:15Z</time></trkpt><trkpt lat="43.275100475255115" lon="11.747967231342047"><ele>376.99999999999994</ele><time>2026-03-29T09:04:16Z</time></trkpt><trkpt lat="43.27503282575683" lon="11.74795297729341"><ele>377.0</ele><time>2026-03-29T09:04:17Z</time></trkpt><trkpt lat="43.27496425871606" lon="11.747958451752138"><ele>376.99999999999994</ele><time>2026-03-29T09:04:18Z</time></trkpt><trkpt lat="43.274895935195914" lon="11.747972398170484"><ele>377.0</ele><time>2026-03-29T09:04:19Z</time></trkpt><trkpt lat="43.274825220038295" lon="11.747980987561562"><ele>377.0</ele><time>2026-03-29T09:04:20Z</time></trkpt><trkpt lat="43.27475837138976" lon="11.74795867755432"><ele>377.0</ele><time>2026-03-29T09:04:21Z</time></trkpt><trkpt lat="43.274693460670605" lon="11.747919462673309"><ele>377.0</ele><time>2026-03-29T09:04:22Z</time></trkpt><trkpt lat="43.274622339455284" lon="11.747884650498303"><ele>376.99999999999994</ele><time>2026-03-29T09:04:23Z</time></trkpt><trkpt lat="43.27455037860362" lon="11.747848235727506"><ele>377.0</ele><time>2026-03-29T09:04:24Z</time></trkpt><trkpt lat="43.27447636051107" lon="11.747811175942816"><ele>378.0</ele><time>2026-03-29T09:04:24.999Z</time></trkpt><trkpt lat="43.274401231057006" lon="11.747775977311049"><ele>379.0</ele><time>2026-03-29T09:04:25.999Z</time></trkpt><trkpt lat="43.27431754315983" lon="11.747741905692829"><ele>380.0</ele><time>2026-03-29T09:04:26.999Z</time></trkpt><trkpt lat="43.274236474528564" lon="11.747705947688893"><ele>381.0</ele><time>2026-03-29T09:04:27.999Z</time></trkpt><trkpt lat="43.274159208491945" lon="11.74766809335662"><ele>382.0</ele><time>2026-03-29T09:04:28.999Z</time></trkpt><trkpt lat="43.27408497602436" lon="11.7476362138471"><ele>383.0</ele><time>2026-03-29T09:04:29.999Z</time></trkpt><trkpt lat="43.274018471298625" lon="11.747584066753198"><ele>383.0</ele><time>2026-03-29T09:04:30.999Z</time></trkpt><trkpt lat="43.27395014443396" lon="11.747543057864913"><ele>383.0</ele><time>2026-03-29T09:04:31.999Z</time></trkpt><trkpt lat="43.27388240021624" lon="11.747504840802081"><ele>383.0</ele><time>2026-03-29T09:04:32.999Z</time></trkpt><trkpt lat="43.273812420793384" lon="11.747476445113977"><ele>383.0</ele><time>2026-03-29T09:04:33.999Z</time></trkpt><trkpt lat="43.27374407948139" lon="11.747452097654413"><ele>383.0</ele><time>2026-03-29T09:04:34.999Z</time></trkpt><trkpt lat="43.2736762222346" lon="11.747428044788803"><ele>383.0</ele><time>2026-03-29T09:04:35.999Z</time></trkpt><trkpt lat="43.273606086171796" lon="11.74742459408026"><ele>383.0</ele><time>2026-03-29T09:04:36.999Z</time></trkpt><trkpt lat="43.273537857111826" lon="11.747418698277071"><ele>381.0</ele><time>2026-03-29T09:04:37.999Z</time></trkpt><trkpt lat="43.27346907151176" lon="11.747391855030122"><ele>379.0</ele><time>2026-03-29T09:04:38.999Z</time></trkpt><trkpt lat="43.27339355695212" lon="11.747380028403665"><ele>377.0</ele><time>2026-03-29T09:04:39.999Z</time></trkpt><trkpt lat="43.273313285885436" lon="11.747357011282979"><ele>375.0</ele><time>2026-03-29T09:04:40.999Z</time></trkpt><trkpt lat="43.273235431627455" lon="11.747340572781052"><ele>373.0</ele><time>2026-03-29T09:04:41.999Z</time></trkpt><trkpt lat="43.27315958656569" lon="11.747316391900833"><ele>371.0</ele><time>2026-03-29T09:04:42.999Z</time></trkpt><trkpt lat="43.27308988885668" lon="11.747263477592762"><ele>371.33333333333337</ele><time>2026-03-29T09:04:43.999Z</time></trkpt><trkpt lat="43.27302609248257" lon="11.747194679203133"><ele>371.6666666666667</ele><time>2026-03-29T09:04:44.999Z</time></trkpt><trkpt lat="43.27296827139556" lon="11.747121928849559"><ele>372.0</ele><time>2026-03-29T09:04:45.999Z</time></trkpt><trkpt lat="43.27290512013221" lon="11.747054971844278"><ele>372.3333333333333</ele><time>2026-03-29T09:04:46.999Z</time></trkpt><trkpt lat="43.27285165908688" lon="11.746975254642367"><ele>372.66666666666663</ele><time>2026-03-29T09:04:47.999Z</time></trkpt><trkpt lat="43.27279298260426" lon="11.746904279687453"><ele>373.0</ele><time>2026-03-29T09:04:48.999Z</time></trkpt><trkpt lat="43.27272731663652" lon="11.746849555949279"><ele>373.0</ele><time>2026-03-29T09:04:49.999Z</time></trkpt><trkpt lat="43.272670659367776" lon="11.74678626621427"><ele>373.0</ele><time>2026-03-29T09:04:50.999Z</time></trkpt><trkpt lat="43.2726156727952" lon="11.746729012315576"><ele>373.0</ele><time>2026-03-29T09:04:51.999Z</time></trkpt><trkpt lat="43.27255939843157" lon="11.746666648279698"><ele>373.0</ele><time>2026-03-29T09:04:52.999Z</time></trkpt><trkpt lat="43.27250781729111" lon="11.74658978124476"><ele>373.0</ele><time>2026-03-29T09:04:53.999Z</time></trkpt><trkpt lat="43.27246034171607" lon="11.746498145182898"><ele>373.0</ele><time>2026-03-29T09:04:54.999Z</time></trkpt><trkpt lat="43.2724283885413" lon="11.746393134168768"><ele>373.0</ele><time>2026-03-29T09:04:55.999Z</time></trkpt><trkpt lat="43.27240090372339" lon="11.746286467406186"><ele>373.0</ele><time>2026-03-29T09:04:56.999Z</time></trkpt><trkpt lat="43.272374629095125" lon="11.74617982377493"><ele>373.0</ele><time>2026-03-29T09:04:57.999Z</time></trkpt><trkpt lat="43.272352769170666" lon="11.746073894845207"><ele>373.0</ele><time>2026-03-29T09:04:58.999Z</time></trkpt><trkpt lat="43.2723325210909" lon="11.745965301441107"><ele>373.0</ele><time>2026-03-29T09:04:59.999Z</time></trkpt><trkpt lat="43.27230536932692" lon="11.745862757460495"><ele>373.0</ele><time>2026-03-29T09:05:00.999Z</time></trkpt><trkpt lat="43.272286597548984" lon="11.74575292970659"><ele>373.5</ele><time>2026-03-29T09:05:01.999Z</time></trkpt><trkpt lat="43.27226527713353" lon="11.745649820422827"><ele>374.0</ele><time>2026-03-29T09:05:02.999Z</time></trkpt><trkpt lat="43.27224503880335" lon="11.745548999132438"><ele>374.5</ele><time>2026-03-29T09:05:03.999Z</time></trkpt><trkpt lat="43.27221369329525" lon="11.745452060995802"><ele>375.0</ele><time>2026-03-29T09:05:04.999Z</time></trkpt><trkpt lat="43.27219235991841" lon="11.745351728923765"><ele>375.5</ele><time>2026-03-29T09:05:05.999Z</time></trkpt><trkpt lat="43.27217877984288" lon="11.74524311221099"><ele>376.0</ele><time>2026-03-29T09:05:06.999Z</time></trkpt><trkpt lat="43.272162597977676" lon="11.745137604618446"><ele>376.0</ele><time>2026-03-29T09:05:07.999Z</time></trkpt><trkpt lat="43.27214376704931" lon="11.745036539141713"><ele>376.0</ele><time>2026-03-29T09:05:08.999Z</time></trkpt><trkpt lat="43.27213841335957" lon="11.744929229298084"><ele>376.0</ele><time>2026-03-29T09:05:09.999Z</time></trkpt><trkpt lat="43.27215477960141" lon="11.744823254084702"><ele>376.0</ele><time>2026-03-29T09:05:10.999Z</time></trkpt><trkpt lat="43.272155248397574" lon="11.74471788157243"><ele>376.0</ele><time>2026-03-29T09:05:11.999Z</time></trkpt><trkpt lat="43.27215187991398" lon="11.744615068865823"><ele>376.0</ele><time>2026-03-29T09:05:12.999Z</time></trkpt><trkpt lat="43.272155828677455" lon="11.744523259801886"><ele>376.0</ele><time>2026-03-29T09:05:13.999Z</time></trkpt><trkpt lat="43.27214479238027" lon="11.744409715637172"><ele>376.0</ele><time>2026-03-29T09:05:15.999Z</time></trkpt><trkpt lat="43.272126923181496" lon="11.74431525891257"><ele>376.0</ele><time>2026-03-29T09:05:18.999Z</time></trkpt><trkpt lat="43.2720539874683" lon="11.744240483960532"><ele>376.0</ele><time>2026-03-29T09:05:20.999Z</time></trkpt><trkpt lat="43.27198615676363" lon="11.744225827616063"><ele>376.0</ele><time>2026-03-29T09:05:21.999Z</time></trkpt><trkpt lat="43.271919531364574" lon="11.744199629575794"><ele>376.0</ele><time>2026-03-29T09:05:22.999Z</time></trkpt><trkpt lat="43.27184547599101" lon="11.744185376758486"><ele>376.66666666666663</ele><time>2026-03-29T09:05:23.999Z</time></trkpt><trkpt lat="43.271765591541744" lon="11.744164925795626"><ele>377.3333333333333</ele><time>2026-03-29T09:05:24.999Z</time></trkpt><trkpt lat="43.271681953364244" lon="11.74413689674709"><ele>378.0</ele><time>2026-03-29T09:05:25.999Z</time></trkpt><trkpt lat="43.27159468333088" lon="11.744113002312789"><ele>378.6666666666667</ele><time>2026-03-29T09:05:26.999Z</time></trkpt><trkpt lat="43.27150616660229" lon="11.744075189407692"><ele>379.33333333333337</ele><time>2026-03-29T09:05:27.999Z</time></trkpt><trkpt lat="43.271413164614955" lon="11.744047983186963"><ele>380.0</ele><time>2026-03-29T09:05:29Z</time></trkpt><trkpt lat="43.27131655737265" lon="11.744022559883982"><ele>377.6</ele><time>2026-03-29T09:05:30Z</time></trkpt><trkpt lat="43.27122598029772" lon="11.743999690661287"><ele>375.2</ele><time>2026-03-29T09:05:31Z</time></trkpt><trkpt lat="43.27113554240214" lon="11.743973661109058"><ele>372.79999999999995</ele><time>2026-03-29T09:05:32Z</time></trkpt><trkpt lat="43.271046294078985" lon="11.743943279058643"><ele>370.4</ele><time>2026-03-29T09:05:33Z</time></trkpt><trkpt lat="43.27096006641728" lon="11.74391339129426"><ele>368.0</ele><time>2026-03-29T09:05:34Z</time></trkpt><trkpt lat="43.27086985405932" lon="11.743884324975761"><ele>368.0</ele><time>2026-03-29T09:05:35Z</time></trkpt><trkpt lat="43.270778891019326" lon="11.743855189875246"><ele>368.0</ele><time>2026-03-29T09:05:36Z</time></trkpt><trkpt lat="43.27068490248437" lon="11.74382623378486"><ele>368.0</ele><time>2026-03-29T09:05:37Z</time></trkpt><trkpt lat="43.270588716145255" lon="11.743792837180473"><ele>368.0</ele><time>2026-03-29T09:05:38Z</time></trkpt><trkpt lat="43.270494335216796" lon="11.743752823697545"><ele>368.0</ele><time>2026-03-29T09:05:39Z</time></trkpt><trkpt lat="43.27040008035748" lon="11.74370669423375"><ele>368.2</ele><time>2026-03-29T09:05:40Z</time></trkpt><trkpt lat="43.27031138881145" lon="11.743652102472941"><ele>368.4</ele><time>2026-03-29T09:05:41Z</time></trkpt><trkpt lat="43.27022194718408" lon="11.743594571861953"><ele>368.59999999999997</ele><time>2026-03-29T09:05:42Z</time></trkpt><trkpt lat="43.27012959093905" lon="11.743535905841364"><ele>368.79999999999995</ele><time>2026-03-29T09:05:43Z</time></trkpt><trkpt lat="43.270038145786025" lon="11.743483666221595"><ele>369.0</ele><time>2026-03-29T09:05:44Z</time></trkpt><trkpt lat="43.26994373078212" lon="11.743426446864422"><ele>369.0</ele><time>2026-03-29T09:05:45Z</time></trkpt><trkpt lat="43.26985075702657" lon="11.743368383098167"><ele>369.0</ele><time>2026-03-29T09:05:46Z</time></trkpt><trkpt lat="43.2697534801826" lon="11.743313735847265"><ele>369.0</ele><time>2026-03-29T09:05:47Z</time></trkpt><trkpt lat="43.26965634900094" lon="11.74325539029557"><ele>369.0</ele><time>2026-03-29T09:05:48Z</time></trkpt><trkpt lat="43.269558941574516" lon="11.743192521915267"><ele>369.0</ele><time>2026-03-29T09:05:49Z</time></trkpt><trkpt lat="43.26946436462757" lon="11.74312962166935"><ele>366.4</ele><time>2026-03-29T09:05:50Z</time></trkpt><trkpt lat="43.26936747226837" lon="11.743071649239239"><ele>363.79999999999995</ele><time>2026-03-29T09:05:51Z</time></trkpt><trkpt lat="43.269271141905385" lon="11.743009644208026"><ele>361.20000000000005</ele><time>2026-03-29T09:05:52Z</time></trkpt><trkpt lat="43.26917864270662" lon="11.742947320980496"><ele>358.6</ele><time>2026-03-29T09:05:53Z</time></trkpt><trkpt lat="43.26909017962984" lon="11.74288300729031"><ele>356.0</ele><time>2026-03-29T09:05:54Z</time></trkpt><trkpt lat="43.26900284853042" lon="11.742807789192913"><ele>353.8</ele><time>2026-03-29T09:05:55Z</time></trkpt><trkpt lat="43.268924252369345" lon="11.742724406734228"><ele>351.6</ele><time>2026-03-29T09:05:56Z</time></trkpt><trkpt lat="43.268852109412485" lon="11.742625396580474"><ele>349.4</ele><time>2026-03-29T09:05:57Z</time></trkpt><trkpt lat="43.268804938611254" lon="11.74250554267106"><ele>347.2</ele><time>2026-03-29T09:05:58Z</time></trkpt><trkpt lat="43.268781751712915" lon="11.742374040275124"><ele>345.0</ele><time>2026-03-29T09:05:59Z</time></trkpt><trkpt lat="43.2687725750804" lon="11.742230881577507"><ele>345.0</ele><time>2026-03-29T09:06:00Z</time></trkpt><trkpt lat="43.268764943113794" lon="11.742084853855252"><ele>345.0</ele><time>2026-03-29T09:06:01Z</time></trkpt><trkpt lat="43.268770099098894" lon="11.741940659855187"><ele>345.0</ele><time>2026-03-29T09:06:02Z</time></trkpt><trkpt lat="43.26878469050852" lon="11.74179561001286"><ele>345.0</ele><time>2026-03-29T09:06:03Z</time></trkpt><trkpt lat="43.26880574451626" lon="11.741652991472591"><ele>345.0</ele><time>2026-03-29T09:06:04Z</time></trkpt><trkpt lat="43.26883388012584" lon="11.741515003331365"><ele>345.0</ele><time>2026-03-29T09:06:05Z</time></trkpt><trkpt lat="43.268863701185566" lon="11.741383709459866"><ele>345.0</ele><time>2026-03-29T09:06:06Z</time></trkpt><trkpt lat="43.268903607881704" lon="11.741261740266223"><ele>345.0</ele><time>2026-03-29T09:06:07Z</time></trkpt><trkpt lat="43.2689510558055" lon="11.741143501764629"><ele>345.0</ele><time>2026-03-29T09:06:08Z</time></trkpt><trkpt lat="43.269003920233615" lon="11.741029874669305"><ele>345.0</ele><time>2026-03-29T09:06:09Z</time></trkpt><trkpt lat="43.26905559109624" lon="11.740915887512747"><ele>345.0</ele><time>2026-03-29T09:06:10Z</time></trkpt><trkpt lat="43.269112428879396" lon="11.740803135233124"><ele>345.0</ele><time>2026-03-29T09:06:11Z</time></trkpt><trkpt lat="43.269168901841034" lon="11.740693776788085"><ele>345.0</ele><time>2026-03-29T09:06:12Z</time></trkpt><trkpt lat="43.269230805153555" lon="11.74059168316717"><ele>345.0</ele><time>2026-03-29T09:06:13Z</time></trkpt><trkpt lat="43.269290819255126" lon="11.74049397137529"><ele>345.0</ele><time>2026-03-29T09:06:14Z</time></trkpt><trkpt lat="43.269355108291414" lon="11.740412542570901"><ele>345.0</ele><time>2026-03-29T09:06:15Z</time></trkpt><trkpt lat="43.26942157741352" lon="11.740340448835548"><ele>345.0</ele><time>2026-03-29T09:06:16Z</time></trkpt><trkpt lat="43.26949704803786" lon="11.740294064313163"><ele>345.0</ele><time>2026-03-29T09:06:17Z</time></trkpt><trkpt lat="43.26955520571009" lon="11.740253966783294"><ele>345.0</ele><time>2026-03-29T09:06:18Z</time></trkpt><trkpt lat="43.26962245407422" lon="11.740203968506473"><ele>345.0</ele><time>2026-03-29T09:06:20Z</time></trkpt><trkpt lat="43.269502631303304" lon="11.740001113277305"><ele>342.6666666666667</ele><time>2026-03-29T09:06:23Z</time></trkpt><trkpt lat="43.269439913067444" lon="11.739942826927592"><ele>340.3333333333333</ele><time>2026-03-29T09:06:24Z</time></trkpt><trkpt lat="43.26936886342025" lon="11.739887862063732"><ele>338.0</ele><time>2026-03-29T09:06:25Z</time></trkpt><trkpt lat="43.26929110002204" lon="11.739827703324096"><ele>335.66666666666663</ele><time>2026-03-29T09:06:26Z</time></trkpt><trkpt lat="43.269206055733136" lon="11.739777813207231"><ele>333.3333333333333</ele><time>2026-03-29T09:06:27Z</time></trkpt><trkpt lat="43.26913030366948" lon="11.739706838238245"><ele>331.0</ele><time>2026-03-29T09:06:28Z</time></trkpt><trkpt lat="43.26906027647336" lon="11.73963969933186"><ele>331.0</ele><time>2026-03-29T09:06:29Z</time></trkpt><trkpt lat="43.26899147615127" lon="11.739560028470898"><ele>331.0</ele><time>2026-03-29T09:06:30Z</time></trkpt><trkpt lat="43.26892579477427" lon="11.739474898759783"><ele>331.0</ele><time>2026-03-29T09:06:31Z</time></trkpt><trkpt lat="43.26886042182744" lon="11.739386353148113"><ele>331.0</ele><time>2026-03-29T09:06:32Z</time></trkpt><trkpt lat="43.268794851596326" lon="11.739292637723103"><ele>331.0</ele><time>2026-03-29T09:06:33Z</time></trkpt><trkpt lat="43.268728487206744" lon="11.73920165770214"><ele>327.2</ele><time>2026-03-29T09:06:34Z</time></trkpt><trkpt lat="43.268667423734954" lon="11.739115195772943"><ele>323.40000000000003</ele><time>2026-03-29T09:06:35Z</time></trkpt><trkpt lat="43.26861155485651" lon="11.739022634198893"><ele>319.6</ele><time>2026-03-29T09:06:36Z</time></trkpt><trkpt lat="43.268547214455616" lon="11.738939127441869"><ele>315.8</ele><time>2026-03-29T09:06:36.999Z</time></trkpt><trkpt lat="43.26847493729209" lon="11.738860306237676"><ele>312.0</ele><time>2026-03-29T09:06:37.999Z</time></trkpt><trkpt lat="43.268392464688944" lon="11.738794423936511"><ele>312.0</ele><time>2026-03-29T09:06:38.999Z</time></trkpt><trkpt lat="43.26831135881297" lon="11.73872907437371"><ele>312.0</ele><time>2026-03-29T09:06:39.999Z</time></trkpt><trkpt lat="43.26823175682627" lon="11.738659453899242"><ele>312.0</ele><time>2026-03-29T09:06:40.999Z</time></trkpt><trkpt lat="43.26815262069814" lon="11.738584854976782"><ele>312.0</ele><time>2026-03-29T09:06:41.999Z</time></trkpt><trkpt lat="43.26807988627104" lon="11.738502164454344"><ele>312.0</ele><time>2026-03-29T09:06:42.999Z</time></trkpt><trkpt lat="43.26801062705446" lon="11.738417236563143"><ele>310.6666666666667</ele><time>2026-03-29T09:06:43.999Z</time></trkpt><trkpt lat="43.26794626801862" lon="11.738331275872744"><ele>309.3333333333333</ele><time>2026-03-29T09:06:44.999Z</time></trkpt><trkpt lat="43.26790392160993" lon="11.738233660731359"><ele>308.0</ele><time>2026-03-29T09:06:45.999Z</time></trkpt><trkpt lat="43.267862655340316" lon="11.738150797689707"><ele>306.66666666666663</ele><time>2026-03-29T09:06:46.999Z</time></trkpt><trkpt lat="43.26783956382794" lon="11.738062646677047"><ele>305.3333333333333</ele><time>2026-03-29T09:06:47.999Z</time></trkpt><trkpt lat="43.26780243206011" lon="11.737981041919655"><ele>304.0</ele><time>2026-03-29T09:06:48.999Z</time></trkpt><trkpt lat="43.26777445534277" lon="11.737891823935206"><ele>304.0</ele><time>2026-03-29T09:06:49.999Z</time></trkpt><trkpt lat="43.267759964256605" lon="11.737793138235313"><ele>304.0</ele><time>2026-03-29T09:06:50.999Z</time></trkpt><trkpt lat="43.267719190594" lon="11.737700505966412"><ele>304.0</ele><time>2026-03-29T09:06:51.999Z</time></trkpt><trkpt lat="43.26764650363521" lon="11.737620639701444"><ele>304.0</ele><time>2026-03-29T09:06:52.999Z</time></trkpt><trkpt lat="43.2675759829823" lon="11.737577364588683"><ele>304.0</ele><time>2026-03-29T09:06:53.999Z</time></trkpt><trkpt lat="43.2675052154888" lon="11.737531886232984"><ele>304.0</ele><time>2026-03-29T09:06:54.999Z</time></trkpt><trkpt lat="43.26743580168633" lon="11.737473669098163"><ele>303.0</ele><time>2026-03-29T09:06:55.999Z</time></trkpt><trkpt lat="43.26737220046837" lon="11.737403382289688"><ele>302.0</ele><time>2026-03-29T09:06:56.999Z</time></trkpt><trkpt lat="43.267319275724574" lon="11.73732627546664"><ele>301.0</ele><time>2026-03-29T09:06:57.999Z</time></trkpt><trkpt lat="43.26726159995745" lon="11.737243070509056"><ele>300.0</ele><time>2026-03-29T09:06:58.999Z</time></trkpt><trkpt lat="43.26718814316915" lon="11.737139953470328"><ele>299.0</ele><time>2026-03-29T09:06:59.999Z</time></trkpt><trkpt lat="43.26712503340943" lon="11.737023576975774"><ele>297.2</ele><time>2026-03-29T09:07:00.999Z</time></trkpt><trkpt lat="43.26707952703801" lon="11.736891152186573"><ele>295.4</ele><time>2026-03-29T09:07:01.999Z</time></trkpt><trkpt lat="43.267021305596735" lon="11.736794135446045"><ele>293.6</ele><time>2026-03-29T09:07:02.999Z</time></trkpt><trkpt lat="43.26697868695315" lon="11.736687656716217"><ele>291.8</ele><time>2026-03-29T09:07:03.999Z</time></trkpt><trkpt lat="43.26693717604811" lon="11.73661670089993"><ele>290.0</ele><time>2026-03-29T09:07:04.999Z</time></trkpt><trkpt lat="43.266892110012314" lon="11.736498607989857"><ele>289.5</ele><time>2026-03-29T09:07:06.999Z</time></trkpt><trkpt lat="43.26678450003688" lon="11.736534482272763"><ele>289.0</ele><time>2026-03-29T09:07:07.999Z</time></trkpt><trkpt lat="43.26671812069605" lon="11.736539458333562"><ele>288.5</ele><time>2026-03-29T09:07:08.999Z</time></trkpt><trkpt lat="43.26664569087169" lon="11.736550001494543"><ele>288.0</ele><time>2026-03-29T09:07:09.999Z</time></trkpt><trkpt lat="43.26656912914717" lon="11.736559040867991"><ele>287.5</ele><time>2026-03-29T09:07:10.999Z</time></trkpt><trkpt lat="43.26648736414793" lon="11.736552676537567"><ele>287.0</ele><time>2026-03-29T09:07:11.999Z</time></trkpt><trkpt lat="43.26640426376581" lon="11.736518226895573"><ele>286.5</ele><time>2026-03-29T09:07:12.999Z</time></trkpt><trkpt lat="43.26632290196412" lon="11.736468309646504"><ele>286.0</ele><time>2026-03-29T09:07:13.999Z</time></trkpt><trkpt lat="43.26624277478498" lon="11.736417456953273"><ele>285.5</ele><time>2026-03-29T09:07:14.999Z</time></trkpt><trkpt lat="43.26616441043086" lon="11.736366575878597"><ele>285.0</ele><time>2026-03-29T09:07:15.999Z</time></trkpt><trkpt lat="43.266098114649886" lon="11.736297303650947"><ele>284.5</ele><time>2026-03-29T09:07:16.999Z</time></trkpt><trkpt lat="43.266045423003014" lon="11.736216239274244"><ele>284.0</ele><time>2026-03-29T09:07:17.999Z</time></trkpt><trkpt lat="43.265988123870464" lon="11.7361269040623"><ele>283.0</ele><time>2026-03-29T09:07:18.999Z</time></trkpt><trkpt lat="43.265930287379696" lon="11.736047968030986"><ele>282.0</ele><time>2026-03-29T09:07:19.999Z</time></trkpt><trkpt lat="43.26586409296347" lon="11.735964622312109"><ele>281.0</ele><time>2026-03-29T09:07:20.999Z</time></trkpt><trkpt lat="43.26578874099368" lon="11.735883244310674"><ele>280.0</ele><time>2026-03-29T09:07:21.999Z</time></trkpt><trkpt lat="43.26570311479631" lon="11.735801869970732"><ele>279.0</ele><time>2026-03-29T09:07:22.999Z</time></trkpt><trkpt lat="43.2656201851249" lon="11.735728592843095"><ele>278.8</ele><time>2026-03-29T09:07:23.999Z</time></trkpt><trkpt lat="43.265536347478964" lon="11.735660750626264"><ele>278.59999999999997</ele><time>2026-03-29T09:07:24.999Z</time></trkpt><trkpt lat="43.265452896044295" lon="11.735594623445373"><ele>278.4</ele><time>2026-03-29T09:07:25.999Z</time></trkpt><trkpt lat="43.26537290768427" lon="11.735527244003837"><ele>278.2</ele><time>2026-03-29T09:07:26.999Z</time></trkpt><trkpt lat="43.26529685852917" lon="11.735457020549507"><ele>278.0</ele><time>2026-03-29T09:07:27.999Z</time></trkpt><trkpt lat="43.265220445751524" lon="11.735385516971446"><ele>278.0</ele><time>2026-03-29T09:07:28.999Z</time></trkpt><trkpt lat="43.2651452158374" lon="11.73531172534076"><ele>278.0</ele><time>2026-03-29T09:07:29.999Z</time></trkpt><trkpt lat="43.26506653995717" lon="11.735238656818641"><ele>278.0</ele><time>2026-03-29T09:07:30.999Z</time></trkpt><trkpt lat="43.26499049781769" lon="11.735174044456691"><ele>278.0</ele><time>2026-03-29T09:07:31.999Z</time></trkpt><trkpt lat="43.26490824852514" lon="11.735114350796499"><ele>278.0</ele><time>2026-03-29T09:07:32.999Z</time></trkpt><trkpt lat="43.26482203851251" lon="11.735055231214524"><ele>277.2</ele><time>2026-03-29T09:07:33.999Z</time></trkpt><trkpt lat="43.26473494187992" lon="11.73499662614271"><ele>276.4</ele><time>2026-03-29T09:07:35Z</time></trkpt><trkpt lat="43.26464983107781" lon="11.734932159544794"><ele>275.59999999999997</ele><time>2026-03-29T09:07:36Z</time></trkpt><trkpt lat="43.26456808293463" lon="11.734860539533202"><ele>274.8</ele><time>2026-03-29T09:07:37Z</time></trkpt><trkpt lat="43.26448748526455" lon="11.734781538713625"><ele>274.0</ele><time>2026-03-29T09:07:38Z</time></trkpt><trkpt lat="43.26441038702828" lon="11.734701242966176"><ele>274.0</ele><time>2026-03-29T09:07:39Z</time></trkpt><trkpt lat="43.26433647696068" lon="11.734610871529854"><ele>274.0</ele><time>2026-03-29T09:07:40Z</time></trkpt><trkpt lat="43.26426556563431" lon="11.734518565208957"><ele>274.0</ele><time>2026-03-29T09:07:41Z</time></trkpt><trkpt lat="43.26419966271654" lon="11.734419155913344"><ele>274.0</ele><time>2026-03-29T09:07:42Z</time></trkpt><trkpt lat="43.26413589681199" lon="11.734314576191297"><ele>274.0</ele><time>2026-03-29T09:07:43Z</time></trkpt><trkpt lat="43.26407451294154" lon="11.734208279588387"><ele>273.59999999999997</ele><time>2026-03-29T09:07:44Z</time></trkpt><trkpt lat="43.264013874557726" lon="11.734098383155379"><ele>273.2</ele><time>2026-03-29T09:07:45Z</time></trkpt><trkpt lat="43.26397003971429" lon="11.733977406091585"><ele>272.79999999999995</ele><time>2026-03-29T09:07:46Z</time></trkpt><trkpt lat="43.263914484935306" lon="11.733870030325875"><ele>272.4</ele><time>2026-03-29T09:07:47Z</time></trkpt><trkpt lat="43.26385488961889" lon="11.73375695479674"><ele>272.0</ele><time>2026-03-29T09:07:48Z</time></trkpt><trkpt lat="43.263796735461185" lon="11.733654259488244"><ele>271.6</ele><time>2026-03-29T09:07:49Z</time></trkpt><trkpt lat="43.26372327589822" lon="11.733569896879269"><ele>271.2</ele><time>2026-03-29T09:07:50Z</time></trkpt><trkpt lat="43.263661968872775" lon="11.733470485967157"><ele>270.8</ele><time>2026-03-29T09:07:51Z</time></trkpt><trkpt lat="43.26359348895409" lon="11.733383722857022"><ele>270.4</ele><time>2026-03-29T09:07:52Z</time></trkpt><trkpt lat="43.26352242969319" lon="11.73330048725424"><ele>270.0</ele><time>2026-03-29T09:07:53Z</time></trkpt><trkpt lat="43.263451953025545" lon="11.733220428951622"><ele>269.8</ele><time>2026-03-29T09:07:54Z</time></trkpt><trkpt lat="43.26337686553978" lon="11.733151170906543"><ele>269.6</ele><time>2026-03-29T09:07:55Z</time></trkpt><trkpt lat="43.263294347517025" lon="11.733097822407393"><ele>269.4</ele><time>2026-03-29T09:07:56Z</time></trkpt><trkpt lat="43.263213404358" lon="11.733035964849886"><ele>269.2</ele><time>2026-03-29T09:07:57Z</time></trkpt><trkpt lat="43.263132068953695" lon="11.73297106923138"><ele>269.0</ele><time>2026-03-29T09:07:58Z</time></trkpt><trkpt lat="43.26305950058192" lon="11.732912161999213"><ele>268.5</ele><time>2026-03-29T09:07:59Z</time></trkpt><trkpt lat="43.26298878187728" lon="11.732849962390134"><ele>268.0</ele><time>2026-03-29T09:08:00Z</time></trkpt><trkpt lat="43.26292336929513" lon="11.732789753901935"><ele>267.5</ele><time>2026-03-29T09:08:01Z</time></trkpt><trkpt lat="43.26285745602269" lon="11.732745974804093"><ele>267.0</ele><time>2026-03-29T09:08:02Z</time></trkpt><trkpt lat="43.26274946758296" lon="11.732665654625448"><ele>266.5</ele><time>2026-03-29T09:08:04Z</time></trkpt><trkpt lat="43.26267395165124" lon="11.732612642938564"><ele>266.0</ele><time>2026-03-29T09:08:06Z</time></trkpt><trkpt lat="43.262601317124876" lon="11.732577252601752"><ele>266.0</ele><time>2026-03-29T09:08:08Z</time></trkpt><trkpt lat="43.26251485734093" lon="11.732467992827692"><ele>266.0</ele><time>2026-03-29T09:08:10Z</time></trkpt><trkpt lat="43.26246352819704" lon="11.732400359571368"><ele>266.0</ele><time>2026-03-29T09:08:11Z</time></trkpt><trkpt lat="43.262407201341055" lon="11.732324548386492"><ele>266.0</ele><time>2026-03-29T09:08:12Z</time></trkpt><trkpt lat="43.26234288187591" lon="11.732248187326713"><ele>266.0</ele><time>2026-03-29T09:08:13Z</time></trkpt><trkpt lat="43.262272174094036" lon="11.732178525641725"><ele>266.0</ele><time>2026-03-29T09:08:14Z</time></trkpt><trkpt lat="43.26220078138874" lon="11.732102661208884"><ele>265.8</ele><time>2026-03-29T09:08:15Z</time></trkpt><trkpt lat="43.262127836824604" lon="11.732025107925908"><ele>265.6</ele><time>2026-03-29T09:08:16Z</time></trkpt><trkpt lat="43.26204983362173" lon="11.731947747548084"><ele>265.4</ele><time>2026-03-29T09:08:17Z</time></trkpt><trkpt lat="43.26197049355242" lon="11.731874780262435"><ele>265.2</ele><time>2026-03-29T09:08:18Z</time></trkpt><trkpt lat="43.261894526737635" lon="11.731797726025805"><ele>265.0</ele><time>2026-03-29T09:08:19Z</time></trkpt><trkpt lat="43.26181685874325" lon="11.731721091072792"><ele>265.0</ele><time>2026-03-29T09:08:20Z</time></trkpt><trkpt lat="43.26173683041929" lon="11.731650066455213"><ele>265.0</ele><time>2026-03-29T09:08:21Z</time></trkpt><trkpt lat="43.26166737846406" lon="11.73155753850807"><ele>265.0</ele><time>2026-03-29T09:08:22Z</time></trkpt><trkpt lat="43.26158615065256" lon="11.731484688667464"><ele>265.0</ele><time>2026-03-29T09:08:23Z</time></trkpt><trkpt lat="43.26150362097735" lon="11.731413638530999"><ele>265.0</ele><time>2026-03-29T09:08:24Z</time></trkpt><trkpt lat="43.26142100706493" lon="11.731343782232615"><ele>265.0</ele><time>2026-03-29T09:08:25Z</time></trkpt><trkpt lat="43.2613324605819" lon="11.731273671156705"><ele>265.0</ele><time>2026-03-29T09:08:26Z</time></trkpt><trkpt lat="43.261237163019" lon="11.73122858504472"><ele>265.0</ele><time>2026-03-29T09:08:27Z</time></trkpt><trkpt lat="43.261144556390285" lon="11.731173047734424"><ele>265.0</ele><time>2026-03-29T09:08:28Z</time></trkpt><trkpt lat="43.26105442362217" lon="11.731120355493724"><ele>265.0</ele><time>2026-03-29T09:08:29Z</time></trkpt><trkpt lat="43.26096023219407" lon="11.73107091781957"><ele>264.8</ele><time>2026-03-29T09:08:30Z</time></trkpt><trkpt lat="43.26086289295431" lon="11.731042753197862"><ele>264.6</ele><time>2026-03-29T09:08:31Z</time></trkpt><trkpt lat="43.26076135015703" lon="11.731020454802806"><ele>264.4</ele><time>2026-03-29T09:08:32Z</time></trkpt><trkpt lat="43.26066621324686" lon="11.73099316665813"><ele>264.2</ele><time>2026-03-29T09:08:33Z</time></trkpt><trkpt lat="43.260572988348365" lon="11.730966313251303"><ele>264.0</ele><time>2026-03-29T09:08:34Z</time></trkpt><trkpt lat="43.2604781413358" lon="11.730930535400468"><ele>263.8</ele><time>2026-03-29T09:08:35Z</time></trkpt><trkpt lat="43.260384479564394" lon="11.730898651382962"><ele>263.59999999999997</ele><time>2026-03-29T09:08:36Z</time></trkpt><trkpt lat="43.260293403932025" lon="11.73086764814319"><ele>263.4</ele><time>2026-03-29T09:08:37Z</time></trkpt><trkpt lat="43.260203554374876" lon="11.7308411868951"><ele>263.2</ele><time>2026-03-29T09:08:38Z</time></trkpt><trkpt lat="43.26011001606146" lon="11.730812344988408"><ele>263.0</ele><time>2026-03-29T09:08:39Z</time></trkpt><trkpt lat="43.26001450759396" lon="11.730792642069492"><ele>263.0</ele><time>2026-03-29T09:08:40Z</time></trkpt><trkpt lat="43.25991750245936" lon="11.730774946321434"><ele>263.0</ele><time>2026-03-29T09:08:41Z</time></trkpt><trkpt lat="43.259821265890814" lon="11.73075442087175"><ele>263.0</ele><time>2026-03-29T09:08:42Z</time></trkpt><trkpt lat="43.259727886684885" lon="11.73073086931621"><ele>263.0</ele><time>2026-03-29T09:08:43Z</time></trkpt><trkpt lat="43.25963642172704" lon="11.730705569709123"><ele>263.0</ele><time>2026-03-29T09:08:44Z</time></trkpt><trkpt lat="43.259546528911685" lon="11.730683723456114"><ele>263.2</ele><time>2026-03-29T09:08:45Z</time></trkpt><trkpt lat="43.25945450606728" lon="11.730660183697582"><ele>263.4</ele><time>2026-03-29T09:08:46Z</time></trkpt><trkpt lat="43.259361994587465" lon="11.730638732652332"><ele>263.59999999999997</ele><time>2026-03-29T09:08:47Z</time></trkpt><trkpt lat="43.25927248783618" lon="11.730611512054331"><ele>263.8</ele><time>2026-03-29T09:08:48Z</time></trkpt><trkpt lat="43.2591850034404" lon="11.73058432670657"><ele>264.0</ele><time>2026-03-29T09:08:49Z</time></trkpt><trkpt lat="43.259093592658054" lon="11.730559301899321"><ele>264.0</ele><time>2026-03-29T09:08:50Z</time></trkpt><trkpt lat="43.259005481579045" lon="11.730533053795572"><ele>264.0</ele><time>2026-03-29T09:08:51Z</time></trkpt><trkpt lat="43.25891903332881" lon="11.730505837842099"><ele>264.0</ele><time>2026-03-29T09:08:52Z</time></trkpt><trkpt lat="43.25883238356239" lon="11.730472545596106"><ele>264.0</ele><time>2026-03-29T09:08:53Z</time></trkpt><trkpt lat="43.25874776789257" lon="11.730437413655793"><ele>264.0</ele><time>2026-03-29T09:08:54Z</time></trkpt><trkpt lat="43.2586655328531" lon="11.730398287161588"><ele>264.0</ele><time>2026-03-29T09:08:55Z</time></trkpt><trkpt lat="43.25858317723508" lon="11.730352331602678"><ele>264.0</ele><time>2026-03-29T09:08:56Z</time></trkpt><trkpt lat="43.2585052108743" lon="11.730308100893621"><ele>264.0</ele><time>2026-03-29T09:08:57Z</time></trkpt><trkpt lat="43.25842414924138" lon="11.730260643018694"><ele>264.0</ele><time>2026-03-29T09:08:57.999Z</time></trkpt><trkpt lat="43.258348253981524" lon="11.73022265415187"><ele>264.0</ele><time>2026-03-29T09:08:58.999Z</time></trkpt><trkpt lat="43.25826284363148" lon="11.730184272041296"><ele>264.0</ele><time>2026-03-29T09:08:59.999Z</time></trkpt><trkpt lat="43.258176962076426" lon="11.730145985845796"><ele>264.0</ele><time>2026-03-29T09:09:00.999Z</time></trkpt><trkpt lat="43.25809859915588" lon="11.730089046088796"><ele>263.8</ele><time>2026-03-29T09:09:01.999Z</time></trkpt><trkpt lat="43.25801265344333" lon="11.730051150255159"><ele>263.59999999999997</ele><time>2026-03-29T09:09:02.999Z</time></trkpt><trkpt lat="43.25792113449413" lon="11.730032344619445"><ele>263.4</ele><time>2026-03-29T09:09:03.999Z</time></trkpt><trkpt lat="43.25783196011073" lon="11.729999389223778"><ele>263.2</ele><time>2026-03-29T09:09:04.999Z</time></trkpt><trkpt lat="43.257747113399155" lon="11.729964235339688"><ele>263.0</ele><time>2026-03-29T09:09:05.999Z</time></trkpt><trkpt lat="43.25767358587054" lon="11.729890465820887"><ele>263.0</ele><time>2026-03-29T09:09:06.999Z</time></trkpt><trkpt lat="43.25760260773233" lon="11.729814353789944"><ele>263.0</ele><time>2026-03-29T09:09:07.999Z</time></trkpt><trkpt lat="43.257538222722644" lon="11.729723599622925"><ele>263.0</ele><time>2026-03-29T09:09:08.999Z</time></trkpt><trkpt lat="43.25746331960023" lon="11.729642550257557"><ele>263.0</ele><time>2026-03-29T09:09:09.999Z</time></trkpt><trkpt lat="43.25739977756437" lon="11.729542968439286"><ele>263.0</ele><time>2026-03-29T09:09:10.999Z</time></trkpt><trkpt lat="43.257339309590634" lon="11.729443665886752"><ele>263.1666666666667</ele><time>2026-03-29T09:09:11.999Z</time></trkpt><trkpt lat="43.257276843437175" lon="11.729345744621364"><ele>263.33333333333337</ele><time>2026-03-29T09:09:12.999Z</time></trkpt><trkpt lat="43.25721645679016" lon="11.729252142285713"><ele>263.5</ele><time>2026-03-29T09:09:13.999Z</time></trkpt><trkpt lat="43.25716093579843" lon="11.729153040479671"><ele>263.6666666666667</ele><time>2026-03-29T09:09:14.999Z</time></trkpt><trkpt lat="43.25714286058114" lon="11.729036201295544"><ele>263.8333333333333</ele><time>2026-03-29T09:09:15.999Z</time></trkpt><trkpt lat="43.25713211531443" lon="11.72892705686457"><ele>264.0</ele><time>2026-03-29T09:09:16.999Z</time></trkpt><trkpt lat="43.25714256492707" lon="11.728818792093007"><ele>264.0</ele><time>2026-03-29T09:09:17.999Z</time></trkpt><trkpt lat="43.257173105478316" lon="11.728720395913854"><ele>264.0</ele><time>2026-03-29T09:09:18.999Z</time></trkpt><trkpt lat="43.25719506700877" lon="11.728602339656527"><ele>264.0</ele><time>2026-03-29T09:09:19.999Z</time></trkpt><trkpt lat="43.25722060513284" lon="11.72849464418171"><ele>264.0</ele><time>2026-03-29T09:09:20.999Z</time></trkpt><trkpt lat="43.25723419057509" lon="11.728384899392168"><ele>264.0</ele><time>2026-03-29T09:09:21.999Z</time></trkpt><trkpt lat="43.25722768679218" lon="11.728281768895565"><ele>264.0</ele><time>2026-03-29T09:09:22.999Z</time></trkpt><trkpt lat="43.25720066008355" lon="11.728178268647111"><ele>264.5</ele><time>2026-03-29T09:09:23.999Z</time></trkpt><trkpt lat="43.2571586059388" lon="11.72807849134056"><ele>265.0</ele><time>2026-03-29T09:09:24.999Z</time></trkpt><trkpt lat="43.25710932980566" lon="11.727981739281018"><ele>265.5</ele><time>2026-03-29T09:09:25.999Z</time></trkpt><trkpt lat="43.25705518101984" lon="11.727884282173893"><ele>266.0</ele><time>2026-03-29T09:09:26.999Z</time></trkpt><trkpt lat="43.25700126264998" lon="11.727785917207958"><ele>266.5</ele><time>2026-03-29T09:09:27.999Z</time></trkpt><trkpt lat="43.25693487865435" lon="11.72770620787744"><ele>267.0</ele><time>2026-03-29T09:09:28.999Z</time></trkpt><trkpt lat="43.25685827010643" lon="11.727633682622516"><ele>267.0</ele><time>2026-03-29T09:09:29.999Z</time></trkpt><trkpt lat="43.25677887756004" lon="11.727565807634452"><ele>267.0</ele><time>2026-03-29T09:09:30.999Z</time></trkpt><trkpt lat="43.2567010478571" lon="11.727496969133085"><ele>267.0</ele><time>2026-03-29T09:09:31.999Z</time></trkpt><trkpt lat="43.25663947973651" lon="11.727402190627235"><ele>267.0</ele><time>2026-03-29T09:09:32.999Z</time></trkpt><trkpt lat="43.25658057143985" lon="11.727308598851259"><ele>267.0</ele><time>2026-03-29T09:09:33.999Z</time></trkpt><trkpt lat="43.25651047677433" lon="11.72721790374854"><ele>267.0</ele><time>2026-03-29T09:09:34.999Z</time></trkpt><trkpt lat="43.25646979746501" lon="11.72710350237261"><ele>267.0</ele><time>2026-03-29T09:09:35.999Z</time></trkpt><trkpt lat="43.25641502172526" lon="11.727000637273434"><ele>267.0</ele><time>2026-03-29T09:09:36.999Z</time></trkpt><trkpt lat="43.25636225373432" lon="11.726904227385152"><ele>267.0</ele><time>2026-03-29T09:09:37.999Z</time></trkpt><trkpt lat="43.25630616906239" lon="11.726801757805196"><ele>267.0</ele><time>2026-03-29T09:09:38.999Z</time></trkpt><trkpt lat="43.256253823741964" lon="11.726706120169323"><ele>266.3333333333333</ele><time>2026-03-29T09:09:39.999Z</time></trkpt><trkpt lat="43.2562044329393" lon="11.72661588062308"><ele>265.6666666666667</ele><time>2026-03-29T09:09:41Z</time></trkpt><trkpt lat="43.25615350774375" lon="11.726522837663584"><ele>265.0</ele><time>2026-03-29T09:09:42Z</time></trkpt><trkpt lat="43.25608914666413" lon="11.726442268592132"><ele>264.33333333333337</ele><time>2026-03-29T09:09:43Z</time></trkpt><trkpt lat="43.25605067023145" lon="11.726334948194182"><ele>263.6666666666667</ele><time>2026-03-29T09:09:44Z</time></trkpt><trkpt lat="43.2559847135836" lon="11.7262519989778"><ele>263.0</ele><time>2026-03-29T09:09:45Z</time></trkpt><trkpt lat="43.25593354863986" lon="11.726157352170162"><ele>263.0</ele><time>2026-03-29T09:09:46Z</time></trkpt><trkpt lat="43.25588209823678" lon="11.72606226131662"><ele>263.0</ele><time>2026-03-29T09:09:47Z</time></trkpt><trkpt lat="43.255831002516686" lon="11.725961902782501"><ele>263.0</ele><time>2026-03-29T09:09:48Z</time></trkpt><trkpt lat="43.255777960099756" lon="11.725864918382586"><ele>263.0</ele><time>2026-03-29T09:09:49Z</time></trkpt><trkpt lat="43.25572477034591" lon="11.72576800941634"><ele>263.0</ele><time>2026-03-29T09:09:50Z</time></trkpt><trkpt lat="43.25566835336547" lon="11.72566283761331"><ele>263.0</ele><time>2026-03-29T09:09:51Z</time></trkpt><trkpt lat="43.255625394152716" lon="11.725549205170722"><ele>263.5</ele><time>2026-03-29T09:09:52Z</time></trkpt><trkpt lat="43.25555761827837" lon="11.725465349882494"><ele>264.0</ele><time>2026-03-29T09:09:53Z</time></trkpt><trkpt lat="43.25550743978087" lon="11.725373021858433"><ele>264.5</ele><time>2026-03-29T09:09:54Z</time></trkpt><trkpt lat="43.25545985987805" lon="11.725277004798993"><ele>265.0</ele><time>2026-03-29T09:09:55Z</time></trkpt><trkpt lat="43.25541579872701" lon="11.725194790440343"><ele>265.5</ele><time>2026-03-29T09:09:56Z</time></trkpt><trkpt lat="43.25537127985655" lon="11.725102826452114"><ele>266.0</ele><time>2026-03-29T09:09:57Z</time></trkpt><trkpt lat="43.2553412252282" lon="11.724990145106606"><ele>266.1666666666667</ele><time>2026-03-29T09:09:58Z</time></trkpt><trkpt lat="43.255297751038405" lon="11.724889954884338"><ele>266.33333333333337</ele><time>2026-03-29T09:09:59Z</time></trkpt><trkpt lat="43.25525672027185" lon="11.72479539582944"><ele>266.5</ele><time>2026-03-29T09:10:00Z</time></trkpt><trkpt lat="43.255221283940735" lon="11.72471372965361"><ele>266.6666666666667</ele><time>2026-03-29T09:10:01Z</time></trkpt><trkpt lat="43.25519223589597" lon="11.724630267130436"><ele>266.8333333333333</ele><time>2026-03-29T09:10:02Z</time></trkpt><trkpt lat="43.25517193123783" lon="11.724526689601097"><ele>267.0</ele><time>2026-03-29T09:10:03Z</time></trkpt><trkpt lat="43.25516861242708" lon="11.724418122219443"><ele>267.0</ele><time>2026-03-29T09:10:04Z</time></trkpt><trkpt lat="43.25515262502412" lon="11.724310934818757"><ele>267.0</ele><time>2026-03-29T09:10:05Z</time></trkpt><trkpt lat="43.25511142635215" lon="11.72421958454432"><ele>267.0</ele><time>2026-03-29T09:10:06Z</time></trkpt><trkpt lat="43.25506260732199" lon="11.724132574582075"><ele>267.0</ele><time>2026-03-29T09:10:07Z</time></trkpt><trkpt lat="43.255005969269845" lon="11.7240552032967"><ele>267.0</ele><time>2026-03-29T09:10:08Z</time></trkpt><trkpt lat="43.25496433368787" lon="11.723955233218174"><ele>267.0</ele><time>2026-03-29T09:10:09Z</time></trkpt><trkpt lat="43.254907805961096" lon="11.72386608380879"><ele>267.0</ele><time>2026-03-29T09:10:10Z</time></trkpt><trkpt lat="43.254855018026355" lon="11.72378354840821"><ele>267.0</ele><time>2026-03-29T09:10:11Z</time></trkpt><trkpt lat="43.25479971487796" lon="11.723697641125842"><ele>267.0</ele><time>2026-03-29T09:10:12Z</time></trkpt><trkpt lat="43.25474282995966" lon="11.7236118842613"><ele>267.0</ele><time>2026-03-29T09:10:13Z</time></trkpt><trkpt lat="43.25468574265799" lon="11.72352588529015"><ele>267.0</ele><time>2026-03-29T09:10:14Z</time></trkpt><trkpt lat="43.25462924739429" lon="11.723441479410981"><ele>267.0</ele><time>2026-03-29T09:10:15Z</time></trkpt><trkpt lat="43.25457230542956" lon="11.723357097447984"><ele>266.6666666666667</ele><time>2026-03-29T09:10:16Z</time></trkpt><trkpt lat="43.254500322076176" lon="11.723284234336548"><ele>266.3333333333333</ele><time>2026-03-29T09:10:17Z</time></trkpt><trkpt lat="43.25444248168124" lon="11.723197568667187"><ele>266.0</ele><time>2026-03-29T09:10:18Z</time></trkpt><trkpt lat="43.25438544417136" lon="11.72310525859054"><ele>265.66666666666663</ele><time>2026-03-29T09:10:19Z</time></trkpt><trkpt lat="43.254326963467356" lon="11.723027473289596"><ele>265.3333333333333</ele><time>2026-03-29T09:10:20Z</time></trkpt><trkpt lat="43.254268254239015" lon="11.722950544007842"><ele>265.0</ele><time>2026-03-29T09:10:21Z</time></trkpt><trkpt lat="43.254221730552146" lon="11.722854457064381"><ele>265.0</ele><time>2026-03-29T09:10:22Z</time></trkpt><trkpt lat="43.25416589046365" lon="11.722775066191256"><ele>265.0</ele><time>2026-03-29T09:10:23Z</time></trkpt><trkpt lat="43.25410026319336" lon="11.722713962678666"><ele>265.0</ele><time>2026-03-29T09:10:24Z</time></trkpt><trkpt lat="43.254049215975925" lon="11.722637914882378"><ele>265.0</ele><time>2026-03-29T09:10:25Z</time></trkpt><trkpt lat="43.25400488678062" lon="11.722572244760316"><ele>265.0</ele><time>2026-03-29T09:10:26Z</time></trkpt><trkpt lat="43.253939660918405" lon="11.72245972270213"><ele>265.0</ele><time>2026-03-29T09:10:28Z</time></trkpt><trkpt lat="43.25400703521635" lon="11.722336948419647"><ele>265.3333333333333</ele><time>2026-03-29T09:10:31Z</time></trkpt><trkpt lat="43.25410487013815" lon="11.722235251685161"><ele>265.66666666666663</ele><time>2026-03-29T09:10:33Z</time></trkpt><trkpt lat="43.25415556770664" lon="11.722181730330114"><ele>266.0</ele><time>2026-03-29T09:10:34Z</time></trkpt><trkpt lat="43.25420558620104" lon="11.722126390704283"><ele>266.3333333333333</ele><time>2026-03-29T09:10:35Z</time></trkpt><trkpt lat="43.254256542901544" lon="11.722066086960822"><ele>266.6666666666667</ele><time>2026-03-29T09:10:36Z</time></trkpt><trkpt lat="43.254295505038236" lon="11.721980538064331"><ele>267.0</ele><time>2026-03-29T09:10:37Z</time></trkpt><trkpt lat="43.2543542974173" lon="11.721921747217543"><ele>267.0</ele><time>2026-03-29T09:10:38Z</time></trkpt><trkpt lat="43.25439930797059" lon="11.7218486401668"><ele>267.0</ele><time>2026-03-29T09:10:39Z</time></trkpt><trkpt lat="43.25444532771451" lon="11.721767234485327"><ele>267.0</ele><time>2026-03-29T09:10:40Z</time></trkpt><trkpt lat="43.2544886764438" lon="11.721674215789887"><ele>267.0</ele><time>2026-03-29T09:10:41Z</time></trkpt><trkpt lat="43.25452368166752" lon="11.721578217979527"><ele>267.0</ele><time>2026-03-29T09:10:42Z</time></trkpt><trkpt lat="43.25455772662418" lon="11.721483436392301"><ele>267.0</ele><time>2026-03-29T09:10:43Z</time></trkpt><trkpt lat="43.254588914623525" lon="11.721387096283374"><ele>267.0</ele><time>2026-03-29T09:10:44Z</time></trkpt><trkpt lat="43.254616910323655" lon="11.721284674517658"><ele>267.0</ele><time>2026-03-29T09:10:45Z</time></trkpt><trkpt lat="43.25462150953049" lon="11.721176512533203"><ele>267.0</ele><time>2026-03-29T09:10:46Z</time></trkpt><trkpt lat="43.25465686455664" lon="11.721076831191871"><ele>267.0</ele><time>2026-03-29T09:10:47Z</time></trkpt><trkpt lat="43.254673276623706" lon="11.720973211828417"><ele>267.0</ele><time>2026-03-29T09:10:48Z</time></trkpt><trkpt lat="43.25468878386477" lon="11.720869710019784"><ele>267.0</ele><time>2026-03-29T09:10:49Z</time></trkpt><trkpt lat="43.25470337611847" lon="11.72076511651831"><ele>267.0</ele><time>2026-03-29T09:10:50Z</time></trkpt><trkpt lat="43.25471768790691" lon="11.72066156881564"><ele>267.0</ele><time>2026-03-29T09:10:51Z</time></trkpt><trkpt lat="43.25473254740431" lon="11.720554058415592"><ele>267.0</ele><time>2026-03-29T09:10:52Z</time></trkpt><trkpt lat="43.254746923688735" lon="11.720450044163366"><ele>267.0</ele><time>2026-03-29T09:10:53Z</time></trkpt><trkpt lat="43.254761742294974" lon="11.720342829548212"><ele>267.0</ele><time>2026-03-29T09:10:54Z</time></trkpt><trkpt lat="43.25477860417228" lon="11.72023150075461"><ele>267.0</ele><time>2026-03-29T09:10:55Z</time></trkpt><trkpt lat="43.254795209972364" lon="11.720122587631014"><ele>267.0</ele><time>2026-03-29T09:10:56Z</time></trkpt><trkpt lat="43.25481225913314" lon="11.720010767620643"><ele>267.0</ele><time>2026-03-29T09:10:57Z</time></trkpt><trkpt lat="43.25482966074889" lon="11.719896635855406"><ele>267.0</ele><time>2026-03-29T09:10:58Z</time></trkpt><trkpt lat="43.254846723110944" lon="11.719784729188646"><ele>267.0</ele><time>2026-03-29T09:10:59Z</time></trkpt><trkpt lat="43.25486406741193" lon="11.71967097263808"><ele>267.0</ele><time>2026-03-29T09:11:00Z</time></trkpt><trkpt lat="43.25488082939236" lon="11.719556405663024"><ele>267.0</ele><time>2026-03-29T09:11:01Z</time></trkpt><trkpt lat="43.25488120422649" lon="11.719439006447779"><ele>267.0</ele><time>2026-03-29T09:11:02Z</time></trkpt><trkpt lat="43.25489533067588" lon="11.719321424664836"><ele>267.0</ele><time>2026-03-29T09:11:03Z</time></trkpt><trkpt lat="43.25492952938542" lon="11.719212024794649"><ele>267.0</ele><time>2026-03-29T09:11:04Z</time></trkpt><trkpt lat="43.254951149317066" lon="11.719101533765018"><ele>267.0</ele><time>2026-03-29T09:11:05Z</time></trkpt><trkpt lat="43.25498538109729" lon="11.719012284281037"><ele>267.0</ele><time>2026-03-29T09:11:06Z</time></trkpt><trkpt lat="43.255034952877764" lon="11.71892838979886"><ele>267.0</ele><time>2026-03-29T09:11:07Z</time></trkpt><trkpt lat="43.2550885827179" lon="11.71886565724231"><ele>267.0</ele><time>2026-03-29T09:11:08Z</time></trkpt><trkpt lat="43.255141485495336" lon="11.71881436904448"><ele>267.0</ele><time>2026-03-29T09:11:09Z</time></trkpt><trkpt lat="43.25521021572726" lon="11.718783062405276"><ele>267.0</ele><time>2026-03-29T09:11:11Z</time></trkpt><trkpt lat="43.255103121811196" lon="11.718851177074223"><ele>267.0</ele><time>2026-03-29T09:11:16.999Z</time></trkpt><trkpt lat="43.25503558211234" lon="11.718799895880675"><ele>267.0</ele><time>2026-03-29T09:11:17.999Z</time></trkpt><trkpt lat="43.25499811651507" lon="11.718901695871471"><ele>267.0</ele><time>2026-03-29T09:11:18.999Z</time></trkpt><trkpt lat="43.254947254403085" lon="11.718967267110147"><ele>267.0</ele><time>2026-03-29T09:11:20.999Z</time></trkpt><trkpt lat="43.254920223354056" lon="11.718860080938354"><ele>267.0</ele><time>2026-03-29T09:11:23.999Z</time></trkpt><trkpt lat="43.254938958357506" lon="11.718738341938709"><ele>267.0</ele><time>2026-03-29T09:11:25.999Z</time></trkpt><trkpt lat="43.254956278679394" lon="11.718580429138676"><ele>267.0</ele><time>2026-03-29T09:11:27.999Z</time></trkpt><trkpt lat="43.25496430830072" lon="11.718427670100278"><ele>267.0</ele><time>2026-03-29T09:11:29.999Z</time></trkpt><trkpt lat="43.25496308839854" lon="11.718293734559456"><ele>266.8333333333333</ele><time>2026-03-29T09:11:31.999Z</time></trkpt><trkpt lat="43.25495283162443" lon="11.718202814591484"><ele>266.6666666666667</ele><time>2026-03-29T09:11:35.999Z</time></trkpt><trkpt lat="43.254951566144484" lon="11.718106482451219"><ele>266.5</ele><time>2026-03-29T09:11:37.999Z</time></trkpt><trkpt lat="43.25496060501065" lon="11.717986337437774"><ele>266.33333333333337</ele><time>2026-03-29T09:11:39.999Z</time></trkpt><trkpt lat="43.254976274221335" lon="11.717823036752106"><ele>266.1666666666667</ele><time>2026-03-29T09:11:41.999Z</time></trkpt><trkpt lat="43.254980899655315" lon="11.717736507794788"><ele>266.0</ele><time>2026-03-29T09:11:42.999Z</time></trkpt><trkpt lat="43.25497099614799" lon="11.717558939773463"><ele>266.2857142857143</ele><time>2026-03-29T09:11:44.999Z</time></trkpt><trkpt lat="43.25496050954813" lon="11.717471196103949"><ele>266.57142857142856</ele><time>2026-03-29T09:11:45.999Z</time></trkpt><trkpt lat="43.25494605169564" lon="11.717381159877231"><ele>266.8571428571429</ele><time>2026-03-29T09:11:47Z</time></trkpt><trkpt lat="43.25493163138059" lon="11.717290881387033"><ele>267.1428571428571</ele><time>2026-03-29T09:11:48Z</time></trkpt><trkpt lat="43.254917301834645" lon="11.717196072447605"><ele>267.42857142857144</ele><time>2026-03-29T09:11:49Z</time></trkpt><trkpt lat="43.254901274476495" lon="11.717110780933778"><ele>267.7142857142857</ele><time>2026-03-29T09:11:50Z</time></trkpt><trkpt lat="43.2548871090518" lon="11.717023237045295"><ele>268.0</ele><time>2026-03-29T09:11:51Z</time></trkpt><trkpt lat="43.25485823238818" lon="11.716873186832188"><ele>268.16666666666663</ele><time>2026-03-29T09:11:53Z</time></trkpt><trkpt lat="43.254843878274386" lon="11.716772089287305"><ele>268.3333333333333</ele><time>2026-03-29T09:11:55Z</time></trkpt><trkpt lat="43.2548063649199" lon="11.716690375867303"><ele>268.5</ele><time>2026-03-29T09:11:58Z</time></trkpt><trkpt lat="43.25475308766075" lon="11.716597847771952"><ele>268.6666666666667</ele><time>2026-03-29T09:12:01Z</time></trkpt><trkpt lat="43.25475311318916" lon="11.716488143249991"><ele>268.83333333333337</ele><time>2026-03-29T09:12:04Z</time></trkpt><trkpt lat="43.2547490075896" lon="11.716376971083761"><ele>269.0</ele><time>2026-03-29T09:12:08Z</time></trkpt><trkpt lat="43.254705164955936" lon="11.716288543143973"><ele>269.0</ele><time>2026-03-29T09:12:10Z</time></trkpt><trkpt lat="43.25468054652406" lon="11.716161797125714"><ele>269.0</ele><time>2026-03-29T09:12:12Z</time></trkpt><trkpt lat="43.254661980827706" lon="11.716038794755358"><ele>269.0</ele><time>2026-03-29T09:12:14Z</time></trkpt><trkpt lat="43.25465242160396" lon="11.715905248280958"><ele>269.0</ele><time>2026-03-29T09:12:16Z</time></trkpt><trkpt lat="43.25465824810346" lon="11.715778556350827"><ele>269.0</ele><time>2026-03-29T09:12:18Z</time></trkpt><trkpt lat="43.25466612784703" lon="11.715653120098528"><ele>269.0</ele><time>2026-03-29T09:12:20Z</time></trkpt><trkpt lat="43.254683767926196" lon="11.715542155969652"><ele>269.0</ele><time>2026-03-29T09:12:22Z</time></trkpt><trkpt lat="43.25470842376388" lon="11.715434144327473"><ele>269.0</ele><time>2026-03-29T09:12:24Z</time></trkpt><trkpt lat="43.254740016380914" lon="11.715327789241435"><ele>269.0</ele><time>2026-03-29T09:12:26Z</time></trkpt><trkpt lat="43.25478337434441" lon="11.71524414266931"><ele>269.0</ele><time>2026-03-29T09:12:28Z</time></trkpt><trkpt lat="43.25484101204417" lon="11.715169308463942"><ele>269.0</ele><time>2026-03-29T09:12:31Z</time></trkpt><trkpt lat="43.254861246555585" lon="11.715066450506473"><ele>269.0</ele><time>2026-03-29T09:12:33Z</time></trkpt><trkpt lat="43.25488695603953" lon="11.714936799118414"><ele>269.0</ele><time>2026-03-29T09:12:35Z</time></trkpt><trkpt lat="43.25491636683242" lon="11.71480951058427"><ele>269.0</ele><time>2026-03-29T09:12:37Z</time></trkpt><trkpt lat="43.2549411680144" lon="11.714705733844628"><ele>269.0</ele><time>2026-03-29T09:12:38Z</time></trkpt><trkpt lat="43.25497833133866" lon="11.714539001016307"><ele>269.0</ele><time>2026-03-29T09:12:40Z</time></trkpt><trkpt lat="43.25500015105879" lon="11.714451815055263"><ele>269.14285714285717</ele><time>2026-03-29T09:12:41Z</time></trkpt><trkpt lat="43.25502469347975" lon="11.714362317425634"><ele>269.28571428571433</ele><time>2026-03-29T09:12:42Z</time></trkpt><trkpt lat="43.25504938646686" lon="11.714271483069474"><ele>269.42857142857144</ele><time>2026-03-29T09:12:43Z</time></trkpt><trkpt lat="43.25507430058591" lon="11.714177727058699"><ele>269.57142857142856</ele><time>2026-03-29T09:12:44Z</time></trkpt><trkpt lat="43.25510017713757" lon="11.714081809172663"><ele>269.71428571428567</ele><time>2026-03-29T09:12:45Z</time></trkpt><trkpt lat="43.25512677595457" lon="11.71398877131743"><ele>269.85714285714283</ele><time>2026-03-29T09:12:46Z</time></trkpt><trkpt lat="43.25514887086178" lon="11.713895104070497"><ele>270.0</ele><time>2026-03-29T09:12:47Z</time></trkpt><trkpt lat="43.25517283898441" lon="11.713799998995066"><ele>270.0</ele><time>2026-03-29T09:12:48Z</time></trkpt><trkpt lat="43.25519740450858" lon="11.713706148366992"><ele>270.0</ele><time>2026-03-29T09:12:49Z</time></trkpt><trkpt lat="43.25522114757913" lon="11.713609990118027"><ele>270.0</ele><time>2026-03-29T09:12:50Z</time></trkpt><trkpt lat="43.255245916104826" lon="11.713516292833685"><ele>270.0</ele><time>2026-03-29T09:12:51Z</time></trkpt><trkpt lat="43.25527086303654" lon="11.713419335266348"><ele>270.0</ele><time>2026-03-29T09:12:52Z</time></trkpt><trkpt lat="43.25529415001544" lon="11.71332881343394"><ele>270.0</ele><time>2026-03-29T09:12:53Z</time></trkpt><trkpt lat="43.25531492838288" lon="11.713232710150907"><ele>270.0</ele><time>2026-03-29T09:12:54Z</time></trkpt><trkpt lat="43.25535687908666" lon="11.713094687659224"><ele>270.0</ele><time>2026-03-29T09:12:56Z</time></trkpt><trkpt lat="43.255383601631415" lon="11.71299897637618"><ele>270.0</ele><time>2026-03-29T09:12:58Z</time></trkpt><trkpt lat="43.25541019882223" lon="11.712863137358108"><ele>270.0</ele><time>2026-03-29T09:13:49.999Z</time></trkpt><trkpt lat="43.255431258203394" lon="11.712721580583143"><ele>270.0</ele><time>2026-03-29T09:13:51.999Z</time></trkpt><trkpt lat="43.25545430194479" lon="11.712589224338405"><ele>270.0</ele><time>2026-03-29T09:13:54Z</time></trkpt><trkpt lat="43.255474728345895" lon="11.712447412130965"><ele>270.0</ele><time>2026-03-29T09:13:56Z</time></trkpt><trkpt lat="43.25548997742807" lon="11.712306653804735"><ele>270.0</ele><time>2026-03-29T09:13:58Z</time></trkpt><trkpt lat="43.25550516610855" lon="11.712178607209587"><ele>270.0</ele><time>2026-03-29T09:14:00Z</time></trkpt><trkpt lat="43.2555201143475" lon="11.712066727379451"><ele>270.0</ele><time>2026-03-29T09:14:02Z</time></trkpt><trkpt lat="43.25554357387245" lon="11.711957090718942"><ele>270.0</ele><time>2026-03-29T09:14:04Z</time></trkpt><trkpt lat="43.25557524744645" lon="11.711851051512456"><ele>270.0</ele><time>2026-03-29T09:14:06Z</time></trkpt><trkpt lat="43.25560928010767" lon="11.711741561829466"><ele>269.8</ele><time>2026-03-29T09:14:08Z</time></trkpt><trkpt lat="43.25565142469869" lon="11.711661861477287"><ele>269.6</ele><time>2026-03-29T09:14:11Z</time></trkpt><trkpt lat="43.25577196460401" lon="11.711696846303548"><ele>269.4</ele><time>2026-03-29T09:14:12Z</time></trkpt><trkpt lat="43.25589489437879" lon="11.711685607818312"><ele>269.2</ele><time>2026-03-29T09:14:14Z</time></trkpt><trkpt lat="43.25600887747203" lon="11.71168034721135"><ele>269.0</ele><time>2026-03-29T09:14:16Z</time></trkpt><trkpt lat="43.25612191694022" lon="11.711672544241102"><ele>269.0</ele><time>2026-03-29T09:14:18Z</time></trkpt><trkpt lat="43.25622714881102" lon="11.711666934222524"><ele>269.0</ele><time>2026-03-29T09:14:20Z</time></trkpt><trkpt lat="43.25633643532636" lon="11.711649589531218"><ele>269.0</ele><time>2026-03-29T09:14:22Z</time></trkpt><trkpt lat="43.25643235186966" lon="11.711645629390729"><ele>269.0</ele><time>2026-03-29T09:14:24Z</time></trkpt><trkpt lat="43.25653650293594" lon="11.711604777573035"><ele>269.0</ele><time>2026-03-29T09:14:26Z</time></trkpt><trkpt lat="43.25662520497616" lon="11.711576935995447"><ele>269.0</ele><time>2026-03-29T09:14:28Z</time></trkpt><trkpt lat="43.25666027731586" lon="11.711465335908388"><ele>269.0</ele><time>2026-03-29T09:14:30Z</time></trkpt><trkpt lat="43.25665120028541" lon="11.711281794404137"><ele>269.0</ele><time>2026-03-29T09:14:32Z</time></trkpt><trkpt lat="43.256655387648664" lon="11.711176890094533"><ele>269.0</ele><time>2026-03-29T09:14:33Z</time></trkpt><trkpt lat="43.25666993765686" lon="11.711073926356516"><ele>269.0</ele><time>2026-03-29T09:14:34Z</time></trkpt><trkpt lat="43.256690059947935" lon="11.710962059781899"><ele>269.0</ele><time>2026-03-29T09:14:35Z</time></trkpt><trkpt lat="43.25671739394301" lon="11.710842743191217"><ele>269.0</ele><time>2026-03-29T09:14:36Z</time></trkpt><trkpt lat="43.25676642170362" lon="11.710740467633343"><ele>269.0</ele><time>2026-03-29T09:14:37Z</time></trkpt><trkpt lat="43.256809091599045" lon="11.710636439386633"><ele>269.0</ele><time>2026-03-29T09:14:38Z</time></trkpt><trkpt lat="43.25685518973961" lon="11.71053185380907"><ele>269.0</ele><time>2026-03-29T09:14:39Z</time></trkpt><trkpt lat="43.2569040368645" lon="11.710431954903457"><ele>269.0</ele><time>2026-03-29T09:14:40Z</time></trkpt><trkpt lat="43.256948657997675" lon="11.710329741252307"><ele>269.0</ele><time>2026-03-29T09:14:41Z</time></trkpt><trkpt lat="43.25696879039652" lon="11.710213593123788"><ele>269.0</ele><time>2026-03-29T09:14:42Z</time></trkpt><trkpt lat="43.25699210683131" lon="11.710104701405868"><ele>269.0</ele><time>2026-03-29T09:14:43Z</time></trkpt><trkpt lat="43.25701127235455" lon="11.709989443408018"><ele>269.0</ele><time>2026-03-29T09:14:44Z</time></trkpt><trkpt lat="43.257046747838004" lon="11.709877616709774"><ele>269.0</ele><time>2026-03-29T09:14:45Z</time></trkpt><trkpt lat="43.257048909392495" lon="11.709758954105533"><ele>269.0</ele><time>2026-03-29T09:14:46Z</time></trkpt><trkpt lat="43.25706891868456" lon="11.70963838577009"><ele>269.0</ele><time>2026-03-29T09:14:47Z</time></trkpt><trkpt lat="43.25707934726447" lon="11.709519246068586"><ele>269.0</ele><time>2026-03-29T09:14:48Z</time></trkpt><trkpt lat="43.257086253576084" lon="11.70940431993545"><ele>269.0</ele><time>2026-03-29T09:14:49Z</time></trkpt><trkpt lat="43.257089315894866" lon="11.709294766544614"><ele>269.0</ele><time>2026-03-29T09:14:50Z</time></trkpt><trkpt lat="43.25710790466096" lon="11.709192625970886"><ele>269.0</ele><time>2026-03-29T09:14:51Z</time></trkpt><trkpt lat="43.25711475971186" lon="11.70909803652332"><ele>269.0</ele><time>2026-03-29T09:14:52Z</time></trkpt><trkpt lat="43.25712762488399" lon="11.709002693370534"><ele>269.5</ele><time>2026-03-29T09:14:53Z</time></trkpt><trkpt lat="43.257153324127124" lon="11.708922629532985"><ele>270.0</ele><time>2026-03-29T09:14:54Z</time></trkpt><trkpt lat="43.257180738335634" lon="11.708840912945577"><ele>270.5</ele><time>2026-03-29T09:14:55Z</time></trkpt><trkpt lat="43.25723671434975" lon="11.708708674098592"><ele>271.0</ele><time>2026-03-29T09:14:57Z</time></trkpt><trkpt lat="43.25727572947722" lon="11.708627160317583"><ele>271.5</ele><time>2026-03-29T09:15:00Z</time></trkpt><trkpt lat="43.25721826625943" lon="11.708492694935105"><ele>272.0</ele><time>2026-03-29T09:15:02Z</time></trkpt><trkpt lat="43.25712020485667" lon="11.708365066985971"><ele>272.1666666666667</ele><time>2026-03-29T09:15:04Z</time></trkpt><trkpt lat="43.25706909808397" lon="11.708293000081715"><ele>272.33333333333337</ele><time>2026-03-29T09:15:05Z</time></trkpt><trkpt lat="43.25703447360474" lon="11.70821814694248"><ele>272.5</ele><time>2026-03-29T09:15:06Z</time></trkpt><trkpt lat="43.25699795921696" lon="11.708107006508746"><ele>272.6666666666667</ele><time>2026-03-29T09:15:08Z</time></trkpt><trkpt lat="43.256968093350565" lon="11.70799755897619"><ele>272.8333333333333</ele><time>2026-03-29T09:15:10Z</time></trkpt><trkpt lat="43.25696815162994" lon="11.708175782838154"><ele>273.0</ele><time>2026-03-29T09:15:15Z</time></trkpt><trkpt lat="43.25700220148982" lon="11.708263933854855"><ele>273.0</ele><time>2026-03-29T09:15:16Z</time></trkpt><trkpt lat="43.257047897841474" lon="11.70835831486438"><ele>273.0</ele><time>2026-03-29T09:15:17Z</time></trkpt><trkpt lat="43.257102324545286" lon="11.70844486622071"><ele>273.0</ele><time>2026-03-29T09:15:18Z</time></trkpt><trkpt lat="43.25715591310818" lon="11.708514011603668"><ele>273.0</ele><time>2026-03-29T09:15:19Z</time></trkpt><trkpt lat="43.25725042502986" lon="11.70860738291865"><ele>273.0</ele><time>2026-03-29T09:15:21Z</time></trkpt><trkpt lat="43.257332642538685" lon="11.708699407861968"><ele>273.1666666666667</ele><time>2026-03-29T09:15:23Z</time></trkpt><trkpt lat="43.25741712822737" lon="11.708779676429304"><ele>273.3333333333333</ele><time>2026-03-29T09:15:25Z</time></trkpt><trkpt lat="43.25751708328213" lon="11.708779324770967"><ele>273.5</ele><time>2026-03-29T09:15:27Z</time></trkpt><trkpt lat="43.257564186955086" lon="11.70872123838357"><ele>273.66666666666663</ele><time>2026-03-29T09:15:29Z</time></trkpt><trkpt lat="43.25757596907181" lon="11.708625471005845"><ele>273.8333333333333</ele><time>2026-03-29T09:15:32Z</time></trkpt><trkpt lat="43.25757706672375" lon="11.708530317413686"><ele>274.0</ele><time>2026-03-29T09:15:35Z</time></trkpt><trkpt lat="43.25760841017431" lon="11.708403214807324"><ele>274.0</ele><time>2026-03-29T09:15:38Z</time></trkpt><trkpt lat="43.25763302119122" lon="11.7082799896867"><ele>274.0</ele><time>2026-03-29T09:15:40Z</time></trkpt><trkpt lat="43.25764738041074" lon="11.708145516054994"><ele>274.0</ele><time>2026-03-29T09:15:42Z</time></trkpt><trkpt lat="43.25767812536449" lon="11.708016100542388"><ele>274.0</ele><time>2026-03-29T09:15:44Z</time></trkpt><trkpt lat="43.25770947531099" lon="11.707879140375256"><ele>274.0</ele><time>2026-03-29T09:15:46Z</time></trkpt><trkpt lat="43.25776588977892" lon="11.707746233972271"><ele>274.16666666666663</ele><time>2026-03-29T09:15:47.999Z</time></trkpt><trkpt lat="43.25780550047955" lon="11.707587189132223"><ele>274.3333333333333</ele><time>2026-03-29T09:15:49.999Z</time></trkpt><trkpt lat="43.25781147788355" lon="11.707496002179369"><ele>274.5</ele><time>2026-03-29T09:15:50.999Z</time></trkpt><trkpt lat="43.25784706985851" lon="11.707416195913964"><ele>274.6666666666667</ele><time>2026-03-29T09:15:51.999Z</time></trkpt><trkpt lat="43.25786955140818" lon="11.707324279935966"><ele>274.83333333333337</ele><time>2026-03-29T09:15:52.999Z</time></trkpt><trkpt lat="43.25787998235658" lon="11.707224610813887"><ele>275.0</ele><time>2026-03-29T09:15:53.999Z</time></trkpt><trkpt lat="43.25790517200112" lon="11.7071373648654"><ele>275.0</ele><time>2026-03-29T09:15:54.999Z</time></trkpt><trkpt lat="43.25792190224948" lon="11.70705312820313"><ele>275.0</ele><time>2026-03-29T09:15:55.999Z</time></trkpt><trkpt lat="43.25794155117821" lon="11.706970298565576"><ele>275.0</ele><time>2026-03-29T09:15:56.999Z</time></trkpt><trkpt lat="43.25798451225525" lon="11.70680686566029"><ele>275.0</ele><time>2026-03-29T09:15:59Z</time></trkpt><trkpt lat="43.25802601086156" lon="11.706692487522446"><ele>275.0</ele><time>2026-03-29T09:16:01Z</time></trkpt><trkpt lat="43.257883431856484" lon="11.706656516004164"><ele>275.33333333333337</ele><time>2026-03-29T09:16:04Z</time></trkpt><trkpt lat="43.257802791742485" lon="11.706641654208088"><ele>275.6666666666667</ele><time>2026-03-29T09:16:05Z</time></trkpt><trkpt lat="43.25771646013425" lon="11.70665628345445"><ele>276.0</ele><time>2026-03-29T09:16:06Z</time></trkpt><trkpt lat="43.257631496984274" lon="11.706649228538906"><ele>276.3333333333333</ele><time>2026-03-29T09:16:07Z</time></trkpt><trkpt lat="43.25755525522856" lon="11.706649860826"><ele>276.66666666666663</ele><time>2026-03-29T09:16:08Z</time></trkpt><trkpt lat="43.25745831756206" lon="11.706653251614918"><ele>277.0</ele><time>2026-03-29T09:16:10Z</time></trkpt><trkpt lat="43.257563530487076" lon="11.706661487786228"><ele>277.0</ele><time>2026-03-29T09:16:15Z</time></trkpt><trkpt lat="43.25763645634407" lon="11.706667039882216"><ele>277.0</ele><time>2026-03-29T09:16:16Z</time></trkpt><trkpt lat="43.25770855694984" lon="11.706660527319915"><ele>277.0</ele><time>2026-03-29T09:16:17Z</time></trkpt><trkpt lat="43.25778021240957" lon="11.706674255058655"><ele>277.0</ele><time>2026-03-29T09:16:18Z</time></trkpt><trkpt lat="43.25785252218427" lon="11.706697567652563"><ele>277.0</ele><time>2026-03-29T09:16:19Z</time></trkpt><trkpt lat="43.25791845571083" lon="11.70669384829129"><ele>277.0</ele><time>2026-03-29T09:16:20Z</time></trkpt><trkpt lat="43.2579927073848" lon="11.706704139156612"><ele>277.0</ele><time>2026-03-29T09:16:22Z</time></trkpt><trkpt lat="43.25809389490921" lon="11.70652003524655"><ele>277.0</ele><time>2026-03-29T09:16:25Z</time></trkpt><trkpt lat="43.258116324537646" lon="11.706425138533396"><ele>277.0</ele><time>2026-03-29T09:16:26Z</time></trkpt><trkpt lat="43.25814647937447" lon="11.706325209897793"><ele>277.0</ele><time>2026-03-29T09:16:27Z</time></trkpt><trkpt lat="43.25818005870592" lon="11.706232257228086"><ele>277.0</ele><time>2026-03-29T09:16:28Z</time></trkpt><trkpt lat="43.25820826159901" lon="11.706126495226245"><ele>277.0</ele><time>2026-03-29T09:16:30Z</time></trkpt><trkpt lat="43.25810520227761" lon="11.706076618182507"><ele>277.0</ele><time>2026-03-29T09:16:32Z</time></trkpt><trkpt lat="43.25803874400011" lon="11.706053590797135"><ele>277.0</ele><time>2026-03-29T09:16:33Z</time></trkpt><trkpt lat="43.2579714199806" lon="11.705998770707241"><ele>277.0</ele><time>2026-03-29T09:16:34Z</time></trkpt><trkpt lat="43.25790161616955" lon="11.70593291078467"><ele>277.0</ele><time>2026-03-29T09:16:35Z</time></trkpt><trkpt lat="43.25782465832767" lon="11.705872066178161"><ele>277.0</ele><time>2026-03-29T09:16:36Z</time></trkpt><trkpt lat="43.25774325475865" lon="11.70581811352421"><ele>277.0</ele><time>2026-03-29T09:16:37Z</time></trkpt><trkpt lat="43.257663740105805" lon="11.705761009561023"><ele>277.0</ele><time>2026-03-29T09:16:38Z</time></trkpt><trkpt lat="43.25758820241501" lon="11.705695732328852"><ele>277.0</ele><time>2026-03-29T09:16:39Z</time></trkpt><trkpt lat="43.2575165989242" lon="11.70563218653549"><ele>277.0</ele><time>2026-03-29T09:16:40Z</time></trkpt><trkpt lat="43.25744238979239" lon="11.705574579176842"><ele>277.0</ele><time>2026-03-29T09:16:41Z</time></trkpt><trkpt lat="43.25737046207687" lon="11.705524923631076"><ele>277.0</ele><time>2026-03-29T09:16:42Z</time></trkpt><trkpt lat="43.25731496457813" lon="11.705471519888771"><ele>277.0</ele><time>2026-03-29T09:16:43Z</time></trkpt><trkpt lat="43.25726689354608" lon="11.705415567967751"><ele>277.0</ele><time>2026-03-29T09:16:44Z</time></trkpt><trkpt lat="43.2572099499266" lon="11.705312300024893"><ele>276.5</ele><time>2026-03-29T09:16:46Z</time></trkpt><trkpt lat="43.257193833187145" lon="11.705182247517092"><ele>276.0</ele><time>2026-03-29T09:16:48Z</time></trkpt><trkpt lat="43.25718319953966" lon="11.705020326139758"><ele>275.5</ele><time>2026-03-29T09:16:50Z</time></trkpt><trkpt lat="43.25718348086767" lon="11.704931477724275"><ele>275.0</ele><time>2026-03-29T09:16:51Z</time></trkpt><trkpt lat="43.25717380165977" lon="11.704837057115384"><ele>274.5</ele><time>2026-03-29T09:16:52Z</time></trkpt><trkpt lat="43.257178317629304" lon="11.704735781245752"><ele>274.0</ele><time>2026-03-29T09:16:53Z</time></trkpt><trkpt lat="43.25718224166016" lon="11.704629231832039"><ele>274.0</ele><time>2026-03-29T09:16:54Z</time></trkpt><trkpt lat="43.257179389472284" lon="11.704513123454674"><ele>274.0</ele><time>2026-03-29T09:16:55Z</time></trkpt><trkpt lat="43.25717390815668" lon="11.704396815000663"><ele>274.0</ele><time>2026-03-29T09:16:56Z</time></trkpt><trkpt lat="43.257170607595796" lon="11.704270233832295"><ele>274.0</ele><time>2026-03-29T09:16:57Z</time></trkpt><trkpt lat="43.257170657729624" lon="11.704132764142472"><ele>274.0</ele><time>2026-03-29T09:16:58Z</time></trkpt><trkpt lat="43.25716561720525" lon="11.704006187112057"><ele>274.2</ele><time>2026-03-29T09:16:59Z</time></trkpt><trkpt lat="43.257162865811736" lon="11.70387869593466"><ele>274.4</ele><time>2026-03-29T09:17:00Z</time></trkpt><trkpt lat="43.25716717957235" lon="11.70374412119465"><ele>274.6</ele><time>2026-03-29T09:17:01Z</time></trkpt><trkpt lat="43.25716978486118" lon="11.703620393153576"><ele>274.8</ele><time>2026-03-29T09:17:02Z</time></trkpt><trkpt lat="43.2571756400668" lon="11.703494296888527"><ele>275.0</ele><time>2026-03-29T09:17:03Z</time></trkpt><trkpt lat="43.25718339735134" lon="11.703358852560578"><ele>275.0</ele><time>2026-03-29T09:17:04Z</time></trkpt><trkpt lat="43.257186743906644" lon="11.703222299182968"><ele>275.0</ele><time>2026-03-29T09:17:05Z</time></trkpt><trkpt lat="43.25718487265364" lon="11.703083297567934"><ele>275.0</ele><time>2026-03-29T09:17:06Z</time></trkpt><trkpt lat="43.25718275067863" lon="11.702941611335925"><ele>275.0</ele><time>2026-03-29T09:17:07Z</time></trkpt><trkpt lat="43.25718962207984" lon="11.702800920319744"><ele>275.0</ele><time>2026-03-29T09:17:08Z</time></trkpt><trkpt lat="43.2572038761929" lon="11.702660163600275"><ele>275.0</ele><time>2026-03-29T09:17:09Z</time></trkpt><trkpt lat="43.2571907191848" lon="11.702525872053341"><ele>275.0</ele><time>2026-03-29T09:17:10Z</time></trkpt><trkpt lat="43.25719697757122" lon="11.70238144341551"><ele>275.0</ele><time>2026-03-29T09:17:11Z</time></trkpt><trkpt lat="43.25719847300076" lon="11.702263264106888"><ele>275.0</ele><time>2026-03-29T09:17:12Z</time></trkpt><trkpt lat="43.25720084117049" lon="11.702134653897476"><ele>275.0</ele><time>2026-03-29T09:17:13Z</time></trkpt><trkpt lat="43.25720571514487" lon="11.70200622229822"><ele>275.2</ele><time>2026-03-29T09:17:14Z</time></trkpt><trkpt lat="43.25720846423563" lon="11.701872276477788"><ele>275.4</ele><time>2026-03-29T09:17:15Z</time></trkpt><trkpt lat="43.257210183976554" lon="11.701740183691749"><ele>275.6</ele><time>2026-03-29T09:17:16Z</time></trkpt><trkpt lat="43.257211164850155" lon="11.701611123605325"><ele>275.8</ele><time>2026-03-29T09:17:17Z</time></trkpt><trkpt lat="43.25721935924869" lon="11.701483652111781"><ele>276.0</ele><time>2026-03-29T09:17:18Z</time></trkpt><trkpt lat="43.25722864462629" lon="11.70135452956244"><ele>276.0</ele><time>2026-03-29T09:17:19Z</time></trkpt><trkpt lat="43.25723241394621" lon="11.701218336764638"><ele>276.0</ele><time>2026-03-29T09:17:20Z</time></trkpt><trkpt lat="43.25723303109309" lon="11.701085900821392"><ele>276.0</ele><time>2026-03-29T09:17:21Z</time></trkpt><trkpt lat="43.257240645090306" lon="11.700960128103087"><ele>276.0</ele><time>2026-03-29T09:17:22Z</time></trkpt><trkpt lat="43.25725001562064" lon="11.700836320657466"><ele>276.0</ele><time>2026-03-29T09:17:23Z</time></trkpt><trkpt lat="43.2572582760086" lon="11.700707082923113"><ele>275.6</ele><time>2026-03-29T09:17:24Z</time></trkpt><trkpt lat="43.257266134631315" lon="11.700577706093323"><ele>275.20000000000005</ele><time>2026-03-29T09:17:25Z</time></trkpt><trkpt lat="43.257277834108194" lon="11.700444370951065"><ele>274.79999999999995</ele><time>2026-03-29T09:17:26Z</time></trkpt><trkpt lat="43.25728572891613" lon="11.700314800480033"><ele>274.4</ele><time>2026-03-29T09:17:27Z</time></trkpt><trkpt lat="43.257298377680925" lon="11.700184589545733"><ele>274.0</ele><time>2026-03-29T09:17:27.999Z</time></trkpt><trkpt lat="43.25730923928861" lon="11.70005261890661"><ele>276.59999999999997</ele><time>2026-03-29T09:17:28.999Z</time></trkpt><trkpt lat="43.25731668347449" lon="11.69992383521833"><ele>279.2</ele><time>2026-03-29T09:17:29.999Z</time></trkpt><trkpt lat="43.25731934188789" lon="11.699792757729599"><ele>281.79999999999995</ele><time>2026-03-29T09:17:30.999Z</time></trkpt><trkpt lat="43.257331220771334" lon="11.699654851306164"><ele>284.4</ele><time>2026-03-29T09:17:31.999Z</time></trkpt><trkpt lat="43.25733909453868" lon="11.699530209838526"><ele>287.0</ele><time>2026-03-29T09:17:32.999Z</time></trkpt><trkpt lat="43.25734143658428" lon="11.69940950663231"><ele>287.0</ele><time>2026-03-29T09:17:33.999Z</time></trkpt><trkpt lat="43.25734540591032" lon="11.699283870464695"><ele>287.0</ele><time>2026-03-29T09:17:34.999Z</time></trkpt><trkpt lat="43.25734770208351" lon="11.699158836652526"><ele>287.0</ele><time>2026-03-29T09:17:35.999Z</time></trkpt><trkpt lat="43.25735393695452" lon="11.699039747280704"><ele>287.0</ele><time>2026-03-29T09:17:36.999Z</time></trkpt><trkpt lat="43.257352982198654" lon="11.698914615445899"><ele>287.0</ele><time>2026-03-29T09:17:37.999Z</time></trkpt><trkpt lat="43.257347295364234" lon="11.698787598041045"><ele>287.0</ele><time>2026-03-29T09:17:38.999Z</time></trkpt><trkpt lat="43.2573488917917" lon="11.69866822896434"><ele>287.0</ele><time>2026-03-29T09:17:39.999Z</time></trkpt><trkpt lat="43.25734615635651" lon="11.698548152948408"><ele>287.0</ele><time>2026-03-29T09:17:40.999Z</time></trkpt><trkpt lat="43.25734346509242" lon="11.69842974877192"><ele>287.0</ele><time>2026-03-29T09:17:41.999Z</time></trkpt><trkpt lat="43.25733783318224" lon="11.698313566684428"><ele>287.0</ele><time>2026-03-29T09:17:42.999Z</time></trkpt><trkpt lat="43.25733878397332" lon="11.698204750100073"><ele>287.0</ele><time>2026-03-29T09:17:43.999Z</time></trkpt><trkpt lat="43.25734377871828" lon="11.698083105787562"><ele>286.5</ele><time>2026-03-29T09:17:44.999Z</time></trkpt><trkpt lat="43.25733380409413" lon="11.697966333960954"><ele>286.0</ele><time>2026-03-29T09:17:45.999Z</time></trkpt><trkpt lat="43.257323439919986" lon="11.697849720729081"><ele>285.5</ele><time>2026-03-29T09:17:46.999Z</time></trkpt><trkpt lat="43.257320435325376" lon="11.69773059265331"><ele>285.0</ele><time>2026-03-29T09:17:47.999Z</time></trkpt><trkpt lat="43.25731669727211" lon="11.697613623257618"><ele>284.5</ele><time>2026-03-29T09:17:48.999Z</time></trkpt><trkpt lat="43.25731251183075" lon="11.697495044941686"><ele>284.0</ele><time>2026-03-29T09:17:49.999Z</time></trkpt><trkpt lat="43.25731025053725" lon="11.697381258326137"><ele>284.0</ele><time>2026-03-29T09:17:50.999Z</time></trkpt><trkpt lat="43.25731215099981" lon="11.697267821843962"><ele>284.0</ele><time>2026-03-29T09:17:51.999Z</time></trkpt><trkpt lat="43.25730894349416" lon="11.69715099591579"><ele>284.0</ele><time>2026-03-29T09:17:52.999Z</time></trkpt><trkpt lat="43.25730344523881" lon="11.697031543688695"><ele>284.0</ele><time>2026-03-29T09:17:53.999Z</time></trkpt><trkpt lat="43.25730219152312" lon="11.696910503594262"><ele>284.0</ele><time>2026-03-29T09:17:54.999Z</time></trkpt><trkpt lat="43.25730013225672" lon="11.696787861975073"><ele>284.0</ele><time>2026-03-29T09:17:55.999Z</time></trkpt><trkpt lat="43.257299399691554" lon="11.696666545927226"><ele>285.1666666666667</ele><time>2026-03-29T09:17:56.999Z</time></trkpt><trkpt lat="43.25730224563067" lon="11.696546227355865"><ele>286.33333333333337</ele><time>2026-03-29T09:17:57.999Z</time></trkpt><trkpt lat="43.25730608729924" lon="11.696426647610005"><ele>287.5</ele><time>2026-03-29T09:17:58.999Z</time></trkpt><trkpt lat="43.257310835030864" lon="11.696305567664059"><ele>288.6666666666667</ele><time>2026-03-29T09:17:59.999Z</time></trkpt><trkpt lat="43.25731496593215" lon="11.696187253561117"><ele>289.8333333333333</ele><time>2026-03-29T09:18:00.998Z</time></trkpt><trkpt lat="43.257316789514576" lon="11.696069195702435"><ele>291.0</ele><time>2026-03-29T09:18:01.998Z</time></trkpt><trkpt lat="43.257318302555824" lon="11.695950770851335"><ele>291.1666666666667</ele><time>2026-03-29T09:18:02.998Z</time></trkpt><trkpt lat="43.25732005757136" lon="11.695833632998193"><ele>291.3333333333333</ele><time>2026-03-29T09:18:03.998Z</time></trkpt><trkpt lat="43.2573229374875" lon="11.695717838828823"><ele>291.5</ele><time>2026-03-29T09:18:05Z</time></trkpt><trkpt lat="43.257327235516506" lon="11.695602205870463"><ele>291.66666666666663</ele><time>2026-03-29T09:18:06Z</time></trkpt><trkpt lat="43.25733382264356" lon="11.695484247258152"><ele>291.8333333333333</ele><time>2026-03-29T09:18:07Z</time></trkpt><trkpt lat="43.25734067408539" lon="11.69536752035586"><ele>292.0</ele><time>2026-03-29T09:18:08Z</time></trkpt><trkpt lat="43.25734579709752" lon="11.695251680939595"><ele>292.0</ele><time>2026-03-29T09:18:09Z</time></trkpt><trkpt lat="43.257346569340875" lon="11.695134407729162"><ele>292.0</ele><time>2026-03-29T09:18:10Z</time></trkpt><trkpt lat="43.257348691565014" lon="11.695019159711999"><ele>292.0</ele><time>2026-03-29T09:18:11Z</time></trkpt><trkpt lat="43.257351559192884" lon="11.694900961567397"><ele>292.0</ele><time>2026-03-29T09:18:12Z</time></trkpt><trkpt lat="43.25735439169992" lon="11.69478203529445"><ele>292.0</ele><time>2026-03-29T09:18:13Z</time></trkpt><trkpt lat="43.25736031779157" lon="11.694666736931936"><ele>292.0</ele><time>2026-03-29T09:18:14Z</time></trkpt><trkpt lat="43.2573661019338" lon="11.694553723636371"><ele>292.0</ele><time>2026-03-29T09:18:15Z</time></trkpt><trkpt lat="43.25737611483445" lon="11.694440984946072"><ele>292.0</ele><time>2026-03-29T09:18:16Z</time></trkpt><trkpt lat="43.257384135006845" lon="11.694327386065138"><ele>292.0</ele><time>2026-03-29T09:18:17Z</time></trkpt><trkpt lat="43.257394641375306" lon="11.694211895953446"><ele>292.0</ele><time>2026-03-29T09:18:18Z</time></trkpt><trkpt lat="43.257403372835604" lon="11.694094256579112"><ele>292.0</ele><time>2026-03-29T09:18:19Z</time></trkpt><trkpt lat="43.25741274594544" lon="11.693976663510815"><ele>292.0</ele><time>2026-03-29T09:18:20Z</time></trkpt><trkpt lat="43.257420492338824" lon="11.693860035268651"><ele>290.8333333333333</ele><time>2026-03-29T09:18:21Z</time></trkpt><trkpt lat="43.25743090611711" lon="11.693741577454688"><ele>289.66666666666663</ele><time>2026-03-29T09:18:22Z</time></trkpt><trkpt lat="43.257446019730686" lon="11.693626840634527"><ele>288.5</ele><time>2026-03-29T09:18:23Z</time></trkpt><trkpt lat="43.25746822062473" lon="11.693513196378749"><ele>287.3333333333333</ele><time>2026-03-29T09:18:24Z</time></trkpt><trkpt lat="43.257494015312346" lon="11.693400122141846"><ele>286.1666666666667</ele><time>2026-03-29T09:18:25Z</time></trkpt><trkpt lat="43.257520424294434" lon="11.693285283349462"><ele>285.0</ele><time>2026-03-29T09:18:26Z</time></trkpt><trkpt lat="43.257548936964746" lon="11.69316944911435"><ele>284.8333333333333</ele><time>2026-03-29T09:18:26.999Z</time></trkpt><trkpt lat="43.25757704614487" lon="11.693054712090873"><ele>284.6666666666667</ele><time>2026-03-29T09:18:27.999Z</time></trkpt><trkpt lat="43.25760412391239" lon="11.69293917063029"><ele>284.5</ele><time>2026-03-29T09:18:28.999Z</time></trkpt><trkpt lat="43.257629683036015" lon="11.692824683893855"><ele>284.33333333333337</ele><time>2026-03-29T09:18:29.999Z</time></trkpt><trkpt lat="43.25765759314987" lon="11.692708010828241"><ele>284.1666666666667</ele><time>2026-03-29T09:18:30.999Z</time></trkpt><trkpt lat="43.25768662249483" lon="11.6925931768766"><ele>284.0</ele><time>2026-03-29T09:18:31.999Z</time></trkpt><trkpt lat="43.257715738691466" lon="11.692477422431281"><ele>284.0</ele><time>2026-03-29T09:18:32.999Z</time></trkpt><trkpt lat="43.257739864191755" lon="11.69236027005979"><ele>284.0</ele><time>2026-03-29T09:18:33.999Z</time></trkpt><trkpt lat="43.25776417045202" lon="11.69224345459992"><ele>284.0</ele><time>2026-03-29T09:18:34.999Z</time></trkpt><trkpt lat="43.25779045446432" lon="11.69212811981564"><ele>284.0</ele><time>2026-03-29T09:18:35.999Z</time></trkpt><trkpt lat="43.257836114599904" lon="11.692026796229866"><ele>284.0</ele><time>2026-03-29T09:18:36.999Z</time></trkpt><trkpt lat="43.25787023794381" lon="11.691919672927193"><ele>284.0</ele><time>2026-03-29T09:18:37.999Z</time></trkpt><trkpt lat="43.2579045619589" lon="11.691814679623986"><ele>283.5</ele><time>2026-03-29T09:18:38.999Z</time></trkpt><trkpt lat="43.25793019672178" lon="11.691701325214028"><ele>283.0</ele><time>2026-03-29T09:18:39.999Z</time></trkpt><trkpt lat="43.257967328194496" lon="11.691596982394861"><ele>282.5</ele><time>2026-03-29T09:18:40.999Z</time></trkpt><trkpt lat="43.25800035339596" lon="11.691489523406014"><ele>282.0</ele><time>2026-03-29T09:18:41.999Z</time></trkpt><trkpt lat="43.258025480644434" lon="11.69137759015827"><ele>281.5</ele><time>2026-03-29T09:18:42.999Z</time></trkpt><trkpt lat="43.258041400842004" lon="11.691260340614642"><ele>281.0</ele><time>2026-03-29T09:18:43.999Z</time></trkpt><trkpt lat="43.25805154006713" lon="11.691141020385247"><ele>280.6666666666667</ele><time>2026-03-29T09:18:44.999Z</time></trkpt><trkpt lat="43.25805468632959" lon="11.69102068937006"><ele>280.33333333333337</ele><time>2026-03-29T09:18:45.999Z</time></trkpt><trkpt lat="43.25805861736555" lon="11.690896869247274"><ele>280.0</ele><time>2026-03-29T09:18:46.999Z</time></trkpt><trkpt lat="43.25805978650602" lon="11.69077501118258"><ele>279.6666666666667</ele><time>2026-03-29T09:18:47.999Z</time></trkpt><trkpt lat="43.25806729206213" lon="11.690652880994227"><ele>279.3333333333333</ele><time>2026-03-29T09:18:48.999Z</time></trkpt><trkpt lat="43.25807701713426" lon="11.690531560543736"><ele>279.0</ele><time>2026-03-29T09:18:49.999Z</time></trkpt><trkpt lat="43.25808222005378" lon="11.690410296181861"><ele>279.0</ele><time>2026-03-29T09:18:50.999Z</time></trkpt><trkpt lat="43.25808700002787" lon="11.690290397838732"><ele>279.0</ele><time>2026-03-29T09:18:51.999Z</time></trkpt><trkpt lat="43.2580901079544" lon="11.690171588392683"><ele>279.0</ele><time>2026-03-29T09:18:52.999Z</time></trkpt><trkpt lat="43.25809453614388" lon="11.690054470432003"><ele>279.0</ele><time>2026-03-29T09:18:53.999Z</time></trkpt><trkpt lat="43.25810713305401" lon="11.689940095870792"><ele>279.0</ele><time>2026-03-29T09:18:54.999Z</time></trkpt><trkpt lat="43.25811351221391" lon="11.689823842546845"><ele>279.0</ele><time>2026-03-29T09:18:55.999Z</time></trkpt><trkpt lat="43.25811495361025" lon="11.689700815683654"><ele>279.0</ele><time>2026-03-29T09:18:56.999Z</time></trkpt><trkpt lat="43.25810710051096" lon="11.68958399757012"><ele>279.0</ele><time>2026-03-29T09:18:57.999Z</time></trkpt><trkpt lat="43.258078349709365" lon="11.689469595564237"><ele>279.0</ele><time>2026-03-29T09:18:58.999Z</time></trkpt><trkpt lat="43.25803522865758" lon="11.68935762713717"><ele>279.0</ele><time>2026-03-29T09:18:59.999Z</time></trkpt><trkpt lat="43.257989355818346" lon="11.689254607924394"><ele>279.0</ele><time>2026-03-29T09:19:00.999Z</time></trkpt><trkpt lat="43.25792876916708" lon="11.689159100477843"><ele>279.0</ele><time>2026-03-29T09:19:01.999Z</time></trkpt><trkpt lat="43.25786052630631" lon="11.689073802044016"><ele>279.59999999999997</ele><time>2026-03-29T09:19:02.999Z</time></trkpt><trkpt lat="43.257778759002115" lon="11.689002647616206"><ele>280.2</ele><time>2026-03-29T09:19:03.999Z</time></trkpt><trkpt lat="43.25770410569484" lon="11.688931686253406"><ele>280.79999999999995</ele><time>2026-03-29T09:19:04.999Z</time></trkpt><trkpt lat="43.25763109749983" lon="11.688854406860747"><ele>281.4</ele><time>2026-03-29T09:19:05.999Z</time></trkpt><trkpt lat="43.25755046327551" lon="11.688785462139966"><ele>282.0</ele><time>2026-03-29T09:19:06.999Z</time></trkpt><trkpt lat="43.25747466542855" lon="11.688715798557755"><ele>282.0</ele><time>2026-03-29T09:19:07.999Z</time></trkpt><trkpt lat="43.25739445379702" lon="11.688639186568887"><ele>282.0</ele><time>2026-03-29T09:19:08.999Z</time></trkpt><trkpt lat="43.25731454163398" lon="11.688580061122089"><ele>282.0</ele><time>2026-03-29T09:19:09.999Z</time></trkpt><trkpt lat="43.257219500729875" lon="11.688544078896031"><ele>282.0</ele><time>2026-03-29T09:19:10.999Z</time></trkpt><trkpt lat="43.25712735705661" lon="11.688530055213713"><ele>282.0</ele><time>2026-03-29T09:19:11.999Z</time></trkpt><trkpt lat="43.25704957413095" lon="11.688477273982256"><ele>281.6666666666667</ele><time>2026-03-29T09:19:12.999Z</time></trkpt><trkpt lat="43.25698311036755" lon="11.688388397693538"><ele>281.3333333333333</ele><time>2026-03-29T09:19:13.999Z</time></trkpt><trkpt lat="43.25695659746585" lon="11.688286075953908"><ele>281.0</ele><time>2026-03-29T09:19:14.999Z</time></trkpt><trkpt lat="43.25693235710284" lon="11.688167210921268"><ele>280.66666666666663</ele><time>2026-03-29T09:19:15.999Z</time></trkpt><trkpt lat="43.25690350227278" lon="11.688046519390397"><ele>280.3333333333333</ele><time>2026-03-29T09:19:16.999Z</time></trkpt><trkpt lat="43.25687272602072" lon="11.687932150175566"><ele>280.0</ele><time>2026-03-29T09:19:17.999Z</time></trkpt><trkpt lat="43.25683760465605" lon="11.687811884509916"><ele>281.6</ele><time>2026-03-29T09:19:18.999Z</time></trkpt><trkpt lat="43.25679365320838" lon="11.687704365899192"><ele>283.2</ele><time>2026-03-29T09:19:19.999Z</time></trkpt><trkpt lat="43.25673169346342" lon="11.687605185006715"><ele>284.8</ele><time>2026-03-29T09:19:20.999Z</time></trkpt><trkpt lat="43.25666509456231" lon="11.687501813892617"><ele>286.4</ele><time>2026-03-29T09:19:21.999Z</time></trkpt><trkpt lat="43.25660370925222" lon="11.68740569321409"><ele>288.0</ele><time>2026-03-29T09:19:22.999Z</time></trkpt><trkpt lat="43.25653837868456" lon="11.687308346192273"><ele>288.0</ele><time>2026-03-29T09:19:23.999Z</time></trkpt><trkpt lat="43.256471598312466" lon="11.687221347262202"><ele>288.0</ele><time>2026-03-29T09:19:24.999Z</time></trkpt><trkpt lat="43.25639944320009" lon="11.687143233415958"><ele>288.0</ele><time>2026-03-29T09:19:25.999Z</time></trkpt><trkpt lat="43.25631959046363" lon="11.687067110338088"><ele>288.0</ele><time>2026-03-29T09:19:26.999Z</time></trkpt><trkpt lat="43.25624682223349" lon="11.686988902331809"><ele>288.0</ele><time>2026-03-29T09:19:27.999Z</time></trkpt><trkpt lat="43.25616818258365" lon="11.68691090854664"><ele>287.8</ele><time>2026-03-29T09:19:28.999Z</time></trkpt><trkpt lat="43.25609521195515" lon="11.686828689213291"><ele>287.6</ele><time>2026-03-29T09:19:29.999Z</time></trkpt><trkpt lat="43.256019255464395" lon="11.686753236769484"><ele>287.4</ele><time>2026-03-29T09:19:30.999Z</time></trkpt><trkpt lat="43.25594390719519" lon="11.686677393647814"><ele>287.2</ele><time>2026-03-29T09:19:31.999Z</time></trkpt><trkpt lat="43.25586771771443" lon="11.686605844203118"><ele>287.0</ele><time>2026-03-29T09:19:32.999Z</time></trkpt><trkpt lat="43.25579124564566" lon="11.686530232434126"><ele>287.0</ele><time>2026-03-29T09:19:33.999Z</time></trkpt><trkpt lat="43.255720837975105" lon="11.686450981720045"><ele>287.0</ele><time>2026-03-29T09:19:34.999Z</time></trkpt><trkpt lat="43.25565388824412" lon="11.68636819111883"><ele>287.0</ele><time>2026-03-29T09:19:35.999Z</time></trkpt><trkpt lat="43.255583918285325" lon="11.686271873372261"><ele>287.0</ele><time>2026-03-29T09:19:36.999Z</time></trkpt><trkpt lat="43.25552129470423" lon="11.686171776534545"><ele>287.0</ele><time>2026-03-29T09:19:37.999Z</time></trkpt><trkpt lat="43.25546543746108" lon="11.6860661009653"><ele>286.0</ele><time>2026-03-29T09:19:38.999Z</time></trkpt><trkpt lat="43.25541378117609" lon="11.685950301181853"><ele>285.0</ele><time>2026-03-29T09:19:39.999Z</time></trkpt><trkpt lat="43.255364533426004" lon="11.685828779959056"><ele>284.0</ele><time>2026-03-29T09:19:40.999Z</time></trkpt><trkpt lat="43.25531510666762" lon="11.685713167005419"><ele>283.0</ele><time>2026-03-29T09:19:41.999Z</time></trkpt><trkpt lat="43.25526939336018" lon="11.685593683024301"><ele>282.0</ele><time>2026-03-29T09:19:42.999Z</time></trkpt><trkpt lat="43.2552238507649" lon="11.685481020033068"><ele>282.0</ele><time>2026-03-29T09:19:43.999Z</time></trkpt><trkpt lat="43.255175666733216" lon="11.685367173412367"><ele>282.0</ele><time>2026-03-29T09:19:44.999Z</time></trkpt><trkpt lat="43.255134655273075" lon="11.685251653157568"><ele>282.0</ele><time>2026-03-29T09:19:45.999Z</time></trkpt><trkpt lat="43.255088074836685" lon="11.685141203651341"><ele>282.0</ele><time>2026-03-29T09:19:46.999Z</time></trkpt><trkpt lat="43.2550448131863" lon="11.685033017758615"><ele>282.0</ele><time>2026-03-29T09:19:47.999Z</time></trkpt><trkpt lat="43.25499743458781" lon="11.684927562849754"><ele>281.6</ele><time>2026-03-29T09:19:48.999Z</time></trkpt><trkpt lat="43.254946164455646" lon="11.684827072718404"><ele>281.2</ele><time>2026-03-29T09:19:49.999Z</time></trkpt><trkpt lat="43.25489622247348" lon="11.68472281413557"><ele>280.8</ele><time>2026-03-29T09:19:50.999Z</time></trkpt><trkpt lat="43.2548381522876" lon="11.684620973183398"><ele>280.4</ele><time>2026-03-29T09:19:51.999Z</time></trkpt><trkpt lat="43.254778370588255" lon="11.684521519377883"><ele>280.0</ele><time>2026-03-29T09:19:52.999Z</time></trkpt><trkpt lat="43.254717215114745" lon="11.68442492693526"><ele>281.2</ele><time>2026-03-29T09:19:53.999Z</time></trkpt><trkpt lat="43.2546527640754" lon="11.684331522422738"><ele>282.4</ele><time>2026-03-29T09:19:54.999Z</time></trkpt><trkpt lat="43.25458673344174" lon="11.68424406896743"><ele>283.6</ele><time>2026-03-29T09:19:55.999Z</time></trkpt><trkpt lat="43.25452467280248" lon="11.684145623065794"><ele>284.8</ele><time>2026-03-29T09:19:56.999Z</time></trkpt><trkpt lat="43.254465769368394" lon="11.684047972575058"><ele>286.0</ele><time>2026-03-29T09:19:57.999Z</time></trkpt><trkpt lat="43.25440547511475" lon="11.683952150840241"><ele>286.0</ele><time>2026-03-29T09:19:58.999Z</time></trkpt><trkpt lat="43.25434796899904" lon="11.683852006046225"><ele>286.0</ele><time>2026-03-29T09:19:59.999Z</time></trkpt><trkpt lat="43.25428983671721" lon="11.683750468997417"><ele>286.0</ele><time>2026-03-29T09:20:00.999Z</time></trkpt><trkpt lat="43.2542334310127" lon="11.683646919874366"><ele>286.0</ele><time>2026-03-29T09:20:01.999Z</time></trkpt><trkpt lat="43.25418153680286" lon="11.683536957308393"><ele>286.0</ele><time>2026-03-29T09:20:02.999Z</time></trkpt><trkpt lat="43.254125880447184" lon="11.68343219491014"><ele>285.2</ele><time>2026-03-29T09:20:03.999Z</time></trkpt><trkpt lat="43.25406879721463" lon="11.683327490463036"><ele>284.40000000000003</ele><time>2026-03-29T09:20:04.999Z</time></trkpt><trkpt lat="43.25400947662916" lon="11.6832221089655"><ele>283.6</ele><time>2026-03-29T09:20:05.999Z</time></trkpt><trkpt lat="43.253952275128405" lon="11.683118313564476"><ele>282.8</ele><time>2026-03-29T09:20:06.999Z</time></trkpt><trkpt lat="43.25389671751837" lon="11.683013498332212"><ele>282.0</ele><time>2026-03-29T09:20:07.999Z</time></trkpt><trkpt lat="43.253840063486656" lon="11.682906934478837"><ele>282.0</ele><time>2026-03-29T09:20:08.999Z</time></trkpt><trkpt lat="43.25378719796893" lon="11.682800589248057"><ele>282.0</ele><time>2026-03-29T09:20:10Z</time></trkpt><trkpt lat="43.25373311283677" lon="11.682692888270545"><ele>282.0</ele><time>2026-03-29T09:20:11Z</time></trkpt><trkpt lat="43.25368030215398" lon="11.68258058995756"><ele>282.0</ele><time>2026-03-29T09:20:12Z</time></trkpt><trkpt lat="43.25363600520277" lon="11.682462790331737"><ele>282.0</ele><time>2026-03-29T09:20:13Z</time></trkpt><trkpt lat="43.253594322432996" lon="11.682343060702665"><ele>282.8</ele><time>2026-03-29T09:20:14Z</time></trkpt><trkpt lat="43.25355390794903" lon="11.682222616229746"><ele>283.6</ele><time>2026-03-29T09:20:15Z</time></trkpt><trkpt lat="43.25351553406284" lon="11.682099052571127"><ele>284.40000000000003</ele><time>2026-03-29T09:20:16Z</time></trkpt><trkpt lat="43.253478898699555" lon="11.68197744166809"><ele>285.2</ele><time>2026-03-29T09:20:17Z</time></trkpt><trkpt lat="43.253446713544086" lon="11.68185291135887"><ele>286.0</ele><time>2026-03-29T09:20:18Z</time></trkpt><trkpt lat="43.25341401086526" lon="11.68172941408529"><ele>287.0</ele><time>2026-03-29T09:20:19Z</time></trkpt><trkpt lat="43.25338792726481" lon="11.681606031132759"><ele>288.0</ele><time>2026-03-29T09:20:20Z</time></trkpt><trkpt lat="43.253363176104926" lon="11.681480843106078"><ele>289.0</ele><time>2026-03-29T09:20:21Z</time></trkpt><trkpt lat="43.25334666984392" lon="11.681356250322672"><ele>290.0</ele><time>2026-03-29T09:20:22Z</time></trkpt><trkpt lat="43.25333544614993" lon="11.681232998052069"><ele>291.0</ele><time>2026-03-29T09:20:23Z</time></trkpt><trkpt lat="43.25332552173836" lon="11.6811133123638"><ele>291.1666666666667</ele><time>2026-03-29T09:20:24Z</time></trkpt><trkpt lat="43.253322117662094" lon="11.680989822291428"><ele>291.3333333333333</ele><time>2026-03-29T09:20:25Z</time></trkpt><trkpt lat="43.25331779024769" lon="11.680875917774953"><ele>291.5</ele><time>2026-03-29T09:20:26Z</time></trkpt><trkpt lat="43.25331612202148" lon="11.680757616875118"><ele>291.66666666666663</ele><time>2026-03-29T09:20:27Z</time></trkpt><trkpt lat="43.25331691447614" lon="11.680630515959432"><ele>291.8333333333333</ele><time>2026-03-29T09:20:28Z</time></trkpt><trkpt lat="43.253321315646225" lon="11.680503935481697"><ele>292.0</ele><time>2026-03-29T09:20:29Z</time></trkpt><trkpt lat="43.25332307086481" lon="11.680378040617443"><ele>290.8</ele><time>2026-03-29T09:20:30Z</time></trkpt><trkpt lat="43.25332345042895" lon="11.680252616541889"><ele>289.6</ele><time>2026-03-29T09:20:31Z</time></trkpt><trkpt lat="43.2533281075219" lon="11.680118060553283"><ele>288.40000000000003</ele><time>2026-03-29T09:20:32Z</time></trkpt><trkpt lat="43.25334065072942" lon="11.679993442963307"><ele>287.2</ele><time>2026-03-29T09:20:33Z</time></trkpt><trkpt lat="43.25336642169263" lon="11.679865978088976"><ele>286.0</ele><time>2026-03-29T09:20:34Z</time></trkpt><trkpt lat="43.2533915380518" lon="11.6797447938364"><ele>286.0</ele><time>2026-03-29T09:20:35Z</time></trkpt><trkpt lat="43.253421503397306" lon="11.679624955171725"><ele>286.0</ele><time>2026-03-29T09:20:36Z</time></trkpt><trkpt lat="43.25345176945691" lon="11.679510285230203"><ele>286.0</ele><time>2026-03-29T09:20:37Z</time></trkpt><trkpt lat="43.253479299511845" lon="11.679397586762663"><ele>286.0</ele><time>2026-03-29T09:20:37.999Z</time></trkpt><trkpt lat="43.25350682446243" lon="11.679283110387916"><ele>286.0</ele><time>2026-03-29T09:20:38.999Z</time></trkpt><trkpt lat="43.253529800476876" lon="11.67916826041186"><ele>286.0</ele><time>2026-03-29T09:20:39.999Z</time></trkpt><trkpt lat="43.25355035134054" lon="11.679056148303008"><ele>285.8333333333333</ele><time>2026-03-29T09:20:40.999Z</time></trkpt><trkpt lat="43.25356790731315" lon="11.678939463695148"><ele>285.66666666666663</ele><time>2026-03-29T09:20:41.999Z</time></trkpt><trkpt lat="43.253578838985774" lon="11.678819731671215"><ele>285.5</ele><time>2026-03-29T09:20:42.999Z</time></trkpt><trkpt lat="43.25358705832619" lon="11.678697863429813"><ele>285.3333333333333</ele><time>2026-03-29T09:20:43.999Z</time></trkpt><trkpt lat="43.25359510291607" lon="11.678574417415446"><ele>285.1666666666667</ele><time>2026-03-29T09:20:44.999Z</time></trkpt><trkpt lat="43.25360510928901" lon="11.678452280142249"><ele>285.0</ele><time>2026-03-29T09:20:45.999Z</time></trkpt><trkpt lat="43.253616445478215" lon="11.678330071421676"><ele>285.0</ele><time>2026-03-29T09:20:46.999Z</time></trkpt><trkpt lat="43.253625725500136" lon="11.678209376374499"><ele>285.0</ele><time>2026-03-29T09:20:47.999Z</time></trkpt><trkpt lat="43.25363575165229" lon="11.678093617787198"><ele>285.0</ele><time>2026-03-29T09:20:48.999Z</time></trkpt><trkpt lat="43.25364472355995" lon="11.677974220095697"><ele>285.0</ele><time>2026-03-29T09:20:49.999Z</time></trkpt><trkpt lat="43.25365267889691" lon="11.677857648244395"><ele>285.0</ele><time>2026-03-29T09:20:50.999Z</time></trkpt><trkpt lat="43.25365702122587" lon="11.677744536161931"><ele>285.0</ele><time>2026-03-29T09:20:51.999Z</time></trkpt><trkpt lat="43.25366211218684" lon="11.677630902148906"><ele>284.6666666666667</ele><time>2026-03-29T09:20:52.999Z</time></trkpt><trkpt lat="43.253669855913344" lon="11.67751827629373"><ele>284.3333333333333</ele><time>2026-03-29T09:20:53.999Z</time></trkpt><trkpt lat="43.25368095174701" lon="11.677410675307945"><ele>284.0</ele><time>2026-03-29T09:20:54.999Z</time></trkpt><trkpt lat="43.2536931925126" lon="11.67730705293654"><ele>283.66666666666663</ele><time>2026-03-29T09:20:55.999Z</time></trkpt><trkpt lat="43.2536987119085" lon="11.677206124177717"><ele>283.3333333333333</ele><time>2026-03-29T09:20:56.999Z</time></trkpt><trkpt lat="43.25370059592082" lon="11.677100519408"><ele>283.0</ele><time>2026-03-29T09:20:57.999Z</time></trkpt><trkpt lat="43.25369887851228" lon="11.676990744418198"><ele>283.5</ele><time>2026-03-29T09:20:58.999Z</time></trkpt><trkpt lat="43.25369700312066" lon="11.676875964170588"><ele>284.0</ele><time>2026-03-29T09:20:59.999Z</time></trkpt><trkpt lat="43.25368907426977" lon="11.676758795017427"><ele>284.5</ele><time>2026-03-29T09:21:00.999Z</time></trkpt><trkpt lat="43.25368205560552" lon="11.676645047970343"><ele>285.0</ele><time>2026-03-29T09:21:01.999Z</time></trkpt><trkpt lat="43.2536671181012" lon="11.676531185458463"><ele>285.5</ele><time>2026-03-29T09:21:02.999Z</time></trkpt><trkpt lat="43.25364344100542" lon="11.676420444430114"><ele>286.0</ele><time>2026-03-29T09:21:03.999Z</time></trkpt><trkpt lat="43.25362146433626" lon="11.676309413946754"><ele>286.0</ele><time>2026-03-29T09:21:04.999Z</time></trkpt><trkpt lat="43.253600235563304" lon="11.676193901160822"><ele>286.0</ele><time>2026-03-29T09:21:05.999Z</time></trkpt><trkpt lat="43.25358034648387" lon="11.676074143659429"><ele>286.0</ele><time>2026-03-29T09:21:06.999Z</time></trkpt><trkpt lat="43.25355528421358" lon="11.675954611353477"><ele>286.0</ele><time>2026-03-29T09:21:07.999Z</time></trkpt><trkpt lat="43.253527794442284" lon="11.675834130590383"><ele>286.0</ele><time>2026-03-29T09:21:08.999Z</time></trkpt><trkpt lat="43.253499364417095" lon="11.675711597314985"><ele>286.0</ele><time>2026-03-29T09:21:09.999Z</time></trkpt><trkpt lat="43.25347101683258" lon="11.67559240270096"><ele>286.0</ele><time>2026-03-29T09:21:10.999Z</time></trkpt><trkpt lat="43.253444032065914" lon="11.675478198154321"><ele>286.0</ele><time>2026-03-29T09:21:11.999Z</time></trkpt><trkpt lat="43.2534231211957" lon="11.675364813256252"><ele>286.0</ele><time>2026-03-29T09:21:12.999Z</time></trkpt><trkpt lat="43.25340330867629" lon="11.675255641671622"><ele>286.0</ele><time>2026-03-29T09:21:13.999Z</time></trkpt><trkpt lat="43.25338698613466" lon="11.675147495172395"><ele>286.0</ele><time>2026-03-29T09:21:14.999Z</time></trkpt><trkpt lat="43.25336224801876" lon="11.6750394341237"><ele>286.0</ele><time>2026-03-29T09:21:15.999Z</time></trkpt><trkpt lat="43.253337668542535" lon="11.67493307347706"><ele>286.0</ele><time>2026-03-29T09:21:16.999Z</time></trkpt><trkpt lat="43.25331646187141" lon="11.67482680802102"><ele>286.0</ele><time>2026-03-29T09:21:17.999Z</time></trkpt><trkpt lat="43.25329569758418" lon="11.674719273194338"><ele>286.0</ele><time>2026-03-29T09:21:18.999Z</time></trkpt><trkpt lat="43.25327373676062" lon="11.67461395614476"><ele>286.0</ele><time>2026-03-29T09:21:19.999Z</time></trkpt><trkpt lat="43.25325254832206" lon="11.67450508588073"><ele>286.0</ele><time>2026-03-29T09:21:20.999Z</time></trkpt><trkpt lat="43.253230762686385" lon="11.674396897402335"><ele>286.0</ele><time>2026-03-29T09:21:21.999Z</time></trkpt><trkpt lat="43.25321002428595" lon="11.674288541570084"><ele>286.0</ele><time>2026-03-29T09:21:22.999Z</time></trkpt><trkpt lat="43.25319119994585" lon="11.674175480814702"><ele>286.0</ele><time>2026-03-29T09:21:23.999Z</time></trkpt><trkpt lat="43.253170373860705" lon="11.674060716023233"><ele>286.0</ele><time>2026-03-29T09:21:24.999Z</time></trkpt><trkpt lat="43.253147079760566" lon="11.673943662642671"><ele>286.0</ele><time>2026-03-29T09:21:25.999Z</time></trkpt><trkpt lat="43.25312136383143" lon="11.673823966836782"><ele>286.0</ele><time>2026-03-29T09:21:26.999Z</time></trkpt><trkpt lat="43.25309400871198" lon="11.673700995863705"><ele>285.2</ele><time>2026-03-29T09:21:27.999Z</time></trkpt><trkpt lat="43.253067068823775" lon="11.673576205264121"><ele>284.40000000000003</ele><time>2026-03-29T09:21:28.999Z</time></trkpt><trkpt lat="43.25303937754031" lon="11.673450604396509"><ele>283.6</ele><time>2026-03-29T09:21:29.999Z</time></trkpt><trkpt lat="43.25301294077695" lon="11.673324840431741"><ele>282.8</ele><time>2026-03-29T09:21:30.999Z</time></trkpt><trkpt lat="43.252988863871856" lon="11.673196930498253"><ele>282.0</ele><time>2026-03-29T09:21:31.999Z</time></trkpt><trkpt lat="43.25296873584045" lon="11.673067840540476"><ele>282.0</ele><time>2026-03-29T09:21:32.999Z</time></trkpt><trkpt lat="43.252943326855785" lon="11.67294102450801"><ele>282.0</ele><time>2026-03-29T09:21:33.999Z</time></trkpt><trkpt lat="43.25291423772889" lon="11.672818405034901"><ele>282.0</ele><time>2026-03-29T09:21:34.999Z</time></trkpt><trkpt lat="43.25289095988743" lon="11.672696179817128"><ele>282.0</ele><time>2026-03-29T09:21:35.999Z</time></trkpt><trkpt lat="43.252869624972334" lon="11.672576212961646"><ele>282.0</ele><time>2026-03-29T09:21:36.999Z</time></trkpt><trkpt lat="43.252847389414214" lon="11.67245799022284"><ele>282.0</ele><time>2026-03-29T09:21:37.999Z</time></trkpt><trkpt lat="43.25281980109709" lon="11.67234202960636"><ele>282.0</ele><time>2026-03-29T09:21:38.999Z</time></trkpt><trkpt lat="43.25278938954388" lon="11.672225548648507"><ele>282.0</ele><time>2026-03-29T09:21:39.999Z</time></trkpt><trkpt lat="43.2527574074666" lon="11.672111494907263"><ele>282.0</ele><time>2026-03-29T09:21:40.999Z</time></trkpt><trkpt lat="43.252720698196846" lon="11.671999727393686"><ele>282.0</ele><time>2026-03-29T09:21:41.999Z</time></trkpt><trkpt lat="43.25268609314449" lon="11.671890679267678"><ele>282.0</ele><time>2026-03-29T09:21:42.999Z</time></trkpt><trkpt lat="43.252653434498484" lon="11.671773944304976"><ele>282.0</ele><time>2026-03-29T09:21:43.999Z</time></trkpt><trkpt lat="43.252618736478816" lon="11.671658322953222"><ele>282.0</ele><time>2026-03-29T09:21:44.999Z</time></trkpt><trkpt lat="43.25258335228377" lon="11.67154254584687"><ele>282.0</ele><time>2026-03-29T09:21:45.999Z</time></trkpt><trkpt lat="43.25254796152808" lon="11.671427821874548"><ele>282.0</ele><time>2026-03-29T09:21:46.999Z</time></trkpt><trkpt lat="43.25251403878041" lon="11.671312911563144"><ele>282.0</ele><time>2026-03-29T09:21:47.999Z</time></trkpt><trkpt lat="43.25248002906367" lon="11.671197492879555"><ele>282.4</ele><time>2026-03-29T09:21:48.999Z</time></trkpt><trkpt lat="43.25244516168422" lon="11.67108375357347"><ele>282.79999999999995</ele><time>2026-03-29T09:21:49.999Z</time></trkpt><trkpt lat="43.25241007206023" lon="11.670970884217084"><ele>283.2</ele><time>2026-03-29T09:21:50.999Z</time></trkpt><trkpt lat="43.25237500961293" lon="11.670858018469277"><ele>283.59999999999997</ele><time>2026-03-29T09:21:51.999Z</time></trkpt><trkpt lat="43.25234142933568" lon="11.670742674413674"><ele>284.0</ele><time>2026-03-29T09:21:52.999Z</time></trkpt><trkpt lat="43.252307369367514" lon="11.670624986572607"><ele>283.8</ele><time>2026-03-29T09:21:53.999Z</time></trkpt><trkpt lat="43.25226813520971" lon="11.670506350924077"><ele>283.59999999999997</ele><time>2026-03-29T09:21:54.999Z</time></trkpt><trkpt lat="43.25222990924702" lon="11.670389690879249"><ele>283.4</ele><time>2026-03-29T09:21:55.999Z</time></trkpt><trkpt lat="43.252194524148464" lon="11.670269429609972"><ele>283.2</ele><time>2026-03-29T09:21:56.999Z</time></trkpt><trkpt lat="43.2521592416387" lon="11.670147070261608"><ele>283.0</ele><time>2026-03-29T09:21:57.999Z</time></trkpt><trkpt lat="43.25212356176358" lon="11.670022883037042"><ele>282.8</ele><time>2026-03-29T09:21:58.999Z</time></trkpt><trkpt lat="43.25208716083287" lon="11.669901109709052"><ele>282.6</ele><time>2026-03-29T09:21:59.999Z</time></trkpt><trkpt lat="43.25205089782165" lon="11.66978132948304"><ele>282.4</ele><time>2026-03-29T09:22:00.999Z</time></trkpt><trkpt lat="43.252014067716274" lon="11.669664001758829"><ele>282.2</ele><time>2026-03-29T09:22:01.999Z</time></trkpt><trkpt lat="43.25197575311048" lon="11.66954720503"><ele>282.0</ele><time>2026-03-29T09:22:02.999Z</time></trkpt><trkpt lat="43.25193896129191" lon="11.66942912967472"><ele>282.4</ele><time>2026-03-29T09:22:03.999Z</time></trkpt><trkpt lat="43.25190420481665" lon="11.669311886500564"><ele>282.79999999999995</ele><time>2026-03-29T09:22:04.999Z</time></trkpt><trkpt lat="43.251869363173164" lon="11.669195451719855"><ele>283.2</ele><time>2026-03-29T09:22:05.999Z</time></trkpt><trkpt lat="43.25183377285346" lon="11.66907868251253"><ele>283.59999999999997</ele><time>2026-03-29T09:22:06.999Z</time></trkpt><trkpt lat="43.2517980123355" lon="11.668960072934508"><ele>284.0</ele><time>2026-03-29T09:22:07.999Z</time></trkpt><trkpt lat="43.251761768614735" lon="11.668844304873847"><ele>284.0</ele><time>2026-03-29T09:22:08.999Z</time></trkpt><trkpt lat="43.251725247015855" lon="11.668726905841222"><ele>284.0</ele><time>2026-03-29T09:22:09.999Z</time></trkpt><trkpt lat="43.25168896636637" lon="11.668609989950996"><ele>284.0</ele><time>2026-03-29T09:22:10.999Z</time></trkpt><trkpt lat="43.25165297105177" lon="11.668494185248228"><ele>284.0</ele><time>2026-03-29T09:22:11.999Z</time></trkpt><trkpt lat="43.2516184246135" lon="11.668377350833847"><ele>284.0</ele><time>2026-03-29T09:22:12.999Z</time></trkpt><trkpt lat="43.251584007045" lon="11.668260456754622"><ele>284.2</ele><time>2026-03-29T09:22:13.999Z</time></trkpt><trkpt lat="43.251548490987986" lon="11.668144790699868"><ele>284.4</ele><time>2026-03-29T09:22:14.999Z</time></trkpt><trkpt lat="43.25151286338549" lon="11.668028157488047"><ele>284.6</ele><time>2026-03-29T09:22:16Z</time></trkpt><trkpt lat="43.251480203672244" lon="11.667909269375809"><ele>284.8</ele><time>2026-03-29T09:22:17Z</time></trkpt><trkpt lat="43.251449294277016" lon="11.667791510418587"><ele>285.0</ele><time>2026-03-29T09:22:18Z</time></trkpt><trkpt lat="43.25141919498984" lon="11.667675609751498"><ele>285.0</ele><time>2026-03-29T09:22:19Z</time></trkpt><trkpt lat="43.251390537062434" lon="11.667558623705549"><ele>285.0</ele><time>2026-03-29T09:22:20Z</time></trkpt><trkpt lat="43.251362905815206" lon="11.667444332986856"><ele>285.0</ele><time>2026-03-29T09:22:21Z</time></trkpt><trkpt lat="43.25133564965892" lon="11.66733130961348"><ele>285.0</ele><time>2026-03-29T09:22:22Z</time></trkpt><trkpt lat="43.25130733730269" lon="11.66722059482379"><ele>285.0</ele><time>2026-03-29T09:22:23Z</time></trkpt><trkpt lat="43.25128233774117" lon="11.667108648230355"><ele>285.0</ele><time>2026-03-29T09:22:24Z</time></trkpt><trkpt lat="43.251257933522176" lon="11.666994523546906"><ele>285.2</ele><time>2026-03-29T09:22:25Z</time></trkpt><trkpt lat="43.25123016030681" lon="11.666880027749965"><ele>285.4</ele><time>2026-03-29T09:22:26Z</time></trkpt><trkpt lat="43.25119991370356" lon="11.66676633528771"><ele>285.6</ele><time>2026-03-29T09:22:27Z</time></trkpt><trkpt lat="43.251169580762244" lon="11.666648923201008"><ele>285.8</ele><time>2026-03-29T09:22:28Z</time></trkpt><trkpt lat="43.25114015027308" lon="11.666530394629946"><ele>286.0</ele><time>2026-03-29T09:22:29Z</time></trkpt><trkpt lat="43.251109387244654" lon="11.666411227873787"><ele>286.0</ele><time>2026-03-29T09:22:30Z</time></trkpt><trkpt lat="43.251078053700994" lon="11.666291313983352"><ele>286.0</ele><time>2026-03-29T09:22:31Z</time></trkpt><trkpt lat="43.25104784553934" lon="11.666170720111422"><ele>286.0</ele><time>2026-03-29T09:22:32Z</time></trkpt><trkpt lat="43.25101916164031" lon="11.666048004989719"><ele>286.0</ele><time>2026-03-29T09:22:33Z</time></trkpt><trkpt lat="43.250988195672086" lon="11.665924665726708"><ele>286.0</ele><time>2026-03-29T09:22:34Z</time></trkpt><trkpt lat="43.25095740736995" lon="11.66580132101059"><ele>287.2</ele><time>2026-03-29T09:22:35Z</time></trkpt><trkpt lat="43.25092721573532" lon="11.665678120525456"><ele>288.40000000000003</ele><time>2026-03-29T09:22:36Z</time></trkpt><trkpt lat="43.250895540819315" lon="11.665556744144972"><ele>289.6</ele><time>2026-03-29T09:22:37Z</time></trkpt><trkpt lat="43.25086382659861" lon="11.665436687267338"><ele>290.8</ele><time>2026-03-29T09:22:38Z</time></trkpt><trkpt lat="43.25083235777778" lon="11.665317300388978"><ele>292.0</ele><time>2026-03-29T09:22:39Z</time></trkpt><trkpt lat="43.25080119289443" lon="11.6651990471507"><ele>292.6</ele><time>2026-03-29T09:22:40Z</time></trkpt><trkpt lat="43.25077142917332" lon="11.6650815684734"><ele>293.2</ele><time>2026-03-29T09:22:41Z</time></trkpt><trkpt lat="43.250742645414896" lon="11.664964437281759"><ele>293.8</ele><time>2026-03-29T09:22:42Z</time></trkpt><trkpt lat="43.25071447256117" lon="11.66484721248124"><ele>294.4</ele><time>2026-03-29T09:22:43Z</time></trkpt><trkpt lat="43.2506863095901" lon="11.664730577056915"><ele>295.0</ele><time>2026-03-29T09:22:44Z</time></trkpt><trkpt lat="43.25065731736651" lon="11.664613550219837"><ele>295.0</ele><time>2026-03-29T09:22:45Z</time></trkpt><trkpt lat="43.250628863612334" lon="11.664497807182455"><ele>295.0</ele><time>2026-03-29T09:22:46Z</time></trkpt><trkpt lat="43.250602753981674" lon="11.664380930359709"><ele>295.0</ele><time>2026-03-29T09:22:47Z</time></trkpt><trkpt lat="43.250581369701365" lon="11.664261236694228"><ele>295.0</ele><time>2026-03-29T09:22:48Z</time></trkpt><trkpt lat="43.25056356132138" lon="11.66414118748708"><ele>295.0</ele><time>2026-03-29T09:22:49Z</time></trkpt><trkpt lat="43.25054808983283" lon="11.664019228209497"><ele>295.0</ele><time>2026-03-29T09:22:50Z</time></trkpt><trkpt lat="43.25053112068979" lon="11.66389809058715"><ele>293.8333333333333</ele><time>2026-03-29T09:22:51Z</time></trkpt><trkpt lat="43.250519191726966" lon="11.663778621079766"><ele>292.66666666666663</ele><time>2026-03-29T09:22:52Z</time></trkpt><trkpt lat="43.25051095035718" lon="11.663660324617398"><ele>291.5</ele><time>2026-03-29T09:22:53Z</time></trkpt><trkpt lat="43.25050019167222" lon="11.663545118065267"><ele>290.3333333333333</ele><time>2026-03-29T09:22:54Z</time></trkpt><trkpt lat="43.25048734075631" lon="11.663430665451447"><ele>289.1666666666667</ele><time>2026-03-29T09:22:55Z</time></trkpt><trkpt lat="43.2504748697138" lon="11.663319031018904"><ele>288.0</ele><time>2026-03-29T09:22:56Z</time></trkpt><trkpt lat="43.25046394354229" lon="11.663208767879617"><ele>288.0</ele><time>2026-03-29T09:22:57Z</time></trkpt><trkpt lat="43.250453771054616" lon="11.66309771809609"><ele>288.0</ele><time>2026-03-29T09:22:57.999Z</time></trkpt><trkpt lat="43.25044206312431" lon="11.662988764010816"><ele>288.0</ele><time>2026-03-29T09:22:58.999Z</time></trkpt><trkpt lat="43.250429108325825" lon="11.6628794333101"><ele>288.0</ele><time>2026-03-29T09:22:59.999Z</time></trkpt><trkpt lat="43.250415686081105" lon="11.662768385501943"><ele>288.0</ele><time>2026-03-29T09:23:00.999Z</time></trkpt><trkpt lat="43.250402405506954" lon="11.662656783483767"><ele>288.0</ele><time>2026-03-29T09:23:01.999Z</time></trkpt><trkpt lat="43.2503883177564" lon="11.662544576738176"><ele>288.3333333333333</ele><time>2026-03-29T09:23:02.999Z</time></trkpt><trkpt lat="43.25037087373348" lon="11.662432741834099"><ele>288.6666666666667</ele><time>2026-03-29T09:23:03.999Z</time></trkpt><trkpt lat="43.25035503352435" lon="11.662322538016442"><ele>289.0</ele><time>2026-03-29T09:23:04.999Z</time></trkpt><trkpt lat="43.25034164635152" lon="11.662208732611456"><ele>289.33333333333337</ele><time>2026-03-29T09:23:05.999Z</time></trkpt><trkpt lat="43.25032660415616" lon="11.662096857261831"><ele>289.6666666666667</ele><time>2026-03-29T09:23:06.999Z</time></trkpt><trkpt lat="43.25030995155187" lon="11.661984001989639"><ele>290.0</ele><time>2026-03-29T09:23:07.999Z</time></trkpt><trkpt lat="43.2502935613971" lon="11.661869656235158"><ele>290.1666666666667</ele><time>2026-03-29T09:23:08.999Z</time></trkpt><trkpt lat="43.25027947463071" lon="11.661755817379149"><ele>290.33333333333337</ele><time>2026-03-29T09:23:09.999Z</time></trkpt><trkpt lat="43.25027175854836" lon="11.66164056835009"><ele>290.5</ele><time>2026-03-29T09:23:10.999Z</time></trkpt><trkpt lat="43.25027238912987" lon="11.661526137546014"><ele>290.6666666666667</ele><time>2026-03-29T09:23:11.999Z</time></trkpt><trkpt lat="43.25027816275102" lon="11.661410688782706"><ele>290.8333333333333</ele><time>2026-03-29T09:23:12.999Z</time></trkpt><trkpt lat="43.25028458474522" lon="11.661298332354757"><ele>291.0</ele><time>2026-03-29T09:23:13.999Z</time></trkpt><trkpt lat="43.25029294571217" lon="11.66118589378513"><ele>290.3333333333333</ele><time>2026-03-29T09:23:14.999Z</time></trkpt><trkpt lat="43.25030233970618" lon="11.661076187965936"><ele>289.6666666666667</ele><time>2026-03-29T09:23:15.999Z</time></trkpt><trkpt lat="43.250305950968105" lon="11.660967142040201"><ele>289.0</ele><time>2026-03-29T09:23:16.999Z</time></trkpt><trkpt lat="43.25030695043592" lon="11.660855368382087"><ele>288.33333333333337</ele><time>2026-03-29T09:23:17.999Z</time></trkpt><trkpt lat="43.25030648917862" lon="11.660743355820472"><ele>287.6666666666667</ele><time>2026-03-29T09:23:18.999Z</time></trkpt><trkpt lat="43.25030224434076" lon="11.660628836477597"><ele>287.0</ele><time>2026-03-29T09:23:19.999Z</time></trkpt><trkpt lat="43.2503028409046" lon="11.660515655843264"><ele>287.0</ele><time>2026-03-29T09:23:20.999Z</time></trkpt><trkpt lat="43.25030220311078" lon="11.660403250728711"><ele>287.0</ele><time>2026-03-29T09:23:21.999Z</time></trkpt><trkpt lat="43.25030161614303" lon="11.660290094225482"><ele>287.0</ele><time>2026-03-29T09:23:22.999Z</time></trkpt><trkpt lat="43.250301962746704" lon="11.660178579490978"><ele>287.0</ele><time>2026-03-29T09:23:23.999Z</time></trkpt><trkpt lat="43.25030078723995" lon="11.6600670454081"><ele>287.0</ele><time>2026-03-29T09:23:24.999Z</time></trkpt><trkpt lat="43.2502972109004" lon="11.659955039876062"><ele>287.0</ele><time>2026-03-29T09:23:25.999Z</time></trkpt><trkpt lat="43.25028932510768" lon="11.659843973878099"><ele>286.6666666666667</ele><time>2026-03-29T09:23:26.999Z</time></trkpt><trkpt lat="43.25027915426308" lon="11.65973453774179"><ele>286.33333333333337</ele><time>2026-03-29T09:23:27.999Z</time></trkpt><trkpt lat="43.25026330803356" lon="11.659626411256745"><ele>286.0</ele><time>2026-03-29T09:23:28.999Z</time></trkpt><trkpt lat="43.25024191375004" lon="11.659519596803197"><ele>285.6666666666667</ele><time>2026-03-29T09:23:29.999Z</time></trkpt><trkpt lat="43.25021822884343" lon="11.659412921613765"><ele>285.3333333333333</ele><time>2026-03-29T09:23:30.999Z</time></trkpt><trkpt lat="43.25019870543523" lon="11.659304905988277"><ele>285.0</ele><time>2026-03-29T09:23:31.999Z</time></trkpt><trkpt lat="43.250174729948206" lon="11.659195894038513"><ele>285.0</ele><time>2026-03-29T09:23:32.999Z</time></trkpt><trkpt lat="43.25014773650752" lon="11.659088552015941"><ele>285.0</ele><time>2026-03-29T09:23:33.999Z</time></trkpt><trkpt lat="43.25012005394282" lon="11.658982358167137"><ele>285.0</ele><time>2026-03-29T09:23:34.999Z</time></trkpt><trkpt lat="43.25008900907754" lon="11.658877258427886"><ele>285.0</ele><time>2026-03-29T09:23:35.999Z</time></trkpt><trkpt lat="43.25005571918595" lon="11.658772606156875"><ele>285.0</ele><time>2026-03-29T09:23:36.999Z</time></trkpt><trkpt lat="43.25000908002607" lon="11.658676775191728"><ele>285.0</ele><time>2026-03-29T09:23:37.999Z</time></trkpt><trkpt lat="43.249949431477084" lon="11.658593971533486"><ele>285.6666666666667</ele><time>2026-03-29T09:23:38.999Z</time></trkpt><trkpt lat="43.24987906123103" lon="11.658523863711098"><ele>286.3333333333333</ele><time>2026-03-29T09:23:39.999Z</time></trkpt><trkpt lat="43.24980532204218" lon="11.658457343817343"><ele>287.0</ele><time>2026-03-29T09:23:40.999Z</time></trkpt><trkpt lat="43.24972680722797" lon="11.65839794432193"><ele>287.66666666666663</ele><time>2026-03-29T09:23:41.999Z</time></trkpt><trkpt lat="43.249649761517894" lon="11.658343086017558"><ele>288.3333333333333</ele><time>2026-03-29T09:23:42.999Z</time></trkpt><trkpt lat="43.2495721148022" lon="11.658285458944714"><ele>289.0</ele><time>2026-03-29T09:23:43.999Z</time></trkpt><trkpt lat="43.24949676352731" lon="11.65822493937563"><ele>289.16666666666663</ele><time>2026-03-29T09:23:44.999Z</time></trkpt><trkpt lat="43.249423137941214" lon="11.658160675154114"><ele>289.3333333333333</ele><time>2026-03-29T09:23:45.999Z</time></trkpt><trkpt lat="43.24935580349749" lon="11.658085758538848"><ele>289.5</ele><time>2026-03-29T09:23:46.999Z</time></trkpt><trkpt lat="43.2492961290423" lon="11.658000335755938"><ele>289.6666666666667</ele><time>2026-03-29T09:23:47.999Z</time></trkpt><trkpt lat="43.24924290831024" lon="11.657908056061798"><ele>289.83333333333337</ele><time>2026-03-29T09:23:48.999Z</time></trkpt><trkpt lat="43.24920715899379" lon="11.657798478359696"><ele>290.0</ele><time>2026-03-29T09:23:49.999Z</time></trkpt><trkpt lat="43.249182051105194" lon="11.65768620415058"><ele>290.6666666666667</ele><time>2026-03-29T09:23:50.999Z</time></trkpt><trkpt lat="43.2491664541998" lon="11.65756981881478"><ele>291.33333333333337</ele><time>2026-03-29T09:23:51.999Z</time></trkpt><trkpt lat="43.24916054207117" lon="11.657451892316422"><ele>292.0</ele><time>2026-03-29T09:23:52.999Z</time></trkpt><trkpt lat="43.24915805594946" lon="11.657332363183908"><ele>292.6666666666667</ele><time>2026-03-29T09:23:53.999Z</time></trkpt><trkpt lat="43.24915995940482" lon="11.657214548485687"><ele>293.3333333333333</ele><time>2026-03-29T09:23:54.999Z</time></trkpt><trkpt lat="43.24916250137401" lon="11.657096505880492"><ele>294.0</ele><time>2026-03-29T09:23:55.999Z</time></trkpt><trkpt lat="43.24916610332559" lon="11.656978924942933"><ele>294.3333333333333</ele><time>2026-03-29T09:23:56.999Z</time></trkpt><trkpt lat="43.249172321099195" lon="11.656860413663207"><ele>294.6666666666667</ele><time>2026-03-29T09:23:57.999Z</time></trkpt><trkpt lat="43.24917862744915" lon="11.656742499268931"><ele>295.0</ele><time>2026-03-29T09:23:58.999Z</time></trkpt><trkpt lat="43.249183485881275" lon="11.656625630259573"><ele>295.33333333333337</ele><time>2026-03-29T09:23:59.999Z</time></trkpt><trkpt lat="43.249189460630134" lon="11.656509386086563"><ele>295.6666666666667</ele><time>2026-03-29T09:24:00.999Z</time></trkpt><trkpt lat="43.249192504599215" lon="11.6563945382745"><ele>296.0</ele><time>2026-03-29T09:24:01.999Z</time></trkpt><trkpt lat="43.24919483145336" lon="11.65627911451906"><ele>296.0</ele><time>2026-03-29T09:24:02.999Z</time></trkpt><trkpt lat="43.24918286648975" lon="11.656164084662677"><ele>296.0</ele><time>2026-03-29T09:24:03.999Z</time></trkpt><trkpt lat="43.249165344902856" lon="11.656051386908112"><ele>296.0</ele><time>2026-03-29T09:24:04.999Z</time></trkpt><trkpt lat="43.249133985207465" lon="11.655943646130353"><ele>296.0</ele><time>2026-03-29T09:24:05.999Z</time></trkpt><trkpt lat="43.249102487091335" lon="11.655839062867281"><ele>296.0</ele><time>2026-03-29T09:24:06.999Z</time></trkpt><trkpt lat="43.24906724435197" lon="11.65573652348123"><ele>296.0</ele><time>2026-03-29T09:24:07.999Z</time></trkpt><trkpt lat="43.249030817507226" lon="11.655632195640555"><ele>295.5</ele><time>2026-03-29T09:24:08.999Z</time></trkpt><trkpt lat="43.24899556229052" lon="11.655529478368917"><ele>295.0</ele><time>2026-03-29T09:24:09.999Z</time></trkpt><trkpt lat="43.248961000534344" lon="11.655425658171957"><ele>294.5</ele><time>2026-03-29T09:24:10.999Z</time></trkpt><trkpt lat="43.24892625698748" lon="11.655319704196174"><ele>294.0</ele><time>2026-03-29T09:24:11.999Z</time></trkpt><trkpt lat="43.24889494845871" lon="11.655209599969035"><ele>293.5</ele><time>2026-03-29T09:24:12.999Z</time></trkpt><trkpt lat="43.24886520186465" lon="11.65509682221543"><ele>293.0</ele><time>2026-03-29T09:24:13.999Z</time></trkpt><trkpt lat="43.24883577468073" lon="11.654982573233369"><ele>292.0</ele><time>2026-03-29T09:24:14.999Z</time></trkpt><trkpt lat="43.248813002654394" lon="11.654865569910129"><ele>291.0</ele><time>2026-03-29T09:24:15.999Z</time></trkpt><trkpt lat="43.24879567498223" lon="11.654748772143973"><ele>290.0</ele><time>2026-03-29T09:24:16.999Z</time></trkpt><trkpt lat="43.248784672899895" lon="11.654627303807093"><ele>289.0</ele><time>2026-03-29T09:24:17.999Z</time></trkpt><trkpt lat="43.248777480252684" lon="11.654505438077308"><ele>288.0</ele><time>2026-03-29T09:24:18.999Z</time></trkpt><trkpt lat="43.24877689324802" lon="11.654380996973082"><ele>287.0</ele><time>2026-03-29T09:24:19.999Z</time></trkpt><trkpt lat="43.24877655400578" lon="11.65425726288411"><ele>287.0</ele><time>2026-03-29T09:24:20.999Z</time></trkpt><trkpt lat="43.24877447545511" lon="11.654133440396778"><ele>287.0</ele><time>2026-03-29T09:24:22Z</time></trkpt><trkpt lat="43.2487721187694" lon="11.654009926033627"><ele>287.0</ele><time>2026-03-29T09:24:23Z</time></trkpt><trkpt lat="43.24876794527701" lon="11.65388683747597"><ele>287.0</ele><time>2026-03-29T09:24:24Z</time></trkpt><trkpt lat="43.248760581560695" lon="11.653763859643666"><ele>287.0</ele><time>2026-03-29T09:24:25Z</time></trkpt><trkpt lat="43.248749742621655" lon="11.653640013419409"><ele>286.8</ele><time>2026-03-29T09:24:26Z</time></trkpt><trkpt lat="43.24873713080361" lon="11.653516850882328"><ele>286.6</ele><time>2026-03-29T09:24:27Z</time></trkpt><trkpt lat="43.248725368444056" lon="11.653393066814195"><ele>286.40000000000003</ele><time>2026-03-29T09:24:28Z</time></trkpt><trkpt lat="43.24871424219024" lon="11.653270180569992"><ele>286.2</ele><time>2026-03-29T09:24:29Z</time></trkpt><trkpt lat="43.24870448996381" lon="11.653145910239875"><ele>286.0</ele><time>2026-03-29T09:24:30Z</time></trkpt><trkpt lat="43.24869202792036" lon="11.653020173363442"><ele>286.0</ele><time>2026-03-29T09:24:31Z</time></trkpt><trkpt lat="43.24867951752167" lon="11.652891298459856"><ele>286.0</ele><time>2026-03-29T09:24:32Z</time></trkpt><trkpt lat="43.248668694761314" lon="11.65276309267643"><ele>286.0</ele><time>2026-03-29T09:24:33Z</time></trkpt><trkpt lat="43.24865735578699" lon="11.652632808327715"><ele>286.0</ele><time>2026-03-29T09:24:34Z</time></trkpt><trkpt lat="43.24864629864328" lon="11.652503686703874"><ele>286.0</ele><time>2026-03-29T09:24:35Z</time></trkpt><trkpt lat="43.248636272716325" lon="11.652372899354935"><ele>286.0</ele><time>2026-03-29T09:24:36Z</time></trkpt><trkpt lat="43.248627644403605" lon="11.652243226113862"><ele>286.0</ele><time>2026-03-29T09:24:37Z</time></trkpt><trkpt lat="43.248618856850825" lon="11.6521124658809"><ele>286.0</ele><time>2026-03-29T09:24:38Z</time></trkpt><trkpt lat="43.24860979285414" lon="11.65198291530107"><ele>286.0</ele><time>2026-03-29T09:24:39Z</time></trkpt><trkpt lat="43.24859864945974" lon="11.651854309980495"><ele>286.0</ele><time>2026-03-29T09:24:40Z</time></trkpt><trkpt lat="43.248587139685796" lon="11.651723748192238"><ele>286.2</ele><time>2026-03-29T09:24:41Z</time></trkpt><trkpt lat="43.248579020064014" lon="11.651593142652233"><ele>286.40000000000003</ele><time>2026-03-29T09:24:42Z</time></trkpt><trkpt lat="43.24857400385623" lon="11.651463243706521"><ele>286.6</ele><time>2026-03-29T09:24:43Z</time></trkpt><trkpt lat="43.24856875828051" lon="11.651332315940298"><ele>286.8</ele><time>2026-03-29T09:24:44Z</time></trkpt><trkpt lat="43.24856666009393" lon="11.65120494029419"><ele>287.0</ele><time>2026-03-29T09:24:45Z</time></trkpt><trkpt lat="43.2485713684104" lon="11.651075561692664"><ele>287.0</ele><time>2026-03-29T09:24:46Z</time></trkpt><trkpt lat="43.24858444319596" lon="11.6509494453489"><ele>287.0</ele><time>2026-03-29T09:24:47Z</time></trkpt><trkpt lat="43.24860354853324" lon="11.65082544816534"><ele>287.0</ele><time>2026-03-29T09:24:48Z</time></trkpt><trkpt lat="43.24862643627833" lon="11.650703249743247"><ele>287.0</ele><time>2026-03-29T09:24:49Z</time></trkpt><trkpt lat="43.248651364347495" lon="11.650580213343392"><ele>287.0</ele><time>2026-03-29T09:24:50Z</time></trkpt><trkpt lat="43.24867645153363" lon="11.650460118213608"><ele>287.0</ele><time>2026-03-29T09:24:51Z</time></trkpt><trkpt lat="43.24870377434895" lon="11.650339406518803"><ele>287.0</ele><time>2026-03-29T09:24:52Z</time></trkpt><trkpt lat="43.24873022920659" lon="11.65021991717837"><ele>287.0</ele><time>2026-03-29T09:24:53Z</time></trkpt><trkpt lat="43.24875638639759" lon="11.65010200755977"><ele>287.0</ele><time>2026-03-29T09:24:54Z</time></trkpt><trkpt lat="43.24878109011594" lon="11.649983431589847"><ele>287.0</ele><time>2026-03-29T09:24:55Z</time></trkpt><trkpt lat="43.24880345118777" lon="11.649864860357674"><ele>287.1666666666667</ele><time>2026-03-29T09:24:56Z</time></trkpt><trkpt lat="43.24882432826042" lon="11.64974792263968"><ele>287.33333333333337</ele><time>2026-03-29T09:24:57Z</time></trkpt><trkpt lat="43.24884629388325" lon="11.649634068211602"><ele>287.5</ele><time>2026-03-29T09:24:58Z</time></trkpt><trkpt lat="43.24886724664538" lon="11.649519453019487"><ele>287.6666666666667</ele><time>2026-03-29T09:24:59Z</time></trkpt><trkpt lat="43.24888671027861" lon="11.64940511395436"><ele>287.8333333333333</ele><time>2026-03-29T09:25:00Z</time></trkpt><trkpt lat="43.2489067062581" lon="11.649290744283732"><ele>288.0</ele><time>2026-03-29T09:25:01Z</time></trkpt><trkpt lat="43.24892546871633" lon="11.649176293214621"><ele>288.0</ele><time>2026-03-29T09:25:02Z</time></trkpt><trkpt lat="43.248945313005905" lon="11.649062403246278"><ele>288.0</ele><time>2026-03-29T09:25:03Z</time></trkpt><trkpt lat="43.24896542964666" lon="11.648949349014464"><ele>288.0</ele><time>2026-03-29T09:25:04Z</time></trkpt><trkpt lat="43.248986595436" lon="11.648834996145501"><ele>288.0</ele><time>2026-03-29T09:25:05Z</time></trkpt><trkpt lat="43.249007606450874" lon="11.648721537535241"><ele>288.0</ele><time>2026-03-29T09:25:06Z</time></trkpt><trkpt lat="43.24902649503659" lon="11.648607058116056"><ele>288.0</ele><time>2026-03-29T09:25:07Z</time></trkpt><trkpt lat="43.24904519092521" lon="11.648492091103718"><ele>288.3333333333333</ele><time>2026-03-29T09:25:08Z</time></trkpt><trkpt lat="43.24906436936695" lon="11.648378094345954"><ele>288.6666666666667</ele><time>2026-03-29T09:25:09Z</time></trkpt><trkpt lat="43.24908562649075" lon="11.648262975987329"><ele>289.0</ele><time>2026-03-29T09:25:10Z</time></trkpt><trkpt lat="43.24910620041501" lon="11.64814874052663"><ele>289.33333333333337</ele><time>2026-03-29T09:25:11Z</time></trkpt><trkpt lat="43.249125204055844" lon="11.648033110893746"><ele>289.6666666666667</ele><time>2026-03-29T09:25:12Z</time></trkpt><trkpt lat="43.249144595789616" lon="11.647916774425216"><ele>290.0</ele><time>2026-03-29T09:25:13Z</time></trkpt><trkpt lat="43.24916485915665" lon="11.647797952194361"><ele>289.6</ele><time>2026-03-29T09:25:14Z</time></trkpt><trkpt lat="43.249185404097794" lon="11.647678702652124"><ele>289.2</ele><time>2026-03-29T09:25:15Z</time></trkpt><trkpt lat="43.24920763471727" lon="11.647559084595349"><ele>288.8</ele><time>2026-03-29T09:25:15.999Z</time></trkpt><trkpt lat="43.249230540342644" lon="11.647439724805794"><ele>288.4</ele><time>2026-03-29T09:25:16.999Z</time></trkpt><trkpt lat="43.24925096479116" lon="11.647317435894243"><ele>288.0</ele><time>2026-03-29T09:25:17.999Z</time></trkpt><trkpt lat="43.249271923762635" lon="11.647194819939543"><ele>288.0</ele><time>2026-03-29T09:25:18.999Z</time></trkpt><trkpt lat="43.24929062619598" lon="11.647073594027576"><ele>288.0</ele><time>2026-03-29T09:25:19.999Z</time></trkpt><trkpt lat="43.24931157759339" lon="11.646953929742747"><ele>288.0</ele><time>2026-03-29T09:25:20.999Z</time></trkpt><trkpt lat="43.24933615296946" lon="11.646837466277494"><ele>288.0</ele><time>2026-03-29T09:25:21.999Z</time></trkpt><trkpt lat="43.24935735066294" lon="11.646727626297489"><ele>288.0</ele><time>2026-03-29T09:25:22.999Z</time></trkpt><trkpt lat="43.24937139211998" lon="11.646627388272458"><ele>288.0</ele><time>2026-03-29T09:25:23.999Z</time></trkpt><trkpt lat="43.24937781085664" lon="11.646453853848119"><ele>288.0</ele><time>2026-03-29T09:25:25.999Z</time></trkpt><trkpt lat="43.24937197682106" lon="11.646299787928001"><ele>288.0</ele><time>2026-03-29T09:25:27.999Z</time></trkpt><trkpt lat="43.249340217649845" lon="11.646167146415639"><ele>288.0</ele><time>2026-03-29T09:25:29.999Z</time></trkpt><trkpt lat="43.24935754364087" lon="11.646020990666214"><ele>288.0</ele><time>2026-03-29T09:25:31.999Z</time></trkpt><trkpt lat="43.24941211854855" lon="11.645872864528474"><ele>288.0</ele><time>2026-03-29T09:25:33.999Z</time></trkpt><trkpt lat="43.249456337593074" lon="11.645800843980846"><ele>288.5</ele><time>2026-03-29T09:25:34.999Z</time></trkpt><trkpt lat="43.24950139833314" lon="11.645727576321091"><ele>289.0</ele><time>2026-03-29T09:25:35.999Z</time></trkpt><trkpt lat="43.24954730252405" lon="11.645649608132604"><ele>289.5</ele><time>2026-03-29T09:25:36.999Z</time></trkpt><trkpt lat="43.249600051795646" lon="11.645593361333383"><ele>290.0</ele><time>2026-03-29T09:25:37.999Z</time></trkpt><trkpt lat="43.24967284458473" lon="11.645475554263465"><ele>290.5</ele><time>2026-03-29T09:25:39.999Z</time></trkpt><trkpt lat="43.24974212807199" lon="11.645364391103659"><ele>291.0</ele><time>2026-03-29T09:25:41.999Z</time></trkpt><trkpt lat="43.24966292215846" lon="11.645491193296763"><ele>291.0</ele><time>2026-03-29T09:25:47.999Z</time></trkpt><trkpt lat="43.24961214284027" lon="11.645567395660986"><ele>291.0</ele><time>2026-03-29T09:25:48.999Z</time></trkpt><trkpt lat="43.249570847339484" lon="11.645649735712912"><ele>291.0</ele><time>2026-03-29T09:25:49.999Z</time></trkpt><trkpt lat="43.24951776589862" lon="11.645719911002498"><ele>291.0</ele><time>2026-03-29T09:25:50.999Z</time></trkpt><trkpt lat="43.249454194008024" lon="11.645815249326017"><ele>291.0</ele><time>2026-03-29T09:25:52.999Z</time></trkpt><trkpt lat="43.249482481264515" lon="11.645903950922069"><ele>291.0</ele><time>2026-03-29T09:25:55.999Z</time></trkpt><trkpt lat="43.24928689948662" lon="11.64599666490048"><ele>291.0</ele><time>2026-03-29T09:25:56.999Z</time></trkpt><trkpt lat="43.24938393250537" lon="11.645796044826499"><ele>291.0</ele><time>2026-03-29T09:25:57.999Z</time></trkpt><trkpt lat="43.249309220211394" lon="11.646112384182453"><ele>291.0</ele><time>2026-03-29T09:26:01.999Z</time></trkpt><trkpt lat="43.24932355728156" lon="11.646197560272773"><ele>290.5</ele><time>2026-03-29T09:26:02.999Z</time></trkpt><trkpt lat="43.249351102202866" lon="11.646280643169138"><ele>290.0</ele><time>2026-03-29T09:26:03.999Z</time></trkpt><trkpt lat="43.24936439653185" lon="11.646398564351898"><ele>289.5</ele><time>2026-03-29T09:26:05.999Z</time></trkpt><trkpt lat="43.249494113255984" lon="11.646420186812893"><ele>289.0</ele><time>2026-03-29T09:26:10.999Z</time></trkpt><trkpt lat="43.24953740819712" lon="11.646356725707912"><ele>288.5</ele><time>2026-03-29T09:26:13.999Z</time></trkpt><trkpt lat="43.24949782159863" lon="11.646424651245342"><ele>288.0</ele><time>2026-03-29T09:26:20.999Z</time></trkpt><trkpt lat="43.24942028308513" lon="11.64645941852455"><ele>288.0</ele><time>2026-03-29T09:26:23.999Z</time></trkpt><trkpt lat="43.24936177159331" lon="11.646426835121371"><ele>288.0</ele><time>2026-03-29T09:26:25.999Z</time></trkpt><trkpt lat="43.24934819617327" lon="11.646324089581327"><ele>288.0</ele><time>2026-03-29T09:26:28Z</time></trkpt><trkpt lat="43.24933559138966" lon="11.646190681879501"><ele>288.0</ele><time>2026-03-29T09:26:30Z</time></trkpt><trkpt lat="43.249350086157634" lon="11.646069868423584"><ele>288.0</ele><time>2026-03-29T09:26:32Z</time></trkpt><trkpt lat="43.24938531296457" lon="11.645959951847475"><ele>288.0</ele><time>2026-03-29T09:26:34Z</time></trkpt><trkpt lat="43.249437891622094" lon="11.645853936154603"><ele>288.75</ele><time>2026-03-29T09:26:36Z</time></trkpt><trkpt lat="43.24950435454948" lon="11.64574535313896"><ele>289.5</ele><time>2026-03-29T09:26:38Z</time></trkpt><trkpt lat="43.24957791677138" lon="11.645609785835761"><ele>290.25</ele><time>2026-03-29T09:26:40Z</time></trkpt><trkpt lat="43.24965477638178" lon="11.645484709868471"><ele>291.0</ele><time>2026-03-29T09:26:42Z</time></trkpt><trkpt lat="43.249737167436756" lon="11.64536584579102"><ele>291.1428571428571</ele><time>2026-03-29T09:26:44Z</time></trkpt><trkpt lat="43.24977735874899" lon="11.64529452163371"><ele>291.2857142857143</ele><time>2026-03-29T09:26:45Z</time></trkpt><trkpt lat="43.24981748956696" lon="11.64522027733345"><ele>291.42857142857144</ele><time>2026-03-29T09:26:46Z</time></trkpt><trkpt lat="43.24986041986696" lon="11.64515045616215"><ele>291.57142857142856</ele><time>2026-03-29T09:26:47Z</time></trkpt><trkpt lat="43.24990870459999" lon="11.645084765163471"><ele>291.7142857142857</ele><time>2026-03-29T09:26:48Z</time></trkpt><trkpt lat="43.249956909693594" lon="11.64501406475914"><ele>291.85714285714283</ele><time>2026-03-29T09:26:49Z</time></trkpt><trkpt lat="43.250002502322246" lon="11.644936976836112"><ele>292.0</ele><time>2026-03-29T09:26:50Z</time></trkpt><trkpt lat="43.25004765688793" lon="11.644855688959975"><ele>291.5</ele><time>2026-03-29T09:26:51Z</time></trkpt><trkpt lat="43.25009594942366" lon="11.644779873314892"><ele>291.0</ele><time>2026-03-29T09:26:52Z</time></trkpt><trkpt lat="43.25013868806748" lon="11.644701214821472"><ele>290.5</ele><time>2026-03-29T09:26:53Z</time></trkpt><trkpt lat="43.250188647472385" lon="11.644623697200933"><ele>290.0</ele><time>2026-03-29T09:26:54Z</time></trkpt><trkpt lat="43.25023703639098" lon="11.644540625834315"><ele>289.5</ele><time>2026-03-29T09:26:55Z</time></trkpt><trkpt lat="43.25028521283278" lon="11.644461691122054"><ele>289.0</ele><time>2026-03-29T09:26:56Z</time></trkpt><trkpt lat="43.250335869037336" lon="11.644380891486126"><ele>289.0</ele><time>2026-03-29T09:26:57Z</time></trkpt><trkpt lat="43.25038715319542" lon="11.644301233708147"><ele>289.0</ele><time>2026-03-29T09:26:58Z</time></trkpt><trkpt lat="43.25043978187695" lon="11.644220161410058"><ele>289.0</ele><time>2026-03-29T09:26:59Z</time></trkpt><trkpt lat="43.250493612564505" lon="11.644136406865472"><ele>289.0</ele><time>2026-03-29T09:27:00Z</time></trkpt><trkpt lat="43.25054634382306" lon="11.644052679120236"><ele>289.0</ele><time>2026-03-29T09:27:01Z</time></trkpt><trkpt lat="43.25059958106746" lon="11.643967786140472"><ele>289.0</ele><time>2026-03-29T09:27:02Z</time></trkpt><trkpt lat="43.25065169764494" lon="11.643883829456003"><ele>289.0</ele><time>2026-03-29T09:27:03Z</time></trkpt><trkpt lat="43.25069912879225" lon="11.643796128083558"><ele>289.0</ele><time>2026-03-29T09:27:04Z</time></trkpt><trkpt lat="43.250749331470516" lon="11.643709387816804"><ele>289.0</ele><time>2026-03-29T09:27:05Z</time></trkpt><trkpt lat="43.250802423236024" lon="11.643628851995961"><ele>289.0</ele><time>2026-03-29T09:27:06Z</time></trkpt><trkpt lat="43.25085492734098" lon="11.643546097210292"><ele>289.0</ele><time>2026-03-29T09:27:07Z</time></trkpt><trkpt lat="43.25090502680731" lon="11.64345945886909"><ele>289.0</ele><time>2026-03-29T09:27:08Z</time></trkpt><trkpt lat="43.25095848760098" lon="11.643375703524224"><ele>288.66666666666663</ele><time>2026-03-29T09:27:09Z</time></trkpt><trkpt lat="43.25101353084722" lon="11.643295387341487"><ele>288.3333333333333</ele><time>2026-03-29T09:27:10Z</time></trkpt><trkpt lat="43.25106657870383" lon="11.64321173201283"><ele>288.0</ele><time>2026-03-29T09:27:11Z</time></trkpt><trkpt lat="43.251122438616136" lon="11.643128929897838"><ele>287.6666666666667</ele><time>2026-03-29T09:27:12Z</time></trkpt><trkpt lat="43.25117638812591" lon="11.64304725406851"><ele>287.33333333333337</ele><time>2026-03-29T09:27:13Z</time></trkpt><trkpt lat="43.2512287997601" lon="11.642956853067872"><ele>287.0</ele><time>2026-03-29T09:27:14Z</time></trkpt><trkpt lat="43.25128133440359" lon="11.642864186483216"><ele>287.33333333333337</ele><time>2026-03-29T09:27:15Z</time></trkpt><trkpt lat="43.25133686585825" lon="11.642771206717711"><ele>287.6666666666667</ele><time>2026-03-29T09:27:16Z</time></trkpt><trkpt lat="43.2513913319502" lon="11.64267699865976"><ele>288.0</ele><time>2026-03-29T09:27:17Z</time></trkpt><trkpt lat="43.25143920082817" lon="11.642577748595397"><ele>288.3333333333333</ele><time>2026-03-29T09:27:18Z</time></trkpt><trkpt lat="43.25148453031951" lon="11.642478939216945"><ele>288.66666666666663</ele><time>2026-03-29T09:27:19Z</time></trkpt><trkpt lat="43.251524870973846" lon="11.642374911195574"><ele>289.0</ele><time>2026-03-29T09:27:20Z</time></trkpt><trkpt lat="43.25155847795192" lon="11.642269759852539"><ele>289.16666666666663</ele><time>2026-03-29T09:27:21Z</time></trkpt><trkpt lat="43.25159062756737" lon="11.6421686733574"><ele>289.3333333333333</ele><time>2026-03-29T09:27:22Z</time></trkpt><trkpt lat="43.25162088408293" lon="11.642066172158321"><ele>289.5</ele><time>2026-03-29T09:27:23Z</time></trkpt><trkpt lat="43.25164684466354" lon="11.641967970890525"><ele>289.6666666666667</ele><time>2026-03-29T09:27:24Z</time></trkpt><trkpt lat="43.25167207469995" lon="11.641869554207032"><ele>289.83333333333337</ele><time>2026-03-29T09:27:25Z</time></trkpt><trkpt lat="43.251699809134976" lon="11.641771048315393"><ele>290.0</ele><time>2026-03-29T09:27:26Z</time></trkpt><trkpt lat="43.25172005721869" lon="11.641662431148271"><ele>290.0</ele><time>2026-03-29T09:27:26.999Z</time></trkpt><trkpt lat="43.25174561307374" lon="11.641558295662122"><ele>290.0</ele><time>2026-03-29T09:27:27.999Z</time></trkpt><trkpt lat="43.251772759894955" lon="11.641453950353176"><ele>290.0</ele><time>2026-03-29T09:27:28.999Z</time></trkpt><trkpt lat="43.2517928879193" lon="11.641351973628337"><ele>290.0</ele><time>2026-03-29T09:27:29.999Z</time></trkpt><trkpt lat="43.25182229597533" lon="11.641241823351079"><ele>290.0</ele><time>2026-03-29T09:27:30.999Z</time></trkpt><trkpt lat="43.2518573549506" lon="11.641132555920745"><ele>290.0</ele><time>2026-03-29T09:27:31.999Z</time></trkpt><trkpt lat="43.25188569567809" lon="11.641022239630177"><ele>290.0</ele><time>2026-03-29T09:27:32.999Z</time></trkpt><trkpt lat="43.25191351601484" lon="11.640914105105473"><ele>290.0</ele><time>2026-03-29T09:27:33.999Z</time></trkpt><trkpt lat="43.25193799529123" lon="11.64080003871715"><ele>290.0</ele><time>2026-03-29T09:27:34.999Z</time></trkpt><trkpt lat="43.25197075883535" lon="11.64069225829483"><ele>290.0</ele><time>2026-03-29T09:27:35.999Z</time></trkpt><trkpt lat="43.25200301629018" lon="11.640582973109117"><ele>290.0</ele><time>2026-03-29T09:27:36.999Z</time></trkpt><trkpt lat="43.25202029177494" lon="11.640476322044647"><ele>290.0</ele><time>2026-03-29T09:27:37.999Z</time></trkpt><trkpt lat="43.252043463649414" lon="11.640360841876438"><ele>290.0</ele><time>2026-03-29T09:27:38.999Z</time></trkpt><trkpt lat="43.25206948998392" lon="11.640245591063316"><ele>290.0</ele><time>2026-03-29T09:27:39.999Z</time></trkpt><trkpt lat="43.252100058324345" lon="11.640140993663112"><ele>290.0</ele><time>2026-03-29T09:27:40.999Z</time></trkpt><trkpt lat="43.252118809440304" lon="11.640043497304834"><ele>290.0</ele><time>2026-03-29T09:27:41.999Z</time></trkpt><trkpt lat="43.25213045239908" lon="11.63993418259343"><ele>290.0</ele><time>2026-03-29T09:27:42.999Z</time></trkpt><trkpt lat="43.25214620584896" lon="11.639821840299911"><ele>290.0</ele><time>2026-03-29T09:27:43.999Z</time></trkpt><trkpt lat="43.25216036973597" lon="11.639711093371083"><ele>290.0</ele><time>2026-03-29T09:27:44.999Z</time></trkpt><trkpt lat="43.25217241174907" lon="11.639602983668109"><ele>290.0</ele><time>2026-03-29T09:27:45.999Z</time></trkpt><trkpt lat="43.25218400391547" lon="11.639495425239623"><ele>290.0</ele><time>2026-03-29T09:27:46.999Z</time></trkpt><trkpt lat="43.25219462389314" lon="11.639387181741808"><ele>290.0</ele><time>2026-03-29T09:27:47.999Z</time></trkpt><trkpt lat="43.2522107223957" lon="11.639273800908112"><ele>290.0</ele><time>2026-03-29T09:27:48.999Z</time></trkpt><trkpt lat="43.252233968900015" lon="11.639164390994857"><ele>290.0</ele><time>2026-03-29T09:27:49.999Z</time></trkpt><trkpt lat="43.252268150416086" lon="11.639058035930903"><ele>289.83333333333337</ele><time>2026-03-29T09:27:50.999Z</time></trkpt><trkpt lat="43.25231591274827" lon="11.638964315170933"><ele>289.6666666666667</ele><time>2026-03-29T09:27:51.999Z</time></trkpt><trkpt lat="43.25236918364924" lon="11.638877130293569"><ele>289.5</ele><time>2026-03-29T09:27:52.999Z</time></trkpt><trkpt lat="43.252423271229674" lon="11.638789113349484"><ele>289.3333333333333</ele><time>2026-03-29T09:27:53.999Z</time></trkpt><trkpt lat="43.25247837734336" lon="11.638702782158635"><ele>289.16666666666663</ele><time>2026-03-29T09:27:54.999Z</time></trkpt><trkpt lat="43.25253845258768" lon="11.638614299358606"><ele>289.0</ele><time>2026-03-29T09:27:55.999Z</time></trkpt><trkpt lat="43.252599978711636" lon="11.638527736151008"><ele>289.3333333333333</ele><time>2026-03-29T09:27:56.999Z</time></trkpt><trkpt lat="43.25265534922628" lon="11.638440035945466"><ele>289.66666666666663</ele><time>2026-03-29T09:27:57.999Z</time></trkpt><trkpt lat="43.25270978785516" lon="11.63835467946915"><ele>290.0</ele><time>2026-03-29T09:27:58.999Z</time></trkpt><trkpt lat="43.25276868334351" lon="11.638270360695726"><ele>290.3333333333333</ele><time>2026-03-29T09:27:59.999Z</time></trkpt><trkpt lat="43.252829542291444" lon="11.638174353205503"><ele>290.6666666666667</ele><time>2026-03-29T09:28:00.999Z</time></trkpt><trkpt lat="43.252888473307465" lon="11.638084548955668"><ele>291.0</ele><time>2026-03-29T09:28:01.999Z</time></trkpt><trkpt lat="43.25294691513171" lon="11.637998385939532"><ele>291.0</ele><time>2026-03-29T09:28:02.999Z</time></trkpt><trkpt lat="43.253007459561786" lon="11.637907580528646"><ele>291.0</ele><time>2026-03-29T09:28:03.999Z</time></trkpt><trkpt lat="43.253065666654905" lon="11.637818185037965"><ele>291.0</ele><time>2026-03-29T09:28:04.999Z</time></trkpt><trkpt lat="43.253125301619946" lon="11.637725698381322"><ele>291.0</ele><time>2026-03-29T09:28:05.999Z</time></trkpt><trkpt lat="43.253186701794746" lon="11.637633052753229"><ele>291.0</ele><time>2026-03-29T09:28:06.999Z</time></trkpt><trkpt lat="43.25324932166035" lon="11.637544362413195"><ele>291.0</ele><time>2026-03-29T09:28:07.999Z</time></trkpt><trkpt lat="43.25331133003195" lon="11.637453970911002"><ele>291.0</ele><time>2026-03-29T09:28:08.999Z</time></trkpt><trkpt lat="43.2533735240568" lon="11.637364180219365"><ele>291.0</ele><time>2026-03-29T09:28:09.999Z</time></trkpt><trkpt lat="43.2534361783688" lon="11.637274552900832"><ele>291.0</ele><time>2026-03-29T09:28:10.999Z</time></trkpt><trkpt lat="43.25349944712301" lon="11.637183231802213"><ele>291.0</ele><time>2026-03-29T09:28:11.999Z</time></trkpt><trkpt lat="43.25356521354772" lon="11.637095523153835"><ele>291.0</ele><time>2026-03-29T09:28:12.999Z</time></trkpt><trkpt lat="43.25363459957228" lon="11.637006092269022"><ele>291.2</ele><time>2026-03-29T09:28:13.999Z</time></trkpt><trkpt lat="43.25370350625877" lon="11.63691202928868"><ele>291.40000000000003</ele><time>2026-03-29T09:28:14.999Z</time></trkpt><trkpt lat="43.2537741226918" lon="11.636823186672869"><ele>291.6</ele><time>2026-03-29T09:28:15.999Z</time></trkpt><trkpt lat="43.25384529346784" lon="11.636736289130134"><ele>291.8</ele><time>2026-03-29T09:28:16.999Z</time></trkpt><trkpt lat="43.2539158679849" lon="11.636652386949752"><ele>292.0</ele><time>2026-03-29T09:28:17.999Z</time></trkpt><trkpt lat="43.253985408050234" lon="11.63657135843532"><ele>292.0</ele><time>2026-03-29T09:28:18.999Z</time></trkpt><trkpt lat="43.25405639851214" lon="11.636488392631975"><ele>292.0</ele><time>2026-03-29T09:28:19.999Z</time></trkpt><trkpt lat="43.254124026060275" lon="11.636408588180874"><ele>292.0</ele><time>2026-03-29T09:28:20.999Z</time></trkpt><trkpt lat="43.25419119088609" lon="11.636327287747612"><ele>292.0</ele><time>2026-03-29T09:28:21.999Z</time></trkpt><trkpt lat="43.254266669475975" lon="11.636250734518017"><ele>292.0</ele><time>2026-03-29T09:28:22.999Z</time></trkpt><trkpt lat="43.254339626448406" lon="11.636174378876433"><ele>292.8</ele><time>2026-03-29T09:28:23.999Z</time></trkpt><trkpt lat="43.2544127115434" lon="11.636095746139395"><ele>293.6</ele><time>2026-03-29T09:28:24.999Z</time></trkpt><trkpt lat="43.254486225544625" lon="11.636015787656518"><ele>294.40000000000003</ele><time>2026-03-29T09:28:25.999Z</time></trkpt><trkpt lat="43.25456250170735" lon="11.6359340174432"><ele>295.2</ele><time>2026-03-29T09:28:26.999Z</time></trkpt><trkpt lat="43.25464540562952" lon="11.635857484736277"><ele>296.0</ele><time>2026-03-29T09:28:27.999Z</time></trkpt><trkpt lat="43.2547301984427" lon="11.63578029434704"><ele>295.40000000000003</ele><time>2026-03-29T09:28:28.999Z</time></trkpt><trkpt lat="43.25481227892767" lon="11.635699335068743"><ele>294.8</ele><time>2026-03-29T09:28:29.999Z</time></trkpt><trkpt lat="43.25489221013367" lon="11.63562037894766"><ele>294.20000000000005</ele><time>2026-03-29T09:28:30.999Z</time></trkpt><trkpt lat="43.254972245360484" lon="11.635544908394705"><ele>293.6</ele><time>2026-03-29T09:28:31.999Z</time></trkpt><trkpt lat="43.25504837683187" lon="11.635464893647049"><ele>293.0</ele><time>2026-03-29T09:28:32.999Z</time></trkpt><trkpt lat="43.25512909704533" lon="11.635387711115245"><ele>293.0</ele><time>2026-03-29T09:28:34Z</time></trkpt><trkpt lat="43.255210886734645" lon="11.635314203736218"><ele>293.0</ele><time>2026-03-29T09:28:35Z</time></trkpt><trkpt lat="43.25528536097096" lon="11.63523651618885"><ele>293.0</ele><time>2026-03-29T09:28:36Z</time></trkpt><trkpt lat="43.25536083662584" lon="11.635155915859047"><ele>293.0</ele><time>2026-03-29T09:28:37Z</time></trkpt><trkpt lat="43.255433680017525" lon="11.63508117048825"><ele>293.0</ele><time>2026-03-29T09:28:38Z</time></trkpt><trkpt lat="43.255508091891286" lon="11.63500291646254"><ele>292.6</ele><time>2026-03-29T09:28:39Z</time></trkpt><trkpt lat="43.255584335571484" lon="11.634919371554696"><ele>292.20000000000005</ele><time>2026-03-29T09:28:40Z</time></trkpt><trkpt lat="43.25565916517979" lon="11.634834758690403"><ele>291.8</ele><time>2026-03-29T09:28:41Z</time></trkpt><trkpt lat="43.25573262179762" lon="11.63475371869313"><ele>291.40000000000003</ele><time>2026-03-29T09:28:42Z</time></trkpt><trkpt lat="43.25580610707648" lon="11.634669830266397"><ele>291.0</ele><time>2026-03-29T09:28:43Z</time></trkpt><trkpt lat="43.25587883857077" lon="11.634588421799581"><ele>291.0</ele><time>2026-03-29T09:28:44Z</time></trkpt><trkpt lat="43.25595874221094" lon="11.634503713314754"><ele>291.0</ele><time>2026-03-29T09:28:45Z</time></trkpt><trkpt lat="43.256036506641735" lon="11.634424490181056"><ele>291.0</ele><time>2026-03-29T09:28:46Z</time></trkpt><trkpt lat="43.25611300690909" lon="11.634346769311264"><ele>291.0</ele><time>2026-03-29T09:28:47Z</time></trkpt><trkpt lat="43.25618966713766" lon="11.634270688782854"><ele>291.0</ele><time>2026-03-29T09:28:48Z</time></trkpt><trkpt lat="43.256258635761384" lon="11.634208717700755"><ele>291.5</ele><time>2026-03-29T09:28:49Z</time></trkpt><trkpt lat="43.25632845063814" lon="11.634140764566178"><ele>292.0</ele><time>2026-03-29T09:28:50Z</time></trkpt><trkpt lat="43.25639924317578" lon="11.634071140241032"><ele>292.5</ele><time>2026-03-29T09:28:51Z</time></trkpt><trkpt lat="43.25647130014766" lon="11.633996597499234"><ele>293.0</ele><time>2026-03-29T09:28:52Z</time></trkpt><trkpt lat="43.25654060465063" lon="11.633926738858822"><ele>293.5</ele><time>2026-03-29T09:28:53Z</time></trkpt><trkpt lat="43.25660717741349" lon="11.633851073562989"><ele>294.0</ele><time>2026-03-29T09:28:54Z</time></trkpt><trkpt lat="43.256685915985344" lon="11.633782349208904"><ele>294.0</ele><time>2026-03-29T09:28:55Z</time></trkpt><trkpt lat="43.25676144770178" lon="11.63372184786058"><ele>294.0</ele><time>2026-03-29T09:28:56Z</time></trkpt><trkpt lat="43.25683375643912" lon="11.633655847699638"><ele>294.0</ele><time>2026-03-29T09:28:57Z</time></trkpt><trkpt lat="43.2569046128167" lon="11.63358641603918"><ele>294.0</ele><time>2026-03-29T09:28:58Z</time></trkpt><trkpt lat="43.256977944981436" lon="11.633523909055441"><ele>294.0</ele><time>2026-03-29T09:28:59Z</time></trkpt><trkpt lat="43.25705253361177" lon="11.633462422486966"><ele>294.0</ele><time>2026-03-29T09:29:00Z</time></trkpt><trkpt lat="43.2571277623691" lon="11.633399830693396"><ele>294.59999999999997</ele><time>2026-03-29T09:29:01Z</time></trkpt><trkpt lat="43.25720292040837" lon="11.633337219890628"><ele>295.2</ele><time>2026-03-29T09:29:02Z</time></trkpt><trkpt lat="43.25727945935343" lon="11.633276232080183"><ele>295.79999999999995</ele><time>2026-03-29T09:29:03Z</time></trkpt><trkpt lat="43.25735993789847" lon="11.633212471869955"><ele>296.4</ele><time>2026-03-29T09:29:04Z</time></trkpt><trkpt lat="43.25744040018015" lon="11.63314588844079"><ele>297.0</ele><time>2026-03-29T09:29:05Z</time></trkpt><trkpt lat="43.257519468600314" lon="11.633088173702799"><ele>297.0</ele><time>2026-03-29T09:29:06Z</time></trkpt><trkpt lat="43.25759930262107" lon="11.633034330573246"><ele>297.0</ele><time>2026-03-29T09:29:07Z</time></trkpt><trkpt lat="43.25768287650172" lon="11.632973669107038"><ele>297.0</ele><time>2026-03-29T09:29:08Z</time></trkpt><trkpt lat="43.25776363423353" lon="11.632923232889187"><ele>297.0</ele><time>2026-03-29T09:29:09Z</time></trkpt><trkpt lat="43.257850390709415" lon="11.632869420652195"><ele>297.0</ele><time>2026-03-29T09:29:10Z</time></trkpt><trkpt lat="43.257930968014165" lon="11.632820443794474"><ele>297.2</ele><time>2026-03-29T09:29:11Z</time></trkpt><trkpt lat="43.25801614798591" lon="11.632771488093265"><ele>297.4</ele><time>2026-03-29T09:29:12Z</time></trkpt><trkpt lat="43.25810099803308" lon="11.632723665872067"><ele>297.6</ele><time>2026-03-29T09:29:13Z</time></trkpt><trkpt lat="43.258186091206824" lon="11.632676220238832"><ele>297.8</ele><time>2026-03-29T09:29:14Z</time></trkpt><trkpt lat="43.258270085133766" lon="11.63263216247947"><ele>298.0</ele><time>2026-03-29T09:29:15Z</time></trkpt><trkpt lat="43.25835414202645" lon="11.632591412888678"><ele>298.0</ele><time>2026-03-29T09:29:16Z</time></trkpt><trkpt lat="43.258438667430276" lon="11.632554383807202"><ele>298.0</ele><time>2026-03-29T09:29:17Z</time></trkpt><trkpt lat="43.25852419454517" lon="11.63250845873524"><ele>298.0</ele><time>2026-03-29T09:29:18Z</time></trkpt><trkpt lat="43.258605974747965" lon="11.632464381414225"><ele>298.0</ele><time>2026-03-29T09:29:19Z</time></trkpt><trkpt lat="43.25868667265434" lon="11.632424665988863"><ele>298.0</ele><time>2026-03-29T09:29:20Z</time></trkpt><trkpt lat="43.25876971608225" lon="11.63238795470172"><ele>298.0</ele><time>2026-03-29T09:29:21Z</time></trkpt><trkpt lat="43.258848988153325" lon="11.632350236087431"><ele>298.0</ele><time>2026-03-29T09:29:22Z</time></trkpt><trkpt lat="43.258928427846065" lon="11.632314032275373"><ele>298.0</ele><time>2026-03-29T09:29:23Z</time></trkpt><trkpt lat="43.259006999803226" lon="11.63227807145881"><ele>298.0</ele><time>2026-03-29T09:29:24Z</time></trkpt><trkpt lat="43.25908891897572" lon="11.632240604850491"><ele>298.0</ele><time>2026-03-29T09:29:25Z</time></trkpt><trkpt lat="43.25916749187053" lon="11.632201832019541"><ele>298.0</ele><time>2026-03-29T09:29:26Z</time></trkpt><trkpt lat="43.25924640627037" lon="11.632165156432498"><ele>298.0</ele><time>2026-03-29T09:29:27Z</time></trkpt><trkpt lat="43.25932641426722" lon="11.632128790042396"><ele>297.66666666666663</ele><time>2026-03-29T09:29:28Z</time></trkpt><trkpt lat="43.2594095690906" lon="11.632089607852507"><ele>297.3333333333333</ele><time>2026-03-29T09:29:29Z</time></trkpt><trkpt lat="43.25949232650951" lon="11.632046470369767"><ele>297.0</ele><time>2026-03-29T09:29:30Z</time></trkpt><trkpt lat="43.25957669309325" lon="11.63200263918249"><ele>296.6666666666667</ele><time>2026-03-29T09:29:31Z</time></trkpt><trkpt lat="43.2596631076541" lon="11.631960944204797"><ele>296.33333333333337</ele><time>2026-03-29T09:29:32Z</time></trkpt><trkpt lat="43.25974892960574" lon="11.631924949798538"><ele>296.0</ele><time>2026-03-29T09:29:33Z</time></trkpt><trkpt lat="43.25983638258532" lon="11.631884062301939"><ele>297.0</ele><time>2026-03-29T09:29:34Z</time></trkpt><trkpt lat="43.2599210583849" lon="11.631841904222359"><ele>298.0</ele><time>2026-03-29T09:29:35Z</time></trkpt><trkpt lat="43.26000511079537" lon="11.63180089767573"><ele>299.0</ele><time>2026-03-29T09:29:36Z</time></trkpt><trkpt lat="43.26008927045255" lon="11.631761431196873"><ele>300.0</ele><time>2026-03-29T09:29:37Z</time></trkpt><trkpt lat="43.26017663865033" lon="11.63171872956492"><ele>301.0</ele><time>2026-03-29T09:29:38Z</time></trkpt><trkpt lat="43.26026374047643" lon="11.631678078150081"><ele>301.0</ele><time>2026-03-29T09:29:39Z</time></trkpt><trkpt lat="43.26035120802908" lon="11.631636975424396"><ele>301.0</ele><time>2026-03-29T09:29:40Z</time></trkpt><trkpt lat="43.260439071823946" lon="11.631594836427844"><ele>301.0</ele><time>2026-03-29T09:29:41Z</time></trkpt><trkpt lat="43.260527461361654" lon="11.631551034410228"><ele>301.0</ele><time>2026-03-29T09:29:42Z</time></trkpt><trkpt lat="43.260616307538385" lon="11.63150987006248"><ele>301.0</ele><time>2026-03-29T09:29:43Z</time></trkpt><trkpt lat="43.26070628078488" lon="11.631467152842008"><ele>301.0</ele><time>2026-03-29T09:29:44Z</time></trkpt><trkpt lat="43.26079587550126" lon="11.631423691183226"><ele>301.0</ele><time>2026-03-29T09:29:44.999Z</time></trkpt><trkpt lat="43.26088449816077" lon="11.631380957574097"><ele>301.0</ele><time>2026-03-29T09:29:45.999Z</time></trkpt><trkpt lat="43.26096893586817" lon="11.631337451042144"><ele>301.0</ele><time>2026-03-29T09:29:46.999Z</time></trkpt><trkpt lat="43.26104688676865" lon="11.631292864872682"><ele>301.0</ele><time>2026-03-29T09:29:47.999Z</time></trkpt><trkpt lat="43.261128449405625" lon="11.63125985049828"><ele>301.0</ele><time>2026-03-29T09:29:48.999Z</time></trkpt><trkpt lat="43.2612108043152" lon="11.63122236733132"><ele>301.0</ele><time>2026-03-29T09:29:49.999Z</time></trkpt><trkpt lat="43.26128935385906" lon="11.63117923726837"><ele>301.0</ele><time>2026-03-29T09:29:50.999Z</time></trkpt><trkpt lat="43.26136673776108" lon="11.63114278881262"><ele>301.0</ele><time>2026-03-29T09:29:51.999Z</time></trkpt><trkpt lat="43.26144528714436" lon="11.631105867064623"><ele>301.0</ele><time>2026-03-29T09:29:52.999Z</time></trkpt><trkpt lat="43.26152461738836" lon="11.631069339149114"><ele>301.0</ele><time>2026-03-29T09:29:53.999Z</time></trkpt><trkpt lat="43.261607354818764" lon="11.631033114611284"><ele>301.0</ele><time>2026-03-29T09:29:54.999Z</time></trkpt><trkpt lat="43.261690646298376" lon="11.63099139171712"><ele>301.66666666666663</ele><time>2026-03-29T09:29:55.999Z</time></trkpt><trkpt lat="43.26177294876236" lon="11.630948414037643"><ele>302.3333333333333</ele><time>2026-03-29T09:29:56.999Z</time></trkpt><trkpt lat="43.26185570586708" lon="11.630905726549114"><ele>303.0</ele><time>2026-03-29T09:29:57.999Z</time></trkpt><trkpt lat="43.261941552025995" lon="11.630869926683703"><ele>303.6666666666667</ele><time>2026-03-29T09:29:58.999Z</time></trkpt><trkpt lat="43.26202665335708" lon="11.630846910577008"><ele>304.33333333333337</ele><time>2026-03-29T09:29:59.999Z</time></trkpt><trkpt lat="43.2621116734898" lon="11.630846971479944"><ele>305.0</ele><time>2026-03-29T09:30:00.999Z</time></trkpt><trkpt lat="43.262194723624006" lon="11.63087397233708"><ele>305.0</ele><time>2026-03-29T09:30:01.999Z</time></trkpt><trkpt lat="43.26227063523306" lon="11.63092444791824"><ele>305.0</ele><time>2026-03-29T09:30:02.999Z</time></trkpt><trkpt lat="43.26233475924207" lon="11.630999366759614"><ele>305.0</ele><time>2026-03-29T09:30:03.999Z</time></trkpt><trkpt lat="43.26239276252" lon="11.631090816547651"><ele>305.0</ele><time>2026-03-29T09:30:04.999Z</time></trkpt><trkpt lat="43.26244459248755" lon="11.631189404753348"><ele>305.0</ele><time>2026-03-29T09:30:05.999Z</time></trkpt><trkpt lat="43.26249069629745" lon="11.631303453214997"><ele>305.0</ele><time>2026-03-29T09:30:06.999Z</time></trkpt><trkpt lat="43.262537935281635" lon="11.631418353210266"><ele>304.0</ele><time>2026-03-29T09:30:07.999Z</time></trkpt><trkpt lat="43.26259167047033" lon="11.63153582105062"><ele>303.0</ele><time>2026-03-29T09:30:08.999Z</time></trkpt><trkpt lat="43.26264660695656" lon="11.631652064388001"><ele>302.0</ele><time>2026-03-29T09:30:09.999Z</time></trkpt><trkpt lat="43.26270202810507" lon="11.631766733188494"><ele>301.0</ele><time>2026-03-29T09:30:10.999Z</time></trkpt><trkpt lat="43.26275315980616" lon="11.631879733984206"><ele>300.0</ele><time>2026-03-29T09:30:11.999Z</time></trkpt><trkpt lat="43.26280044246473" lon="11.631984205550072"><ele>299.4</ele><time>2026-03-29T09:30:12.999Z</time></trkpt><trkpt lat="43.262846965181865" lon="11.632091313107882"><ele>298.8</ele><time>2026-03-29T09:30:13.999Z</time></trkpt><trkpt lat="43.26289472327325" lon="11.63219854809413"><ele>298.2</ele><time>2026-03-29T09:30:14.999Z</time></trkpt><trkpt lat="43.262944682602914" lon="11.632301595336083"><ele>297.6</ele><time>2026-03-29T09:30:15.999Z</time></trkpt><trkpt lat="43.26299245421568" lon="11.632405504982842"><ele>297.0</ele><time>2026-03-29T09:30:16.999Z</time></trkpt><trkpt lat="43.263041131354626" lon="11.632509863566868"><ele>297.0</ele><time>2026-03-29T09:30:17.999Z</time></trkpt><trkpt lat="43.263088894741784" lon="11.632616646506184"><ele>297.0</ele><time>2026-03-29T09:30:18.999Z</time></trkpt><trkpt lat="43.26313841477136" lon="11.632721434539961"><ele>297.0</ele><time>2026-03-29T09:30:19.999Z</time></trkpt><trkpt lat="43.26318751264848" lon="11.63282048026156"><ele>297.0</ele><time>2026-03-29T09:30:20.999Z</time></trkpt><trkpt lat="43.26323700881468" lon="11.632919155212148"><ele>297.0</ele><time>2026-03-29T09:30:21.999Z</time></trkpt><trkpt lat="43.263287435391625" lon="11.63301484223009"><ele>297.0</ele><time>2026-03-29T09:30:22.999Z</time></trkpt><trkpt lat="43.263350412114505" lon="11.633091948389332"><ele>297.5</ele><time>2026-03-29T09:30:23.999Z</time></trkpt><trkpt lat="43.263421884635285" lon="11.633147837531382"><ele>298.0</ele><time>2026-03-29T09:30:24.999Z</time></trkpt><trkpt lat="43.2634988496524" lon="11.633191424947519"><ele>298.5</ele><time>2026-03-29T09:30:25.999Z</time></trkpt><trkpt lat="43.263581989409815" lon="11.633210691782866"><ele>299.0</ele><time>2026-03-29T09:30:26.999Z</time></trkpt><trkpt lat="43.263667387404695" lon="11.633205694628307"><ele>299.5</ele><time>2026-03-29T09:30:27.999Z</time></trkpt><trkpt lat="43.26375289566385" lon="11.633186124126189"><ele>300.0</ele><time>2026-03-29T09:30:28.999Z</time></trkpt><trkpt lat="43.26383663754781" lon="11.633147775323662"><ele>300.0</ele><time>2026-03-29T09:30:29.999Z</time></trkpt><trkpt lat="43.26391957033993" lon="11.633095536937995"><ele>300.0</ele><time>2026-03-29T09:30:30.999Z</time></trkpt><trkpt lat="43.264003195165074" lon="11.633044674481178"><ele>300.0</ele><time>2026-03-29T09:30:31.999Z</time></trkpt><trkpt lat="43.264088340290456" lon="11.63299643409797"><ele>300.0</ele><time>2026-03-29T09:30:32.999Z</time></trkpt><trkpt lat="43.264175969263356" lon="11.632948283873645"><ele>300.0</ele><time>2026-03-29T09:30:33.999Z</time></trkpt><trkpt lat="43.26426718807556" lon="11.632903026979786"><ele>300.0</ele><time>2026-03-29T09:30:34.999Z</time></trkpt><trkpt lat="43.26435867603901" lon="11.63285450314796"><ele>300.0</ele><time>2026-03-29T09:30:35.999Z</time></trkpt><trkpt lat="43.26444829535485" lon="11.632802304472241"><ele>300.0</ele><time>2026-03-29T09:30:36.999Z</time></trkpt><trkpt lat="43.26453657383523" lon="11.632749587643243"><ele>300.0</ele><time>2026-03-29T09:30:37.999Z</time></trkpt><trkpt lat="43.26462091808388" lon="11.63269795032899"><ele>300.0</ele><time>2026-03-29T09:30:38.999Z</time></trkpt><trkpt lat="43.264705056376165" lon="11.632651444299933"><ele>300.0</ele><time>2026-03-29T09:30:40Z</time></trkpt><trkpt lat="43.26478676625419" lon="11.632606109572883"><ele>300.0</ele><time>2026-03-29T09:30:41Z</time></trkpt><trkpt lat="43.26487025214918" lon="11.632557445852642"><ele>300.0</ele><time>2026-03-29T09:30:42Z</time></trkpt><trkpt lat="43.26495227206762" lon="11.63250953979865"><ele>300.0</ele><time>2026-03-29T09:30:43Z</time></trkpt><trkpt lat="43.265033432920674" lon="11.632462550010784"><ele>300.0</ele><time>2026-03-29T09:30:44Z</time></trkpt><trkpt lat="43.26511188739054" lon="11.632415062683592"><ele>300.0</ele><time>2026-03-29T09:30:45Z</time></trkpt><trkpt lat="43.26519094798923" lon="11.632367469338497"><ele>300.0</ele><time>2026-03-29T09:30:46Z</time></trkpt><trkpt lat="43.265266400056305" lon="11.632319966337867"><ele>300.0</ele><time>2026-03-29T09:30:47Z</time></trkpt><trkpt lat="43.26532918121335" lon="11.632270295660893"><ele>300.0</ele><time>2026-03-29T09:30:48Z</time></trkpt><trkpt lat="43.26539050431015" lon="11.632232434809206"><ele>300.0</ele><time>2026-03-29T09:30:49Z</time></trkpt><trkpt lat="43.26545585325847" lon="11.632210492262375"><ele>300.0</ele><time>2026-03-29T09:30:50Z</time></trkpt><trkpt lat="43.26553244301053" lon="11.6321441357306"><ele>300.0</ele><time>2026-03-29T09:30:52Z</time></trkpt><trkpt lat="43.265611586538746" lon="11.632304868732131"><ele>299.99999999999994</ele><time>2026-03-29T09:30:53Z</time></trkpt><trkpt lat="43.26563628574827" lon="11.632385370208182"><ele>300.0</ele><time>2026-03-29T09:30:54Z</time></trkpt><trkpt lat="43.265673203610305" lon="11.632460565810991"><ele>300.0</ele><time>2026-03-29T09:30:55Z</time></trkpt><trkpt lat="43.265721911432244" lon="11.632534103397536"><ele>300.0</ele><time>2026-03-29T09:30:56Z</time></trkpt><trkpt lat="43.265773941298654" lon="11.632615749624277"><ele>300.0</ele><time>2026-03-29T09:30:57Z</time></trkpt><trkpt lat="43.26582497159519" lon="11.632702733554204"><ele>299.99999999999994</ele><time>2026-03-29T09:30:58Z</time></trkpt><trkpt lat="43.26587759881348" lon="11.632791040951224"><ele>300.0</ele><time>2026-03-29T09:30:59Z</time></trkpt><trkpt lat="43.26593557939395" lon="11.632872904162268"><ele>300.0</ele><time>2026-03-29T09:31:00Z</time></trkpt><trkpt lat="43.265990225261824" lon="11.632957365599077"><ele>300.0</ele><time>2026-03-29T09:31:01Z</time></trkpt><trkpt lat="43.266045876237264" lon="11.633049700157752"><ele>300.0</ele><time>2026-03-29T09:31:02Z</time></trkpt><trkpt lat="43.26610121121493" lon="11.633131626257295"><ele>300.0</ele><time>2026-03-29T09:31:03Z</time></trkpt><trkpt lat="43.266151568405256" lon="11.633215688256781"><ele>300.0</ele><time>2026-03-29T09:31:04Z</time></trkpt><trkpt lat="43.266205111126325" lon="11.63329690662078"><ele>300.0</ele><time>2026-03-29T09:31:05Z</time></trkpt><trkpt lat="43.26626166418845" lon="11.63337325275021"><ele>300.0</ele><time>2026-03-29T09:31:06Z</time></trkpt><trkpt lat="43.26632843732291" lon="11.633424108629113"><ele>300.0</ele><time>2026-03-29T09:31:07Z</time></trkpt><trkpt lat="43.26640174044211" lon="11.633457398752295"><ele>300.0</ele><time>2026-03-29T09:31:08Z</time></trkpt><trkpt lat="43.26647757205265" lon="11.63347354885898"><ele>300.0</ele><time>2026-03-29T09:31:09Z</time></trkpt><trkpt lat="43.26655202077468" lon="11.633476557329221"><ele>300.0</ele><time>2026-03-29T09:31:10Z</time></trkpt><trkpt lat="43.266631729988205" lon="11.633478391394295"><ele>300.0</ele><time>2026-03-29T09:31:11Z</time></trkpt><trkpt lat="43.26671522749517" lon="11.633471656522543"><ele>300.0</ele><time>2026-03-29T09:31:12Z</time></trkpt><trkpt lat="43.26679643550048" lon="11.633470114700806"><ele>300.0</ele><time>2026-03-29T09:31:13Z</time></trkpt><trkpt lat="43.26688008287682" lon="11.633473233589893"><ele>300.0</ele><time>2026-03-29T09:31:14Z</time></trkpt><trkpt lat="43.26696776328199" lon="11.633467494302142"><ele>300.0</ele><time>2026-03-29T09:31:15Z</time></trkpt><trkpt lat="43.2670447118359" lon="11.633470952618213"><ele>300.0</ele><time>2026-03-29T09:31:16Z</time></trkpt><trkpt lat="43.26713398047602" lon="11.633474055710012"><ele>300.0</ele><time>2026-03-29T09:31:17Z</time></trkpt><trkpt lat="43.26722085407048" lon="11.63347393853533"><ele>300.1666666666667</ele><time>2026-03-29T09:31:18Z</time></trkpt><trkpt lat="43.267311234400744" lon="11.633478589942461"><ele>300.3333333333333</ele><time>2026-03-29T09:31:19Z</time></trkpt><trkpt lat="43.26739735832513" lon="11.633483549505353"><ele>300.5</ele><time>2026-03-29T09:31:20Z</time></trkpt><trkpt lat="43.267486410325205" lon="11.633484493407169"><ele>300.66666666666663</ele><time>2026-03-29T09:31:21Z</time></trkpt><trkpt lat="43.26757578494858" lon="11.633482528149688"><ele>300.8333333333333</ele><time>2026-03-29T09:31:22Z</time></trkpt><trkpt lat="43.267667951588145" lon="11.63348908412201"><ele>301.0</ele><time>2026-03-29T09:31:23Z</time></trkpt><trkpt lat="43.2677600750172" lon="11.633484153744186"><ele>301.0</ele><time>2026-03-29T09:31:24Z</time></trkpt><trkpt lat="43.26785434149705" lon="11.633478633309146"><ele>301.0</ele><time>2026-03-29T09:31:25Z</time></trkpt><trkpt lat="43.26794803082187" lon="11.63348822293044"><ele>301.0</ele><time>2026-03-29T09:31:26Z</time></trkpt><trkpt lat="43.2680425063548" lon="11.63349662637532"><ele>301.0</ele><time>2026-03-29T09:31:27Z</time></trkpt><trkpt lat="43.26813718653042" lon="11.633501905695079"><ele>301.0</ele><time>2026-03-29T09:31:28Z</time></trkpt><trkpt lat="43.268229357440674" lon="11.633505823238526"><ele>301.0</ele><time>2026-03-29T09:31:29Z</time></trkpt><trkpt lat="43.26832455451475" lon="11.63350751362144"><ele>301.0</ele><time>2026-03-29T09:31:30Z</time></trkpt><trkpt lat="43.268418824727725" lon="11.633508154930862"><ele>301.0</ele><time>2026-03-29T09:31:31Z</time></trkpt><trkpt lat="43.26851393383166" lon="11.63350954868807"><ele>301.0</ele><time>2026-03-29T09:31:32Z</time></trkpt><trkpt lat="43.26861206779982" lon="11.633512822526288"><ele>301.0</ele><time>2026-03-29T09:31:33Z</time></trkpt><trkpt lat="43.26870761765296" lon="11.633517220181323"><ele>301.0</ele><time>2026-03-29T09:31:34Z</time></trkpt><trkpt lat="43.268802438050194" lon="11.633518417258161"><ele>301.0</ele><time>2026-03-29T09:31:35Z</time></trkpt><trkpt lat="43.26889548579485" lon="11.633520985440903"><ele>301.0</ele><time>2026-03-29T09:31:36Z</time></trkpt><trkpt lat="43.26899087211675" lon="11.633521219037204"><ele>301.0</ele><time>2026-03-29T09:31:37Z</time></trkpt><trkpt lat="43.26908706953925" lon="11.633521412886205"><ele>301.0</ele><time>2026-03-29T09:31:38Z</time></trkpt><trkpt lat="43.269180529829136" lon="11.633519236404792"><ele>301.0</ele><time>2026-03-29T09:31:39Z</time></trkpt><trkpt lat="43.26927481322963" lon="11.633512148760449"><ele>301.0</ele><time>2026-03-29T09:31:40Z</time></trkpt><trkpt lat="43.26936409322531" lon="11.633508291753602"><ele>301.0</ele><time>2026-03-29T09:31:41Z</time></trkpt><trkpt lat="43.269447050044384" lon="11.63348001241277"><ele>301.0</ele><time>2026-03-29T09:31:42Z</time></trkpt><trkpt lat="43.269531752866264" lon="11.633434614405099"><ele>301.0</ele><time>2026-03-29T09:31:43Z</time></trkpt><trkpt lat="43.2696148787042" lon="11.633374612977649"><ele>301.0</ele><time>2026-03-29T09:31:44Z</time></trkpt><trkpt lat="43.26969524264057" lon="11.633295069685543"><ele>301.0</ele><time>2026-03-29T09:31:45Z</time></trkpt><trkpt lat="43.269771760617" lon="11.633220164687042"><ele>301.0</ele><time>2026-03-29T09:31:46Z</time></trkpt><trkpt lat="43.26986401564654" lon="11.633181813321736"><ele>301.0</ele><time>2026-03-29T09:31:47Z</time></trkpt><trkpt lat="43.26996156248431" lon="11.633165128223373"><ele>301.0</ele><time>2026-03-29T09:31:48Z</time></trkpt><trkpt lat="43.2700579305901" lon="11.633146365744452"><ele>301.2</ele><time>2026-03-29T09:31:49Z</time></trkpt><trkpt lat="43.27015317830858" lon="11.633130960471407"><ele>301.40000000000003</ele><time>2026-03-29T09:31:50Z</time></trkpt><trkpt lat="43.27024871699768" lon="11.633114415562575"><ele>301.6</ele><time>2026-03-29T09:31:51Z</time></trkpt><trkpt lat="43.27034424732566" lon="11.633087065433926"><ele>301.8</ele><time>2026-03-29T09:31:52Z</time></trkpt><trkpt lat="43.270442885017886" lon="11.63306184775505"><ele>302.0</ele><time>2026-03-29T09:31:53Z</time></trkpt><trkpt lat="43.27054422188087" lon="11.633042183603033"><ele>302.6</ele><time>2026-03-29T09:31:54Z</time></trkpt><trkpt lat="43.270646725259944" lon="11.633021101218063"><ele>303.2</ele><time>2026-03-29T09:31:55Z</time></trkpt><trkpt lat="43.27074719253829" lon="11.632997495261712"><ele>303.8</ele><time>2026-03-29T09:31:56Z</time></trkpt><trkpt lat="43.27084431000403" lon="11.63298072310289"><ele>304.4</ele><time>2026-03-29T09:31:57Z</time></trkpt><trkpt lat="43.270939726287295" lon="11.632958572469827"><ele>305.0</ele><time>2026-03-29T09:31:58Z</time></trkpt><trkpt lat="43.271028483196886" lon="11.632936109770087"><ele>305.0</ele><time>2026-03-29T09:31:59Z</time></trkpt><trkpt lat="43.27110308140992" lon="11.632903925032222"><ele>305.0</ele><time>2026-03-29T09:32:00Z</time></trkpt><trkpt lat="43.27114648395196" lon="11.63282592633981"><ele>305.0</ele><time>2026-03-29T09:32:00.999Z</time></trkpt><trkpt lat="43.27116532191214" lon="11.632726448943558"><ele>305.0</ele><time>2026-03-29T09:32:01.999Z</time></trkpt><trkpt lat="43.271167723616365" lon="11.63262191887884"><ele>305.0</ele><time>2026-03-29T09:32:02.999Z</time></trkpt><trkpt lat="43.27115607889974" lon="11.632513386601195"><ele>305.0</ele><time>2026-03-29T09:32:03.999Z</time></trkpt><trkpt lat="43.271131324470204" lon="11.632397405415613"><ele>304.6666666666667</ele><time>2026-03-29T09:32:04.999Z</time></trkpt><trkpt lat="43.27111278763509" lon="11.632278015412728"><ele>304.33333333333337</ele><time>2026-03-29T09:32:05.999Z</time></trkpt><trkpt lat="43.27110367814941" lon="11.632158835812959"><ele>304.0</ele><time>2026-03-29T09:32:06.999Z</time></trkpt><trkpt lat="43.2710970662607" lon="11.6320366668571"><ele>303.6666666666667</ele><time>2026-03-29T09:32:07.999Z</time></trkpt><trkpt lat="43.27108837980872" lon="11.631909394988764"><ele>303.3333333333333</ele><time>2026-03-29T09:32:08.999Z</time></trkpt><trkpt lat="43.271076996661606" lon="11.631785588207043"><ele>303.0</ele><time>2026-03-29T09:32:09.999Z</time></trkpt><trkpt lat="43.2710682130285" lon="11.631662603625147"><ele>302.8</ele><time>2026-03-29T09:32:10.999Z</time></trkpt><trkpt lat="43.27106034938991" lon="11.631536072581124"><ele>302.6</ele><time>2026-03-29T09:32:11.999Z</time></trkpt><trkpt lat="43.27105310196549" lon="11.631409884062169"><ele>302.4</ele><time>2026-03-29T09:32:12.999Z</time></trkpt><trkpt lat="43.27105766747727" lon="11.631281992112799"><ele>302.2</ele><time>2026-03-29T09:32:13.999Z</time></trkpt><trkpt lat="43.27103307396756" lon="11.631169036798171"><ele>302.0</ele><time>2026-03-29T09:32:14.999Z</time></trkpt><trkpt lat="43.27102253511712" lon="11.631022338250697"><ele>302.0</ele><time>2026-03-29T09:32:15.999Z</time></trkpt><trkpt lat="43.27101485621869" lon="11.630898206382186"><ele>302.0</ele><time>2026-03-29T09:32:16.999Z</time></trkpt><trkpt lat="43.271006992148514" lon="11.630771082892444"><ele>302.0</ele><time>2026-03-29T09:32:17.999Z</time></trkpt><trkpt lat="43.27101517500301" lon="11.630644451018654"><ele>302.0</ele><time>2026-03-29T09:32:18.999Z</time></trkpt><trkpt lat="43.271006296277385" lon="11.630519937076523"><ele>302.0</ele><time>2026-03-29T09:32:19.999Z</time></trkpt><trkpt lat="43.27100091236314" lon="11.63039670253274"><ele>302.0</ele><time>2026-03-29T09:32:20.999Z</time></trkpt><trkpt lat="43.27099756706158" lon="11.630273867676879"><ele>302.0</ele><time>2026-03-29T09:32:21.999Z</time></trkpt><trkpt lat="43.27100237791095" lon="11.630150263124728"><ele>302.0</ele><time>2026-03-29T09:32:22.999Z</time></trkpt><trkpt lat="43.270991688300384" lon="11.630020552099701"><ele>302.0</ele><time>2026-03-29T09:32:23.999Z</time></trkpt><trkpt lat="43.27099648177438" lon="11.62989859431178"><ele>302.0</ele><time>2026-03-29T09:32:24.999Z</time></trkpt><trkpt lat="43.27098337203421" lon="11.629771036438898"><ele>302.0</ele><time>2026-03-29T09:32:25.999Z</time></trkpt><trkpt lat="43.27097635883415" lon="11.629644159382973"><ele>302.0</ele><time>2026-03-29T09:32:26.999Z</time></trkpt><trkpt lat="43.270975439504895" lon="11.629519365000666"><ele>302.0</ele><time>2026-03-29T09:32:27.999Z</time></trkpt><trkpt lat="43.27097524966086" lon="11.629392148916818"><ele>302.0</ele><time>2026-03-29T09:32:28.999Z</time></trkpt><trkpt lat="43.270977297537854" lon="11.62926541938405"><ele>302.0</ele><time>2026-03-29T09:32:29.999Z</time></trkpt><trkpt lat="43.27097843120077" lon="11.62913712890165"><ele>302.2</ele><time>2026-03-29T09:32:30.999Z</time></trkpt><trkpt lat="43.27097965159242" lon="11.629010537360465"><ele>302.4</ele><time>2026-03-29T09:32:31.999Z</time></trkpt><trkpt lat="43.27098407003484" lon="11.628876396825177"><ele>302.6</ele><time>2026-03-29T09:32:32.999Z</time></trkpt><trkpt lat="43.27095960498806" lon="11.62877052208153"><ele>302.8</ele><time>2026-03-29T09:32:33.999Z</time></trkpt><trkpt lat="43.27091604218417" lon="11.628665291716256"><ele>303.0</ele><time>2026-03-29T09:32:34.999Z</time></trkpt><trkpt lat="43.27086071842909" lon="11.628560381624062"><ele>302.8</ele><time>2026-03-29T09:32:35.999Z</time></trkpt><trkpt lat="43.27080129791253" lon="11.628465945091836"><ele>302.6</ele><time>2026-03-29T09:32:36.999Z</time></trkpt><trkpt lat="43.27073578566915" lon="11.628379404974353"><ele>302.4</ele><time>2026-03-29T09:32:37.999Z</time></trkpt><trkpt lat="43.27066228924573" lon="11.62830940130158"><ele>302.2</ele><time>2026-03-29T09:32:38.999Z</time></trkpt><trkpt lat="43.27059091527199" lon="11.62822987183941"><ele>302.0</ele><time>2026-03-29T09:32:39.999Z</time></trkpt><trkpt lat="43.270519771624826" lon="11.628156947121928"><ele>302.0</ele><time>2026-03-29T09:32:40.999Z</time></trkpt><trkpt lat="43.270439374027745" lon="11.628078941437819"><ele>302.0</ele><time>2026-03-29T09:32:41.999Z</time></trkpt><trkpt lat="43.27035992310875" lon="11.628001334240611"><ele>302.0</ele><time>2026-03-29T09:32:42.999Z</time></trkpt><trkpt lat="43.27028639437838" lon="11.62792797627622"><ele>302.0</ele><time>2026-03-29T09:32:43.999Z</time></trkpt><trkpt lat="43.270213198819775" lon="11.627852697523522"><ele>302.0</ele><time>2026-03-29T09:32:44.999Z</time></trkpt><trkpt lat="43.270139837565765" lon="11.627778302199152"><ele>302.2</ele><time>2026-03-29T09:32:46Z</time></trkpt><trkpt lat="43.2700680731676" lon="11.627710013573722"><ele>302.4</ele><time>2026-03-29T09:32:47Z</time></trkpt><trkpt lat="43.26998884846845" lon="11.627633019310045"><ele>302.6</ele><time>2026-03-29T09:32:48Z</time></trkpt><trkpt lat="43.26991200060773" lon="11.627557459217092"><ele>302.8</ele><time>2026-03-29T09:32:49Z</time></trkpt><trkpt lat="43.26983601683189" lon="11.627483783016908"><ele>303.0</ele><time>2026-03-29T09:32:50Z</time></trkpt><trkpt lat="43.269748241241956" lon="11.627406733658699"><ele>303.0</ele><time>2026-03-29T09:32:51Z</time></trkpt><trkpt lat="43.269668570643844" lon="11.627323546897411"><ele>303.0</ele><time>2026-03-29T09:32:52Z</time></trkpt><trkpt lat="43.26958707035236" lon="11.627245581636712"><ele>303.0</ele><time>2026-03-29T09:32:53Z</time></trkpt><trkpt lat="43.26950212850242" lon="11.627169553447006"><ele>303.0</ele><time>2026-03-29T09:32:54Z</time></trkpt><trkpt lat="43.26941597545839" lon="11.627094513076385"><ele>303.0</ele><time>2026-03-29T09:32:55Z</time></trkpt><trkpt lat="43.26932880893718" lon="11.627020744105065"><ele>303.0</ele><time>2026-03-29T09:32:56Z</time></trkpt><trkpt lat="43.269239570995396" lon="11.626947500754763"><ele>303.0</ele><time>2026-03-29T09:32:57Z</time></trkpt><trkpt lat="43.26914943949543" lon="11.62687532600718"><ele>303.0</ele><time>2026-03-29T09:32:58Z</time></trkpt><trkpt lat="43.26905919886174" lon="11.626807114217673"><ele>303.0</ele><time>2026-03-29T09:32:59Z</time></trkpt><trkpt lat="43.26896955294396" lon="11.626737241704948"><ele>303.0</ele><time>2026-03-29T09:33:00Z</time></trkpt><trkpt lat="43.26887963741744" lon="11.626668918493728"><ele>303.0</ele><time>2026-03-29T09:33:01Z</time></trkpt><trkpt lat="43.268791518413124" lon="11.626603305764746"><ele>303.0</ele><time>2026-03-29T09:33:02Z</time></trkpt><trkpt lat="43.26870315405636" lon="11.62653627669516"><ele>303.0</ele><time>2026-03-29T09:33:03Z</time></trkpt><trkpt lat="43.268616981149506" lon="11.62647367134983"><ele>303.0</ele><time>2026-03-29T09:33:04Z</time></trkpt><trkpt lat="43.26853388213669" lon="11.626415209078525"><ele>303.0</ele><time>2026-03-29T09:33:05Z</time></trkpt><trkpt lat="43.26845192233806" lon="11.626349559824613"><ele>303.0</ele><time>2026-03-29T09:33:06Z</time></trkpt><trkpt lat="43.26837171161521" lon="11.62628247722871"><ele>303.0</ele><time>2026-03-29T09:33:07Z</time></trkpt><trkpt lat="43.26829438258062" lon="11.626209191691085"><ele>303.0</ele><time>2026-03-29T09:33:08Z</time></trkpt><trkpt lat="43.268230405085085" lon="11.626114625469148"><ele>303.0</ele><time>2026-03-29T09:33:09Z</time></trkpt><trkpt lat="43.26818600461998" lon="11.626002882031397"><ele>303.0</ele><time>2026-03-29T09:33:10Z</time></trkpt><trkpt lat="43.26816368581405" lon="11.625881521863857"><ele>303.6</ele><time>2026-03-29T09:33:11Z</time></trkpt><trkpt lat="43.26813144561847" lon="11.625766126553518"><ele>304.20000000000005</ele><time>2026-03-29T09:33:12Z</time></trkpt><trkpt lat="43.26817800772427" lon="11.62563710971024"><ele>304.8</ele><time>2026-03-29T09:33:13Z</time></trkpt><trkpt lat="43.268205220711295" lon="11.625520919440193"><ele>305.40000000000003</ele><time>2026-03-29T09:33:14Z</time></trkpt><trkpt lat="43.26821906498774" lon="11.625405696013916"><ele>306.0</ele><time>2026-03-29T09:33:15Z</time></trkpt><trkpt lat="43.26830122037918" lon="11.62532859432267"><ele>306.6</ele><time>2026-03-29T09:33:16Z</time></trkpt><trkpt lat="43.268354701779174" lon="11.62523990999649"><ele>307.20000000000005</ele><time>2026-03-29T09:33:17Z</time></trkpt><trkpt lat="43.26842139216619" lon="11.625148726821273"><ele>307.79999999999995</ele><time>2026-03-29T09:33:18Z</time></trkpt><trkpt lat="43.26847678027953" lon="11.62505261613271"><ele>308.4</ele><time>2026-03-29T09:33:19Z</time></trkpt><trkpt lat="43.26853665245313" lon="11.624955005975401"><ele>309.0</ele><time>2026-03-29T09:33:20Z</time></trkpt><trkpt lat="43.26859863645558" lon="11.624859369936607"><ele>309.0</ele><time>2026-03-29T09:33:21Z</time></trkpt><trkpt lat="43.26866445227115" lon="11.624763806408852"><ele>309.0</ele><time>2026-03-29T09:33:22Z</time></trkpt><trkpt lat="43.26872830933467" lon="11.624665584448827"><ele>309.0</ele><time>2026-03-29T09:33:23Z</time></trkpt><trkpt lat="43.26879008097446" lon="11.624567465335398"><ele>309.0</ele><time>2026-03-29T09:33:24Z</time></trkpt><trkpt lat="43.26885251302656" lon="11.624471987445244"><ele>309.0</ele><time>2026-03-29T09:33:25Z</time></trkpt><trkpt lat="43.26891417776748" lon="11.62437724232298"><ele>309.8333333333333</ele><time>2026-03-29T09:33:26Z</time></trkpt><trkpt lat="43.26897655718123" lon="11.624283641243782"><ele>310.6666666666667</ele><time>2026-03-29T09:33:27Z</time></trkpt><trkpt lat="43.26903545202877" lon="11.624195000280809"><ele>311.5</ele><time>2026-03-29T09:33:28Z</time></trkpt><trkpt lat="43.26908719582516" lon="11.624102271377113"><ele>312.33333333333337</ele><time>2026-03-29T09:33:29Z</time></trkpt><trkpt lat="43.269141917917786" lon="11.624015990007665"><ele>313.1666666666667</ele><time>2026-03-29T09:33:30Z</time></trkpt><trkpt lat="43.26919894835434" lon="11.623931306376084"><ele>314.0</ele><time>2026-03-29T09:33:31Z</time></trkpt><trkpt lat="43.26925557900835" lon="11.6238431760729"><ele>314.0</ele><time>2026-03-29T09:33:32Z</time></trkpt><trkpt lat="43.2693138732056" lon="11.6237518107985"><ele>314.0</ele><time>2026-03-29T09:33:33Z</time></trkpt><trkpt lat="43.26937233668359" lon="11.623659515721975"><ele>314.0</ele><time>2026-03-29T09:33:34Z</time></trkpt><trkpt lat="43.26943034459824" lon="11.623568983150948"><ele>314.0</ele><time>2026-03-29T09:33:35Z</time></trkpt><trkpt lat="43.26949005925797" lon="11.623477640658212"><ele>314.0</ele><time>2026-03-29T09:33:36Z</time></trkpt><trkpt lat="43.26955437719834" lon="11.623390760242806"><ele>314.0</ele><time>2026-03-29T09:33:37Z</time></trkpt><trkpt lat="43.26962014698424" lon="11.623305443656339"><ele>314.8</ele><time>2026-03-29T09:33:38Z</time></trkpt><trkpt lat="43.26969148800845" lon="11.623223701108733"><ele>315.59999999999997</ele><time>2026-03-29T09:33:39Z</time></trkpt><trkpt lat="43.26976177679865" lon="11.623144147684023"><ele>316.4</ele><time>2026-03-29T09:33:40Z</time></trkpt><trkpt lat="43.269833411562274" lon="11.623063198350328"><ele>317.2</ele><time>2026-03-29T09:33:41Z</time></trkpt><trkpt lat="43.269905412372566" lon="11.622986189009682"><ele>318.0</ele><time>2026-03-29T09:33:42Z</time></trkpt><trkpt lat="43.26997813159761" lon="11.622907249182571"><ele>318.6</ele><time>2026-03-29T09:33:43Z</time></trkpt><trkpt lat="43.270050012648426" lon="11.622829820919673"><ele>319.20000000000005</ele><time>2026-03-29T09:33:44Z</time></trkpt><trkpt lat="43.27012212244096" lon="11.622750555112365"><ele>319.8</ele><time>2026-03-29T09:33:45Z</time></trkpt><trkpt lat="43.27019325688918" lon="11.622672037935759"><ele>320.40000000000003</ele><time>2026-03-29T09:33:46Z</time></trkpt><trkpt lat="43.27026446841262" lon="11.622591195123196"><ele>321.0</ele><time>2026-03-29T09:33:47Z</time></trkpt><trkpt lat="43.27033840495028" lon="11.622511503413516"><ele>322.0</ele><time>2026-03-29T09:33:48Z</time></trkpt><trkpt lat="43.27041302939552" lon="11.622431053533823"><ele>323.0</ele><time>2026-03-29T09:33:49Z</time></trkpt><trkpt lat="43.270490506320265" lon="11.622352226984384"><ele>324.0</ele><time>2026-03-29T09:33:50Z</time></trkpt><trkpt lat="43.27056235570186" lon="11.62227046755353"><ele>325.0</ele><time>2026-03-29T09:33:51Z</time></trkpt><trkpt lat="43.27063460601054" lon="11.62218781057789"><ele>326.0</ele><time>2026-03-29T09:33:52Z</time></trkpt><trkpt lat="43.27070885721166" lon="11.6221077314288"><ele>326.4</ele><time>2026-03-29T09:33:53Z</time></trkpt><trkpt lat="43.27078165340739" lon="11.622029033296696"><ele>326.8</ele><time>2026-03-29T09:33:54Z</time></trkpt><trkpt lat="43.270851649315354" lon="11.62194842602515"><ele>327.2</ele><time>2026-03-29T09:33:55Z</time></trkpt><trkpt lat="43.27091981097406" lon="11.62186771080638"><ele>327.59999999999997</ele><time>2026-03-29T09:33:56Z</time></trkpt><trkpt lat="43.27098986050627" lon="11.621790238805104"><ele>328.0</ele><time>2026-03-29T09:33:57Z</time></trkpt><trkpt lat="43.271053827016374" lon="11.621703914447048"><ele>329.2</ele><time>2026-03-29T09:33:58Z</time></trkpt><trkpt lat="43.27112053446459" lon="11.621617991531677"><ele>330.4</ele><time>2026-03-29T09:33:59Z</time></trkpt><trkpt lat="43.271187132266284" lon="11.621526533461473"><ele>331.59999999999997</ele><time>2026-03-29T09:34:00Z</time></trkpt><trkpt lat="43.271249235111185" lon="11.621430981082309"><ele>332.79999999999995</ele><time>2026-03-29T09:34:01Z</time></trkpt><trkpt lat="43.27131261049443" lon="11.621337747406663"><ele>334.0</ele><time>2026-03-29T09:34:02Z</time></trkpt><trkpt lat="43.271378911380644" lon="11.621241437764928"><ele>334.6</ele><time>2026-03-29T09:34:03Z</time></trkpt><trkpt lat="43.27144286439451" lon="11.621144852899219"><ele>335.2</ele><time>2026-03-29T09:34:04Z</time></trkpt><trkpt lat="43.27150939038712" lon="11.621053226420093"><ele>335.8</ele><time>2026-03-29T09:34:05Z</time></trkpt><trkpt lat="43.27157698999633" lon="11.620957235586253"><ele>336.40000000000003</ele><time>2026-03-29T09:34:06Z</time></trkpt><trkpt lat="43.27164432584802" lon="11.620857900435489"><ele>337.0</ele><time>2026-03-29T09:34:07Z</time></trkpt><trkpt lat="43.27170925304251" lon="11.620759098326573"><ele>337.0</ele><time>2026-03-29T09:34:08Z</time></trkpt><trkpt lat="43.271777650732815" lon="11.620660849372177"><ele>337.0</ele><time>2026-03-29T09:34:09Z</time></trkpt><trkpt lat="43.27184618692453" lon="11.620567048734259"><ele>337.0</ele><time>2026-03-29T09:34:10Z</time></trkpt><trkpt lat="43.27191347701933" lon="11.620469913876589"><ele>337.0</ele><time>2026-03-29T09:34:11Z</time></trkpt><trkpt lat="43.271981755459365" lon="11.620371563445284"><ele>337.0</ele><time>2026-03-29T09:34:12Z</time></trkpt><trkpt lat="43.272049637725765" lon="11.620270905525736"><ele>337.6</ele><time>2026-03-29T09:34:13Z</time></trkpt><trkpt lat="43.2721195798765" lon="11.620172120666226"><ele>338.20000000000005</ele><time>2026-03-29T09:34:14Z</time></trkpt><trkpt lat="43.27219079302028" lon="11.62007210997165"><ele>338.8</ele><time>2026-03-29T09:34:14.999Z</time></trkpt><trkpt lat="43.272259198125944" lon="11.619971750396912"><ele>339.4</ele><time>2026-03-29T09:34:15.999Z</time></trkpt><trkpt lat="43.27232828974237" lon="11.619870966931872"><ele>340.0</ele><time>2026-03-29T09:34:16.999Z</time></trkpt><trkpt lat="43.272395907017554" lon="11.619769984384936"><ele>340.0</ele><time>2026-03-29T09:34:17.999Z</time></trkpt><trkpt lat="43.27246355316673" lon="11.619667872700184"><ele>340.0</ele><time>2026-03-29T09:34:18.999Z</time></trkpt><trkpt lat="43.27252272126685" lon="11.619558888095257"><ele>340.0</ele><time>2026-03-29T09:34:19.999Z</time></trkpt><trkpt lat="43.27257332289389" lon="11.619437448703408"><ele>340.0</ele><time>2026-03-29T09:34:20.999Z</time></trkpt><trkpt lat="43.27260815430351" lon="11.619308237091126"><ele>340.0</ele><time>2026-03-29T09:34:21.999Z</time></trkpt><trkpt lat="43.272634959504416" lon="11.619174931714923"><ele>340.8</ele><time>2026-03-29T09:34:22.999Z</time></trkpt><trkpt lat="43.27265618696169" lon="11.619038252774178"><ele>341.6</ele><time>2026-03-29T09:34:23.999Z</time></trkpt><trkpt lat="43.27265670725277" lon="11.618897951321216"><ele>342.4</ele><time>2026-03-29T09:34:24.999Z</time></trkpt><trkpt lat="43.27268473592875" lon="11.618764392110506"><ele>343.2</ele><time>2026-03-29T09:34:25.999Z</time></trkpt><trkpt lat="43.27273048392695" lon="11.618631671340768"><ele>344.0</ele><time>2026-03-29T09:34:26.999Z</time></trkpt><trkpt lat="43.27277347184442" lon="11.61850243769332"><ele>344.4</ele><time>2026-03-29T09:34:27.999Z</time></trkpt><trkpt lat="43.27281999233582" lon="11.618384510105"><ele>344.79999999999995</ele><time>2026-03-29T09:34:28.999Z</time></trkpt><trkpt lat="43.27286991434553" lon="11.61826427045075"><ele>345.20000000000005</ele><time>2026-03-29T09:34:29.999Z</time></trkpt><trkpt lat="43.27291729889783" lon="11.61814511028639"><ele>345.6</ele><time>2026-03-29T09:34:30.999Z</time></trkpt><trkpt lat="43.2729597659573" lon="11.618022499482729"><ele>346.0</ele><time>2026-03-29T09:34:31.999Z</time></trkpt><trkpt lat="43.27300546198612" lon="11.617907782318223"><ele>347.4</ele><time>2026-03-29T09:34:32.999Z</time></trkpt><trkpt lat="43.27304915027962" lon="11.617793238366948"><ele>348.8</ele><time>2026-03-29T09:34:33.999Z</time></trkpt><trkpt lat="43.27309272594349" lon="11.617684011045942"><ele>350.2</ele><time>2026-03-29T09:34:34.999Z</time></trkpt><trkpt lat="43.27313611066383" lon="11.617576268666344"><ele>351.59999999999997</ele><time>2026-03-29T09:34:35.999Z</time></trkpt><trkpt lat="43.27318896449721" lon="11.617468275855817"><ele>353.0</ele><time>2026-03-29T09:34:36.999Z</time></trkpt><trkpt lat="43.273244749907626" lon="11.617364986552325"><ele>354.0</ele><time>2026-03-29T09:34:37.999Z</time></trkpt><trkpt lat="43.27330213341814" lon="11.617267592348442"><ele>355.0</ele><time>2026-03-29T09:34:38.999Z</time></trkpt><trkpt lat="43.273374778111894" lon="11.617177057285637"><ele>356.0</ele><time>2026-03-29T09:34:39.999Z</time></trkpt><trkpt lat="43.27344443180697" lon="11.617090720090552"><ele>357.0</ele><time>2026-03-29T09:34:40.999Z</time></trkpt><trkpt lat="43.273508613561695" lon="11.617007678602851"><ele>358.0</ele><time>2026-03-29T09:34:41.999Z</time></trkpt><trkpt lat="43.27357101268989" lon="11.616923461568382"><ele>358.0</ele><time>2026-03-29T09:34:42.999Z</time></trkpt><trkpt lat="43.27364647999924" lon="11.616844607748556"><ele>358.0</ele><time>2026-03-29T09:34:43.999Z</time></trkpt><trkpt lat="43.27370804433571" lon="11.616767690861835"><ele>358.0</ele><time>2026-03-29T09:34:44.999Z</time></trkpt><trkpt lat="43.27377222607743" lon="11.61668614924798"><ele>358.0</ele><time>2026-03-29T09:34:45.999Z</time></trkpt><trkpt lat="43.27384122040845" lon="11.616606865605364"><ele>358.0</ele><time>2026-03-29T09:34:46.999Z</time></trkpt><trkpt lat="43.27391077446599" lon="11.616530784731603"><ele>358.0</ele><time>2026-03-29T09:34:47.999Z</time></trkpt><trkpt lat="43.27398232115571" lon="11.616463038781273"><ele>358.66666666666663</ele><time>2026-03-29T09:34:48.999Z</time></trkpt><trkpt lat="43.274057923881635" lon="11.616398945668463"><ele>359.3333333333333</ele><time>2026-03-29T09:34:49.999Z</time></trkpt><trkpt lat="43.27412551715827" lon="11.61635663528225"><ele>360.0</ele><time>2026-03-29T09:34:50.999Z</time></trkpt><trkpt lat="43.27422261176145" lon="11.616305631940572"><ele>360.6666666666667</ele><time>2026-03-29T09:34:52Z</time></trkpt><trkpt lat="43.27430664784354" lon="11.616269689839369"><ele>361.33333333333337</ele><time>2026-03-29T09:34:53Z</time></trkpt><trkpt lat="43.27438919687758" lon="11.616243307592281"><ele>362.0</ele><time>2026-03-29T09:34:54Z</time></trkpt><trkpt lat="43.27447795677822" lon="11.616227795597283"><ele>362.0</ele><time>2026-03-29T09:34:55Z</time></trkpt><trkpt lat="43.274564468832786" lon="11.6162123049461"><ele>362.0</ele><time>2026-03-29T09:34:56Z</time></trkpt><trkpt lat="43.27465263917476" lon="11.616191341730493"><ele>362.0</ele><time>2026-03-29T09:34:57Z</time></trkpt><trkpt lat="43.27473556874701" lon="11.6161610564581"><ele>362.0</ele><time>2026-03-29T09:34:58Z</time></trkpt><trkpt lat="43.27481718178909" lon="11.616117346181829"><ele>362.0</ele><time>2026-03-29T09:34:59Z</time></trkpt><trkpt lat="43.27488955799871" lon="11.616056275079298"><ele>362.0</ele><time>2026-03-29T09:35:00Z</time></trkpt><trkpt lat="43.27495921807369" lon="11.615975493877633"><ele>361.8</ele><time>2026-03-29T09:35:01Z</time></trkpt><trkpt lat="43.27501016676545" lon="11.615875242465945"><ele>361.6</ele><time>2026-03-29T09:35:02Z</time></trkpt><trkpt lat="43.27504652580278" lon="11.615762695256873"><ele>361.40000000000003</ele><time>2026-03-29T09:35:03Z</time></trkpt><trkpt lat="43.27508859517324" lon="11.615647031882364"><ele>361.20000000000005</ele><time>2026-03-29T09:35:04Z</time></trkpt><trkpt lat="43.275141591469556" lon="11.615537870422322"><ele>361.0</ele><time>2026-03-29T09:35:05Z</time></trkpt><trkpt lat="43.27519953087933" lon="11.615434836191387"><ele>361.0</ele><time>2026-03-29T09:35:06Z</time></trkpt><trkpt lat="43.27526281926874" lon="11.615337530443663"><ele>361.0</ele><time>2026-03-29T09:35:07Z</time></trkpt><trkpt lat="43.27533433186763" lon="11.615248078104399"><ele>361.0</ele><time>2026-03-29T09:35:08Z</time></trkpt><trkpt lat="43.275409409173186" lon="11.615159203759356"><ele>361.0</ele><time>2026-03-29T09:35:09Z</time></trkpt><trkpt lat="43.2754839210678" lon="11.615069690161265"><ele>361.0</ele><time>2026-03-29T09:35:10Z</time></trkpt><trkpt lat="43.275558425160185" lon="11.614979287655594"><ele>362.6</ele><time>2026-03-29T09:35:11Z</time></trkpt><trkpt lat="43.27562960372658" lon="11.614889074387207"><ele>364.20000000000005</ele><time>2026-03-29T09:35:12Z</time></trkpt><trkpt lat="43.275699157200734" lon="11.614802345461925"><ele>365.79999999999995</ele><time>2026-03-29T09:35:13Z</time></trkpt><trkpt lat="43.275767097642074" lon="11.614706539151047"><ele>367.4</ele><time>2026-03-29T09:35:14Z</time></trkpt><trkpt lat="43.27584774717983" lon="11.614602317592546"><ele>369.0</ele><time>2026-03-29T09:35:15Z</time></trkpt><trkpt lat="43.2759080919812" lon="11.614499165260067"><ele>370.2</ele><time>2026-03-29T09:35:16Z</time></trkpt><trkpt lat="43.27593634014039" lon="11.614383986391179"><ele>371.4</ele><time>2026-03-29T09:35:17Z</time></trkpt><trkpt lat="43.27596888345401" lon="11.614263413676486"><ele>372.6</ele><time>2026-03-29T09:35:18Z</time></trkpt><trkpt lat="43.27599864982896" lon="11.614136781849192"><ele>373.8</ele><time>2026-03-29T09:35:19Z</time></trkpt><trkpt lat="43.27602508813976" lon="11.614014783134953"><ele>375.0</ele><time>2026-03-29T09:35:20Z</time></trkpt><trkpt lat="43.2760351272756" lon="11.613892518211763"><ele>375.0</ele><time>2026-03-29T09:35:21Z</time></trkpt><trkpt lat="43.27603869554629" lon="11.613764081537083"><ele>375.0</ele><time>2026-03-29T09:35:22Z</time></trkpt><trkpt lat="43.276047120297946" lon="11.613645606840288"><ele>375.0</ele><time>2026-03-29T09:35:23Z</time></trkpt><trkpt lat="43.27607930977345" lon="11.613531803822115"><ele>375.0</ele><time>2026-03-29T09:35:24Z</time></trkpt><trkpt lat="43.27612018689507" lon="11.613413577209009"><ele>375.0</ele><time>2026-03-29T09:35:25Z</time></trkpt><trkpt lat="43.276172136708325" lon="11.61330142144703"><ele>374.4</ele><time>2026-03-29T09:35:26Z</time></trkpt><trkpt lat="43.27624392394994" lon="11.613221809689101"><ele>373.8</ele><time>2026-03-29T09:35:27Z</time></trkpt><trkpt lat="43.2763099630749" lon="11.613132551678314"><ele>373.20000000000005</ele><time>2026-03-29T09:35:28Z</time></trkpt><trkpt lat="43.27638170883575" lon="11.6130399884917"><ele>372.6</ele><time>2026-03-29T09:35:29Z</time></trkpt><trkpt lat="43.27644991007631" lon="11.612944599754002"><ele>372.0</ele><time>2026-03-29T09:35:30Z</time></trkpt><trkpt lat="43.276518537696816" lon="11.612850691006026"><ele>371.0</ele><time>2026-03-29T09:35:31Z</time></trkpt><trkpt lat="43.27658847593534" lon="11.612761434129009"><ele>370.0</ele><time>2026-03-29T09:35:32Z</time></trkpt><trkpt lat="43.276660875433926" lon="11.612673489616112"><ele>369.0</ele><time>2026-03-29T09:35:33Z</time></trkpt><trkpt lat="43.27673737834889" lon="11.612594955311197"><ele>368.0</ele><time>2026-03-29T09:35:34Z</time></trkpt><trkpt lat="43.2768192037479" lon="11.612524477336702"><ele>367.0</ele><time>2026-03-29T09:35:35Z</time></trkpt><trkpt lat="43.27691311313143" lon="11.612457122994655"><ele>367.0</ele><time>2026-03-29T09:35:36Z</time></trkpt><trkpt lat="43.27700515320805" lon="11.612397613756775"><ele>367.0</ele><time>2026-03-29T09:35:37Z</time></trkpt><trkpt lat="43.277095863919705" lon="11.612338189730403"><ele>367.0</ele><time>2026-03-29T09:35:38Z</time></trkpt><trkpt lat="43.27718663589164" lon="11.612278451360746"><ele>367.0</ele><time>2026-03-29T09:35:39Z</time></trkpt><trkpt lat="43.27727167240257" lon="11.612217072363324"><ele>367.0</ele><time>2026-03-29T09:35:40Z</time></trkpt><trkpt lat="43.277357390975034" lon="11.612159577184526"><ele>369.20000000000005</ele><time>2026-03-29T09:35:41Z</time></trkpt><trkpt lat="43.27744091009674" lon="11.612101669090107"><ele>371.4</ele><time>2026-03-29T09:35:42Z</time></trkpt><trkpt lat="43.27752175261115" lon="11.612026851597157"><ele>373.6</ele><time>2026-03-29T09:35:43Z</time></trkpt><trkpt lat="43.27759375077627" lon="11.61194004230122"><ele>375.79999999999995</ele><time>2026-03-29T09:35:44Z</time></trkpt><trkpt lat="43.2776625129527" lon="11.611844433014276"><ele>378.0</ele><time>2026-03-29T09:35:45Z</time></trkpt><trkpt lat="43.27772614816957" lon="11.611741437989924"><ele>373.59999999999997</ele><time>2026-03-29T09:35:46Z</time></trkpt><trkpt lat="43.27778767558493" lon="11.611633035581326"><ele>369.2</ele><time>2026-03-29T09:35:47Z</time></trkpt><trkpt lat="43.27784693429269" lon="11.611520835726411"><ele>364.8</ele><time>2026-03-29T09:35:48Z</time></trkpt><trkpt lat="43.277911966649356" lon="11.61140920102681"><ele>360.4</ele><time>2026-03-29T09:35:49Z</time></trkpt><trkpt lat="43.27797475665059" lon="11.611294839114663"><ele>356.0</ele><time>2026-03-29T09:35:50Z</time></trkpt><trkpt lat="43.2780375692777" lon="11.61118229278859"><ele>355.8</ele><time>2026-03-29T09:35:51Z</time></trkpt><trkpt lat="43.27809822058779" lon="11.61107343249039"><ele>355.6</ele><time>2026-03-29T09:35:52Z</time></trkpt><trkpt lat="43.27816527092173" lon="11.61097351788236"><ele>355.4</ele><time>2026-03-29T09:35:53Z</time></trkpt><trkpt lat="43.27823830557198" lon="11.61088659447101"><ele>355.2</ele><time>2026-03-29T09:35:54Z</time></trkpt><trkpt lat="43.278319072538515" lon="11.610805488043383"><ele>355.0</ele><time>2026-03-29T09:35:55Z</time></trkpt><trkpt lat="43.27848788553407" lon="11.610676931566116"><ele>355.0</ele><time>2026-03-29T09:35:57Z</time></trkpt><trkpt lat="43.278573644703386" lon="11.610616641371355"><ele>355.0</ele><time>2026-03-29T09:35:58Z</time></trkpt><trkpt lat="43.27865875474701" lon="11.610565842028219"><ele>355.0</ele><time>2026-03-29T09:35:59Z</time></trkpt><trkpt lat="43.27874370144086" lon="11.610516442559124"><ele>355.0</ele><time>2026-03-29T09:36:00Z</time></trkpt><trkpt lat="43.2788271609309" lon="11.610465029580604"><ele>355.0</ele><time>2026-03-29T09:36:01Z</time></trkpt><trkpt lat="43.27891202904072" lon="11.610418681313726"><ele>357.0</ele><time>2026-03-29T09:36:02Z</time></trkpt><trkpt lat="43.27899521147036" lon="11.610374037678856"><ele>359.0</ele><time>2026-03-29T09:36:03Z</time></trkpt><trkpt lat="43.27907964766127" lon="11.610334129539503"><ele>361.0</ele><time>2026-03-29T09:36:04Z</time></trkpt><trkpt lat="43.279244532553584" lon="11.610265467788494"><ele>363.0</ele><time>2026-03-29T09:36:06Z</time></trkpt><trkpt lat="43.279327622407195" lon="11.610235483505411"><ele>365.0</ele><time>2026-03-29T09:36:07Z</time></trkpt><trkpt lat="43.27941060574543" lon="11.610207998014952"><ele>361.6666666666667</ele><time>2026-03-29T09:36:08Z</time></trkpt><trkpt lat="43.27949348999984" lon="11.6101819939414"><ele>358.33333333333337</ele><time>2026-03-29T09:36:09Z</time></trkpt><trkpt lat="43.279576442944176" lon="11.61015577114209"><ele>355.0</ele><time>2026-03-29T09:36:10Z</time></trkpt><trkpt lat="43.27966293109776" lon="11.61012628433163"><ele>351.6666666666667</ele><time>2026-03-29T09:36:11Z</time></trkpt><trkpt lat="43.27974562179344" lon="11.61010211272792"><ele>348.3333333333333</ele><time>2026-03-29T09:36:12Z</time></trkpt><trkpt lat="43.27983124937905" lon="11.610085640681627"><ele>345.0</ele><time>2026-03-29T09:36:13Z</time></trkpt><trkpt lat="43.27991902087497" lon="11.610076344075672"><ele>344.6666666666667</ele><time>2026-03-29T09:36:14Z</time></trkpt><trkpt lat="43.280004811847064" lon="11.610073546188646"><ele>344.3333333333333</ele><time>2026-03-29T09:36:15Z</time></trkpt><trkpt lat="43.280088267398156" lon="11.610079598702272"><ele>344.0</ele><time>2026-03-29T09:36:16Z</time></trkpt><trkpt lat="43.28017312574042" lon="11.610089351036137"><ele>343.66666666666663</ele><time>2026-03-29T09:36:17Z</time></trkpt><trkpt lat="43.28025512353399" lon="11.610108068489973"><ele>343.3333333333333</ele><time>2026-03-29T09:36:18Z</time></trkpt><trkpt lat="43.28033760353212" lon="11.610133172075882"><ele>343.0</ele><time>2026-03-29T09:36:19Z</time></trkpt><trkpt lat="43.28041632137565" lon="11.610159956828662"><ele>343.0</ele><time>2026-03-29T09:36:20Z</time></trkpt><trkpt lat="43.280495281684686" lon="11.61018951429726"><ele>343.0</ele><time>2026-03-29T09:36:21Z</time></trkpt><trkpt lat="43.28056833330199" lon="11.610224157769599"><ele>343.0</ele><time>2026-03-29T09:36:22Z</time></trkpt><trkpt lat="43.28063438379488" lon="11.61027518670885"><ele>343.0</ele><time>2026-03-29T09:36:23Z</time></trkpt><trkpt lat="43.28069279232771" lon="11.610333813414588"><ele>343.0</ele><time>2026-03-29T09:36:24Z</time></trkpt><trkpt lat="43.28074126672439" lon="11.61040315257696"><ele>343.0</ele><time>2026-03-29T09:36:25Z</time></trkpt><trkpt lat="43.2807880662595" lon="11.610470876198125"><ele>343.0</ele><time>2026-03-29T09:36:26Z</time></trkpt><trkpt lat="43.28083250215613" lon="11.610533917151908"><ele>344.5</ele><time>2026-03-29T09:36:26.999Z</time></trkpt><trkpt lat="43.280872942610706" lon="11.61060046441256"><ele>346.0</ele><time>2026-03-29T09:36:27.999Z</time></trkpt><trkpt lat="43.28095137003226" lon="11.61071372792295"><ele>347.5</ele><time>2026-03-29T09:36:29.999Z</time></trkpt><trkpt lat="43.28102397242394" lon="11.610764635411474"><ele>349.0</ele><time>2026-03-29T09:36:31.999Z</time></trkpt><trkpt lat="43.2810945335528" lon="11.610756702878017"><ele>350.5</ele><time>2026-03-29T09:36:33.999Z</time></trkpt><trkpt lat="43.28116037892681" lon="11.610699675892832"><ele>352.0</ele><time>2026-03-29T09:36:36.999Z</time></trkpt><trkpt lat="43.281184466869746" lon="11.610573218812567"><ele>352.0</ele><time>2026-03-29T09:36:38.999Z</time></trkpt><trkpt lat="43.281120356098555" lon="11.610475013196638"><ele>352.0</ele><time>2026-03-29T09:36:39.999Z</time></trkpt><trkpt lat="43.28108133762823" lon="11.610386582417593"><ele>352.0</ele><time>2026-03-29T09:36:40.999Z</time></trkpt><trkpt lat="43.28102877208811" lon="11.610294309409706"><ele>352.0</ele><time>2026-03-29T09:36:41.999Z</time></trkpt><trkpt lat="43.28096388499962" lon="11.610201347422622"><ele>352.0</ele><time>2026-03-29T09:36:42.999Z</time></trkpt><trkpt lat="43.28091048909818" lon="11.610110397663435"><ele>352.0</ele><time>2026-03-29T09:36:43.999Z</time></trkpt><trkpt lat="43.28085932141917" lon="11.610010742072488"><ele>348.8</ele><time>2026-03-29T09:36:44.999Z</time></trkpt><trkpt lat="43.280807554451414" lon="11.609904972280862"><ele>345.6</ele><time>2026-03-29T09:36:45.999Z</time></trkpt><trkpt lat="43.28075040505476" lon="11.609801998643883"><ele>342.40000000000003</ele><time>2026-03-29T09:36:46.999Z</time></trkpt><trkpt lat="43.28069805835936" lon="11.609694250999457"><ele>339.20000000000005</ele><time>2026-03-29T09:36:47.999Z</time></trkpt><trkpt lat="43.280687145649935" lon="11.609567610904364"><ele>336.0</ele><time>2026-03-29T09:36:48.999Z</time></trkpt><trkpt lat="43.280706682064675" lon="11.60944543659208"><ele>331.0</ele><time>2026-03-29T09:36:49.999Z</time></trkpt><trkpt lat="43.28071063490865" lon="11.609318061734857"><ele>331.0</ele><time>2026-03-29T09:36:50.999Z</time></trkpt><trkpt lat="43.28071560345216" lon="11.60918840648389"><ele>331.0</ele><time>2026-03-29T09:36:51.999Z</time></trkpt></trkseg></trk></gpx>